<?xml version="1.0" encoding="UTF-8" standalone="yes"?>
<gpx version="1.1" creator="outdooractive - http://www.outdooractive.com" xmlns="http://www.topografix.com/GPX/1/1" xmlns:xsi="http://www.w3.org/2001/XMLSchema-instance" xsi:schemaLocation="http://www.topografix.com/GPX/1/1 http://www.topografix.com/GPX/1/1/gpx.xsd" xmlns:oa="http://www.outdooractive.com/GPX/Extensions/1">
  <metadata>
    <name>Cesnola Chiaverina</name>
    <author>
      <name>Davide Vottero Reis - Community</name>
    </author>
    <link href="https://www.outdooractive.com/r/303815899"/>
    <time>2024-10-13T12:07:33.981Z</time>
    <extensions>
      <oa:oaCategory>trackHikingTourTrail</oa:oaCategory>
    </extensions>
  </metadata>
  <trk>
    <name>Cesnola Chiaverina</name>
    <type>trackHikingTourTrail</type>
    <trkseg>
      <trkpt lat="45.55765" lon="7.831642">
        <ele>377.29999</ele>
        <time>2024-10-13T08:24:11.368Z</time>
        <name>Via Umberto I, Settimo Vittone</name>
        <extensions>
          <oa:address>{
  &quot;title&quot; : &quot;Via Umberto I, Settimo Vittone&quot;
}</oa:address>
        </extensions>
      </trkpt>
      <trkpt lat="45.557732" lon="7.831582">
        <ele>383.04999</ele>
        <time>2024-10-13T08:24:13.353Z</time>
      </trkpt>
      <trkpt lat="45.557742" lon="7.831553">
        <ele>384.33334</ele>
        <time>2024-10-13T08:24:18.000Z</time>
      </trkpt>
      <trkpt lat="45.557735" lon="7.831528">
        <ele>384.85001</ele>
        <time>2024-10-13T08:24:19.000Z</time>
      </trkpt>
      <trkpt lat="45.557745" lon="7.831493">
        <ele>385.10001</ele>
        <time>2024-10-13T08:24:21.000Z</time>
      </trkpt>
      <trkpt lat="45.557767" lon="7.83146">
        <ele>384.96667</ele>
        <time>2024-10-13T08:24:23.000Z</time>
      </trkpt>
      <trkpt lat="45.557777" lon="7.831432">
        <ele>385.41431</ele>
        <time>2024-10-13T08:24:26.000Z</time>
      </trkpt>
      <trkpt lat="45.5578" lon="7.831417">
        <ele>385.72501</ele>
        <time>2024-10-13T08:24:28.000Z</time>
      </trkpt>
      <trkpt lat="45.557823" lon="7.831427">
        <ele>385.82224</ele>
        <time>2024-10-13T08:24:32.000Z</time>
      </trkpt>
      <trkpt lat="45.55784" lon="7.831457">
        <ele>385.76001</ele>
        <time>2024-10-13T08:24:35.000Z</time>
      </trkpt>
      <trkpt lat="45.55785" lon="7.831482">
        <ele>385.62726</ele>
        <time>2024-10-13T08:24:37.000Z</time>
      </trkpt>
      <trkpt lat="45.557855" lon="7.831508">
        <ele>385.49167</ele>
        <time>2024-10-13T08:24:42.000Z</time>
      </trkpt>
      <trkpt lat="45.557845" lon="7.831487">
        <ele>385.39996</ele>
        <time>2024-10-13T08:24:45.000Z</time>
      </trkpt>
      <trkpt lat="45.557855" lon="7.831448">
        <ele>385.3714</ele>
        <time>2024-10-13T08:24:47.000Z</time>
      </trkpt>
      <trkpt lat="45.557862" lon="7.831412">
        <ele>385.37332</ele>
        <time>2024-10-13T08:24:49.000Z</time>
      </trkpt>
      <trkpt lat="45.557872" lon="7.831383">
        <ele>385.41248</ele>
        <time>2024-10-13T08:24:51.000Z</time>
      </trkpt>
      <trkpt lat="45.557892" lon="7.831362">
        <ele>385.47055</ele>
        <time>2024-10-13T08:24:54.000Z</time>
      </trkpt>
      <trkpt lat="45.557915" lon="7.831358">
        <ele>385.55554</ele>
        <time>2024-10-13T08:24:56.000Z</time>
      </trkpt>
      <trkpt lat="45.557933" lon="7.831367">
        <ele>385.65259</ele>
        <time>2024-10-13T08:24:58.000Z</time>
      </trkpt>
      <trkpt lat="45.557948" lon="7.831395">
        <ele>385.74997</ele>
        <time>2024-10-13T08:25:00.000Z</time>
      </trkpt>
      <trkpt lat="45.557962" lon="7.83142">
        <ele>386.26999</ele>
        <time>2024-10-13T08:25:01.000Z</time>
      </trkpt>
      <trkpt lat="45.557973" lon="7.831448">
        <ele>386.21503</ele>
        <time>2024-10-13T08:25:03.000Z</time>
      </trkpt>
      <trkpt lat="45.557992" lon="7.831455">
        <ele>386.22003</ele>
        <time>2024-10-13T08:25:10.000Z</time>
      </trkpt>
      <trkpt lat="45.557973" lon="7.831458">
        <ele>386.35004</ele>
        <time>2024-10-13T08:25:16.000Z</time>
      </trkpt>
      <trkpt lat="45.557995" lon="7.831485">
        <ele>386.34003</ele>
        <time>2024-10-13T08:25:25.000Z</time>
      </trkpt>
      <trkpt lat="45.557993" lon="7.831458">
        <ele>386.38504</ele>
        <time>2024-10-13T08:25:26.000Z</time>
      </trkpt>
      <trkpt lat="45.557987" lon="7.831427">
        <ele>386.18002</ele>
        <time>2024-10-13T08:25:28.000Z</time>
      </trkpt>
      <trkpt lat="45.557997" lon="7.831395">
        <ele>385.91003</ele>
        <time>2024-10-13T08:25:31.000Z</time>
      </trkpt>
      <trkpt lat="45.55801" lon="7.831418">
        <ele>385.64005</ele>
        <time>2024-10-13T08:25:33.000Z</time>
      </trkpt>
      <trkpt lat="45.55803" lon="7.831417">
        <ele>385.39502</ele>
        <time>2024-10-13T08:25:35.000Z</time>
      </trkpt>
      <trkpt lat="45.558032" lon="7.831447">
        <ele>385.11005</ele>
        <time>2024-10-13T08:25:39.000Z</time>
      </trkpt>
      <trkpt lat="45.55801" lon="7.831438">
        <ele>384.83502</ele>
        <time>2024-10-13T08:25:42.000Z</time>
      </trkpt>
      <trkpt lat="45.557993" lon="7.831423">
        <ele>384.54004</ele>
        <time>2024-10-13T08:25:45.000Z</time>
      </trkpt>
      <trkpt lat="45.558013" lon="7.831432">
        <ele>384.18002</ele>
        <time>2024-10-13T08:25:50.000Z</time>
      </trkpt>
      <trkpt lat="45.558035" lon="7.831433">
        <ele>383.69003</ele>
        <time>2024-10-13T08:25:55.000Z</time>
      </trkpt>
      <trkpt lat="45.55806" lon="7.831435">
        <ele>383.16003</ele>
        <time>2024-10-13T08:26:02.000Z</time>
      </trkpt>
      <trkpt lat="45.558092" lon="7.831448">
        <ele>382.52505</ele>
        <time>2024-10-13T08:26:04.000Z</time>
      </trkpt>
      <trkpt lat="45.558087" lon="7.83141">
        <ele>381.88507</ele>
        <time>2024-10-13T08:26:12.000Z</time>
      </trkpt>
      <trkpt lat="45.558057" lon="7.831398">
        <ele>381.50006</ele>
        <time>2024-10-13T08:26:14.000Z</time>
      </trkpt>
      <trkpt lat="45.558035" lon="7.831397">
        <ele>381.16507</ele>
        <time>2024-10-13T08:26:16.000Z</time>
      </trkpt>
      <trkpt lat="45.558013" lon="7.831398">
        <ele>380.78506</ele>
        <time>2024-10-13T08:26:25.000Z</time>
      </trkpt>
      <trkpt lat="45.558015" lon="7.831372">
        <ele>380.36005</ele>
        <time>2024-10-13T08:26:34.000Z</time>
      </trkpt>
      <trkpt lat="45.558068" lon="7.831405">
        <ele>379.80505</ele>
        <time>2024-10-13T08:26:45.000Z</time>
      </trkpt>
      <trkpt lat="45.558092" lon="7.831435">
        <ele>379.09006</ele>
        <time>2024-10-13T08:26:46.000Z</time>
      </trkpt>
      <trkpt lat="45.558107" lon="7.83145">
        <ele>378.49506</ele>
        <time>2024-10-13T08:26:47.000Z</time>
      </trkpt>
      <trkpt lat="45.558123" lon="7.831462">
        <ele>377.90005</ele>
        <time>2024-10-13T08:26:48.000Z</time>
      </trkpt>
      <trkpt lat="45.558128" lon="7.831437">
        <ele>377.36005</ele>
        <time>2024-10-13T08:26:51.000Z</time>
      </trkpt>
      <trkpt lat="45.558127" lon="7.831403">
        <ele>376.88507</ele>
        <time>2024-10-13T08:26:54.000Z</time>
      </trkpt>
      <trkpt lat="45.558118" lon="7.83137">
        <ele>376.49506</ele>
        <time>2024-10-13T08:26:57.000Z</time>
      </trkpt>
      <trkpt lat="45.558112" lon="7.83134">
        <ele>376.16507</ele>
        <time>2024-10-13T08:26:58.000Z</time>
      </trkpt>
      <trkpt lat="45.558133" lon="7.831338">
        <ele>376.04507</ele>
        <time>2024-10-13T08:27:03.000Z</time>
      </trkpt>
      <trkpt lat="45.55815" lon="7.831327">
        <ele>375.89008</ele>
        <time>2024-10-13T08:27:07.000Z</time>
      </trkpt>
      <trkpt lat="45.55817" lon="7.83131">
        <ele>375.70007</ele>
        <time>2024-10-13T08:27:09.000Z</time>
      </trkpt>
      <trkpt lat="45.558192" lon="7.831293">
        <ele>375.51508</ele>
        <time>2024-10-13T08:27:11.000Z</time>
      </trkpt>
      <trkpt lat="45.558222" lon="7.831283">
        <ele>375.40009</ele>
        <time>2024-10-13T08:27:13.000Z</time>
      </trkpt>
      <trkpt lat="45.558242" lon="7.83128">
        <ele>375.31509</ele>
        <time>2024-10-13T08:27:14.000Z</time>
      </trkpt>
      <trkpt lat="45.558265" lon="7.831283">
        <ele>375.35507</ele>
        <time>2024-10-13T08:27:15.000Z</time>
      </trkpt>
      <trkpt lat="45.558285" lon="7.831278">
        <ele>375.40509</ele>
        <time>2024-10-13T08:27:16.000Z</time>
      </trkpt>
      <trkpt lat="45.558305" lon="7.831247">
        <ele>375.27509</ele>
        <time>2024-10-13T08:27:18.000Z</time>
      </trkpt>
      <trkpt lat="45.558322" lon="7.831232">
        <ele>375.11508</ele>
        <time>2024-10-13T08:27:19.000Z</time>
      </trkpt>
      <trkpt lat="45.558338" lon="7.831207">
        <ele>375.0351</ele>
        <time>2024-10-13T08:27:20.000Z</time>
      </trkpt>
      <trkpt lat="45.55835" lon="7.831183">
        <ele>375.05508</ele>
        <time>2024-10-13T08:27:21.000Z</time>
      </trkpt>
      <trkpt lat="45.558377" lon="7.831148">
        <ele>375.31509</ele>
        <time>2024-10-13T08:27:23.000Z</time>
      </trkpt>
      <trkpt lat="45.558402" lon="7.831117">
        <ele>375.69009</ele>
        <time>2024-10-13T08:27:25.000Z</time>
      </trkpt>
      <trkpt lat="45.558423" lon="7.831092">
        <ele>376.1701</ele>
        <time>2024-10-13T08:27:27.000Z</time>
      </trkpt>
      <trkpt lat="45.558432" lon="7.831062">
        <ele>376.71512</ele>
        <time>2024-10-13T08:27:29.000Z</time>
      </trkpt>
      <trkpt lat="45.558455" lon="7.83106">
        <ele>377.2851</ele>
        <time>2024-10-13T08:27:31.000Z</time>
      </trkpt>
      <trkpt lat="45.558475" lon="7.831067">
        <ele>377.94513</ele>
        <time>2024-10-13T08:27:34.000Z</time>
      </trkpt>
      <trkpt lat="45.558497" lon="7.831082">
        <ele>378.60013</ele>
        <time>2024-10-13T08:27:37.000Z</time>
      </trkpt>
      <trkpt lat="45.558508" lon="7.831057">
        <ele>379.22012</ele>
        <time>2024-10-13T08:27:40.000Z</time>
      </trkpt>
      <trkpt lat="45.558527" lon="7.83103">
        <ele>379.74512</ele>
        <time>2024-10-13T08:27:42.000Z</time>
      </trkpt>
      <trkpt lat="45.558542" lon="7.831008">
        <ele>380.33514</ele>
        <time>2024-10-13T08:27:45.000Z</time>
      </trkpt>
      <trkpt lat="45.558555" lon="7.831032">
        <ele>380.94012</ele>
        <time>2024-10-13T08:27:50.000Z</time>
      </trkpt>
      <trkpt lat="45.558578" lon="7.831038">
        <ele>381.51013</ele>
        <time>2024-10-13T08:27:52.000Z</time>
      </trkpt>
      <trkpt lat="45.5586" lon="7.83105">
        <ele>382.10016</ele>
        <time>2024-10-13T08:27:54.000Z</time>
      </trkpt>
      <trkpt lat="45.558612" lon="7.831073">
        <ele>382.68011</ele>
        <time>2024-10-13T08:27:56.000Z</time>
      </trkpt>
      <trkpt lat="45.55865" lon="7.831102">
        <ele>383.24512</ele>
        <time>2024-10-13T08:27:58.000Z</time>
      </trkpt>
      <trkpt lat="45.558682" lon="7.83112">
        <ele>383.77011</ele>
        <time>2024-10-13T08:28:00.000Z</time>
      </trkpt>
      <trkpt lat="45.558713" lon="7.831118">
        <ele>384.2901</ele>
        <time>2024-10-13T08:28:04.000Z</time>
      </trkpt>
      <trkpt lat="45.558723" lon="7.831097">
        <ele>384.7901</ele>
        <time>2024-10-13T08:28:05.000Z</time>
      </trkpt>
      <trkpt lat="45.558742" lon="7.831102">
        <ele>385.27512</ele>
        <time>2024-10-13T08:28:06.000Z</time>
      </trkpt>
      <trkpt lat="45.558767" lon="7.831095">
        <ele>385.82013</ele>
        <time>2024-10-13T08:28:07.000Z</time>
      </trkpt>
      <trkpt lat="45.558787" lon="7.831072">
        <ele>386.36011</ele>
        <time>2024-10-13T08:28:08.000Z</time>
      </trkpt>
      <trkpt lat="45.558805" lon="7.831055">
        <ele>386.9751</ele>
        <time>2024-10-13T08:28:09.000Z</time>
      </trkpt>
      <trkpt lat="45.558823" lon="7.831043">
        <ele>387.63507</ele>
        <time>2024-10-13T08:28:10.000Z</time>
      </trkpt>
      <trkpt lat="45.558845" lon="7.831052">
        <ele>388.51007</ele>
        <time>2024-10-13T08:28:13.000Z</time>
      </trkpt>
      <trkpt lat="45.55886" lon="7.831077">
        <ele>389.30008</ele>
        <time>2024-10-13T08:28:15.000Z</time>
      </trkpt>
      <trkpt lat="45.558878" lon="7.831105">
        <ele>389.92508</ele>
        <time>2024-10-13T08:28:17.000Z</time>
      </trkpt>
      <trkpt lat="45.558897" lon="7.831123">
        <ele>390.42007</ele>
        <time>2024-10-13T08:28:19.000Z</time>
      </trkpt>
      <trkpt lat="45.558883" lon="7.831143">
        <ele>390.91507</ele>
        <time>2024-10-13T08:28:27.000Z</time>
      </trkpt>
      <trkpt lat="45.558887" lon="7.83122">
        <ele>391.03006</ele>
        <time>2024-10-13T08:28:40.000Z</time>
      </trkpt>
      <trkpt lat="45.558883" lon="7.83126">
        <ele>391.10004</ele>
        <time>2024-10-13T08:28:50.000Z</time>
      </trkpt>
      <trkpt lat="45.558887" lon="7.831297">
        <ele>391.16504</ele>
        <time>2024-10-13T08:28:52.000Z</time>
      </trkpt>
      <trkpt lat="45.558882" lon="7.831337">
        <ele>391.26505</ele>
        <time>2024-10-13T08:28:54.000Z</time>
      </trkpt>
      <trkpt lat="45.558875" lon="7.831377">
        <ele>391.38004</ele>
        <time>2024-10-13T08:28:56.000Z</time>
      </trkpt>
      <trkpt lat="45.558875" lon="7.831408">
        <ele>391.46002</ele>
        <time>2024-10-13T08:28:58.000Z</time>
      </trkpt>
      <trkpt lat="45.558858" lon="7.83143">
        <ele>391.53006</ele>
        <time>2024-10-13T08:29:00.000Z</time>
      </trkpt>
      <trkpt lat="45.558877" lon="7.83144">
        <ele>391.57504</ele>
        <time>2024-10-13T08:29:02.000Z</time>
      </trkpt>
      <trkpt lat="45.558915" lon="7.83149">
        <ele>391.38507</ele>
        <time>2024-10-13T08:29:17.000Z</time>
      </trkpt>
      <trkpt lat="45.558945" lon="7.83153">
        <ele>391.09503</ele>
        <time>2024-10-13T08:29:19.000Z</time>
      </trkpt>
      <trkpt lat="45.55895" lon="7.831557">
        <ele>390.78503</ele>
        <time>2024-10-13T08:29:21.000Z</time>
      </trkpt>
      <trkpt lat="45.558958" lon="7.831595">
        <ele>390.32004</ele>
        <time>2024-10-13T08:29:23.000Z</time>
      </trkpt>
      <trkpt lat="45.558943" lon="7.831628">
        <ele>389.81503</ele>
        <time>2024-10-13T08:29:25.000Z</time>
      </trkpt>
      <trkpt lat="45.55892" lon="7.831655">
        <ele>389.20502</ele>
        <time>2024-10-13T08:29:27.000Z</time>
      </trkpt>
      <trkpt lat="45.558922" lon="7.831685">
        <ele>388.45502</ele>
        <time>2024-10-13T08:29:29.000Z</time>
      </trkpt>
      <trkpt lat="45.558937" lon="7.8317">
        <ele>387.44</ele>
        <time>2024-10-13T08:29:30.000Z</time>
      </trkpt>
      <trkpt lat="45.558962" lon="7.831717">
        <ele>386.40002</ele>
        <time>2024-10-13T08:29:32.000Z</time>
      </trkpt>
      <trkpt lat="45.55898" lon="7.83172">
        <ele>385.33002</ele>
        <time>2024-10-13T08:29:37.000Z</time>
      </trkpt>
      <trkpt lat="45.558957" lon="7.83172">
        <ele>384.52499</ele>
        <time>2024-10-13T08:29:55.000Z</time>
      </trkpt>
      <trkpt lat="45.558938" lon="7.83171">
        <ele>383.84</ele>
        <time>2024-10-13T08:29:57.000Z</time>
      </trkpt>
      <trkpt lat="45.558923" lon="7.831745">
        <ele>383.54999</ele>
        <time>2024-10-13T08:29:59.000Z</time>
      </trkpt>
      <trkpt lat="45.55893" lon="7.831773">
        <ele>383.28</ele>
        <time>2024-10-13T08:30:00.000Z</time>
      </trkpt>
      <trkpt lat="45.558933" lon="7.831803">
        <ele>383.02499</ele>
        <time>2024-10-13T08:30:01.000Z</time>
      </trkpt>
      <trkpt lat="45.558922" lon="7.831823">
        <ele>382.85001</ele>
        <time>2024-10-13T08:30:02.000Z</time>
      </trkpt>
      <trkpt lat="45.558935" lon="7.831857">
        <ele>382.60501</ele>
        <time>2024-10-13T08:30:04.000Z</time>
      </trkpt>
      <trkpt lat="45.558935" lon="7.831892">
        <ele>382.28</ele>
        <time>2024-10-13T08:30:07.000Z</time>
      </trkpt>
      <trkpt lat="45.558932" lon="7.831923">
        <ele>381.80499</ele>
        <time>2024-10-13T08:30:10.000Z</time>
      </trkpt>
      <trkpt lat="45.558953" lon="7.831935">
        <ele>381.19501</ele>
        <time>2024-10-13T08:30:15.000Z</time>
      </trkpt>
      <trkpt lat="45.558938" lon="7.831965">
        <ele>380.69501</ele>
        <time>2024-10-13T08:30:23.000Z</time>
      </trkpt>
      <trkpt lat="45.558913" lon="7.83199">
        <ele>380.29498</ele>
        <time>2024-10-13T08:30:25.000Z</time>
      </trkpt>
      <trkpt lat="45.558888" lon="7.832025">
        <ele>379.88</ele>
        <time>2024-10-13T08:30:27.000Z</time>
      </trkpt>
      <trkpt lat="45.558877" lon="7.832055">
        <ele>379.47501</ele>
        <time>2024-10-13T08:30:29.000Z</time>
      </trkpt>
      <trkpt lat="45.558882" lon="7.832093">
        <ele>379.01001</ele>
        <time>2024-10-13T08:30:31.000Z</time>
      </trkpt>
      <trkpt lat="45.558897" lon="7.83211">
        <ele>378.49503</ele>
        <time>2024-10-13T08:30:32.000Z</time>
      </trkpt>
      <trkpt lat="45.558892" lon="7.832135">
        <ele>378.04501</ele>
        <time>2024-10-13T08:30:35.000Z</time>
      </trkpt>
      <trkpt lat="45.55887" lon="7.832147">
        <ele>377.82001</ele>
        <time>2024-10-13T08:30:38.000Z</time>
      </trkpt>
      <trkpt lat="45.558852" lon="7.832152">
        <ele>377.84003</ele>
        <time>2024-10-13T08:30:58.000Z</time>
      </trkpt>
      <trkpt lat="45.558833" lon="7.832173">
        <ele>377.96503</ele>
        <time>2024-10-13T08:31:03.000Z</time>
      </trkpt>
      <trkpt lat="45.558853" lon="7.832177">
        <ele>377.90002</ele>
        <time>2024-10-13T08:31:05.000Z</time>
      </trkpt>
      <trkpt lat="45.558877" lon="7.832195">
        <ele>377.62006</ele>
        <time>2024-10-13T08:31:13.000Z</time>
      </trkpt>
      <trkpt lat="45.558885" lon="7.832223">
        <ele>377.27005</ele>
        <time>2024-10-13T08:31:16.000Z</time>
      </trkpt>
      <trkpt lat="45.558882" lon="7.832262">
        <ele>376.87503</ele>
        <time>2024-10-13T08:31:19.000Z</time>
      </trkpt>
      <trkpt lat="45.558878" lon="7.832288">
        <ele>376.47504</ele>
        <time>2024-10-13T08:31:22.000Z</time>
      </trkpt>
      <trkpt lat="45.55888" lon="7.832318">
        <ele>376.00504</ele>
        <time>2024-10-13T08:31:25.000Z</time>
      </trkpt>
      <trkpt lat="45.558868" lon="7.832352">
        <ele>375.58502</ele>
        <time>2024-10-13T08:31:27.000Z</time>
      </trkpt>
      <trkpt lat="45.558862" lon="7.832388">
        <ele>375.29004</ele>
        <time>2024-10-13T08:31:29.000Z</time>
      </trkpt>
      <trkpt lat="45.55887" lon="7.832412">
        <ele>375.12503</ele>
        <time>2024-10-13T08:31:30.000Z</time>
      </trkpt>
      <trkpt lat="45.558887" lon="7.832443">
        <ele>375.09003</ele>
        <time>2024-10-13T08:31:32.000Z</time>
      </trkpt>
      <trkpt lat="45.558893" lon="7.832468">
        <ele>375.14502</ele>
        <time>2024-10-13T08:31:36.000Z</time>
      </trkpt>
      <trkpt lat="45.558903" lon="7.832492">
        <ele>375.21503</ele>
        <time>2024-10-13T08:31:38.000Z</time>
      </trkpt>
      <trkpt lat="45.558925" lon="7.832515">
        <ele>375.345</ele>
        <time>2024-10-13T08:31:41.000Z</time>
      </trkpt>
      <trkpt lat="45.558947" lon="7.832537">
        <ele>375.53998</ele>
        <time>2024-10-13T08:31:43.000Z</time>
      </trkpt>
      <trkpt lat="45.558965" lon="7.83256">
        <ele>375.85999</ele>
        <time>2024-10-13T08:31:46.000Z</time>
      </trkpt>
      <trkpt lat="45.558983" lon="7.832568">
        <ele>376.19</ele>
        <time>2024-10-13T08:31:47.000Z</time>
      </trkpt>
      <trkpt lat="45.559008" lon="7.832573">
        <ele>376.465</ele>
        <time>2024-10-13T08:31:50.000Z</time>
      </trkpt>
      <trkpt lat="45.559027" lon="7.832577">
        <ele>376.61499</ele>
        <time>2024-10-13T08:31:54.000Z</time>
      </trkpt>
      <trkpt lat="45.559045" lon="7.832563">
        <ele>376.63498</ele>
        <time>2024-10-13T08:32:06.000Z</time>
      </trkpt>
      <trkpt lat="45.559055" lon="7.832542">
        <ele>376.565</ele>
        <time>2024-10-13T08:32:10.000Z</time>
      </trkpt>
      <trkpt lat="45.559045" lon="7.832573">
        <ele>376.50998</ele>
        <time>2024-10-13T08:32:32.000Z</time>
      </trkpt>
      <trkpt lat="45.55904" lon="7.832537">
        <ele>376.56998</ele>
        <time>2024-10-13T08:33:08.000Z</time>
      </trkpt>
      <trkpt lat="45.559052" lon="7.832558">
        <ele>376.62494</ele>
        <time>2024-10-13T08:33:10.000Z</time>
      </trkpt>
      <trkpt lat="45.559082" lon="7.832595">
        <ele>376.73996</ele>
        <time>2024-10-13T08:33:42.000Z</time>
      </trkpt>
      <trkpt lat="45.559057" lon="7.832595">
        <ele>376.84998</ele>
        <time>2024-10-13T08:33:45.000Z</time>
      </trkpt>
      <trkpt lat="45.559002" lon="7.832623">
        <ele>376.97498</ele>
        <time>2024-10-13T08:34:24.000Z</time>
      </trkpt>
      <trkpt lat="45.55898" lon="7.832633">
        <ele>377.13995</ele>
        <time>2024-10-13T08:34:26.000Z</time>
      </trkpt>
      <trkpt lat="45.558993" lon="7.832615">
        <ele>377.30997</ele>
        <time>2024-10-13T08:34:33.000Z</time>
      </trkpt>
      <trkpt lat="45.559007" lon="7.832637">
        <ele>377.48996</ele>
        <time>2024-10-13T08:34:37.000Z</time>
      </trkpt>
      <trkpt lat="45.55902" lon="7.832668">
        <ele>377.69495</ele>
        <time>2024-10-13T08:34:41.000Z</time>
      </trkpt>
      <trkpt lat="45.559028" lon="7.8327">
        <ele>377.82495</ele>
        <time>2024-10-13T08:34:43.000Z</time>
      </trkpt>
      <trkpt lat="45.559045" lon="7.832728">
        <ele>377.95996</ele>
        <time>2024-10-13T08:34:46.000Z</time>
      </trkpt>
      <trkpt lat="45.559055" lon="7.832758">
        <ele>378.08496</ele>
        <time>2024-10-13T08:34:50.000Z</time>
      </trkpt>
      <trkpt lat="45.559055" lon="7.832785">
        <ele>378.17496</ele>
        <time>2024-10-13T08:34:53.000Z</time>
      </trkpt>
      <trkpt lat="45.559062" lon="7.832812">
        <ele>378.17496</ele>
        <time>2024-10-13T08:34:57.000Z</time>
      </trkpt>
      <trkpt lat="45.559062" lon="7.832843">
        <ele>378.22495</ele>
        <time>2024-10-13T08:35:00.000Z</time>
      </trkpt>
      <trkpt lat="45.559065" lon="7.832872">
        <ele>378.30997</ele>
        <time>2024-10-13T08:35:03.000Z</time>
      </trkpt>
      <trkpt lat="45.559072" lon="7.832905">
        <ele>378.33997</ele>
        <time>2024-10-13T08:35:06.000Z</time>
      </trkpt>
      <trkpt lat="45.559077" lon="7.83293">
        <ele>378.33496</ele>
        <time>2024-10-13T08:35:09.000Z</time>
      </trkpt>
      <trkpt lat="45.559092" lon="7.832957">
        <ele>378.45996</ele>
        <time>2024-10-13T08:35:12.000Z</time>
      </trkpt>
      <trkpt lat="45.559098" lon="7.832982">
        <ele>378.61996</ele>
        <time>2024-10-13T08:35:14.000Z</time>
      </trkpt>
      <trkpt lat="45.559103" lon="7.833008">
        <ele>378.75998</ele>
        <time>2024-10-13T08:35:16.000Z</time>
      </trkpt>
      <trkpt lat="45.559108" lon="7.83304">
        <ele>378.95502</ele>
        <time>2024-10-13T08:35:20.000Z</time>
      </trkpt>
      <trkpt lat="45.559113" lon="7.83307">
        <ele>379.14999</ele>
        <time>2024-10-13T08:35:23.000Z</time>
      </trkpt>
      <trkpt lat="45.559123" lon="7.833092">
        <ele>379.405</ele>
        <time>2024-10-13T08:35:26.000Z</time>
      </trkpt>
      <trkpt lat="45.55913" lon="7.833117">
        <ele>379.72</ele>
        <time>2024-10-13T08:35:29.000Z</time>
      </trkpt>
      <trkpt lat="45.559128" lon="7.833147">
        <ele>380.08502</ele>
        <time>2024-10-13T08:35:32.000Z</time>
      </trkpt>
      <trkpt lat="45.559135" lon="7.833177">
        <ele>380.47003</ele>
        <time>2024-10-13T08:35:35.000Z</time>
      </trkpt>
      <trkpt lat="45.559142" lon="7.833205">
        <ele>380.85004</ele>
        <time>2024-10-13T08:35:38.000Z</time>
      </trkpt>
      <trkpt lat="45.559153" lon="7.83323">
        <ele>381.20001</ele>
        <time>2024-10-13T08:35:41.000Z</time>
      </trkpt>
      <trkpt lat="45.559178" lon="7.833243">
        <ele>381.58002</ele>
        <time>2024-10-13T08:35:44.000Z</time>
      </trkpt>
      <trkpt lat="45.559192" lon="7.833272">
        <ele>381.97504</ele>
        <time>2024-10-13T08:35:47.000Z</time>
      </trkpt>
      <trkpt lat="45.5592" lon="7.8333">
        <ele>382.34503</ele>
        <time>2024-10-13T08:35:50.000Z</time>
      </trkpt>
      <trkpt lat="45.559202" lon="7.833335">
        <ele>382.76007</ele>
        <time>2024-10-13T08:35:55.000Z</time>
      </trkpt>
      <trkpt lat="45.5592" lon="7.833362">
        <ele>383.18005</ele>
        <time>2024-10-13T08:35:57.000Z</time>
      </trkpt>
      <trkpt lat="45.559205" lon="7.833392">
        <ele>383.61005</ele>
        <time>2024-10-13T08:36:03.000Z</time>
      </trkpt>
      <trkpt lat="45.559232" lon="7.83341">
        <ele>384.02505</ele>
        <time>2024-10-13T08:36:06.000Z</time>
      </trkpt>
      <trkpt lat="45.559243" lon="7.83343">
        <ele>384.43506</ele>
        <time>2024-10-13T08:36:07.000Z</time>
      </trkpt>
      <trkpt lat="45.559245" lon="7.833458">
        <ele>384.91507</ele>
        <time>2024-10-13T08:36:09.000Z</time>
      </trkpt>
      <trkpt lat="45.559243" lon="7.833488">
        <ele>385.41006</ele>
        <time>2024-10-13T08:36:12.000Z</time>
      </trkpt>
      <trkpt lat="45.559243" lon="7.833517">
        <ele>385.89008</ele>
        <time>2024-10-13T08:36:16.000Z</time>
      </trkpt>
      <trkpt lat="45.559258" lon="7.833545">
        <ele>386.40005</ele>
        <time>2024-10-13T08:36:20.000Z</time>
      </trkpt>
      <trkpt lat="45.559265" lon="7.833575">
        <ele>386.89005</ele>
        <time>2024-10-13T08:36:22.000Z</time>
      </trkpt>
      <trkpt lat="45.55927" lon="7.833607">
        <ele>387.40503</ele>
        <time>2024-10-13T08:36:26.000Z</time>
      </trkpt>
      <trkpt lat="45.559282" lon="7.833627">
        <ele>388.00504</ele>
        <time>2024-10-13T08:36:33.000Z</time>
      </trkpt>
      <trkpt lat="45.559293" lon="7.833647">
        <ele>388.55502</ele>
        <time>2024-10-13T08:36:35.000Z</time>
      </trkpt>
      <trkpt lat="45.559298" lon="7.833682">
        <ele>389.06</ele>
        <time>2024-10-13T08:36:38.000Z</time>
      </trkpt>
      <trkpt lat="45.559303" lon="7.83372">
        <ele>389.54001</ele>
        <time>2024-10-13T08:36:43.000Z</time>
      </trkpt>
      <trkpt lat="45.559303" lon="7.833752">
        <ele>390.035</ele>
        <time>2024-10-13T08:36:46.000Z</time>
      </trkpt>
      <trkpt lat="45.55931" lon="7.83378">
        <ele>390.58002</ele>
        <time>2024-10-13T08:36:48.000Z</time>
      </trkpt>
      <trkpt lat="45.559303" lon="7.833805">
        <ele>391.13504</ele>
        <time>2024-10-13T08:36:51.000Z</time>
      </trkpt>
      <trkpt lat="45.559287" lon="7.833823">
        <ele>391.69003</ele>
        <time>2024-10-13T08:36:55.000Z</time>
      </trkpt>
      <trkpt lat="45.559268" lon="7.833818">
        <ele>392.27502</ele>
        <time>2024-10-13T08:36:57.000Z</time>
      </trkpt>
      <trkpt lat="45.559242" lon="7.833803">
        <ele>392.84003</ele>
        <time>2024-10-13T08:36:59.000Z</time>
      </trkpt>
      <trkpt lat="45.559223" lon="7.833808">
        <ele>393.41501</ele>
        <time>2024-10-13T08:37:01.000Z</time>
      </trkpt>
      <trkpt lat="45.559208" lon="7.83378">
        <ele>394.01501</ele>
        <time>2024-10-13T08:37:06.000Z</time>
      </trkpt>
      <trkpt lat="45.559197" lon="7.833738">
        <ele>394.66501</ele>
        <time>2024-10-13T08:37:09.000Z</time>
      </trkpt>
      <trkpt lat="45.55918" lon="7.83371">
        <ele>395.28</ele>
        <time>2024-10-13T08:37:11.000Z</time>
      </trkpt>
      <trkpt lat="45.559162" lon="7.833687">
        <ele>395.85501</ele>
        <time>2024-10-13T08:37:13.000Z</time>
      </trkpt>
      <trkpt lat="45.559153" lon="7.833713">
        <ele>396.33002</ele>
        <time>2024-10-13T08:37:20.000Z</time>
      </trkpt>
      <trkpt lat="45.559162" lon="7.833745">
        <ele>396.81</ele>
        <time>2024-10-13T08:37:22.000Z</time>
      </trkpt>
      <trkpt lat="45.55917" lon="7.83377">
        <ele>397.30499</ele>
        <time>2024-10-13T08:37:26.000Z</time>
      </trkpt>
      <trkpt lat="45.559183" lon="7.833793">
        <ele>397.815</ele>
        <time>2024-10-13T08:37:28.000Z</time>
      </trkpt>
      <trkpt lat="45.559183" lon="7.833827">
        <ele>398.31</ele>
        <time>2024-10-13T08:37:32.000Z</time>
      </trkpt>
      <trkpt lat="45.559195" lon="7.833852">
        <ele>398.745</ele>
        <time>2024-10-13T08:37:35.000Z</time>
      </trkpt>
      <trkpt lat="45.559198" lon="7.833885">
        <ele>399.215</ele>
        <time>2024-10-13T08:37:40.000Z</time>
      </trkpt>
      <trkpt lat="45.559195" lon="7.833922">
        <ele>399.655</ele>
        <time>2024-10-13T08:37:43.000Z</time>
      </trkpt>
      <trkpt lat="45.55919" lon="7.833947">
        <ele>400.03998</ele>
        <time>2024-10-13T08:37:46.000Z</time>
      </trkpt>
      <trkpt lat="45.559182" lon="7.833977">
        <ele>400.47998</ele>
        <time>2024-10-13T08:37:52.000Z</time>
      </trkpt>
      <trkpt lat="45.559183" lon="7.834007">
        <ele>400.95499</ele>
        <time>2024-10-13T08:37:55.000Z</time>
      </trkpt>
      <trkpt lat="45.55919" lon="7.834033">
        <ele>401.47498</ele>
        <time>2024-10-13T08:37:59.000Z</time>
      </trkpt>
      <trkpt lat="45.559187" lon="7.834063">
        <ele>402.00497</ele>
        <time>2024-10-13T08:38:03.000Z</time>
      </trkpt>
      <trkpt lat="45.559197" lon="7.834085">
        <ele>402.57498</ele>
        <time>2024-10-13T08:38:07.000Z</time>
      </trkpt>
      <trkpt lat="45.55915" lon="7.834095">
        <ele>403.26996</ele>
        <time>2024-10-13T08:38:18.000Z</time>
      </trkpt>
      <trkpt lat="45.559127" lon="7.83409">
        <ele>403.98999</ele>
        <time>2024-10-13T08:38:23.000Z</time>
      </trkpt>
      <trkpt lat="45.559103" lon="7.834093">
        <ele>404.715</ele>
        <time>2024-10-13T08:38:27.000Z</time>
      </trkpt>
      <trkpt lat="45.559073" lon="7.834093">
        <ele>405.44501</ele>
        <time>2024-10-13T08:38:30.000Z</time>
      </trkpt>
      <trkpt lat="45.559047" lon="7.834102">
        <ele>406.28</ele>
        <time>2024-10-13T08:38:34.000Z</time>
      </trkpt>
      <trkpt lat="45.559025" lon="7.834095">
        <ele>407.12003</ele>
        <time>2024-10-13T08:38:36.000Z</time>
      </trkpt>
      <trkpt lat="45.559002" lon="7.834077">
        <ele>408.02502</ele>
        <time>2024-10-13T08:38:39.000Z</time>
      </trkpt>
      <trkpt lat="45.558982" lon="7.834062">
        <ele>408.92004</ele>
        <time>2024-10-13T08:38:41.000Z</time>
      </trkpt>
      <trkpt lat="45.558963" lon="7.83406">
        <ele>409.77505</ele>
        <time>2024-10-13T08:38:43.000Z</time>
      </trkpt>
      <trkpt lat="45.55894" lon="7.834082">
        <ele>410.60004</ele>
        <time>2024-10-13T08:38:46.000Z</time>
      </trkpt>
      <trkpt lat="45.55892" lon="7.834083">
        <ele>411.42505</ele>
        <time>2024-10-13T08:38:49.000Z</time>
      </trkpt>
      <trkpt lat="45.558902" lon="7.83409">
        <ele>412.24506</ele>
        <time>2024-10-13T08:38:54.000Z</time>
      </trkpt>
      <trkpt lat="45.558863" lon="7.834113">
        <ele>413.15509</ele>
        <time>2024-10-13T08:39:22.000Z</time>
      </trkpt>
      <trkpt lat="45.558855" lon="7.83414">
        <ele>414.08505</ele>
        <time>2024-10-13T08:39:24.000Z</time>
      </trkpt>
      <trkpt lat="45.558847" lon="7.83417">
        <ele>415.06503</ele>
        <time>2024-10-13T08:39:26.000Z</time>
      </trkpt>
      <trkpt lat="45.558835" lon="7.834197">
        <ele>415.98505</ele>
        <time>2024-10-13T08:39:28.000Z</time>
      </trkpt>
      <trkpt lat="45.55882" lon="7.834215">
        <ele>416.86005</ele>
        <time>2024-10-13T08:39:31.000Z</time>
      </trkpt>
      <trkpt lat="45.558802" lon="7.834227">
        <ele>417.70004</ele>
        <time>2024-10-13T08:39:36.000Z</time>
      </trkpt>
      <trkpt lat="45.558802" lon="7.834257">
        <ele>418.51007</ele>
        <time>2024-10-13T08:39:39.000Z</time>
      </trkpt>
      <trkpt lat="45.558788" lon="7.83428">
        <ele>419.23007</ele>
        <time>2024-10-13T08:39:41.000Z</time>
      </trkpt>
      <trkpt lat="45.558782" lon="7.834305">
        <ele>419.77008</ele>
        <time>2024-10-13T08:39:43.000Z</time>
      </trkpt>
      <trkpt lat="45.558773" lon="7.83433">
        <ele>420.24506</ele>
        <time>2024-10-13T08:39:45.000Z</time>
      </trkpt>
      <trkpt lat="45.558772" lon="7.834362">
        <ele>420.63507</ele>
        <time>2024-10-13T08:39:50.000Z</time>
      </trkpt>
      <trkpt lat="45.558785" lon="7.834392">
        <ele>421.00006</ele>
        <time>2024-10-13T08:39:54.000Z</time>
      </trkpt>
      <trkpt lat="45.558773" lon="7.834417">
        <ele>421.37003</ele>
        <time>2024-10-13T08:39:59.000Z</time>
      </trkpt>
      <trkpt lat="45.558777" lon="7.834447">
        <ele>421.80502</ele>
        <time>2024-10-13T08:40:02.000Z</time>
      </trkpt>
      <trkpt lat="45.55876" lon="7.834463">
        <ele>422.29004</ele>
        <time>2024-10-13T08:40:03.000Z</time>
      </trkpt>
      <trkpt lat="45.558747" lon="7.834483">
        <ele>422.785</ele>
        <time>2024-10-13T08:40:04.000Z</time>
      </trkpt>
      <trkpt lat="45.558742" lon="7.834508">
        <ele>423.38501</ele>
        <time>2024-10-13T08:40:06.000Z</time>
      </trkpt>
      <trkpt lat="45.55875" lon="7.834532">
        <ele>424.14502</ele>
        <time>2024-10-13T08:40:09.000Z</time>
      </trkpt>
      <trkpt lat="45.558765" lon="7.834557">
        <ele>424.90503</ele>
        <time>2024-10-13T08:40:12.000Z</time>
      </trkpt>
      <trkpt lat="45.55878" lon="7.834538">
        <ele>425.58002</ele>
        <time>2024-10-13T08:40:18.000Z</time>
      </trkpt>
      <trkpt lat="45.55879" lon="7.834573">
        <ele>426.10504</ele>
        <time>2024-10-13T08:40:28.000Z</time>
      </trkpt>
      <trkpt lat="45.558793" lon="7.834605">
        <ele>426.61505</ele>
        <time>2024-10-13T08:40:30.000Z</time>
      </trkpt>
      <trkpt lat="45.558807" lon="7.834633">
        <ele>427.11005</ele>
        <time>2024-10-13T08:40:33.000Z</time>
      </trkpt>
      <trkpt lat="45.558805" lon="7.834662">
        <ele>427.60504</ele>
        <time>2024-10-13T08:40:37.000Z</time>
      </trkpt>
      <trkpt lat="45.558807" lon="7.834692">
        <ele>428.09003</ele>
        <time>2024-10-13T08:40:40.000Z</time>
      </trkpt>
      <trkpt lat="45.558817" lon="7.834727">
        <ele>428.57504</ele>
        <time>2024-10-13T08:40:43.000Z</time>
      </trkpt>
      <trkpt lat="45.558823" lon="7.834753">
        <ele>429.07504</ele>
        <time>2024-10-13T08:40:46.000Z</time>
      </trkpt>
      <trkpt lat="45.558837" lon="7.834772">
        <ele>429.62003</ele>
        <time>2024-10-13T08:40:50.000Z</time>
      </trkpt>
      <trkpt lat="45.558857" lon="7.834778">
        <ele>430.25504</ele>
        <time>2024-10-13T08:40:55.000Z</time>
      </trkpt>
      <trkpt lat="45.558863" lon="7.834835">
        <ele>430.92499</ele>
        <time>2024-10-13T08:41:03.000Z</time>
      </trkpt>
      <trkpt lat="45.558865" lon="7.834863">
        <ele>431.60001</ele>
        <time>2024-10-13T08:41:05.000Z</time>
      </trkpt>
      <trkpt lat="45.558853" lon="7.834892">
        <ele>432.26001</ele>
        <time>2024-10-13T08:41:07.000Z</time>
      </trkpt>
      <trkpt lat="45.55884" lon="7.834913">
        <ele>432.83502</ele>
        <time>2024-10-13T08:41:09.000Z</time>
      </trkpt>
      <trkpt lat="45.558827" lon="7.834932">
        <ele>433.31998</ele>
        <time>2024-10-13T08:41:12.000Z</time>
      </trkpt>
      <trkpt lat="45.558827" lon="7.834962">
        <ele>433.77499</ele>
        <time>2024-10-13T08:41:16.000Z</time>
      </trkpt>
      <trkpt lat="45.558815" lon="7.834995">
        <ele>434.25504</ele>
        <time>2024-10-13T08:41:19.000Z</time>
      </trkpt>
      <trkpt lat="45.558803" lon="7.835025">
        <ele>434.64999</ele>
        <time>2024-10-13T08:41:21.000Z</time>
      </trkpt>
      <trkpt lat="45.558808" lon="7.835053">
        <ele>434.90997</ele>
        <time>2024-10-13T08:41:23.000Z</time>
      </trkpt>
      <trkpt lat="45.558813" lon="7.83508">
        <ele>435.17993</ele>
        <time>2024-10-13T08:41:26.000Z</time>
      </trkpt>
      <trkpt lat="45.558822" lon="7.835103">
        <ele>435.49994</ele>
        <time>2024-10-13T08:41:29.000Z</time>
      </trkpt>
      <trkpt lat="45.558827" lon="7.835132">
        <ele>435.86996</ele>
        <time>2024-10-13T08:41:33.000Z</time>
      </trkpt>
      <trkpt lat="45.558807" lon="7.83514">
        <ele>436.38995</ele>
        <time>2024-10-13T08:41:49.000Z</time>
      </trkpt>
      <trkpt lat="45.558813" lon="7.835165">
        <ele>436.90991</ele>
        <time>2024-10-13T08:41:51.000Z</time>
      </trkpt>
      <trkpt lat="45.558825" lon="7.835195">
        <ele>437.40991</ele>
        <time>2024-10-13T08:41:54.000Z</time>
      </trkpt>
      <trkpt lat="45.55883" lon="7.835223">
        <ele>437.89487</ele>
        <time>2024-10-13T08:41:57.000Z</time>
      </trkpt>
      <trkpt lat="45.558825" lon="7.835253">
        <ele>438.34488</ele>
        <time>2024-10-13T08:42:00.000Z</time>
      </trkpt>
      <trkpt lat="45.558822" lon="7.835287">
        <ele>438.75488</ele>
        <time>2024-10-13T08:42:02.000Z</time>
      </trkpt>
      <trkpt lat="45.558837" lon="7.83532">
        <ele>439.1149</ele>
        <time>2024-10-13T08:42:05.000Z</time>
      </trkpt>
      <trkpt lat="45.558852" lon="7.835342">
        <ele>439.41992</ele>
        <time>2024-10-13T08:42:07.000Z</time>
      </trkpt>
      <trkpt lat="45.558847" lon="7.83537">
        <ele>439.69492</ele>
        <time>2024-10-13T08:42:10.000Z</time>
      </trkpt>
      <trkpt lat="45.55884" lon="7.835407">
        <ele>439.99991</ele>
        <time>2024-10-13T08:42:13.000Z</time>
      </trkpt>
      <trkpt lat="45.558828" lon="7.835438">
        <ele>440.30988</ele>
        <time>2024-10-13T08:42:15.000Z</time>
      </trkpt>
      <trkpt lat="45.558825" lon="7.835468">
        <ele>440.65488</ele>
        <time>2024-10-13T08:42:18.000Z</time>
      </trkpt>
      <trkpt lat="45.558813" lon="7.835495">
        <ele>441.04492</ele>
        <time>2024-10-13T08:42:21.000Z</time>
      </trkpt>
      <trkpt lat="45.558812" lon="7.835523">
        <ele>441.47992</ele>
        <time>2024-10-13T08:42:24.000Z</time>
      </trkpt>
      <trkpt lat="45.558825" lon="7.835547">
        <ele>441.91495</ele>
        <time>2024-10-13T08:42:27.000Z</time>
      </trkpt>
      <trkpt lat="45.558845" lon="7.835545">
        <ele>442.40997</ele>
        <time>2024-10-13T08:42:35.000Z</time>
      </trkpt>
      <trkpt lat="45.558833" lon="7.83558">
        <ele>442.815</ele>
        <time>2024-10-13T08:42:48.000Z</time>
      </trkpt>
      <trkpt lat="45.558837" lon="7.83561">
        <ele>443.16498</ele>
        <time>2024-10-13T08:42:53.000Z</time>
      </trkpt>
      <trkpt lat="45.558835" lon="7.835638">
        <ele>443.52499</ele>
        <time>2024-10-13T08:42:58.000Z</time>
      </trkpt>
      <trkpt lat="45.558842" lon="7.835665">
        <ele>443.85995</ele>
        <time>2024-10-13T08:43:02.000Z</time>
      </trkpt>
      <trkpt lat="45.558837" lon="7.835697">
        <ele>444.11499</ele>
        <time>2024-10-13T08:43:10.000Z</time>
      </trkpt>
      <trkpt lat="45.558837" lon="7.835733">
        <ele>444.42999</ele>
        <time>2024-10-13T08:43:15.000Z</time>
      </trkpt>
      <trkpt lat="45.55884" lon="7.835763">
        <ele>444.77997</ele>
        <time>2024-10-13T08:43:17.000Z</time>
      </trkpt>
      <trkpt lat="45.558847" lon="7.835788">
        <ele>445.15497</ele>
        <time>2024-10-13T08:43:19.000Z</time>
      </trkpt>
      <trkpt lat="45.55885" lon="7.835815">
        <ele>445.63998</ele>
        <time>2024-10-13T08:43:26.000Z</time>
      </trkpt>
      <trkpt lat="45.558872" lon="7.835823">
        <ele>446.21997</ele>
        <time>2024-10-13T08:43:34.000Z</time>
      </trkpt>
      <trkpt lat="45.558888" lon="7.83584">
        <ele>446.83496</ele>
        <time>2024-10-13T08:43:37.000Z</time>
      </trkpt>
      <trkpt lat="45.558907" lon="7.83584">
        <ele>447.45493</ele>
        <time>2024-10-13T08:43:41.000Z</time>
      </trkpt>
      <trkpt lat="45.558895" lon="7.835862">
        <ele>448.08994</ele>
        <time>2024-10-13T08:43:46.000Z</time>
      </trkpt>
      <trkpt lat="45.558898" lon="7.835898">
        <ele>448.70996</ele>
        <time>2024-10-13T08:43:49.000Z</time>
      </trkpt>
      <trkpt lat="45.558923" lon="7.835918">
        <ele>449.32501</ele>
        <time>2024-10-13T08:43:52.000Z</time>
      </trkpt>
      <trkpt lat="45.558943" lon="7.835932">
        <ele>449.95499</ele>
        <time>2024-10-13T08:43:55.000Z</time>
      </trkpt>
      <trkpt lat="45.558955" lon="7.835957">
        <ele>450.60498</ele>
        <time>2024-10-13T08:44:00.000Z</time>
      </trkpt>
      <trkpt lat="45.558962" lon="7.835987">
        <ele>451.22495</ele>
        <time>2024-10-13T08:44:04.000Z</time>
      </trkpt>
      <trkpt lat="45.558968" lon="7.836013">
        <ele>451.88492</ele>
        <time>2024-10-13T08:44:10.000Z</time>
      </trkpt>
      <trkpt lat="45.558988" lon="7.836023">
        <ele>452.51489</ele>
        <time>2024-10-13T08:44:13.000Z</time>
      </trkpt>
      <trkpt lat="45.559002" lon="7.836045">
        <ele>453.24991</ele>
        <time>2024-10-13T08:44:16.000Z</time>
      </trkpt>
      <trkpt lat="45.559015" lon="7.83607">
        <ele>454.0249</ele>
        <time>2024-10-13T08:44:22.000Z</time>
      </trkpt>
      <trkpt lat="45.559022" lon="7.8361">
        <ele>454.86987</ele>
        <time>2024-10-13T08:44:27.000Z</time>
      </trkpt>
      <trkpt lat="45.559028" lon="7.836127">
        <ele>455.72491</ele>
        <time>2024-10-13T08:44:33.000Z</time>
      </trkpt>
      <trkpt lat="45.55905" lon="7.83613">
        <ele>456.56989</ele>
        <time>2024-10-13T08:44:41.000Z</time>
      </trkpt>
      <trkpt lat="45.559078" lon="7.836162">
        <ele>457.42987</ele>
        <time>2024-10-13T08:44:45.000Z</time>
      </trkpt>
      <trkpt lat="45.559092" lon="7.836187">
        <ele>458.31488</ele>
        <time>2024-10-13T08:44:47.000Z</time>
      </trkpt>
      <trkpt lat="45.559107" lon="7.836207">
        <ele>459.27994</ele>
        <time>2024-10-13T08:44:50.000Z</time>
      </trkpt>
      <trkpt lat="45.559128" lon="7.836202">
        <ele>460.21494</ele>
        <time>2024-10-13T08:44:55.000Z</time>
      </trkpt>
      <trkpt lat="45.559143" lon="7.836227">
        <ele>461.06494</ele>
        <time>2024-10-13T08:44:58.000Z</time>
      </trkpt>
      <trkpt lat="45.559133" lon="7.836255">
        <ele>461.84497</ele>
        <time>2024-10-13T08:45:00.000Z</time>
      </trkpt>
      <trkpt lat="45.559138" lon="7.83629">
        <ele>462.60498</ele>
        <time>2024-10-13T08:45:02.000Z</time>
      </trkpt>
      <trkpt lat="45.559137" lon="7.836318">
        <ele>463.19498</ele>
        <time>2024-10-13T08:45:06.000Z</time>
      </trkpt>
      <trkpt lat="45.559122" lon="7.836287">
        <ele>463.67999</ele>
        <time>2024-10-13T08:45:12.000Z</time>
      </trkpt>
      <trkpt lat="45.559148" lon="7.83627">
        <ele>464.06494</ele>
        <time>2024-10-13T08:45:38.000Z</time>
      </trkpt>
      <trkpt lat="45.559165" lon="7.8363">
        <ele>464.38495</ele>
        <time>2024-10-13T08:45:41.000Z</time>
      </trkpt>
      <trkpt lat="45.559178" lon="7.836323">
        <ele>464.61993</ele>
        <time>2024-10-13T08:45:44.000Z</time>
      </trkpt>
      <trkpt lat="45.559155" lon="7.836352">
        <ele>464.89996</ele>
        <time>2024-10-13T08:45:58.000Z</time>
      </trkpt>
      <trkpt lat="45.559133" lon="7.836352">
        <ele>465.13495</ele>
        <time>2024-10-13T08:46:00.000Z</time>
      </trkpt>
      <trkpt lat="45.55908" lon="7.836342">
        <ele>465.97998</ele>
        <time>2024-10-13T08:46:37.000Z</time>
      </trkpt>
      <trkpt lat="45.559067" lon="7.836368">
        <ele>466.84995</ele>
        <time>2024-10-13T08:46:41.000Z</time>
      </trkpt>
      <trkpt lat="45.559087" lon="7.83635">
        <ele>467.68994</ele>
        <time>2024-10-13T08:46:47.000Z</time>
      </trkpt>
      <trkpt lat="45.559092" lon="7.836378">
        <ele>468.33496</ele>
        <time>2024-10-13T08:46:55.000Z</time>
      </trkpt>
      <trkpt lat="45.559103" lon="7.836432">
        <ele>468.98495</ele>
        <time>2024-10-13T08:47:08.000Z</time>
      </trkpt>
      <trkpt lat="45.559118" lon="7.836447">
        <ele>469.59995</ele>
        <time>2024-10-13T08:47:12.000Z</time>
      </trkpt>
      <trkpt lat="45.559122" lon="7.836473">
        <ele>470.13495</ele>
        <time>2024-10-13T08:47:14.000Z</time>
      </trkpt>
      <trkpt lat="45.559132" lon="7.836503">
        <ele>470.59497</ele>
        <time>2024-10-13T08:47:17.000Z</time>
      </trkpt>
      <trkpt lat="45.559152" lon="7.836512">
        <ele>470.99496</ele>
        <time>2024-10-13T08:47:21.000Z</time>
      </trkpt>
      <trkpt lat="45.559157" lon="7.836538">
        <ele>471.36996</ele>
        <time>2024-10-13T08:47:25.000Z</time>
      </trkpt>
      <trkpt lat="45.55916" lon="7.83657">
        <ele>471.77499</ele>
        <time>2024-10-13T08:47:28.000Z</time>
      </trkpt>
      <trkpt lat="45.559172" lon="7.836595">
        <ele>472.22998</ele>
        <time>2024-10-13T08:47:31.000Z</time>
      </trkpt>
      <trkpt lat="45.559152" lon="7.83661">
        <ele>472.72501</ele>
        <time>2024-10-13T08:47:34.000Z</time>
      </trkpt>
      <trkpt lat="45.559132" lon="7.836612">
        <ele>473.58002</ele>
        <time>2024-10-13T08:47:42.000Z</time>
      </trkpt>
      <trkpt lat="45.559107" lon="7.836627">
        <ele>474.54004</ele>
        <time>2024-10-13T08:47:44.000Z</time>
      </trkpt>
      <trkpt lat="45.55909" lon="7.836637">
        <ele>475.59506</ele>
        <time>2024-10-13T08:47:46.000Z</time>
      </trkpt>
      <trkpt lat="45.559072" lon="7.836657">
        <ele>476.69507</ele>
        <time>2024-10-13T08:47:49.000Z</time>
      </trkpt>
      <trkpt lat="45.559053" lon="7.83666">
        <ele>477.84506</ele>
        <time>2024-10-13T08:47:52.000Z</time>
      </trkpt>
      <trkpt lat="45.55903" lon="7.836668">
        <ele>478.92007</ele>
        <time>2024-10-13T08:47:55.000Z</time>
      </trkpt>
      <trkpt lat="45.559012" lon="7.836672">
        <ele>479.97006</ele>
        <time>2024-10-13T08:47:58.000Z</time>
      </trkpt>
      <trkpt lat="45.558993" lon="7.83667">
        <ele>480.39508</ele>
        <time>2024-10-13T08:48:01.000Z</time>
      </trkpt>
      <trkpt lat="45.55898" lon="7.836695">
        <ele>480.77008</ele>
        <time>2024-10-13T08:48:04.000Z</time>
      </trkpt>
      <trkpt lat="45.558965" lon="7.836718">
        <ele>481.1601</ele>
        <time>2024-10-13T08:48:12.000Z</time>
      </trkpt>
      <trkpt lat="45.558963" lon="7.83676">
        <ele>481.61508</ele>
        <time>2024-10-13T08:48:20.000Z</time>
      </trkpt>
      <trkpt lat="45.558973" lon="7.836787">
        <ele>482.06509</ele>
        <time>2024-10-13T08:48:23.000Z</time>
      </trkpt>
      <trkpt lat="45.558978" lon="7.836815">
        <ele>482.51508</ele>
        <time>2024-10-13T08:48:25.000Z</time>
      </trkpt>
      <trkpt lat="45.558955" lon="7.836827">
        <ele>482.9751</ele>
        <time>2024-10-13T08:48:30.000Z</time>
      </trkpt>
      <trkpt lat="45.558935" lon="7.836843">
        <ele>483.5101</ele>
        <time>2024-10-13T08:48:38.000Z</time>
      </trkpt>
      <trkpt lat="45.558918" lon="7.836872">
        <ele>484.03009</ele>
        <time>2024-10-13T08:48:41.000Z</time>
      </trkpt>
      <trkpt lat="45.5589" lon="7.83689">
        <ele>484.52505</ele>
        <time>2024-10-13T08:48:43.000Z</time>
      </trkpt>
      <trkpt lat="45.55889" lon="7.836912">
        <ele>485.01007</ele>
        <time>2024-10-13T08:48:46.000Z</time>
      </trkpt>
      <trkpt lat="45.558878" lon="7.83694">
        <ele>485.69507</ele>
        <time>2024-10-13T08:48:54.000Z</time>
      </trkpt>
      <trkpt lat="45.55888" lon="7.83697">
        <ele>486.44003</ele>
        <time>2024-10-13T08:48:58.000Z</time>
      </trkpt>
      <trkpt lat="45.558893" lon="7.837013">
        <ele>487.05502</ele>
        <time>2024-10-13T08:49:07.000Z</time>
      </trkpt>
      <trkpt lat="45.558898" lon="7.83704">
        <ele>487.68002</ele>
        <time>2024-10-13T08:49:10.000Z</time>
      </trkpt>
      <trkpt lat="45.558932" lon="7.837067">
        <ele>488.34003</ele>
        <time>2024-10-13T08:49:26.000Z</time>
      </trkpt>
      <trkpt lat="45.558922" lon="7.837095">
        <ele>488.96005</ele>
        <time>2024-10-13T08:49:29.000Z</time>
      </trkpt>
      <trkpt lat="45.558908" lon="7.837115">
        <ele>489.55011</ele>
        <time>2024-10-13T08:49:31.000Z</time>
      </trkpt>
      <trkpt lat="45.55891" lon="7.837143">
        <ele>490.18506</ele>
        <time>2024-10-13T08:49:34.000Z</time>
      </trkpt>
      <trkpt lat="45.558915" lon="7.837175">
        <ele>490.92505</ele>
        <time>2024-10-13T08:49:40.000Z</time>
      </trkpt>
      <trkpt lat="45.558908" lon="7.837202">
        <ele>491.66006</ele>
        <time>2024-10-13T08:49:43.000Z</time>
      </trkpt>
      <trkpt lat="45.558902" lon="7.837233">
        <ele>492.44507</ele>
        <time>2024-10-13T08:49:46.000Z</time>
      </trkpt>
      <trkpt lat="45.558892" lon="7.837257">
        <ele>493.25006</ele>
        <time>2024-10-13T08:49:50.000Z</time>
      </trkpt>
      <trkpt lat="45.558897" lon="7.837282">
        <ele>494.09003</ele>
        <time>2024-10-13T08:49:55.000Z</time>
      </trkpt>
      <trkpt lat="45.558908" lon="7.837328">
        <ele>494.935</ele>
        <time>2024-10-13T08:50:05.000Z</time>
      </trkpt>
      <trkpt lat="45.558922" lon="7.83737">
        <ele>495.73502</ele>
        <time>2024-10-13T08:50:10.000Z</time>
      </trkpt>
      <trkpt lat="45.558942" lon="7.837375">
        <ele>496.57001</ele>
        <time>2024-10-13T08:50:14.000Z</time>
      </trkpt>
      <trkpt lat="45.558965" lon="7.837378">
        <ele>497.39999</ele>
        <time>2024-10-13T08:50:17.000Z</time>
      </trkpt>
      <trkpt lat="45.558977" lon="7.8374">
        <ele>498.22501</ele>
        <time>2024-10-13T08:50:19.000Z</time>
      </trkpt>
      <trkpt lat="45.558978" lon="7.837372">
        <ele>499.215</ele>
        <time>2024-10-13T08:50:27.000Z</time>
      </trkpt>
      <trkpt lat="45.558985" lon="7.837343">
        <ele>500.40997</ele>
        <time>2024-10-13T08:50:33.000Z</time>
      </trkpt>
      <trkpt lat="45.55901" lon="7.83734">
        <ele>501.36493</ele>
        <time>2024-10-13T08:50:40.000Z</time>
      </trkpt>
      <trkpt lat="45.559015" lon="7.837377">
        <ele>502.14496</ele>
        <time>2024-10-13T08:50:43.000Z</time>
      </trkpt>
      <trkpt lat="45.55902" lon="7.837403">
        <ele>502.78998</ele>
        <time>2024-10-13T08:50:46.000Z</time>
      </trkpt>
      <trkpt lat="45.55904" lon="7.837412">
        <ele>503.39496</ele>
        <time>2024-10-13T08:50:49.000Z</time>
      </trkpt>
      <trkpt lat="45.55906" lon="7.837425">
        <ele>503.96997</ele>
        <time>2024-10-13T08:50:53.000Z</time>
      </trkpt>
      <trkpt lat="45.559087" lon="7.837443">
        <ele>504.57495</ele>
        <time>2024-10-13T08:50:56.000Z</time>
      </trkpt>
      <trkpt lat="45.559085" lon="7.837475">
        <ele>505.15991</ele>
        <time>2024-10-13T08:51:00.000Z</time>
      </trkpt>
      <trkpt lat="45.559092" lon="7.8375">
        <ele>505.65494</ele>
        <time>2024-10-13T08:51:03.000Z</time>
      </trkpt>
      <trkpt lat="45.559113" lon="7.837515">
        <ele>506.03497</ele>
        <time>2024-10-13T08:51:07.000Z</time>
      </trkpt>
      <trkpt lat="45.55913" lon="7.837532">
        <ele>506.37494</ele>
        <time>2024-10-13T08:51:10.000Z</time>
      </trkpt>
      <trkpt lat="45.559158" lon="7.837528">
        <ele>506.70996</ele>
        <time>2024-10-13T08:51:17.000Z</time>
      </trkpt>
      <trkpt lat="45.559175" lon="7.83754">
        <ele>507.03497</ele>
        <time>2024-10-13T08:51:22.000Z</time>
      </trkpt>
      <trkpt lat="45.559188" lon="7.837565">
        <ele>507.38495</ele>
        <time>2024-10-13T08:51:27.000Z</time>
      </trkpt>
      <trkpt lat="45.559208" lon="7.837563">
        <ele>507.73495</ele>
        <time>2024-10-13T08:51:30.000Z</time>
      </trkpt>
      <trkpt lat="45.559223" lon="7.83758">
        <ele>508.13495</ele>
        <time>2024-10-13T08:51:32.000Z</time>
      </trkpt>
      <trkpt lat="45.559223" lon="7.837612">
        <ele>508.53995</ele>
        <time>2024-10-13T08:51:35.000Z</time>
      </trkpt>
      <trkpt lat="45.559232" lon="7.837643">
        <ele>508.96494</ele>
        <time>2024-10-13T08:51:38.000Z</time>
      </trkpt>
      <trkpt lat="45.559223" lon="7.83767">
        <ele>509.38495</ele>
        <time>2024-10-13T08:51:40.000Z</time>
      </trkpt>
      <trkpt lat="45.559227" lon="7.837703">
        <ele>509.63495</ele>
        <time>2024-10-13T08:51:43.000Z</time>
      </trkpt>
      <trkpt lat="45.559227" lon="7.837733">
        <ele>509.69498</ele>
        <time>2024-10-13T08:51:46.000Z</time>
      </trkpt>
      <trkpt lat="45.55921" lon="7.837752">
        <ele>509.80499</ele>
        <time>2024-10-13T08:51:47.000Z</time>
      </trkpt>
      <trkpt lat="45.559188" lon="7.837773">
        <ele>510.00995</ele>
        <time>2024-10-13T08:51:49.000Z</time>
      </trkpt>
      <trkpt lat="45.559183" lon="7.837802">
        <ele>510.32993</ele>
        <time>2024-10-13T08:51:52.000Z</time>
      </trkpt>
      <trkpt lat="45.559165" lon="7.837793">
        <ele>510.69995</ele>
        <time>2024-10-13T08:51:58.000Z</time>
      </trkpt>
      <trkpt lat="45.559147" lon="7.837797">
        <ele>511.07495</ele>
        <time>2024-10-13T08:52:01.000Z</time>
      </trkpt>
      <trkpt lat="45.559125" lon="7.8378">
        <ele>511.50494</ele>
        <time>2024-10-13T08:52:09.000Z</time>
      </trkpt>
      <trkpt lat="45.559105" lon="7.83781">
        <ele>512.00995</ele>
        <time>2024-10-13T08:52:12.000Z</time>
      </trkpt>
      <trkpt lat="45.559092" lon="7.837832">
        <ele>512.62</ele>
        <time>2024-10-13T08:52:15.000Z</time>
      </trkpt>
      <trkpt lat="45.559077" lon="7.837853">
        <ele>513.32996</ele>
        <time>2024-10-13T08:52:19.000Z</time>
      </trkpt>
      <trkpt lat="45.559057" lon="7.837862">
        <ele>514.06995</ele>
        <time>2024-10-13T08:52:21.000Z</time>
      </trkpt>
      <trkpt lat="45.559035" lon="7.837877">
        <ele>514.77496</ele>
        <time>2024-10-13T08:52:24.000Z</time>
      </trkpt>
      <trkpt lat="45.559015" lon="7.837885">
        <ele>515.47498</ele>
        <time>2024-10-13T08:52:27.000Z</time>
      </trkpt>
      <trkpt lat="45.558993" lon="7.837893">
        <ele>516.20996</ele>
        <time>2024-10-13T08:52:32.000Z</time>
      </trkpt>
      <trkpt lat="45.558975" lon="7.837898">
        <ele>516.96997</ele>
        <time>2024-10-13T08:52:36.000Z</time>
      </trkpt>
      <trkpt lat="45.558972" lon="7.837927">
        <ele>517.71997</ele>
        <time>2024-10-13T08:52:42.000Z</time>
      </trkpt>
      <trkpt lat="45.558973" lon="7.837958">
        <ele>518.46497</ele>
        <time>2024-10-13T08:52:46.000Z</time>
      </trkpt>
      <trkpt lat="45.558955" lon="7.837982">
        <ele>519.16498</ele>
        <time>2024-10-13T08:52:50.000Z</time>
      </trkpt>
      <trkpt lat="45.558945" lon="7.838008">
        <ele>519.90002</ele>
        <time>2024-10-13T08:52:56.000Z</time>
      </trkpt>
      <trkpt lat="45.558928" lon="7.838027">
        <ele>520.66504</ele>
        <time>2024-10-13T08:53:00.000Z</time>
      </trkpt>
      <trkpt lat="45.558872" lon="7.838065">
        <ele>521.45502</ele>
        <time>2024-10-13T08:53:11.000Z</time>
      </trkpt>
      <trkpt lat="45.558847" lon="7.838073">
        <ele>522.255</ele>
        <time>2024-10-13T08:53:13.000Z</time>
      </trkpt>
      <trkpt lat="45.558825" lon="7.83807">
        <ele>523.07507</ele>
        <time>2024-10-13T08:53:15.000Z</time>
      </trkpt>
      <trkpt lat="45.558805" lon="7.83807">
        <ele>523.88507</ele>
        <time>2024-10-13T08:53:17.000Z</time>
      </trkpt>
      <trkpt lat="45.558792" lon="7.838118">
        <ele>524.68005</ele>
        <time>2024-10-13T08:53:19.000Z</time>
      </trkpt>
      <trkpt lat="45.558775" lon="7.838145">
        <ele>525.46497</ele>
        <time>2024-10-13T08:53:22.000Z</time>
      </trkpt>
      <trkpt lat="45.558755" lon="7.838157">
        <ele>526.14502</ele>
        <time>2024-10-13T08:53:29.000Z</time>
      </trkpt>
      <trkpt lat="45.558762" lon="7.838182">
        <ele>526.78998</ele>
        <time>2024-10-13T08:53:33.000Z</time>
      </trkpt>
      <trkpt lat="45.558768" lon="7.838208">
        <ele>527.375</ele>
        <time>2024-10-13T08:53:36.000Z</time>
      </trkpt>
      <trkpt lat="45.55878" lon="7.83823">
        <ele>527.90997</ele>
        <time>2024-10-13T08:53:39.000Z</time>
      </trkpt>
      <trkpt lat="45.55876" lon="7.838255">
        <ele>528.505</ele>
        <time>2024-10-13T08:53:43.000Z</time>
      </trkpt>
      <trkpt lat="45.558762" lon="7.838283">
        <ele>529.21497</ele>
        <time>2024-10-13T08:53:47.000Z</time>
      </trkpt>
      <trkpt lat="45.558753" lon="7.83831">
        <ele>530.02997</ele>
        <time>2024-10-13T08:53:50.000Z</time>
      </trkpt>
      <trkpt lat="45.558747" lon="7.838337">
        <ele>530.87</ele>
        <time>2024-10-13T08:53:54.000Z</time>
      </trkpt>
      <trkpt lat="45.558755" lon="7.838367">
        <ele>531.755</ele>
        <time>2024-10-13T08:53:58.000Z</time>
      </trkpt>
      <trkpt lat="45.558753" lon="7.838395">
        <ele>532.77997</ele>
        <time>2024-10-13T08:54:04.000Z</time>
      </trkpt>
      <trkpt lat="45.558765" lon="7.838417">
        <ele>533.82495</ele>
        <time>2024-10-13T08:54:09.000Z</time>
      </trkpt>
      <trkpt lat="45.558753" lon="7.838442">
        <ele>534.84998</ele>
        <time>2024-10-13T08:54:13.000Z</time>
      </trkpt>
      <trkpt lat="45.558748" lon="7.838467">
        <ele>535.87494</ele>
        <time>2024-10-13T08:54:17.000Z</time>
      </trkpt>
      <trkpt lat="45.558755" lon="7.838493">
        <ele>536.86993</ele>
        <time>2024-10-13T08:54:20.000Z</time>
      </trkpt>
      <trkpt lat="45.55876" lon="7.838528">
        <ele>537.86993</ele>
        <time>2024-10-13T08:54:24.000Z</time>
      </trkpt>
      <trkpt lat="45.558762" lon="7.838555">
        <ele>538.91992</ele>
        <time>2024-10-13T08:54:27.000Z</time>
      </trkpt>
      <trkpt lat="45.558763" lon="7.838587">
        <ele>540.00488</ele>
        <time>2024-10-13T08:54:30.000Z</time>
      </trkpt>
      <trkpt lat="45.558762" lon="7.838613">
        <ele>541.0799</ele>
        <time>2024-10-13T08:54:33.000Z</time>
      </trkpt>
      <trkpt lat="45.558763" lon="7.838647">
        <ele>542.11487</ele>
        <time>2024-10-13T08:54:38.000Z</time>
      </trkpt>
      <trkpt lat="45.558772" lon="7.838675">
        <ele>543.12994</ele>
        <time>2024-10-13T08:54:44.000Z</time>
      </trkpt>
      <trkpt lat="45.558792" lon="7.838673">
        <ele>544.11993</ele>
        <time>2024-10-13T08:54:51.000Z</time>
      </trkpt>
      <trkpt lat="45.558757" lon="7.838697">
        <ele>545.21497</ele>
        <time>2024-10-13T08:56:00.000Z</time>
      </trkpt>
      <trkpt lat="45.558752" lon="7.838728">
        <ele>546.30493</ele>
        <time>2024-10-13T08:56:05.000Z</time>
      </trkpt>
      <trkpt lat="45.55875" lon="7.838758">
        <ele>547.48499</ele>
        <time>2024-10-13T08:56:26.000Z</time>
      </trkpt>
      <trkpt lat="45.558762" lon="7.838792">
        <ele>548.61993</ele>
        <time>2024-10-13T08:56:29.000Z</time>
      </trkpt>
      <trkpt lat="45.558772" lon="7.838815">
        <ele>549.65991</ele>
        <time>2024-10-13T08:56:33.000Z</time>
      </trkpt>
      <trkpt lat="45.558757" lon="7.83883">
        <ele>550.51495</ele>
        <time>2024-10-13T08:56:38.000Z</time>
      </trkpt>
      <trkpt lat="45.558777" lon="7.83883">
        <ele>551.30499</ele>
        <time>2024-10-13T08:56:44.000Z</time>
      </trkpt>
      <trkpt lat="45.558795" lon="7.838833">
        <ele>552.03497</ele>
        <time>2024-10-13T08:56:46.000Z</time>
      </trkpt>
      <trkpt lat="45.558813" lon="7.838842">
        <ele>552.625</ele>
        <time>2024-10-13T08:56:48.000Z</time>
      </trkpt>
      <trkpt lat="45.558828" lon="7.838858">
        <ele>553.18005</ele>
        <time>2024-10-13T08:56:50.000Z</time>
      </trkpt>
      <trkpt lat="45.558837" lon="7.838893">
        <ele>553.80005</ele>
        <time>2024-10-13T08:56:56.000Z</time>
      </trkpt>
      <trkpt lat="45.558833" lon="7.838922">
        <ele>554.37</ele>
        <time>2024-10-13T08:56:59.000Z</time>
      </trkpt>
      <trkpt lat="45.558853" lon="7.838935">
        <ele>554.89001</ele>
        <time>2024-10-13T08:57:05.000Z</time>
      </trkpt>
      <trkpt lat="45.558873" lon="7.838942">
        <ele>555.40503</ele>
        <time>2024-10-13T08:57:10.000Z</time>
      </trkpt>
      <trkpt lat="45.558895" lon="7.838958">
        <ele>555.88</ele>
        <time>2024-10-13T08:57:13.000Z</time>
      </trkpt>
      <trkpt lat="45.558912" lon="7.838975">
        <ele>556.31006</ele>
        <time>2024-10-13T08:57:15.000Z</time>
      </trkpt>
      <trkpt lat="45.55893" lon="7.838977">
        <ele>556.70007</ele>
        <time>2024-10-13T08:57:18.000Z</time>
      </trkpt>
      <trkpt lat="45.558948" lon="7.838998">
        <ele>557.13507</ele>
        <time>2024-10-13T08:57:22.000Z</time>
      </trkpt>
      <trkpt lat="45.558948" lon="7.839025">
        <ele>557.58002</ele>
        <time>2024-10-13T08:57:25.000Z</time>
      </trkpt>
      <trkpt lat="45.558943" lon="7.839058">
        <ele>558.08002</ele>
        <time>2024-10-13T08:57:28.000Z</time>
      </trkpt>
      <trkpt lat="45.558927" lon="7.839082">
        <ele>558.49005</ele>
        <time>2024-10-13T08:57:32.000Z</time>
      </trkpt>
      <trkpt lat="45.558907" lon="7.839105">
        <ele>558.935</ele>
        <time>2024-10-13T08:57:35.000Z</time>
      </trkpt>
      <trkpt lat="45.558892" lon="7.839122">
        <ele>559.32996</ele>
        <time>2024-10-13T08:57:41.000Z</time>
      </trkpt>
      <trkpt lat="45.558875" lon="7.839132">
        <ele>559.76501</ele>
        <time>2024-10-13T08:57:45.000Z</time>
      </trkpt>
      <trkpt lat="45.558857" lon="7.839148">
        <ele>560.22498</ele>
        <time>2024-10-13T08:57:48.000Z</time>
      </trkpt>
      <trkpt lat="45.558865" lon="7.839185">
        <ele>560.88495</ele>
        <time>2024-10-13T08:58:00.000Z</time>
      </trkpt>
      <trkpt lat="45.558873" lon="7.839212">
        <ele>561.56995</ele>
        <time>2024-10-13T08:58:05.000Z</time>
      </trkpt>
      <trkpt lat="45.558878" lon="7.839238">
        <ele>562.24994</ele>
        <time>2024-10-13T08:58:09.000Z</time>
      </trkpt>
      <trkpt lat="45.558888" lon="7.839263">
        <ele>562.93494</ele>
        <time>2024-10-13T08:58:11.000Z</time>
      </trkpt>
      <trkpt lat="45.558908" lon="7.839268">
        <ele>563.66492</ele>
        <time>2024-10-13T08:58:15.000Z</time>
      </trkpt>
      <trkpt lat="45.558903" lon="7.839295">
        <ele>564.40985</ele>
        <time>2024-10-13T08:58:20.000Z</time>
      </trkpt>
      <trkpt lat="45.558908" lon="7.839323">
        <ele>565.26489</ele>
        <time>2024-10-13T08:58:26.000Z</time>
      </trkpt>
      <trkpt lat="45.558925" lon="7.839335">
        <ele>566.22491</ele>
        <time>2024-10-13T08:58:32.000Z</time>
      </trkpt>
      <trkpt lat="45.558915" lon="7.839395">
        <ele>567.18994</ele>
        <time>2024-10-13T08:58:50.000Z</time>
      </trkpt>
      <trkpt lat="45.558918" lon="7.839365">
        <ele>568.08997</ele>
        <time>2024-10-13T08:58:59.000Z</time>
      </trkpt>
      <trkpt lat="45.558895" lon="7.839372">
        <ele>568.9599</ele>
        <time>2024-10-13T08:59:05.000Z</time>
      </trkpt>
      <trkpt lat="45.55889" lon="7.839402">
        <ele>569.86493</ele>
        <time>2024-10-13T08:59:09.000Z</time>
      </trkpt>
      <trkpt lat="45.558888" lon="7.839433">
        <ele>570.7699</ele>
        <time>2024-10-13T08:59:14.000Z</time>
      </trkpt>
      <trkpt lat="45.558877" lon="7.839463">
        <ele>571.70496</ele>
        <time>2024-10-13T08:59:20.000Z</time>
      </trkpt>
      <trkpt lat="45.558858" lon="7.83948">
        <ele>572.65491</ele>
        <time>2024-10-13T08:59:23.000Z</time>
      </trkpt>
      <trkpt lat="45.558842" lon="7.839493">
        <ele>573.59991</ele>
        <time>2024-10-13T08:59:25.000Z</time>
      </trkpt>
      <trkpt lat="45.558823" lon="7.839503">
        <ele>574.55493</ele>
        <time>2024-10-13T08:59:28.000Z</time>
      </trkpt>
      <trkpt lat="45.558803" lon="7.83952">
        <ele>575.495</ele>
        <time>2024-10-13T08:59:32.000Z</time>
      </trkpt>
      <trkpt lat="45.558787" lon="7.839535">
        <ele>576.42999</ele>
        <time>2024-10-13T08:59:34.000Z</time>
      </trkpt>
      <trkpt lat="45.558773" lon="7.839553">
        <ele>577.40002</ele>
        <time>2024-10-13T08:59:38.000Z</time>
      </trkpt>
      <trkpt lat="45.558763" lon="7.83958">
        <ele>578.31</ele>
        <time>2024-10-13T08:59:42.000Z</time>
      </trkpt>
      <trkpt lat="45.558772" lon="7.839612">
        <ele>579.23499</ele>
        <time>2024-10-13T08:59:56.000Z</time>
      </trkpt>
      <trkpt lat="45.55877" lon="7.839643">
        <ele>580.12</ele>
        <time>2024-10-13T08:59:59.000Z</time>
      </trkpt>
      <trkpt lat="45.558777" lon="7.839675">
        <ele>580.97504</ele>
        <time>2024-10-13T09:00:04.000Z</time>
      </trkpt>
      <trkpt lat="45.55881" lon="7.83968">
        <ele>581.92505</ele>
        <time>2024-10-13T09:00:21.000Z</time>
      </trkpt>
      <trkpt lat="45.558817" lon="7.839708">
        <ele>582.81006</ele>
        <time>2024-10-13T09:00:24.000Z</time>
      </trkpt>
      <trkpt lat="45.55882" lon="7.839737">
        <ele>583.62506</ele>
        <time>2024-10-13T09:00:27.000Z</time>
      </trkpt>
      <trkpt lat="45.558837" lon="7.839767">
        <ele>584.39502</ele>
        <time>2024-10-13T09:00:31.000Z</time>
      </trkpt>
      <trkpt lat="45.558852" lon="7.839785">
        <ele>585.09998</ele>
        <time>2024-10-13T09:00:34.000Z</time>
      </trkpt>
      <trkpt lat="45.55886" lon="7.839815">
        <ele>585.88</ele>
        <time>2024-10-13T09:00:37.000Z</time>
      </trkpt>
      <trkpt lat="45.558862" lon="7.839842">
        <ele>586.70007</ele>
        <time>2024-10-13T09:00:40.000Z</time>
      </trkpt>
      <trkpt lat="45.558857" lon="7.839867">
        <ele>587.55005</ele>
        <time>2024-10-13T09:00:45.000Z</time>
      </trkpt>
      <trkpt lat="45.558857" lon="7.83992">
        <ele>588.41504</ele>
        <time>2024-10-13T09:00:53.000Z</time>
      </trkpt>
      <trkpt lat="45.558838" lon="7.839935">
        <ele>589.42004</ele>
        <time>2024-10-13T09:01:24.000Z</time>
      </trkpt>
      <trkpt lat="45.558853" lon="7.83996">
        <ele>590.42499</ele>
        <time>2024-10-13T09:01:36.000Z</time>
      </trkpt>
      <trkpt lat="45.558868" lon="7.83998">
        <ele>591.35999</ele>
        <time>2024-10-13T09:01:40.000Z</time>
      </trkpt>
      <trkpt lat="45.558878" lon="7.840005">
        <ele>592.32001</ele>
        <time>2024-10-13T09:01:44.000Z</time>
      </trkpt>
      <trkpt lat="45.558898" lon="7.840015">
        <ele>593.15497</ele>
        <time>2024-10-13T09:02:07.000Z</time>
      </trkpt>
      <trkpt lat="45.558908" lon="7.840043">
        <ele>594.01501</ele>
        <time>2024-10-13T09:02:11.000Z</time>
      </trkpt>
      <trkpt lat="45.558922" lon="7.840065">
        <ele>594.83496</ele>
        <time>2024-10-13T09:02:14.000Z</time>
      </trkpt>
      <trkpt lat="45.558937" lon="7.84009">
        <ele>595.61499</ele>
        <time>2024-10-13T09:02:17.000Z</time>
      </trkpt>
      <trkpt lat="45.558947" lon="7.840117">
        <ele>596.38</ele>
        <time>2024-10-13T09:02:22.000Z</time>
      </trkpt>
      <trkpt lat="45.558958" lon="7.840145">
        <ele>597.22003</ele>
        <time>2024-10-13T09:02:27.000Z</time>
      </trkpt>
      <trkpt lat="45.558977" lon="7.84017">
        <ele>598.11499</ele>
        <time>2024-10-13T09:02:30.000Z</time>
      </trkpt>
      <trkpt lat="45.55899" lon="7.84019">
        <ele>598.85498</ele>
        <time>2024-10-13T09:02:33.000Z</time>
      </trkpt>
      <trkpt lat="45.558995" lon="7.840218">
        <ele>599.58997</ele>
        <time>2024-10-13T09:02:39.000Z</time>
      </trkpt>
      <trkpt lat="45.559003" lon="7.84025">
        <ele>600.30499</ele>
        <time>2024-10-13T09:02:44.000Z</time>
      </trkpt>
      <trkpt lat="45.559012" lon="7.840278">
        <ele>601.0</ele>
        <time>2024-10-13T09:02:48.000Z</time>
      </trkpt>
      <trkpt lat="45.559017" lon="7.84031">
        <ele>601.70496</ele>
        <time>2024-10-13T09:02:51.000Z</time>
      </trkpt>
      <trkpt lat="45.559027" lon="7.840338">
        <ele>602.40497</ele>
        <time>2024-10-13T09:02:55.000Z</time>
      </trkpt>
      <trkpt lat="45.559032" lon="7.840365">
        <ele>603.14496</ele>
        <time>2024-10-13T09:02:59.000Z</time>
      </trkpt>
      <trkpt lat="45.55905" lon="7.840418">
        <ele>604.14496</ele>
        <time>2024-10-13T09:03:15.000Z</time>
      </trkpt>
      <trkpt lat="45.559072" lon="7.840437">
        <ele>605.13501</ele>
        <time>2024-10-13T09:03:17.000Z</time>
      </trkpt>
      <trkpt lat="45.559092" lon="7.840453">
        <ele>606.005</ele>
        <time>2024-10-13T09:03:20.000Z</time>
      </trkpt>
      <trkpt lat="45.559087" lon="7.840498">
        <ele>606.89508</ele>
        <time>2024-10-13T09:03:24.000Z</time>
      </trkpt>
      <trkpt lat="45.559077" lon="7.84052">
        <ele>607.83508</ele>
        <time>2024-10-13T09:03:25.000Z</time>
      </trkpt>
      <trkpt lat="45.55906" lon="7.840532">
        <ele>608.69501</ele>
        <time>2024-10-13T09:03:29.000Z</time>
      </trkpt>
      <trkpt lat="45.559067" lon="7.840557">
        <ele>609.60004</ele>
        <time>2024-10-13T09:03:33.000Z</time>
      </trkpt>
      <trkpt lat="45.55907" lon="7.840585">
        <ele>610.41504</ele>
        <time>2024-10-13T09:03:36.000Z</time>
      </trkpt>
      <trkpt lat="45.55908" lon="7.840615">
        <ele>611.20007</ele>
        <time>2024-10-13T09:03:40.000Z</time>
      </trkpt>
      <trkpt lat="45.559095" lon="7.840643">
        <ele>612.02502</ele>
        <time>2024-10-13T09:03:42.000Z</time>
      </trkpt>
      <trkpt lat="45.559108" lon="7.840668">
        <ele>612.85004</ele>
        <time>2024-10-13T09:03:44.000Z</time>
      </trkpt>
      <trkpt lat="45.559102" lon="7.840695">
        <ele>613.66003</ele>
        <time>2024-10-13T09:03:47.000Z</time>
      </trkpt>
      <trkpt lat="45.559087" lon="7.84072">
        <ele>614.57007</ele>
        <time>2024-10-13T09:03:57.000Z</time>
      </trkpt>
      <trkpt lat="45.55909" lon="7.840747">
        <ele>615.46509</ele>
        <time>2024-10-13T09:04:02.000Z</time>
      </trkpt>
      <trkpt lat="45.559103" lon="7.84077">
        <ele>616.3551</ele>
        <time>2024-10-13T09:04:07.000Z</time>
      </trkpt>
      <trkpt lat="45.559115" lon="7.840792">
        <ele>617.31006</ele>
        <time>2024-10-13T09:04:12.000Z</time>
      </trkpt>
      <trkpt lat="45.55911" lon="7.840818">
        <ele>618.28003</ele>
        <time>2024-10-13T09:04:16.000Z</time>
      </trkpt>
      <trkpt lat="45.55911" lon="7.840848">
        <ele>619.32507</ele>
        <time>2024-10-13T09:04:21.000Z</time>
      </trkpt>
      <trkpt lat="45.55912" lon="7.840875">
        <ele>620.37</ele>
        <time>2024-10-13T09:04:24.000Z</time>
      </trkpt>
      <trkpt lat="45.559128" lon="7.840912">
        <ele>621.33502</ele>
        <time>2024-10-13T09:04:27.000Z</time>
      </trkpt>
      <trkpt lat="45.55914" lon="7.840937">
        <ele>621.97498</ele>
        <time>2024-10-13T09:04:30.000Z</time>
      </trkpt>
      <trkpt lat="45.559123" lon="7.840927">
        <ele>622.64001</ele>
        <time>2024-10-13T09:04:38.000Z</time>
      </trkpt>
      <trkpt lat="45.559137" lon="7.840948">
        <ele>623.21497</ele>
        <time>2024-10-13T09:06:51.000Z</time>
      </trkpt>
      <trkpt lat="45.559147" lon="7.840975">
        <ele>623.72498</ele>
        <time>2024-10-13T09:06:53.000Z</time>
      </trkpt>
      <trkpt lat="45.559162" lon="7.841005">
        <ele>624.21497</ele>
        <time>2024-10-13T09:06:56.000Z</time>
      </trkpt>
      <trkpt lat="45.55917" lon="7.84104">
        <ele>624.70001</ele>
        <time>2024-10-13T09:06:59.000Z</time>
      </trkpt>
      <trkpt lat="45.55918" lon="7.841073">
        <ele>625.21497</ele>
        <time>2024-10-13T09:07:01.000Z</time>
      </trkpt>
      <trkpt lat="45.559193" lon="7.841105">
        <ele>625.76501</ele>
        <time>2024-10-13T09:07:03.000Z</time>
      </trkpt>
      <trkpt lat="45.559198" lon="7.841133">
        <ele>626.315</ele>
        <time>2024-10-13T09:07:05.000Z</time>
      </trkpt>
      <trkpt lat="45.559205" lon="7.841172">
        <ele>626.85999</ele>
        <time>2024-10-13T09:07:08.000Z</time>
      </trkpt>
      <trkpt lat="45.559202" lon="7.841213">
        <ele>627.40491</ele>
        <time>2024-10-13T09:07:11.000Z</time>
      </trkpt>
      <trkpt lat="45.559197" lon="7.84125">
        <ele>627.92493</ele>
        <time>2024-10-13T09:07:16.000Z</time>
      </trkpt>
      <trkpt lat="45.559193" lon="7.841283">
        <ele>628.3349</ele>
        <time>2024-10-13T09:07:18.000Z</time>
      </trkpt>
      <trkpt lat="45.559193" lon="7.841323">
        <ele>628.73492</ele>
        <time>2024-10-13T09:07:21.000Z</time>
      </trkpt>
      <trkpt lat="45.559198" lon="7.841355">
        <ele>629.09991</ele>
        <time>2024-10-13T09:07:23.000Z</time>
      </trkpt>
      <trkpt lat="45.559202" lon="7.841387">
        <ele>629.34491</ele>
        <time>2024-10-13T09:07:27.000Z</time>
      </trkpt>
      <trkpt lat="45.559207" lon="7.84142">
        <ele>629.57495</ele>
        <time>2024-10-13T09:07:30.000Z</time>
      </trkpt>
      <trkpt lat="45.559205" lon="7.841455">
        <ele>629.70996</ele>
        <time>2024-10-13T09:07:33.000Z</time>
      </trkpt>
      <trkpt lat="45.559198" lon="7.841483">
        <ele>629.82495</ele>
        <time>2024-10-13T09:07:35.000Z</time>
      </trkpt>
      <trkpt lat="45.559182" lon="7.84151">
        <ele>629.96997</ele>
        <time>2024-10-13T09:07:38.000Z</time>
      </trkpt>
      <trkpt lat="45.55918" lon="7.841548">
        <ele>630.18994</ele>
        <time>2024-10-13T09:07:41.000Z</time>
      </trkpt>
      <trkpt lat="45.559172" lon="7.841577">
        <ele>630.37494</ele>
        <time>2024-10-13T09:07:43.000Z</time>
      </trkpt>
      <trkpt lat="45.559172" lon="7.841603">
        <ele>630.62494</ele>
        <time>2024-10-13T09:07:45.000Z</time>
      </trkpt>
      <trkpt lat="45.559165" lon="7.84164">
        <ele>630.89496</ele>
        <time>2024-10-13T09:07:48.000Z</time>
      </trkpt>
      <trkpt lat="45.559162" lon="7.841667">
        <ele>631.18494</ele>
        <time>2024-10-13T09:07:50.000Z</time>
      </trkpt>
      <trkpt lat="45.559152" lon="7.841692">
        <ele>631.50995</ele>
        <time>2024-10-13T09:07:53.000Z</time>
      </trkpt>
      <trkpt lat="45.559137" lon="7.841718">
        <ele>631.88</ele>
        <time>2024-10-13T09:07:56.000Z</time>
      </trkpt>
      <trkpt lat="45.559122" lon="7.841737">
        <ele>632.26996</ele>
        <time>2024-10-13T09:07:58.000Z</time>
      </trkpt>
      <trkpt lat="45.559107" lon="7.84176">
        <ele>632.67493</ele>
        <time>2024-10-13T09:08:00.000Z</time>
      </trkpt>
      <trkpt lat="45.559095" lon="7.841788">
        <ele>633.04993</ele>
        <time>2024-10-13T09:08:02.000Z</time>
      </trkpt>
      <trkpt lat="45.559082" lon="7.841817">
        <ele>633.42493</ele>
        <time>2024-10-13T09:08:04.000Z</time>
      </trkpt>
      <trkpt lat="45.559087" lon="7.841847">
        <ele>633.82495</ele>
        <time>2024-10-13T09:08:07.000Z</time>
      </trkpt>
      <trkpt lat="45.559073" lon="7.841875">
        <ele>634.16998</ele>
        <time>2024-10-13T09:08:10.000Z</time>
      </trkpt>
      <trkpt lat="45.559063" lon="7.841913">
        <ele>634.505</ele>
        <time>2024-10-13T09:08:12.000Z</time>
      </trkpt>
      <trkpt lat="45.559063" lon="7.84194">
        <ele>634.88</ele>
        <time>2024-10-13T09:08:14.000Z</time>
      </trkpt>
      <trkpt lat="45.559057" lon="7.841978">
        <ele>635.33496</ele>
        <time>2024-10-13T09:08:17.000Z</time>
      </trkpt>
      <trkpt lat="45.559055" lon="7.842005">
        <ele>635.78992</ele>
        <time>2024-10-13T09:08:19.000Z</time>
      </trkpt>
      <trkpt lat="45.559045" lon="7.842042">
        <ele>636.27496</ele>
        <time>2024-10-13T09:08:21.000Z</time>
      </trkpt>
      <trkpt lat="45.559045" lon="7.842072">
        <ele>636.70496</ele>
        <time>2024-10-13T09:08:24.000Z</time>
      </trkpt>
      <trkpt lat="45.559037" lon="7.842097">
        <ele>637.08496</ele>
        <time>2024-10-13T09:08:27.000Z</time>
      </trkpt>
      <trkpt lat="45.55903" lon="7.842123">
        <ele>637.42499</ele>
        <time>2024-10-13T09:08:31.000Z</time>
      </trkpt>
      <trkpt lat="45.55905" lon="7.84211">
        <ele>637.78998</ele>
        <time>2024-10-13T09:08:35.000Z</time>
      </trkpt>
      <trkpt lat="45.559058" lon="7.842085">
        <ele>638.16998</ele>
        <time>2024-10-13T09:08:38.000Z</time>
      </trkpt>
      <trkpt lat="45.55908" lon="7.842053">
        <ele>638.56995</ele>
        <time>2024-10-13T09:08:41.000Z</time>
      </trkpt>
      <trkpt lat="45.559098" lon="7.842037">
        <ele>639.005</ele>
        <time>2024-10-13T09:08:44.000Z</time>
      </trkpt>
      <trkpt lat="45.559118" lon="7.842022">
        <ele>639.44</ele>
        <time>2024-10-13T09:08:46.000Z</time>
      </trkpt>
      <trkpt lat="45.559137" lon="7.841998">
        <ele>639.87494</ele>
        <time>2024-10-13T09:08:48.000Z</time>
      </trkpt>
      <trkpt lat="45.559157" lon="7.841983">
        <ele>640.33997</ele>
        <time>2024-10-13T09:08:50.000Z</time>
      </trkpt>
      <trkpt lat="45.55918" lon="7.841972">
        <ele>640.79498</ele>
        <time>2024-10-13T09:08:52.000Z</time>
      </trkpt>
      <trkpt lat="45.559198" lon="7.841957">
        <ele>641.23999</ele>
        <time>2024-10-13T09:08:54.000Z</time>
      </trkpt>
      <trkpt lat="45.559212" lon="7.841923">
        <ele>641.67999</ele>
        <time>2024-10-13T09:08:56.000Z</time>
      </trkpt>
      <trkpt lat="45.55923" lon="7.841917">
        <ele>642.07996</ele>
        <time>2024-10-13T09:08:59.000Z</time>
      </trkpt>
      <trkpt lat="45.55925" lon="7.841907">
        <ele>642.47498</ele>
        <time>2024-10-13T09:09:01.000Z</time>
      </trkpt>
      <trkpt lat="45.559273" lon="7.841903">
        <ele>642.87994</ele>
        <time>2024-10-13T09:09:04.000Z</time>
      </trkpt>
      <trkpt lat="45.559297" lon="7.84189">
        <ele>643.29993</ele>
        <time>2024-10-13T09:09:07.000Z</time>
      </trkpt>
      <trkpt lat="45.559292" lon="7.841915">
        <ele>643.79498</ele>
        <time>2024-10-13T09:09:16.000Z</time>
      </trkpt>
      <trkpt lat="45.559277" lon="7.841945">
        <ele>644.36499</ele>
        <time>2024-10-13T09:09:26.000Z</time>
      </trkpt>
      <trkpt lat="45.559293" lon="7.841967">
        <ele>644.89996</ele>
        <time>2024-10-13T09:09:29.000Z</time>
      </trkpt>
      <trkpt lat="45.559308" lon="7.841985">
        <ele>645.46497</ele>
        <time>2024-10-13T09:09:32.000Z</time>
      </trkpt>
      <trkpt lat="45.559317" lon="7.84201">
        <ele>646.04498</ele>
        <time>2024-10-13T09:09:34.000Z</time>
      </trkpt>
      <trkpt lat="45.559312" lon="7.842047">
        <ele>646.60492</ele>
        <time>2024-10-13T09:09:36.000Z</time>
      </trkpt>
      <trkpt lat="45.559305" lon="7.842083">
        <ele>647.12994</ele>
        <time>2024-10-13T09:09:38.000Z</time>
      </trkpt>
      <trkpt lat="45.559298" lon="7.842118">
        <ele>647.59497</ele>
        <time>2024-10-13T09:09:40.000Z</time>
      </trkpt>
      <trkpt lat="45.559285" lon="7.842138">
        <ele>648.03497</ele>
        <time>2024-10-13T09:09:42.000Z</time>
      </trkpt>
      <trkpt lat="45.559265" lon="7.84216">
        <ele>648.43994</ele>
        <time>2024-10-13T09:09:45.000Z</time>
      </trkpt>
      <trkpt lat="45.559245" lon="7.842175">
        <ele>648.85492</ele>
        <time>2024-10-13T09:09:47.000Z</time>
      </trkpt>
      <trkpt lat="45.559233" lon="7.842195">
        <ele>649.23499</ele>
        <time>2024-10-13T09:09:49.000Z</time>
      </trkpt>
      <trkpt lat="45.559223" lon="7.842232">
        <ele>649.55499</ele>
        <time>2024-10-13T09:09:52.000Z</time>
      </trkpt>
      <trkpt lat="45.559212" lon="7.842255">
        <ele>649.84998</ele>
        <time>2024-10-13T09:09:54.000Z</time>
      </trkpt>
      <trkpt lat="45.559195" lon="7.842275">
        <ele>650.12994</ele>
        <time>2024-10-13T09:09:56.000Z</time>
      </trkpt>
      <trkpt lat="45.55918" lon="7.842298">
        <ele>650.36493</ele>
        <time>2024-10-13T09:09:58.000Z</time>
      </trkpt>
      <trkpt lat="45.559155" lon="7.842313">
        <ele>650.61493</ele>
        <time>2024-10-13T09:10:01.000Z</time>
      </trkpt>
      <trkpt lat="45.559133" lon="7.84232">
        <ele>650.94495</ele>
        <time>2024-10-13T09:10:03.000Z</time>
        <name>Settimo Trovinasse, Settimo Vittone</name>
        <extensions>
          <oa:locType>tourGap</oa:locType>
          <oa:address>{
  &quot;title&quot; : &quot;Settimo Trovinasse, Settimo Vittone&quot;
}</oa:address>
        </extensions>
      </trkpt>
      <trkpt lat="45.559092" lon="7.84236">
        <ele>651.59998</ele>
        <time>2024-10-13T09:27:49.000Z</time>
        <name>Settimo Trovinasse, Settimo Vittone</name>
        <extensions>
          <oa:address>{
  &quot;title&quot; : &quot;Settimo Trovinasse, Settimo Vittone&quot;
}</oa:address>
        </extensions>
      </trkpt>
      <trkpt lat="45.559117" lon="7.842362">
        <ele>652.23993</ele>
        <time>2024-10-13T09:27:52.000Z</time>
      </trkpt>
      <trkpt lat="45.55914" lon="7.84235">
        <ele>652.81494</ele>
        <time>2024-10-13T09:27:54.000Z</time>
      </trkpt>
      <trkpt lat="45.559157" lon="7.842325">
        <ele>653.31995</ele>
        <time>2024-10-13T09:27:56.000Z</time>
      </trkpt>
      <trkpt lat="45.55917" lon="7.842298">
        <ele>653.87494</ele>
        <time>2024-10-13T09:27:58.000Z</time>
      </trkpt>
      <trkpt lat="45.559178" lon="7.842273">
        <ele>654.45996</ele>
        <time>2024-10-13T09:28:00.000Z</time>
      </trkpt>
      <trkpt lat="45.559197" lon="7.84224">
        <ele>655.00494</ele>
        <time>2024-10-13T09:28:03.000Z</time>
      </trkpt>
      <trkpt lat="45.559205" lon="7.842217">
        <ele>655.54993</ele>
        <time>2024-10-13T09:28:04.000Z</time>
      </trkpt>
      <trkpt lat="45.55923" lon="7.842197">
        <ele>656.06995</ele>
        <time>2024-10-13T09:28:06.000Z</time>
      </trkpt>
      <trkpt lat="45.559257" lon="7.842197">
        <ele>656.53992</ele>
        <time>2024-10-13T09:28:08.000Z</time>
      </trkpt>
      <trkpt lat="45.55928" lon="7.842218">
        <ele>657.03491</ele>
        <time>2024-10-13T09:28:10.000Z</time>
      </trkpt>
      <trkpt lat="45.559278" lon="7.84225">
        <ele>657.49988</ele>
        <time>2024-10-13T09:28:13.000Z</time>
      </trkpt>
      <trkpt lat="45.559258" lon="7.84228">
        <ele>657.92493</ele>
        <time>2024-10-13T09:28:15.000Z</time>
      </trkpt>
      <trkpt lat="45.559243" lon="7.842313">
        <ele>658.38989</ele>
        <time>2024-10-13T09:28:17.000Z</time>
      </trkpt>
      <trkpt lat="45.55923" lon="7.842335">
        <ele>658.91986</ele>
        <time>2024-10-13T09:28:19.000Z</time>
      </trkpt>
      <trkpt lat="45.559227" lon="7.842363">
        <ele>659.5249</ele>
        <time>2024-10-13T09:28:21.000Z</time>
      </trkpt>
      <trkpt lat="45.559243" lon="7.842375">
        <ele>660.2099</ele>
        <time>2024-10-13T09:28:23.000Z</time>
      </trkpt>
      <trkpt lat="45.559262" lon="7.842368">
        <ele>660.95496</ele>
        <time>2024-10-13T09:28:25.000Z</time>
      </trkpt>
      <trkpt lat="45.559273" lon="7.842342">
        <ele>661.73993</ele>
        <time>2024-10-13T09:28:28.000Z</time>
      </trkpt>
      <trkpt lat="45.559255" lon="7.842352">
        <ele>662.57489</ele>
        <time>2024-10-13T09:28:35.000Z</time>
      </trkpt>
      <trkpt lat="45.559263" lon="7.842388">
        <ele>663.21991</ele>
        <time>2024-10-13T09:28:45.000Z</time>
      </trkpt>
      <trkpt lat="45.559288" lon="7.842375">
        <ele>663.89996</ele>
        <time>2024-10-13T09:28:47.000Z</time>
      </trkpt>
      <trkpt lat="45.55931" lon="7.842365">
        <ele>664.52991</ele>
        <time>2024-10-13T09:28:49.000Z</time>
      </trkpt>
      <trkpt lat="45.559325" lon="7.842338">
        <ele>665.12994</ele>
        <time>2024-10-13T09:28:51.000Z</time>
      </trkpt>
      <trkpt lat="45.559337" lon="7.842305">
        <ele>665.59991</ele>
        <time>2024-10-13T09:28:53.000Z</time>
      </trkpt>
      <trkpt lat="45.559343" lon="7.842268">
        <ele>666.0199</ele>
        <time>2024-10-13T09:28:55.000Z</time>
      </trkpt>
      <trkpt lat="45.559362" lon="7.84225">
        <ele>666.42987</ele>
        <time>2024-10-13T09:29:06.000Z</time>
      </trkpt>
      <trkpt lat="45.559378" lon="7.84224">
        <ele>666.84991</ele>
        <time>2024-10-13T09:29:09.000Z</time>
      </trkpt>
      <trkpt lat="45.559395" lon="7.84221">
        <ele>667.23993</ele>
        <time>2024-10-13T09:29:14.000Z</time>
      </trkpt>
      <trkpt lat="45.559415" lon="7.84218">
        <ele>667.65997</ele>
        <time>2024-10-13T09:29:17.000Z</time>
      </trkpt>
      <trkpt lat="45.559435" lon="7.842157">
        <ele>668.04993</ele>
        <time>2024-10-13T09:29:20.000Z</time>
      </trkpt>
      <trkpt lat="45.559448" lon="7.842133">
        <ele>668.46997</ele>
        <time>2024-10-13T09:29:22.000Z</time>
      </trkpt>
      <trkpt lat="45.55946" lon="7.8421">
        <ele>668.92999</ele>
        <time>2024-10-13T09:29:25.000Z</time>
      </trkpt>
      <trkpt lat="45.559478" lon="7.842088">
        <ele>669.34497</ele>
        <time>2024-10-13T09:29:27.000Z</time>
      </trkpt>
      <trkpt lat="45.559498" lon="7.84207">
        <ele>669.66498</ele>
        <time>2024-10-13T09:29:30.000Z</time>
      </trkpt>
      <trkpt lat="45.55952" lon="7.842073">
        <ele>669.88</ele>
        <time>2024-10-13T09:29:32.000Z</time>
      </trkpt>
      <trkpt lat="45.559538" lon="7.842067">
        <ele>670.01501</ele>
        <time>2024-10-13T09:29:34.000Z</time>
      </trkpt>
      <trkpt lat="45.559557" lon="7.842057">
        <ele>670.09998</ele>
        <time>2024-10-13T09:29:36.000Z</time>
      </trkpt>
      <trkpt lat="45.559582" lon="7.84206">
        <ele>670.13</ele>
        <time>2024-10-13T09:29:38.000Z</time>
      </trkpt>
      <trkpt lat="45.559602" lon="7.842043">
        <ele>670.05499</ele>
        <time>2024-10-13T09:29:41.000Z</time>
      </trkpt>
      <trkpt lat="45.559625" lon="7.842027">
        <ele>669.89001</ele>
        <time>2024-10-13T09:29:44.000Z</time>
      </trkpt>
      <trkpt lat="45.559645" lon="7.842007">
        <ele>669.65997</ele>
        <time>2024-10-13T09:29:47.000Z</time>
      </trkpt>
      <trkpt lat="45.559665" lon="7.84199">
        <ele>669.48499</ele>
        <time>2024-10-13T09:29:51.000Z</time>
      </trkpt>
      <trkpt lat="45.559678" lon="7.841962">
        <ele>669.34497</ele>
        <time>2024-10-13T09:29:54.000Z</time>
      </trkpt>
      <trkpt lat="45.559695" lon="7.841943">
        <ele>669.28998</ele>
        <time>2024-10-13T09:29:58.000Z</time>
      </trkpt>
      <trkpt lat="45.55972" lon="7.841948">
        <ele>669.245</ele>
        <time>2024-10-13T09:30:01.000Z</time>
      </trkpt>
      <trkpt lat="45.55974" lon="7.841962">
        <ele>669.28003</ele>
        <time>2024-10-13T09:30:04.000Z</time>
      </trkpt>
      <trkpt lat="45.559763" lon="7.84199">
        <ele>669.33502</ele>
        <time>2024-10-13T09:30:07.000Z</time>
      </trkpt>
      <trkpt lat="45.559783" lon="7.841993">
        <ele>669.44495</ele>
        <time>2024-10-13T09:30:10.000Z</time>
      </trkpt>
      <trkpt lat="45.559802" lon="7.842003">
        <ele>669.63</ele>
        <time>2024-10-13T09:30:13.000Z</time>
      </trkpt>
      <trkpt lat="45.559813" lon="7.84203">
        <ele>670.10498</ele>
        <time>2024-10-13T09:30:28.000Z</time>
      </trkpt>
      <trkpt lat="45.559823" lon="7.842052">
        <ele>670.58496</ele>
        <time>2024-10-13T09:30:30.000Z</time>
      </trkpt>
      <trkpt lat="45.55984" lon="7.842077">
        <ele>671.03497</ele>
        <time>2024-10-13T09:30:32.000Z</time>
      </trkpt>
      <trkpt lat="45.559857" lon="7.842098">
        <ele>671.51501</ele>
        <time>2024-10-13T09:30:34.000Z</time>
      </trkpt>
      <trkpt lat="45.559873" lon="7.842117">
        <ele>672.07996</ele>
        <time>2024-10-13T09:30:38.000Z</time>
      </trkpt>
      <trkpt lat="45.559883" lon="7.84214">
        <ele>672.69</ele>
        <time>2024-10-13T09:30:41.000Z</time>
      </trkpt>
      <trkpt lat="45.559897" lon="7.842173">
        <ele>673.35999</ele>
        <time>2024-10-13T09:30:45.000Z</time>
      </trkpt>
      <trkpt lat="45.55991" lon="7.842197">
        <ele>674.02991</ele>
        <time>2024-10-13T09:30:48.000Z</time>
      </trkpt>
      <trkpt lat="45.559927" lon="7.842218">
        <ele>674.70996</ele>
        <time>2024-10-13T09:30:52.000Z</time>
      </trkpt>
      <trkpt lat="45.559943" lon="7.842248">
        <ele>675.40997</ele>
        <time>2024-10-13T09:30:55.000Z</time>
      </trkpt>
      <trkpt lat="45.559957" lon="7.842277">
        <ele>676.05994</ele>
        <time>2024-10-13T09:30:57.000Z</time>
      </trkpt>
      <trkpt lat="45.559972" lon="7.842295">
        <ele>676.73499</ele>
        <time>2024-10-13T09:30:59.000Z</time>
      </trkpt>
      <trkpt lat="45.559995" lon="7.842302">
        <ele>677.36499</ele>
        <time>2024-10-13T09:31:01.000Z</time>
      </trkpt>
      <trkpt lat="45.560017" lon="7.842307">
        <ele>677.995</ele>
        <time>2024-10-13T09:31:03.000Z</time>
      </trkpt>
      <trkpt lat="45.56004" lon="7.842312">
        <ele>678.63</ele>
        <time>2024-10-13T09:31:05.000Z</time>
      </trkpt>
      <trkpt lat="45.560058" lon="7.842318">
        <ele>679.30499</ele>
        <time>2024-10-13T09:31:08.000Z</time>
      </trkpt>
      <trkpt lat="45.560078" lon="7.842313">
        <ele>679.98999</ele>
        <time>2024-10-13T09:31:11.000Z</time>
      </trkpt>
      <trkpt lat="45.560098" lon="7.842323">
        <ele>680.64001</ele>
        <time>2024-10-13T09:31:14.000Z</time>
      </trkpt>
      <trkpt lat="45.560122" lon="7.842342">
        <ele>681.27002</ele>
        <time>2024-10-13T09:31:16.000Z</time>
      </trkpt>
      <trkpt lat="45.56015" lon="7.84236">
        <ele>681.82996</ele>
        <time>2024-10-13T09:31:18.000Z</time>
      </trkpt>
      <trkpt lat="45.56017" lon="7.842375">
        <ele>682.07996</ele>
        <time>2024-10-13T09:31:21.000Z</time>
      </trkpt>
      <trkpt lat="45.56019" lon="7.84238">
        <ele>682.27502</ele>
        <time>2024-10-13T09:31:24.000Z</time>
      </trkpt>
      <trkpt lat="45.56021" lon="7.842397">
        <ele>682.44501</ele>
        <time>2024-10-13T09:31:27.000Z</time>
      </trkpt>
      <trkpt lat="45.56023" lon="7.842415">
        <ele>682.59503</ele>
        <time>2024-10-13T09:31:29.000Z</time>
      </trkpt>
      <trkpt lat="45.560248" lon="7.84242">
        <ele>682.70007</ele>
        <time>2024-10-13T09:31:31.000Z</time>
      </trkpt>
      <trkpt lat="45.560267" lon="7.842438">
        <ele>682.79004</ele>
        <time>2024-10-13T09:31:33.000Z</time>
      </trkpt>
      <trkpt lat="45.560292" lon="7.842462">
        <ele>682.79504</ele>
        <time>2024-10-13T09:31:36.000Z</time>
      </trkpt>
      <trkpt lat="45.560307" lon="7.842477">
        <ele>682.81006</ele>
        <time>2024-10-13T09:31:40.000Z</time>
      </trkpt>
      <trkpt lat="45.560333" lon="7.842463">
        <ele>683.05005</ele>
        <time>2024-10-13T09:31:51.000Z</time>
      </trkpt>
      <trkpt lat="45.560355" lon="7.842467">
        <ele>683.30005</ele>
        <time>2024-10-13T09:31:54.000Z</time>
      </trkpt>
      <trkpt lat="45.560373" lon="7.84246">
        <ele>683.58508</ele>
        <time>2024-10-13T09:31:56.000Z</time>
      </trkpt>
      <trkpt lat="45.560388" lon="7.842442">
        <ele>683.71509</ele>
        <time>2024-10-13T09:32:04.000Z</time>
      </trkpt>
      <trkpt lat="45.560373" lon="7.842482">
        <ele>683.84009</ele>
        <time>2024-10-13T09:32:29.000Z</time>
      </trkpt>
      <trkpt lat="45.560395" lon="7.842478">
        <ele>684.00513</ele>
        <time>2024-10-13T09:32:36.000Z</time>
      </trkpt>
      <trkpt lat="45.560418" lon="7.842477">
        <ele>684.27014</ele>
        <time>2024-10-13T09:32:40.000Z</time>
      </trkpt>
      <trkpt lat="45.560433" lon="7.842497">
        <ele>684.52509</ele>
        <time>2024-10-13T09:32:42.000Z</time>
      </trkpt>
      <trkpt lat="45.560453" lon="7.842518">
        <ele>684.71008</ele>
        <time>2024-10-13T09:32:45.000Z</time>
      </trkpt>
      <trkpt lat="45.56048" lon="7.842513">
        <ele>684.89514</ele>
        <time>2024-10-13T09:32:49.000Z</time>
      </trkpt>
      <trkpt lat="45.5605" lon="7.842517">
        <ele>685.1051</ele>
        <time>2024-10-13T09:32:52.000Z</time>
      </trkpt>
      <trkpt lat="45.56052" lon="7.842517">
        <ele>685.34015</ele>
        <time>2024-10-13T09:32:54.000Z</time>
      </trkpt>
      <trkpt lat="45.56054" lon="7.842522">
        <ele>685.62012</ele>
        <time>2024-10-13T09:32:57.000Z</time>
      </trkpt>
      <trkpt lat="45.560552" lon="7.842495">
        <ele>685.96008</ele>
        <time>2024-10-13T09:33:01.000Z</time>
      </trkpt>
      <trkpt lat="45.560568" lon="7.842467">
        <ele>686.33008</ele>
        <time>2024-10-13T09:33:06.000Z</time>
      </trkpt>
      <trkpt lat="45.56058" lon="7.842445">
        <ele>686.49506</ele>
        <time>2024-10-13T09:33:21.000Z</time>
      </trkpt>
      <trkpt lat="45.560598" lon="7.84245">
        <ele>686.65503</ele>
        <time>2024-10-13T09:33:23.000Z</time>
      </trkpt>
      <trkpt lat="45.560633" lon="7.84246">
        <ele>687.05005</ele>
        <time>2024-10-13T09:33:32.000Z</time>
      </trkpt>
      <trkpt lat="45.560637" lon="7.842432">
        <ele>687.66504</ele>
        <time>2024-10-13T09:33:46.000Z</time>
      </trkpt>
      <trkpt lat="45.560637" lon="7.842403">
        <ele>688.28503</ele>
        <time>2024-10-13T09:33:49.000Z</time>
      </trkpt>
      <trkpt lat="45.560637" lon="7.842377">
        <ele>688.72504</ele>
        <time>2024-10-13T09:33:52.000Z</time>
      </trkpt>
      <trkpt lat="45.560645" lon="7.842353">
        <ele>689.19006</ele>
        <time>2024-10-13T09:33:55.000Z</time>
      </trkpt>
      <trkpt lat="45.560663" lon="7.84235">
        <ele>689.67505</ele>
        <time>2024-10-13T09:33:58.000Z</time>
      </trkpt>
      <trkpt lat="45.560687" lon="7.842347">
        <ele>690.30005</ele>
        <time>2024-10-13T09:34:02.000Z</time>
      </trkpt>
      <trkpt lat="45.560707" lon="7.842345">
        <ele>690.91003</ele>
        <time>2024-10-13T09:34:04.000Z</time>
      </trkpt>
      <trkpt lat="45.560727" lon="7.842348">
        <ele>691.47504</ele>
        <time>2024-10-13T09:34:07.000Z</time>
      </trkpt>
      <trkpt lat="45.560747" lon="7.842348">
        <ele>691.94507</ele>
        <time>2024-10-13T09:34:10.000Z</time>
      </trkpt>
      <trkpt lat="45.560765" lon="7.842355">
        <ele>692.39008</ele>
        <time>2024-10-13T09:34:14.000Z</time>
      </trkpt>
      <trkpt lat="45.56079" lon="7.842355">
        <ele>692.90509</ele>
        <time>2024-10-13T09:34:18.000Z</time>
      </trkpt>
      <trkpt lat="45.560812" lon="7.842363">
        <ele>693.45508</ele>
        <time>2024-10-13T09:34:20.000Z</time>
      </trkpt>
      <trkpt lat="45.560813" lon="7.842335">
        <ele>693.88507</ele>
        <time>2024-10-13T09:34:28.000Z</time>
      </trkpt>
      <trkpt lat="45.560827" lon="7.842358">
        <ele>694.31506</ele>
        <time>2024-10-13T09:34:32.000Z</time>
      </trkpt>
      <trkpt lat="45.560848" lon="7.842375">
        <ele>694.7851</ele>
        <time>2024-10-13T09:34:34.000Z</time>
      </trkpt>
      <trkpt lat="45.560868" lon="7.842388">
        <ele>695.27014</ele>
        <time>2024-10-13T09:34:36.000Z</time>
      </trkpt>
      <trkpt lat="45.56086" lon="7.842358">
        <ele>695.75513</ele>
        <time>2024-10-13T09:34:40.000Z</time>
      </trkpt>
      <trkpt lat="45.560852" lon="7.842315">
        <ele>696.44513</ele>
        <time>2024-10-13T09:34:42.000Z</time>
      </trkpt>
      <trkpt lat="45.56087" lon="7.842327">
        <ele>697.10016</ele>
        <time>2024-10-13T09:34:52.000Z</time>
      </trkpt>
      <trkpt lat="45.560893" lon="7.842337">
        <ele>697.55511</ele>
        <time>2024-10-13T09:34:56.000Z</time>
      </trkpt>
      <trkpt lat="45.56091" lon="7.842362">
        <ele>697.85016</ele>
        <time>2024-10-13T09:34:59.000Z</time>
      </trkpt>
      <trkpt lat="45.560925" lon="7.842395">
        <ele>698.15515</ele>
        <time>2024-10-13T09:35:02.000Z</time>
      </trkpt>
      <trkpt lat="45.56094" lon="7.842417">
        <ele>698.45013</ele>
        <time>2024-10-13T09:35:05.000Z</time>
      </trkpt>
      <trkpt lat="45.560958" lon="7.842397">
        <ele>698.86011</ele>
        <time>2024-10-13T09:35:11.000Z</time>
      </trkpt>
      <trkpt lat="45.560973" lon="7.842412">
        <ele>699.34509</ele>
        <time>2024-10-13T09:35:14.000Z</time>
      </trkpt>
      <trkpt lat="45.560962" lon="7.842432">
        <ele>699.98511</ele>
        <time>2024-10-13T09:35:20.000Z</time>
      </trkpt>
      <trkpt lat="45.560973" lon="7.842458">
        <ele>700.74011</ele>
        <time>2024-10-13T09:35:23.000Z</time>
      </trkpt>
      <trkpt lat="45.56099" lon="7.842448">
        <ele>701.57007</ele>
        <time>2024-10-13T09:35:29.000Z</time>
      </trkpt>
      <trkpt lat="45.56101" lon="7.84244">
        <ele>702.46008</ele>
        <time>2024-10-13T09:35:42.000Z</time>
      </trkpt>
      <trkpt lat="45.561027" lon="7.842457">
        <ele>703.41504</ele>
        <time>2024-10-13T09:35:47.000Z</time>
      </trkpt>
      <trkpt lat="45.561053" lon="7.842465">
        <ele>704.36505</ele>
        <time>2024-10-13T09:35:50.000Z</time>
      </trkpt>
      <trkpt lat="45.561073" lon="7.842462">
        <ele>705.49005</ele>
        <time>2024-10-13T09:35:58.000Z</time>
      </trkpt>
      <trkpt lat="45.56109" lon="7.842447">
        <ele>707.07001</ele>
        <time>2024-10-13T09:36:06.000Z</time>
      </trkpt>
      <trkpt lat="45.561108" lon="7.84247">
        <ele>708.73999</ele>
        <time>2024-10-13T09:36:08.000Z</time>
      </trkpt>
      <trkpt lat="45.561128" lon="7.842483">
        <ele>710.375</ele>
        <time>2024-10-13T09:36:10.000Z</time>
      </trkpt>
      <trkpt lat="45.561148" lon="7.84248">
        <ele>711.98499</ele>
        <time>2024-10-13T09:36:14.000Z</time>
      </trkpt>
      <trkpt lat="45.561162" lon="7.842455">
        <ele>713.61499</ele>
        <time>2024-10-13T09:36:16.000Z</time>
      </trkpt>
      <trkpt lat="45.56118" lon="7.842428">
        <ele>715.23499</ele>
        <time>2024-10-13T09:36:18.000Z</time>
      </trkpt>
      <trkpt lat="45.5612" lon="7.842425">
        <ele>716.92499</ele>
        <time>2024-10-13T09:36:21.000Z</time>
      </trkpt>
      <trkpt lat="45.561217" lon="7.842435">
        <ele>718.685</ele>
        <time>2024-10-13T09:36:31.000Z</time>
      </trkpt>
      <trkpt lat="45.561228" lon="7.842413">
        <ele>720.39496</ele>
        <time>2024-10-13T09:36:34.000Z</time>
      </trkpt>
      <trkpt lat="45.561208" lon="7.842423">
        <ele>722.005</ele>
        <time>2024-10-13T09:36:39.000Z</time>
      </trkpt>
      <trkpt lat="45.561227" lon="7.842417">
        <ele>723.46997</ele>
        <time>2024-10-13T09:36:47.000Z</time>
      </trkpt>
      <trkpt lat="45.56121" lon="7.842438">
        <ele>724.70496</ele>
        <time>2024-10-13T09:36:55.000Z</time>
      </trkpt>
      <trkpt lat="45.561198" lon="7.842415">
        <ele>725.87</ele>
        <time>2024-10-13T09:37:02.000Z</time>
      </trkpt>
      <trkpt lat="45.561202" lon="7.842443">
        <ele>726.86493</ele>
        <time>2024-10-13T09:37:07.000Z</time>
      </trkpt>
      <trkpt lat="45.561193" lon="7.842412">
        <ele>727.67993</ele>
        <time>2024-10-13T09:37:12.000Z</time>
      </trkpt>
      <trkpt lat="45.56118" lon="7.842392">
        <ele>728.61993</ele>
        <time>2024-10-13T09:37:25.000Z</time>
      </trkpt>
      <trkpt lat="45.561195" lon="7.842372">
        <ele>729.55493</ele>
        <time>2024-10-13T09:37:32.000Z</time>
      </trkpt>
      <trkpt lat="45.561235" lon="7.842413">
        <ele>730.32495</ele>
        <time>2024-10-13T09:37:44.000Z</time>
      </trkpt>
      <trkpt lat="45.561237" lon="7.842445">
        <ele>730.96497</ele>
        <time>2024-10-13T09:37:50.000Z</time>
      </trkpt>
      <trkpt lat="45.561255" lon="7.842463">
        <ele>731.35992</ele>
        <time>2024-10-13T09:37:54.000Z</time>
      </trkpt>
      <trkpt lat="45.561262" lon="7.842427">
        <ele>731.27991</ele>
        <time>2024-10-13T09:38:04.000Z</time>
      </trkpt>
      <trkpt lat="45.561272" lon="7.8424">
        <ele>731.11493</ele>
        <time>2024-10-13T09:38:07.000Z</time>
      </trkpt>
      <trkpt lat="45.5613" lon="7.84237">
        <ele>730.96497</ele>
        <time>2024-10-13T09:38:14.000Z</time>
      </trkpt>
      <trkpt lat="45.561312" lon="7.842342">
        <ele>730.79492</ele>
        <time>2024-10-13T09:38:18.000Z</time>
      </trkpt>
      <trkpt lat="45.561328" lon="7.842315">
        <ele>730.55994</ele>
        <time>2024-10-13T09:38:21.000Z</time>
      </trkpt>
      <trkpt lat="45.561328" lon="7.842283">
        <ele>730.33997</ele>
        <time>2024-10-13T09:38:24.000Z</time>
      </trkpt>
      <trkpt lat="45.56133" lon="7.842252">
        <ele>730.07495</ele>
        <time>2024-10-13T09:38:27.000Z</time>
      </trkpt>
      <trkpt lat="45.561322" lon="7.842222">
        <ele>729.70996</ele>
        <time>2024-10-13T09:38:30.000Z</time>
      </trkpt>
      <trkpt lat="45.561325" lon="7.842193">
        <ele>729.34497</ele>
        <time>2024-10-13T09:38:33.000Z</time>
      </trkpt>
      <trkpt lat="45.561342" lon="7.842175">
        <ele>729.04498</ele>
        <time>2024-10-13T09:38:37.000Z</time>
      </trkpt>
      <trkpt lat="45.561357" lon="7.84216">
        <ele>728.82996</ele>
        <time>2024-10-13T09:38:40.000Z</time>
      </trkpt>
      <trkpt lat="45.56137" lon="7.842132">
        <ele>728.70001</ele>
        <time>2024-10-13T09:38:43.000Z</time>
      </trkpt>
      <trkpt lat="45.56138" lon="7.84211">
        <ele>728.57001</ele>
        <time>2024-10-13T09:38:46.000Z</time>
      </trkpt>
      <trkpt lat="45.561393" lon="7.842087">
        <ele>728.52502</ele>
        <time>2024-10-13T09:38:50.000Z</time>
      </trkpt>
      <trkpt lat="45.561407" lon="7.842067">
        <ele>728.6051</ele>
        <time>2024-10-13T09:38:54.000Z</time>
      </trkpt>
      <trkpt lat="45.561422" lon="7.842045">
        <ele>728.53009</ele>
        <time>2024-10-13T09:38:58.000Z</time>
      </trkpt>
      <trkpt lat="45.56144" lon="7.842017">
        <ele>728.46503</ele>
        <time>2024-10-13T09:39:01.000Z</time>
      </trkpt>
      <trkpt lat="45.561455" lon="7.842">
        <ele>728.59503</ele>
        <time>2024-10-13T09:39:04.000Z</time>
      </trkpt>
      <trkpt lat="45.561485" lon="7.842">
        <ele>729.10999</ele>
        <time>2024-10-13T09:39:54.000Z</time>
      </trkpt>
      <trkpt lat="45.561495" lon="7.841978">
        <ele>729.69006</ele>
        <time>2024-10-13T09:39:56.000Z</time>
      </trkpt>
      <trkpt lat="45.56151" lon="7.84196">
        <ele>730.46503</ele>
        <time>2024-10-13T09:40:00.000Z</time>
      </trkpt>
      <trkpt lat="45.56153" lon="7.841942">
        <ele>731.26501</ele>
        <time>2024-10-13T09:40:03.000Z</time>
      </trkpt>
      <trkpt lat="45.561547" lon="7.841927">
        <ele>732.03003</ele>
        <time>2024-10-13T09:40:06.000Z</time>
      </trkpt>
      <trkpt lat="45.561565" lon="7.841902">
        <ele>732.83502</ele>
        <time>2024-10-13T09:40:09.000Z</time>
      </trkpt>
      <trkpt lat="45.561588" lon="7.841892">
        <ele>733.685</ele>
        <time>2024-10-13T09:40:13.000Z</time>
      </trkpt>
      <trkpt lat="45.561612" lon="7.841885">
        <ele>734.51501</ele>
        <time>2024-10-13T09:40:16.000Z</time>
      </trkpt>
      <trkpt lat="45.56163" lon="7.841868">
        <ele>735.35999</ele>
        <time>2024-10-13T09:40:19.000Z</time>
      </trkpt>
      <trkpt lat="45.561648" lon="7.841857">
        <ele>736.18994</ele>
        <time>2024-10-13T09:40:21.000Z</time>
      </trkpt>
      <trkpt lat="45.561668" lon="7.841835">
        <ele>737.02991</ele>
        <time>2024-10-13T09:40:24.000Z</time>
      </trkpt>
      <trkpt lat="45.561693" lon="7.841813">
        <ele>737.81995</ele>
        <time>2024-10-13T09:40:27.000Z</time>
      </trkpt>
      <trkpt lat="45.561718" lon="7.841802">
        <ele>738.60492</ele>
        <time>2024-10-13T09:40:30.000Z</time>
      </trkpt>
      <trkpt lat="45.561737" lon="7.841805">
        <ele>739.38995</ele>
        <time>2024-10-13T09:40:35.000Z</time>
      </trkpt>
      <trkpt lat="45.561725" lon="7.84178">
        <ele>740.15491</ele>
        <time>2024-10-13T09:40:40.000Z</time>
      </trkpt>
      <trkpt lat="45.561737" lon="7.841757">
        <ele>740.93994</ele>
        <time>2024-10-13T09:40:46.000Z</time>
      </trkpt>
      <trkpt lat="45.561757" lon="7.841747">
        <ele>741.69989</ele>
        <time>2024-10-13T09:40:48.000Z</time>
      </trkpt>
      <trkpt lat="45.561775" lon="7.84174">
        <ele>742.41992</ele>
        <time>2024-10-13T09:40:51.000Z</time>
      </trkpt>
      <trkpt lat="45.561792" lon="7.84173">
        <ele>743.07495</ele>
        <time>2024-10-13T09:40:54.000Z</time>
      </trkpt>
      <trkpt lat="45.561812" lon="7.841728">
        <ele>743.64496</ele>
        <time>2024-10-13T09:41:01.000Z</time>
      </trkpt>
      <trkpt lat="45.56183" lon="7.84173">
        <ele>743.94</ele>
        <time>2024-10-13T09:41:04.000Z</time>
      </trkpt>
      <trkpt lat="45.561853" lon="7.84173">
        <ele>744.23499</ele>
        <time>2024-10-13T09:41:07.000Z</time>
      </trkpt>
      <trkpt lat="45.561878" lon="7.841728">
        <ele>744.45496</ele>
        <time>2024-10-13T09:41:10.000Z</time>
      </trkpt>
      <trkpt lat="45.561898" lon="7.84173">
        <ele>744.67499</ele>
        <time>2024-10-13T09:41:13.000Z</time>
      </trkpt>
      <trkpt lat="45.561918" lon="7.84173">
        <ele>744.91003</ele>
        <time>2024-10-13T09:41:17.000Z</time>
      </trkpt>
      <trkpt lat="45.561938" lon="7.841727">
        <ele>745.17004</ele>
        <time>2024-10-13T09:41:21.000Z</time>
      </trkpt>
      <trkpt lat="45.56196" lon="7.841738">
        <ele>745.47003</ele>
        <time>2024-10-13T09:41:24.000Z</time>
      </trkpt>
      <trkpt lat="45.561978" lon="7.84175">
        <ele>745.90002</ele>
        <time>2024-10-13T09:41:28.000Z</time>
      </trkpt>
      <trkpt lat="45.561997" lon="7.841753">
        <ele>746.35004</ele>
        <time>2024-10-13T09:41:32.000Z</time>
      </trkpt>
      <trkpt lat="45.562018" lon="7.841765">
        <ele>746.85504</ele>
        <time>2024-10-13T09:41:35.000Z</time>
      </trkpt>
      <trkpt lat="45.562037" lon="7.841765">
        <ele>747.41504</ele>
        <time>2024-10-13T09:41:39.000Z</time>
      </trkpt>
      <trkpt lat="45.562057" lon="7.841767">
        <ele>748.12006</ele>
        <time>2024-10-13T09:41:46.000Z</time>
      </trkpt>
      <trkpt lat="45.562075" lon="7.84176">
        <ele>748.88507</ele>
        <time>2024-10-13T09:41:50.000Z</time>
      </trkpt>
      <trkpt lat="45.562093" lon="7.841778">
        <ele>749.64502</ele>
        <time>2024-10-13T09:41:53.000Z</time>
      </trkpt>
      <trkpt lat="45.562117" lon="7.841793">
        <ele>750.40503</ele>
        <time>2024-10-13T09:41:56.000Z</time>
      </trkpt>
      <trkpt lat="45.562142" lon="7.841788">
        <ele>751.12</ele>
        <time>2024-10-13T09:41:58.000Z</time>
      </trkpt>
      <trkpt lat="45.562157" lon="7.84181">
        <ele>752.03003</ele>
        <time>2024-10-13T09:42:07.000Z</time>
      </trkpt>
      <trkpt lat="45.562158" lon="7.841837">
        <ele>752.96002</ele>
        <time>2024-10-13T09:42:11.000Z</time>
      </trkpt>
      <trkpt lat="45.56223" lon="7.84193">
        <ele>754.005</ele>
        <time>2024-10-13T09:42:36.000Z</time>
      </trkpt>
      <trkpt lat="45.562288" lon="7.841928">
        <ele>755.17999</ele>
        <time>2024-10-13T09:42:54.000Z</time>
      </trkpt>
      <trkpt lat="45.562292" lon="7.841902">
        <ele>756.40497</ele>
        <time>2024-10-13T09:42:58.000Z</time>
      </trkpt>
      <trkpt lat="45.562303" lon="7.84188">
        <ele>757.63</ele>
        <time>2024-10-13T09:43:01.000Z</time>
      </trkpt>
      <trkpt lat="45.56231" lon="7.841855">
        <ele>758.91492</ele>
        <time>2024-10-13T09:43:06.000Z</time>
      </trkpt>
      <trkpt lat="45.56233" lon="7.841863">
        <ele>760.29492</ele>
        <time>2024-10-13T09:43:13.000Z</time>
      </trkpt>
      <trkpt lat="45.562335" lon="7.841835">
        <ele>761.7149</ele>
        <time>2024-10-13T09:43:18.000Z</time>
      </trkpt>
      <trkpt lat="45.562362" lon="7.841817">
        <ele>763.1499</ele>
        <time>2024-10-13T09:43:21.000Z</time>
      </trkpt>
      <trkpt lat="45.562378" lon="7.841807">
        <ele>764.5199</ele>
        <time>2024-10-13T09:43:23.000Z</time>
      </trkpt>
      <trkpt lat="45.562408" lon="7.841785">
        <ele>765.74487</ele>
        <time>2024-10-13T09:43:28.000Z</time>
      </trkpt>
      <trkpt lat="45.562427" lon="7.841787">
        <ele>766.91492</ele>
        <time>2024-10-13T09:43:31.000Z</time>
      </trkpt>
      <trkpt lat="45.562448" lon="7.841783">
        <ele>768.03992</ele>
        <time>2024-10-13T09:43:34.000Z</time>
      </trkpt>
      <trkpt lat="45.562468" lon="7.841782">
        <ele>769.0849</ele>
        <time>2024-10-13T09:43:37.000Z</time>
      </trkpt>
      <trkpt lat="45.56249" lon="7.841782">
        <ele>769.99988</ele>
        <time>2024-10-13T09:43:42.000Z</time>
      </trkpt>
      <trkpt lat="45.562508" lon="7.841765">
        <ele>770.80487</ele>
        <time>2024-10-13T09:43:46.000Z</time>
      </trkpt>
      <trkpt lat="45.562528" lon="7.841757">
        <ele>771.52991</ele>
        <time>2024-10-13T09:43:50.000Z</time>
      </trkpt>
      <trkpt lat="45.562553" lon="7.841733">
        <ele>772.20984</ele>
        <time>2024-10-13T09:43:58.000Z</time>
      </trkpt>
      <trkpt lat="45.562575" lon="7.841708">
        <ele>772.92487</ele>
        <time>2024-10-13T09:44:01.000Z</time>
      </trkpt>
      <trkpt lat="45.562587" lon="7.841685">
        <ele>773.49487</ele>
        <time>2024-10-13T09:44:03.000Z</time>
      </trkpt>
      <trkpt lat="45.562598" lon="7.841658">
        <ele>774.0899</ele>
        <time>2024-10-13T09:44:08.000Z</time>
      </trkpt>
      <trkpt lat="45.56262" lon="7.841635">
        <ele>774.53992</ele>
        <time>2024-10-13T09:44:12.000Z</time>
      </trkpt>
      <trkpt lat="45.562642" lon="7.841617">
        <ele>774.8999</ele>
        <time>2024-10-13T09:44:15.000Z</time>
      </trkpt>
      <trkpt lat="45.562662" lon="7.841608">
        <ele>775.23492</ele>
        <time>2024-10-13T09:44:18.000Z</time>
      </trkpt>
      <trkpt lat="45.562692" lon="7.841605">
        <ele>775.6449</ele>
        <time>2024-10-13T09:44:21.000Z</time>
      </trkpt>
      <trkpt lat="45.562715" lon="7.84159">
        <ele>776.08496</ele>
        <time>2024-10-13T09:44:24.000Z</time>
      </trkpt>
      <trkpt lat="45.562735" lon="7.841583">
        <ele>776.47498</ele>
        <time>2024-10-13T09:44:28.000Z</time>
      </trkpt>
      <trkpt lat="45.562747" lon="7.841562">
        <ele>776.95496</ele>
        <time>2024-10-13T09:44:35.000Z</time>
      </trkpt>
      <trkpt lat="45.562765" lon="7.841553">
        <ele>777.34998</ele>
        <time>2024-10-13T09:44:38.000Z</time>
      </trkpt>
      <trkpt lat="45.562783" lon="7.84155">
        <ele>777.76001</ele>
        <time>2024-10-13T09:44:41.000Z</time>
      </trkpt>
      <trkpt lat="45.56279" lon="7.8416">
        <ele>778.245</ele>
        <time>2024-10-13T09:46:16.000Z</time>
      </trkpt>
      <trkpt lat="45.562753" lon="7.841592">
        <ele>778.73499</ele>
        <time>2024-10-13T09:47:03.000Z</time>
      </trkpt>
      <trkpt lat="45.562775" lon="7.841585">
        <ele>779.32507</ele>
        <time>2024-10-13T09:47:36.000Z</time>
      </trkpt>
      <trkpt lat="45.562788" lon="7.841605">
        <ele>779.93005</ele>
        <time>2024-10-13T09:47:39.000Z</time>
      </trkpt>
      <trkpt lat="45.562805" lon="7.841617">
        <ele>780.505</ele>
        <time>2024-10-13T09:47:59.000Z</time>
      </trkpt>
      <trkpt lat="45.562825" lon="7.841627">
        <ele>781.11005</ele>
        <time>2024-10-13T09:48:01.000Z</time>
      </trkpt>
      <trkpt lat="45.562838" lon="7.841605">
        <ele>781.75507</ele>
        <time>2024-10-13T09:48:08.000Z</time>
      </trkpt>
      <trkpt lat="45.56286" lon="7.841622">
        <ele>782.43512</ele>
        <time>2024-10-13T09:48:11.000Z</time>
      </trkpt>
      <trkpt lat="45.562885" lon="7.841633">
        <ele>783.08014</ele>
        <time>2024-10-13T09:48:13.000Z</time>
      </trkpt>
      <trkpt lat="45.562895" lon="7.841663">
        <ele>783.75513</ele>
        <time>2024-10-13T09:48:16.000Z</time>
      </trkpt>
      <trkpt lat="45.562907" lon="7.841685">
        <ele>784.42517</ele>
        <time>2024-10-13T09:48:18.000Z</time>
      </trkpt>
      <trkpt lat="45.562898" lon="7.84172">
        <ele>785.2052</ele>
        <time>2024-10-13T09:48:21.000Z</time>
      </trkpt>
      <trkpt lat="45.562895" lon="7.841748">
        <ele>786.02014</ele>
        <time>2024-10-13T09:48:24.000Z</time>
      </trkpt>
      <trkpt lat="45.562898" lon="7.841775">
        <ele>786.83014</ele>
        <time>2024-10-13T09:48:26.000Z</time>
      </trkpt>
      <trkpt lat="45.562898" lon="7.841803">
        <ele>787.57513</ele>
        <time>2024-10-13T09:48:29.000Z</time>
      </trkpt>
      <trkpt lat="45.56291" lon="7.841828">
        <ele>788.2851</ele>
        <time>2024-10-13T09:48:35.000Z</time>
      </trkpt>
      <trkpt lat="45.562928" lon="7.841845">
        <ele>788.92511</ele>
        <time>2024-10-13T09:48:37.000Z</time>
      </trkpt>
      <trkpt lat="45.562948" lon="7.841845">
        <ele>789.42511</ele>
        <time>2024-10-13T09:48:43.000Z</time>
      </trkpt>
      <trkpt lat="45.56297" lon="7.84185">
        <ele>789.90509</ele>
        <time>2024-10-13T09:48:48.000Z</time>
      </trkpt>
      <trkpt lat="45.562983" lon="7.841822">
        <ele>790.38507</ele>
        <time>2024-10-13T09:48:52.000Z</time>
      </trkpt>
      <trkpt lat="45.563007" lon="7.841822">
        <ele>790.81506</ele>
        <time>2024-10-13T09:48:57.000Z</time>
      </trkpt>
      <trkpt lat="45.563033" lon="7.841812">
        <ele>791.26501</ele>
        <time>2024-10-13T09:49:00.000Z</time>
      </trkpt>
      <trkpt lat="45.563057" lon="7.841802">
        <ele>791.73004</ele>
        <time>2024-10-13T09:49:03.000Z</time>
      </trkpt>
      <trkpt lat="45.563077" lon="7.841787">
        <ele>792.26007</ele>
        <time>2024-10-13T09:49:06.000Z</time>
      </trkpt>
      <trkpt lat="45.563097" lon="7.841773">
        <ele>792.90002</ele>
        <time>2024-10-13T09:49:10.000Z</time>
      </trkpt>
      <trkpt lat="45.563123" lon="7.841757">
        <ele>793.60999</ele>
        <time>2024-10-13T09:49:13.000Z</time>
      </trkpt>
      <trkpt lat="45.56314" lon="7.841747">
        <ele>794.35999</ele>
        <time>2024-10-13T09:49:16.000Z</time>
      </trkpt>
      <trkpt lat="45.56316" lon="7.841747">
        <ele>795.10999</ele>
        <time>2024-10-13T09:49:19.000Z</time>
      </trkpt>
      <trkpt lat="45.563188" lon="7.84175">
        <ele>795.85999</ele>
        <time>2024-10-13T09:49:21.000Z</time>
      </trkpt>
      <trkpt lat="45.563208" lon="7.841758">
        <ele>796.54504</ele>
        <time>2024-10-13T09:49:23.000Z</time>
      </trkpt>
      <trkpt lat="45.563227" lon="7.84175">
        <ele>797.17999</ele>
        <time>2024-10-13T09:49:27.000Z</time>
      </trkpt>
      <trkpt lat="45.563248" lon="7.841778">
        <ele>797.71997</ele>
        <time>2024-10-13T09:49:31.000Z</time>
      </trkpt>
      <trkpt lat="45.563252" lon="7.841748">
        <ele>798.31995</ele>
        <time>2024-10-13T09:49:37.000Z</time>
      </trkpt>
      <trkpt lat="45.563228" lon="7.841783">
        <ele>798.82501</ele>
        <time>2024-10-13T09:50:20.000Z</time>
      </trkpt>
      <trkpt lat="45.563242" lon="7.841802">
        <ele>799.31995</ele>
        <time>2024-10-13T09:50:25.000Z</time>
      </trkpt>
      <trkpt lat="45.563257" lon="7.841817">
        <ele>799.79498</ele>
        <time>2024-10-13T09:50:27.000Z</time>
      </trkpt>
      <trkpt lat="45.563277" lon="7.841845">
        <ele>800.28503</ele>
        <time>2024-10-13T09:50:31.000Z</time>
      </trkpt>
      <trkpt lat="45.563292" lon="7.841867">
        <ele>800.79504</ele>
        <time>2024-10-13T09:50:33.000Z</time>
      </trkpt>
      <trkpt lat="45.563307" lon="7.841892">
        <ele>801.39001</ele>
        <time>2024-10-13T09:50:35.000Z</time>
      </trkpt>
      <trkpt lat="45.563313" lon="7.841918">
        <ele>801.99506</ele>
        <time>2024-10-13T09:50:37.000Z</time>
      </trkpt>
      <trkpt lat="45.56333" lon="7.841955">
        <ele>802.61005</ele>
        <time>2024-10-13T09:50:40.000Z</time>
      </trkpt>
      <trkpt lat="45.563342" lon="7.841983">
        <ele>803.32007</ele>
        <time>2024-10-13T09:50:44.000Z</time>
      </trkpt>
      <trkpt lat="45.563348" lon="7.842008">
        <ele>803.99506</ele>
        <time>2024-10-13T09:50:46.000Z</time>
      </trkpt>
      <trkpt lat="45.563365" lon="7.842027">
        <ele>804.71503</ele>
        <time>2024-10-13T09:50:52.000Z</time>
      </trkpt>
      <trkpt lat="45.563382" lon="7.842037">
        <ele>805.40002</ele>
        <time>2024-10-13T09:50:56.000Z</time>
      </trkpt>
      <trkpt lat="45.5634" lon="7.842012">
        <ele>806.0401</ele>
        <time>2024-10-13T09:50:59.000Z</time>
      </trkpt>
      <trkpt lat="45.563408" lon="7.841988">
        <ele>806.63513</ele>
        <time>2024-10-13T09:51:01.000Z</time>
      </trkpt>
      <trkpt lat="45.563407" lon="7.841955">
        <ele>807.20508</ele>
        <time>2024-10-13T09:51:03.000Z</time>
      </trkpt>
      <trkpt lat="45.563412" lon="7.841927">
        <ele>807.71008</ele>
        <time>2024-10-13T09:51:05.000Z</time>
      </trkpt>
      <trkpt lat="45.563413" lon="7.841895">
        <ele>808.18005</ele>
        <time>2024-10-13T09:51:07.000Z</time>
      </trkpt>
      <trkpt lat="45.56343" lon="7.841865">
        <ele>808.67004</ele>
        <time>2024-10-13T09:51:09.000Z</time>
      </trkpt>
      <trkpt lat="45.563447" lon="7.84184">
        <ele>809.18506</ele>
        <time>2024-10-13T09:51:11.000Z</time>
      </trkpt>
      <trkpt lat="45.563463" lon="7.841817">
        <ele>809.59509</ele>
        <time>2024-10-13T09:51:13.000Z</time>
      </trkpt>
      <trkpt lat="45.563472" lon="7.841792">
        <ele>810.12006</ele>
        <time>2024-10-13T09:51:16.000Z</time>
      </trkpt>
      <trkpt lat="45.56347" lon="7.841765">
        <ele>810.62006</ele>
        <time>2024-10-13T09:51:18.000Z</time>
      </trkpt>
      <trkpt lat="45.563475" lon="7.84174">
        <ele>811.14008</ele>
        <time>2024-10-13T09:51:22.000Z</time>
      </trkpt>
      <trkpt lat="45.563495" lon="7.841737">
        <ele>811.62506</ele>
        <time>2024-10-13T09:51:25.000Z</time>
      </trkpt>
      <trkpt lat="45.563517" lon="7.841758">
        <ele>812.05505</ele>
        <time>2024-10-13T09:51:28.000Z</time>
      </trkpt>
      <trkpt lat="45.56353" lon="7.841782">
        <ele>812.42004</ele>
        <time>2024-10-13T09:51:30.000Z</time>
      </trkpt>
      <trkpt lat="45.563562" lon="7.84177">
        <ele>812.73499</ele>
        <time>2024-10-13T09:51:40.000Z</time>
      </trkpt>
      <trkpt lat="45.563542" lon="7.841745">
        <ele>812.98004</ele>
        <time>2024-10-13T09:51:42.000Z</time>
      </trkpt>
      <trkpt lat="45.563535" lon="7.84172">
        <ele>813.08002</ele>
        <time>2024-10-13T09:51:46.000Z</time>
      </trkpt>
      <trkpt lat="45.563553" lon="7.841685">
        <ele>813.10999</ele>
        <time>2024-10-13T09:51:58.000Z</time>
      </trkpt>
      <trkpt lat="45.563575" lon="7.84166">
        <ele>813.08002</ele>
        <time>2024-10-13T09:52:01.000Z</time>
      </trkpt>
      <trkpt lat="45.56359" lon="7.84164">
        <ele>813.06</ele>
        <time>2024-10-13T09:52:03.000Z</time>
      </trkpt>
      <trkpt lat="45.563603" lon="7.841618">
        <ele>813.05499</ele>
        <time>2024-10-13T09:52:05.000Z</time>
      </trkpt>
      <trkpt lat="45.563615" lon="7.841598">
        <ele>813.255</ele>
        <time>2024-10-13T09:52:09.000Z</time>
      </trkpt>
      <trkpt lat="45.56359" lon="7.841578">
        <ele>813.96002</ele>
        <time>2024-10-13T09:52:25.000Z</time>
      </trkpt>
      <trkpt lat="45.563605" lon="7.841558">
        <ele>814.70502</ele>
        <time>2024-10-13T09:52:27.000Z</time>
      </trkpt>
      <trkpt lat="45.563623" lon="7.841543">
        <ele>815.45007</ele>
        <time>2024-10-13T09:52:29.000Z</time>
      </trkpt>
      <trkpt lat="45.563645" lon="7.841548">
        <ele>816.14502</ele>
        <time>2024-10-13T09:52:31.000Z</time>
      </trkpt>
      <trkpt lat="45.563668" lon="7.84156">
        <ele>816.79004</ele>
        <time>2024-10-13T09:52:33.000Z</time>
      </trkpt>
      <trkpt lat="45.563697" lon="7.841563">
        <ele>817.38</ele>
        <time>2024-10-13T09:52:35.000Z</time>
      </trkpt>
      <trkpt lat="45.563717" lon="7.84157">
        <ele>817.92004</ele>
        <time>2024-10-13T09:52:36.000Z</time>
      </trkpt>
      <trkpt lat="45.563743" lon="7.841573">
        <ele>818.44501</ele>
        <time>2024-10-13T09:52:38.000Z</time>
      </trkpt>
      <trkpt lat="45.56376" lon="7.841553">
        <ele>818.94006</ele>
        <time>2024-10-13T09:52:42.000Z</time>
      </trkpt>
      <trkpt lat="45.563767" lon="7.841525">
        <ele>819.4751</ele>
        <time>2024-10-13T09:52:45.000Z</time>
      </trkpt>
      <trkpt lat="45.563782" lon="7.841503">
        <ele>820.02014</ele>
        <time>2024-10-13T09:52:49.000Z</time>
      </trkpt>
      <trkpt lat="45.563797" lon="7.841487">
        <ele>820.63513</ele>
        <time>2024-10-13T09:52:52.000Z</time>
      </trkpt>
      <trkpt lat="45.563815" lon="7.841468">
        <ele>821.33514</ele>
        <time>2024-10-13T09:52:56.000Z</time>
      </trkpt>
      <trkpt lat="45.563827" lon="7.841443">
        <ele>822.12012</ele>
        <time>2024-10-13T09:52:58.000Z</time>
      </trkpt>
      <trkpt lat="45.563835" lon="7.84142">
        <ele>822.99512</ele>
        <time>2024-10-13T09:53:00.000Z</time>
      </trkpt>
      <trkpt lat="45.563867" lon="7.841408">
        <ele>823.94513</ele>
        <time>2024-10-13T09:53:03.000Z</time>
      </trkpt>
      <trkpt lat="45.563885" lon="7.841407">
        <ele>824.89514</ele>
        <time>2024-10-13T09:53:05.000Z</time>
      </trkpt>
      <trkpt lat="45.563912" lon="7.841402">
        <ele>825.90515</ele>
        <time>2024-10-13T09:53:08.000Z</time>
      </trkpt>
      <trkpt lat="45.56393" lon="7.84139">
        <ele>826.90515</ele>
        <time>2024-10-13T09:53:10.000Z</time>
      </trkpt>
      <trkpt lat="45.563948" lon="7.841377">
        <ele>827.74512</ele>
        <time>2024-10-13T09:53:12.000Z</time>
      </trkpt>
      <trkpt lat="45.563958" lon="7.841355">
        <ele>828.18518</ele>
        <time>2024-10-13T09:53:16.000Z</time>
      </trkpt>
      <trkpt lat="45.563977" lon="7.841342">
        <ele>828.71515</ele>
        <time>2024-10-13T09:53:19.000Z</time>
      </trkpt>
      <trkpt lat="45.563997" lon="7.841337">
        <ele>829.3551</ele>
        <time>2024-10-13T09:53:22.000Z</time>
      </trkpt>
      <trkpt lat="45.564025" lon="7.841333">
        <ele>830.06506</ele>
        <time>2024-10-13T09:53:25.000Z</time>
      </trkpt>
      <trkpt lat="45.564048" lon="7.841333">
        <ele>830.82001</ele>
        <time>2024-10-13T09:53:27.000Z</time>
      </trkpt>
      <trkpt lat="45.564072" lon="7.841337">
        <ele>831.60999</ele>
        <time>2024-10-13T09:53:29.000Z</time>
      </trkpt>
      <trkpt lat="45.564092" lon="7.841325">
        <ele>832.51495</ele>
        <time>2024-10-13T09:53:36.000Z</time>
      </trkpt>
      <trkpt lat="45.56411" lon="7.841302">
        <ele>833.38995</ele>
        <time>2024-10-13T09:53:39.000Z</time>
      </trkpt>
      <trkpt lat="45.564135" lon="7.841302">
        <ele>834.19495</ele>
        <time>2024-10-13T09:53:41.000Z</time>
      </trkpt>
      <trkpt lat="45.564155" lon="7.841293">
        <ele>834.94989</ele>
        <time>2024-10-13T09:53:43.000Z</time>
      </trkpt>
      <trkpt lat="45.564177" lon="7.841285">
        <ele>835.7049</ele>
        <time>2024-10-13T09:53:47.000Z</time>
      </trkpt>
      <trkpt lat="45.564198" lon="7.841295">
        <ele>836.35986</ele>
        <time>2024-10-13T09:53:50.000Z</time>
      </trkpt>
      <trkpt lat="45.56422" lon="7.841298">
        <ele>836.91486</ele>
        <time>2024-10-13T09:53:52.000Z</time>
      </trkpt>
      <trkpt lat="45.564242" lon="7.8413">
        <ele>837.39978</ele>
        <time>2024-10-13T09:53:58.000Z</time>
      </trkpt>
      <trkpt lat="45.56426" lon="7.841303">
        <ele>837.83984</ele>
        <time>2024-10-13T09:54:00.000Z</time>
      </trkpt>
      <trkpt lat="45.564278" lon="7.841313">
        <ele>838.20984</ele>
        <time>2024-10-13T09:54:02.000Z</time>
      </trkpt>
      <trkpt lat="45.564293" lon="7.841328">
        <ele>838.5448</ele>
        <time>2024-10-13T09:54:04.000Z</time>
      </trkpt>
      <trkpt lat="45.564313" lon="7.841323">
        <ele>838.80988</ele>
        <time>2024-10-13T09:54:07.000Z</time>
      </trkpt>
      <trkpt lat="45.564325" lon="7.841303">
        <ele>839.09491</ele>
        <time>2024-10-13T09:54:10.000Z</time>
      </trkpt>
      <trkpt lat="45.564343" lon="7.841288">
        <ele>839.37488</ele>
        <time>2024-10-13T09:54:14.000Z</time>
      </trkpt>
      <trkpt lat="45.564367" lon="7.841298">
        <ele>839.63489</ele>
        <time>2024-10-13T09:54:17.000Z</time>
      </trkpt>
      <trkpt lat="45.564387" lon="7.841307">
        <ele>839.90491</ele>
        <time>2024-10-13T09:54:21.000Z</time>
      </trkpt>
      <trkpt lat="45.564407" lon="7.841297">
        <ele>840.16992</ele>
        <time>2024-10-13T09:54:28.000Z</time>
      </trkpt>
      <trkpt lat="45.564422" lon="7.841275">
        <ele>840.46497</ele>
        <time>2024-10-13T09:54:31.000Z</time>
      </trkpt>
      <trkpt lat="45.564447" lon="7.841277">
        <ele>840.80499</ele>
        <time>2024-10-13T09:54:34.000Z</time>
      </trkpt>
      <trkpt lat="45.564463" lon="7.841287">
        <ele>841.17499</ele>
        <time>2024-10-13T09:54:37.000Z</time>
      </trkpt>
      <trkpt lat="45.564485" lon="7.841297">
        <ele>841.47998</ele>
        <time>2024-10-13T09:54:41.000Z</time>
      </trkpt>
      <trkpt lat="45.564508" lon="7.841302">
        <ele>841.87</ele>
        <time>2024-10-13T09:54:44.000Z</time>
      </trkpt>
      <trkpt lat="45.564533" lon="7.841313">
        <ele>842.34503</ele>
        <time>2024-10-13T09:54:48.000Z</time>
      </trkpt>
      <trkpt lat="45.564553" lon="7.841325">
        <ele>842.88495</ele>
        <time>2024-10-13T09:54:50.000Z</time>
      </trkpt>
      <trkpt lat="45.564577" lon="7.841335">
        <ele>843.46497</ele>
        <time>2024-10-13T09:54:52.000Z</time>
      </trkpt>
      <trkpt lat="45.564595" lon="7.841348">
        <ele>844.07996</ele>
        <time>2024-10-13T09:54:55.000Z</time>
      </trkpt>
      <trkpt lat="45.564623" lon="7.841345">
        <ele>844.70001</ele>
        <time>2024-10-13T09:54:57.000Z</time>
      </trkpt>
      <trkpt lat="45.564645" lon="7.841343">
        <ele>845.33508</ele>
        <time>2024-10-13T09:55:01.000Z</time>
      </trkpt>
      <trkpt lat="45.564663" lon="7.84134">
        <ele>845.94513</ele>
        <time>2024-10-13T09:55:05.000Z</time>
      </trkpt>
      <trkpt lat="45.564677" lon="7.841322">
        <ele>846.51013</ele>
        <time>2024-10-13T09:55:09.000Z</time>
      </trkpt>
      <trkpt lat="45.564695" lon="7.841332">
        <ele>847.05011</ele>
        <time>2024-10-13T09:55:10.000Z</time>
      </trkpt>
      <trkpt lat="45.564717" lon="7.841322">
        <ele>847.58008</ele>
        <time>2024-10-13T09:55:13.000Z</time>
      </trkpt>
      <trkpt lat="45.564735" lon="7.841298">
        <ele>848.16504</ele>
        <time>2024-10-13T09:55:17.000Z</time>
      </trkpt>
      <trkpt lat="45.564742" lon="7.841272">
        <ele>848.78503</ele>
        <time>2024-10-13T09:55:19.000Z</time>
      </trkpt>
      <trkpt lat="45.564757" lon="7.841253">
        <ele>849.38007</ele>
        <time>2024-10-13T09:55:21.000Z</time>
      </trkpt>
      <trkpt lat="45.564778" lon="7.841247">
        <ele>849.92004</ele>
        <time>2024-10-13T09:55:24.000Z</time>
      </trkpt>
      <trkpt lat="45.564797" lon="7.841252">
        <ele>850.39001</ele>
        <time>2024-10-13T09:55:27.000Z</time>
      </trkpt>
      <trkpt lat="45.56482" lon="7.841263">
        <ele>850.84003</ele>
        <time>2024-10-13T09:55:33.000Z</time>
      </trkpt>
      <trkpt lat="45.564833" lon="7.841282">
        <ele>851.31006</ele>
        <time>2024-10-13T09:55:36.000Z</time>
      </trkpt>
      <trkpt lat="45.564852" lon="7.841302">
        <ele>851.77002</ele>
        <time>2024-10-13T09:55:38.000Z</time>
      </trkpt>
      <trkpt lat="45.564862" lon="7.841328">
        <ele>852.20996</ele>
        <time>2024-10-13T09:55:40.000Z</time>
      </trkpt>
      <trkpt lat="45.564855" lon="7.841367">
        <ele>852.66492</ele>
        <time>2024-10-13T09:55:43.000Z</time>
      </trkpt>
      <trkpt lat="45.564855" lon="7.841403">
        <ele>853.11993</ele>
        <time>2024-10-13T09:55:45.000Z</time>
      </trkpt>
      <trkpt lat="45.56485" lon="7.84143">
        <ele>853.55487</ele>
        <time>2024-10-13T09:55:47.000Z</time>
      </trkpt>
      <trkpt lat="45.564842" lon="7.841453">
        <ele>854.0199</ele>
        <time>2024-10-13T09:55:49.000Z</time>
      </trkpt>
      <trkpt lat="45.564833" lon="7.841483">
        <ele>854.58997</ele>
        <time>2024-10-13T09:55:53.000Z</time>
      </trkpt>
      <trkpt lat="45.564813" lon="7.841498">
        <ele>855.2699</ele>
        <time>2024-10-13T09:55:56.000Z</time>
      </trkpt>
      <trkpt lat="45.5648" lon="7.841518">
        <ele>855.99493</ele>
        <time>2024-10-13T09:55:58.000Z</time>
      </trkpt>
      <trkpt lat="45.564785" lon="7.841545">
        <ele>856.7749</ele>
        <time>2024-10-13T09:56:00.000Z</time>
      </trkpt>
      <trkpt lat="45.564767" lon="7.841563">
        <ele>857.62988</ele>
        <time>2024-10-13T09:56:03.000Z</time>
      </trkpt>
      <trkpt lat="45.56475" lon="7.84158">
        <ele>858.50989</ele>
        <time>2024-10-13T09:56:05.000Z</time>
      </trkpt>
      <trkpt lat="45.56474" lon="7.841612">
        <ele>859.46484</ele>
        <time>2024-10-13T09:56:08.000Z</time>
      </trkpt>
      <trkpt lat="45.564727" lon="7.841633">
        <ele>860.33484</ele>
        <time>2024-10-13T09:56:10.000Z</time>
      </trkpt>
      <trkpt lat="45.56473" lon="7.841607">
        <ele>861.18982</ele>
        <time>2024-10-13T09:56:16.000Z</time>
      </trkpt>
      <trkpt lat="45.564748" lon="7.841595">
        <ele>861.93982</ele>
        <time>2024-10-13T09:56:23.000Z</time>
      </trkpt>
      <trkpt lat="45.564772" lon="7.841587">
        <ele>862.62488</ele>
        <time>2024-10-13T09:56:25.000Z</time>
      </trkpt>
      <trkpt lat="45.564787" lon="7.841563">
        <ele>863.28992</ele>
        <time>2024-10-13T09:56:28.000Z</time>
      </trkpt>
      <trkpt lat="45.564803" lon="7.841545">
        <ele>863.91492</ele>
        <time>2024-10-13T09:56:30.000Z</time>
      </trkpt>
      <trkpt lat="45.564822" lon="7.841525">
        <ele>864.47998</ele>
        <time>2024-10-13T09:56:32.000Z</time>
      </trkpt>
      <trkpt lat="45.56485" lon="7.841502">
        <ele>864.98499</ele>
        <time>2024-10-13T09:56:34.000Z</time>
      </trkpt>
      <trkpt lat="45.564875" lon="7.841477">
        <ele>865.46497</ele>
        <time>2024-10-13T09:56:36.000Z</time>
      </trkpt>
      <trkpt lat="45.564902" lon="7.841457">
        <ele>865.88</ele>
        <time>2024-10-13T09:56:38.000Z</time>
      </trkpt>
      <trkpt lat="45.564918" lon="7.841442">
        <ele>866.25</ele>
        <time>2024-10-13T09:56:40.000Z</time>
      </trkpt>
      <trkpt lat="45.564927" lon="7.841418">
        <ele>866.66492</ele>
        <time>2024-10-13T09:56:43.000Z</time>
      </trkpt>
      <trkpt lat="45.564945" lon="7.84141">
        <ele>867.07489</ele>
        <time>2024-10-13T09:56:45.000Z</time>
      </trkpt>
      <trkpt lat="45.564967" lon="7.841388">
        <ele>867.42493</ele>
        <time>2024-10-13T09:56:47.000Z</time>
      </trkpt>
      <trkpt lat="45.564982" lon="7.841373">
        <ele>867.73993</ele>
        <time>2024-10-13T09:56:49.000Z</time>
      </trkpt>
      <trkpt lat="45.564998" lon="7.841353">
        <ele>867.99988</ele>
        <time>2024-10-13T09:56:51.000Z</time>
      </trkpt>
      <trkpt lat="45.565015" lon="7.84134">
        <ele>868.18994</ele>
        <time>2024-10-13T09:56:52.000Z</time>
      </trkpt>
      <trkpt lat="45.565027" lon="7.84132">
        <ele>868.31995</ele>
        <time>2024-10-13T09:56:53.000Z</time>
      </trkpt>
      <trkpt lat="45.56505" lon="7.841302">
        <ele>868.41486</ele>
        <time>2024-10-13T09:56:55.000Z</time>
      </trkpt>
      <trkpt lat="45.565073" lon="7.841293">
        <ele>868.37976</ele>
        <time>2024-10-13T09:56:58.000Z</time>
      </trkpt>
      <trkpt lat="45.565093" lon="7.841288">
        <ele>868.32483</ele>
        <time>2024-10-13T09:57:00.000Z</time>
      </trkpt>
      <trkpt lat="45.565115" lon="7.841285">
        <ele>868.20477</ele>
        <time>2024-10-13T09:57:02.000Z</time>
      </trkpt>
      <trkpt lat="45.565137" lon="7.841282">
        <ele>868.11487</ele>
        <time>2024-10-13T09:57:04.000Z</time>
      </trkpt>
      <trkpt lat="45.565155" lon="7.84127">
        <ele>867.99982</ele>
        <time>2024-10-13T09:57:06.000Z</time>
      </trkpt>
      <trkpt lat="45.56518" lon="7.841273">
        <ele>867.83984</ele>
        <time>2024-10-13T09:57:08.000Z</time>
      </trkpt>
      <trkpt lat="45.565198" lon="7.841267">
        <ele>867.6048</ele>
        <time>2024-10-13T09:57:10.000Z</time>
      </trkpt>
      <trkpt lat="45.565222" lon="7.841258">
        <ele>867.31476</ele>
        <time>2024-10-13T09:57:12.000Z</time>
      </trkpt>
      <trkpt lat="45.56525" lon="7.841263">
        <ele>867.01984</ele>
        <time>2024-10-13T09:57:14.000Z</time>
      </trkpt>
      <trkpt lat="45.565278" lon="7.841273">
        <ele>866.67987</ele>
        <time>2024-10-13T09:57:16.000Z</time>
      </trkpt>
      <trkpt lat="45.565305" lon="7.841282">
        <ele>866.33484</ele>
        <time>2024-10-13T09:57:18.000Z</time>
      </trkpt>
      <trkpt lat="45.56533" lon="7.841297">
        <ele>865.99481</ele>
        <time>2024-10-13T09:57:20.000Z</time>
      </trkpt>
      <trkpt lat="45.565355" lon="7.841328">
        <ele>865.61981</ele>
        <time>2024-10-13T09:57:22.000Z</time>
      </trkpt>
      <trkpt lat="45.56537" lon="7.841343">
        <ele>865.21484</ele>
        <time>2024-10-13T09:57:23.000Z</time>
      </trkpt>
      <trkpt lat="45.565393" lon="7.841365">
        <ele>864.80481</ele>
        <time>2024-10-13T09:57:25.000Z</time>
      </trkpt>
      <trkpt lat="45.565412" lon="7.841388">
        <ele>864.39978</ele>
        <time>2024-10-13T09:57:28.000Z</time>
      </trkpt>
      <trkpt lat="45.565427" lon="7.84141">
        <ele>864.02478</ele>
        <time>2024-10-13T09:57:30.000Z</time>
      </trkpt>
      <trkpt lat="45.565443" lon="7.841438">
        <ele>863.68475</ele>
        <time>2024-10-13T09:57:32.000Z</time>
      </trkpt>
      <trkpt lat="45.565452" lon="7.84147">
        <ele>863.34979</ele>
        <time>2024-10-13T09:57:34.000Z</time>
      </trkpt>
      <trkpt lat="45.565438" lon="7.841495">
        <ele>863.00488</ele>
        <time>2024-10-13T09:57:38.000Z</time>
      </trkpt>
      <trkpt lat="45.565408" lon="7.841512">
        <ele>862.72986</ele>
        <time>2024-10-13T09:57:41.000Z</time>
      </trkpt>
      <trkpt lat="45.565385" lon="7.841533">
        <ele>862.48486</ele>
        <time>2024-10-13T09:57:43.000Z</time>
      </trkpt>
      <trkpt lat="45.565368" lon="7.841545">
        <ele>862.27478</ele>
        <time>2024-10-13T09:57:44.000Z</time>
      </trkpt>
      <trkpt lat="45.565347" lon="7.841567">
        <ele>862.11981</ele>
        <time>2024-10-13T09:57:46.000Z</time>
      </trkpt>
      <trkpt lat="45.565325" lon="7.841583">
        <ele>862.0448</ele>
        <time>2024-10-13T09:57:48.000Z</time>
      </trkpt>
      <trkpt lat="45.5653" lon="7.841592">
        <ele>862.08484</ele>
        <time>2024-10-13T09:57:50.000Z</time>
      </trkpt>
      <trkpt lat="45.565273" lon="7.841595">
        <ele>862.23987</ele>
        <time>2024-10-13T09:57:52.000Z</time>
      </trkpt>
      <trkpt lat="45.565245" lon="7.841592">
        <ele>862.49481</ele>
        <time>2024-10-13T09:57:54.000Z</time>
      </trkpt>
      <trkpt lat="45.565222" lon="7.841598">
        <ele>862.85974</ele>
        <time>2024-10-13T09:57:56.000Z</time>
      </trkpt>
      <trkpt lat="45.565195" lon="7.841618">
        <ele>863.35974</ele>
        <time>2024-10-13T09:57:58.000Z</time>
      </trkpt>
      <trkpt lat="45.565165" lon="7.841628">
        <ele>863.95978</ele>
        <time>2024-10-13T09:58:00.000Z</time>
      </trkpt>
      <trkpt lat="45.565148" lon="7.84164">
        <ele>864.6698</ele>
        <time>2024-10-13T09:58:02.000Z</time>
      </trkpt>
      <trkpt lat="45.565133" lon="7.841658">
        <ele>865.38489</ele>
        <time>2024-10-13T09:58:04.000Z</time>
      </trkpt>
      <trkpt lat="45.565122" lon="7.841685">
        <ele>866.09485</ele>
        <time>2024-10-13T09:58:06.000Z</time>
      </trkpt>
      <trkpt lat="45.565105" lon="7.841708">
        <ele>866.75488</ele>
        <time>2024-10-13T09:58:09.000Z</time>
      </trkpt>
      <trkpt lat="45.56509" lon="7.841723">
        <ele>867.36981</ele>
        <time>2024-10-13T09:58:13.000Z</time>
      </trkpt>
      <trkpt lat="45.565117" lon="7.84173">
        <ele>867.99982</ele>
        <time>2024-10-13T09:58:16.000Z</time>
      </trkpt>
      <trkpt lat="45.56513" lon="7.841712">
        <ele>868.6048</ele>
        <time>2024-10-13T09:58:19.000Z</time>
      </trkpt>
      <trkpt lat="45.565148" lon="7.841713">
        <ele>869.26477</ele>
        <time>2024-10-13T09:58:30.000Z</time>
      </trkpt>
      <trkpt lat="45.565173" lon="7.841722">
        <ele>870.18976</ele>
        <time>2024-10-13T09:58:39.000Z</time>
      </trkpt>
      <trkpt lat="45.565193" lon="7.841718">
        <ele>871.1947</ele>
        <time>2024-10-13T09:58:43.000Z</time>
      </trkpt>
      <trkpt lat="45.565213" lon="7.84172">
        <ele>872.27979</ele>
        <time>2024-10-13T09:58:45.000Z</time>
      </trkpt>
      <trkpt lat="45.565233" lon="7.841707">
        <ele>873.44983</ele>
        <time>2024-10-13T09:58:53.000Z</time>
      </trkpt>
      <trkpt lat="45.565255" lon="7.84171">
        <ele>874.59485</ele>
        <time>2024-10-13T09:58:57.000Z</time>
      </trkpt>
      <trkpt lat="45.565273" lon="7.841728">
        <ele>875.67987</ele>
        <time>2024-10-13T09:59:01.000Z</time>
      </trkpt>
      <trkpt lat="45.565292" lon="7.841743">
        <ele>876.65491</ele>
        <time>2024-10-13T09:59:06.000Z</time>
      </trkpt>
      <trkpt lat="45.565307" lon="7.841758">
        <ele>877.55487</ele>
        <time>2024-10-13T09:59:10.000Z</time>
      </trkpt>
      <trkpt lat="45.565327" lon="7.841777">
        <ele>878.38995</ele>
        <time>2024-10-13T09:59:14.000Z</time>
      </trkpt>
      <trkpt lat="45.565345" lon="7.841787">
        <ele>879.15002</ele>
        <time>2024-10-13T09:59:16.000Z</time>
      </trkpt>
      <trkpt lat="45.565365" lon="7.841785">
        <ele>879.96991</ele>
        <time>2024-10-13T09:59:23.000Z</time>
      </trkpt>
      <trkpt lat="45.565383" lon="7.84179">
        <ele>880.78485</ele>
        <time>2024-10-13T09:59:25.000Z</time>
      </trkpt>
      <trkpt lat="45.565403" lon="7.841802">
        <ele>881.58984</ele>
        <time>2024-10-13T09:59:28.000Z</time>
      </trkpt>
      <trkpt lat="45.565423" lon="7.841817">
        <ele>882.41486</ele>
        <time>2024-10-13T09:59:32.000Z</time>
      </trkpt>
      <trkpt lat="45.565437" lon="7.841843">
        <ele>883.30988</ele>
        <time>2024-10-13T09:59:35.000Z</time>
      </trkpt>
      <trkpt lat="45.565452" lon="7.841875">
        <ele>884.21484</ele>
        <time>2024-10-13T09:59:37.000Z</time>
      </trkpt>
      <trkpt lat="45.565463" lon="7.841902">
        <ele>885.11981</ele>
        <time>2024-10-13T09:59:39.000Z</time>
      </trkpt>
      <trkpt lat="45.565482" lon="7.841932">
        <ele>885.99481</ele>
        <time>2024-10-13T09:59:44.000Z</time>
      </trkpt>
      <trkpt lat="45.565492" lon="7.841955">
        <ele>886.87488</ele>
        <time>2024-10-13T09:59:48.000Z</time>
      </trkpt>
      <trkpt lat="45.565517" lon="7.841977">
        <ele>887.70496</ele>
        <time>2024-10-13T09:59:53.000Z</time>
      </trkpt>
      <trkpt lat="45.565523" lon="7.842003">
        <ele>888.35498</ele>
        <time>2024-10-13T09:59:56.000Z</time>
      </trkpt>
      <trkpt lat="45.565512" lon="7.842025">
        <ele>888.99005</ele>
        <time>2024-10-13T10:00:01.000Z</time>
      </trkpt>
      <trkpt lat="45.565477" lon="7.842092">
        <ele>890.02502</ele>
        <time>2024-10-13T10:00:30.000Z</time>
      </trkpt>
      <trkpt lat="45.565488" lon="7.842118">
        <ele>890.94501</ele>
        <time>2024-10-13T10:00:32.000Z</time>
      </trkpt>
      <trkpt lat="45.565495" lon="7.842143">
        <ele>891.7301</ele>
        <time>2024-10-13T10:00:40.000Z</time>
      </trkpt>
      <trkpt lat="45.565513" lon="7.842152">
        <ele>892.5</ele>
        <time>2024-10-13T10:00:44.000Z</time>
      </trkpt>
      <trkpt lat="45.565493" lon="7.842162">
        <ele>893.41003</ele>
        <time>2024-10-13T10:00:51.000Z</time>
      </trkpt>
      <trkpt lat="45.565477" lon="7.842138">
        <ele>894.36005</ele>
        <time>2024-10-13T10:00:53.000Z</time>
      </trkpt>
      <trkpt lat="45.565457" lon="7.84213">
        <ele>895.34998</ele>
        <time>2024-10-13T10:00:55.000Z</time>
      </trkpt>
      <trkpt lat="45.565437" lon="7.842113">
        <ele>896.45496</ele>
        <time>2024-10-13T10:01:40.000Z</time>
      </trkpt>
      <trkpt lat="45.565455" lon="7.842112">
        <ele>897.40497</ele>
        <time>2024-10-13T10:01:49.000Z</time>
      </trkpt>
      <trkpt lat="45.565478" lon="7.842118">
        <ele>898.26007</ele>
        <time>2024-10-13T10:01:52.000Z</time>
      </trkpt>
      <trkpt lat="45.565495" lon="7.842105">
        <ele>899.02509</ele>
        <time>2024-10-13T10:01:55.000Z</time>
      </trkpt>
      <trkpt lat="45.565518" lon="7.842128">
        <ele>899.75012</ele>
        <time>2024-10-13T10:02:01.000Z</time>
      </trkpt>
      <trkpt lat="45.565543" lon="7.842117">
        <ele>900.41516</ele>
        <time>2024-10-13T10:02:08.000Z</time>
      </trkpt>
      <trkpt lat="45.565563" lon="7.842128">
        <ele>901.09509</ele>
        <time>2024-10-13T10:02:15.000Z</time>
      </trkpt>
      <trkpt lat="45.565568" lon="7.842153">
        <ele>901.79016</ele>
        <time>2024-10-13T10:02:19.000Z</time>
      </trkpt>
      <trkpt lat="45.565573" lon="7.842185">
        <ele>902.53516</ele>
        <time>2024-10-13T10:02:24.000Z</time>
      </trkpt>
      <trkpt lat="45.56559" lon="7.842205">
        <ele>903.33008</ele>
        <time>2024-10-13T10:02:26.000Z</time>
      </trkpt>
      <trkpt lat="45.565608" lon="7.842212">
        <ele>904.17004</ele>
        <time>2024-10-13T10:02:31.000Z</time>
      </trkpt>
      <trkpt lat="45.565627" lon="7.842218">
        <ele>904.97498</ele>
        <time>2024-10-13T10:02:33.000Z</time>
      </trkpt>
      <trkpt lat="45.565623" lon="7.84225">
        <ele>905.72003</ele>
        <time>2024-10-13T10:02:38.000Z</time>
      </trkpt>
      <trkpt lat="45.565615" lon="7.842275">
        <ele>905.98505</ele>
        <time>2024-10-13T10:02:41.000Z</time>
      </trkpt>
      <trkpt lat="45.565627" lon="7.8423">
        <ele>906.23505</ele>
        <time>2024-10-13T10:02:43.000Z</time>
      </trkpt>
      <trkpt lat="45.565647" lon="7.842315">
        <ele>906.61005</ele>
        <time>2024-10-13T10:02:45.000Z</time>
      </trkpt>
      <trkpt lat="45.5656" lon="7.842225">
        <ele>907.46515</ele>
        <time>2024-10-13T10:03:29.000Z</time>
      </trkpt>
      <trkpt lat="45.565585" lon="7.842242">
        <ele>908.33008</ele>
        <time>2024-10-13T10:03:36.000Z</time>
      </trkpt>
      <trkpt lat="45.565565" lon="7.842245">
        <ele>909.19006</ele>
        <time>2024-10-13T10:03:39.000Z</time>
      </trkpt>
      <trkpt lat="45.565563" lon="7.842272">
        <ele>910.07001</ele>
        <time>2024-10-13T10:03:45.000Z</time>
      </trkpt>
      <trkpt lat="45.565562" lon="7.842242">
        <ele>911.02502</ele>
        <time>2024-10-13T10:03:54.000Z</time>
      </trkpt>
      <trkpt lat="45.565575" lon="7.842223">
        <ele>912.00507</ele>
        <time>2024-10-13T10:03:56.000Z</time>
      </trkpt>
      <trkpt lat="45.565593" lon="7.8422">
        <ele>913.00507</ele>
        <time>2024-10-13T10:03:59.000Z</time>
      </trkpt>
      <trkpt lat="45.5656" lon="7.84217">
        <ele>914.04004</ele>
        <time>2024-10-13T10:04:02.000Z</time>
      </trkpt>
      <trkpt lat="45.565618" lon="7.842167">
        <ele>915.07501</ele>
        <time>2024-10-13T10:04:04.000Z</time>
      </trkpt>
      <trkpt lat="45.565642" lon="7.842197">
        <ele>916.11493</ele>
        <time>2024-10-13T10:04:08.000Z</time>
      </trkpt>
      <trkpt lat="45.565658" lon="7.842208">
        <ele>917.13</ele>
        <time>2024-10-13T10:04:12.000Z</time>
      </trkpt>
      <trkpt lat="45.56568" lon="7.842203">
        <ele>918.13495</ele>
        <time>2024-10-13T10:04:17.000Z</time>
      </trkpt>
      <trkpt lat="45.565698" lon="7.842208">
        <ele>919.05499</ele>
        <time>2024-10-13T10:04:23.000Z</time>
      </trkpt>
      <trkpt lat="45.565718" lon="7.84222">
        <ele>919.94006</ele>
        <time>2024-10-13T10:04:25.000Z</time>
      </trkpt>
      <trkpt lat="45.565738" lon="7.842253">
        <ele>920.79004</ele>
        <time>2024-10-13T10:04:27.000Z</time>
      </trkpt>
      <trkpt lat="45.565757" lon="7.842272">
        <ele>921.63507</ele>
        <time>2024-10-13T10:04:29.000Z</time>
      </trkpt>
      <trkpt lat="45.565773" lon="7.842282">
        <ele>922.46008</ele>
        <time>2024-10-13T10:04:31.000Z</time>
      </trkpt>
      <trkpt lat="45.56579" lon="7.842297">
        <ele>923.27997</ele>
        <time>2024-10-13T10:04:33.000Z</time>
      </trkpt>
      <trkpt lat="45.56581" lon="7.842298">
        <ele>924.125</ele>
        <time>2024-10-13T10:04:36.000Z</time>
      </trkpt>
      <trkpt lat="45.565837" lon="7.842297">
        <ele>924.94495</ele>
        <time>2024-10-13T10:04:41.000Z</time>
      </trkpt>
      <trkpt lat="45.565855" lon="7.842288">
        <ele>925.31995</ele>
        <time>2024-10-13T10:04:50.000Z</time>
      </trkpt>
      <trkpt lat="45.565878" lon="7.842293">
        <ele>925.63495</ele>
        <time>2024-10-13T10:04:57.000Z</time>
      </trkpt>
      <trkpt lat="45.565893" lon="7.842263">
        <ele>925.91492</ele>
        <time>2024-10-13T10:05:01.000Z</time>
      </trkpt>
      <trkpt lat="45.565917" lon="7.842268">
        <ele>926.10999</ele>
        <time>2024-10-13T10:05:04.000Z</time>
      </trkpt>
      <trkpt lat="45.565933" lon="7.842278">
        <ele>926.08496</ele>
        <time>2024-10-13T10:05:06.000Z</time>
      </trkpt>
      <trkpt lat="45.565955" lon="7.842282">
        <ele>926.05994</ele>
        <time>2024-10-13T10:05:11.000Z</time>
      </trkpt>
      <trkpt lat="45.565978" lon="7.842295">
        <ele>926.04993</ele>
        <time>2024-10-13T10:05:14.000Z</time>
      </trkpt>
      <trkpt lat="45.565997" lon="7.84229">
        <ele>926.02991</ele>
        <time>2024-10-13T10:05:23.000Z</time>
      </trkpt>
      <trkpt lat="45.566013" lon="7.842272">
        <ele>925.96497</ele>
        <time>2024-10-13T10:05:27.000Z</time>
      </trkpt>
      <trkpt lat="45.566032" lon="7.842267">
        <ele>925.85999</ele>
        <time>2024-10-13T10:05:30.000Z</time>
      </trkpt>
      <trkpt lat="45.566053" lon="7.842285">
        <ele>925.74493</ele>
        <time>2024-10-13T10:05:33.000Z</time>
      </trkpt>
      <trkpt lat="45.566063" lon="7.842308">
        <ele>925.54999</ele>
        <time>2024-10-13T10:05:40.000Z</time>
      </trkpt>
      <trkpt lat="45.566082" lon="7.842327">
        <ele>925.35999</ele>
        <time>2024-10-13T10:05:44.000Z</time>
      </trkpt>
      <trkpt lat="45.5661" lon="7.84234">
        <ele>925.1449</ele>
        <time>2024-10-13T10:05:46.000Z</time>
      </trkpt>
      <trkpt lat="45.566107" lon="7.842365">
        <ele>924.8949</ele>
        <time>2024-10-13T10:05:49.000Z</time>
      </trkpt>
      <trkpt lat="45.5661" lon="7.842397">
        <ele>924.61487</ele>
        <time>2024-10-13T10:05:54.000Z</time>
      </trkpt>
      <trkpt lat="45.566092" lon="7.842423">
        <ele>924.33984</ele>
        <time>2024-10-13T10:05:58.000Z</time>
      </trkpt>
      <trkpt lat="45.566087" lon="7.842455">
        <ele>924.09491</ele>
        <time>2024-10-13T10:06:03.000Z</time>
      </trkpt>
      <trkpt lat="45.566077" lon="7.842478">
        <ele>923.85986</ele>
        <time>2024-10-13T10:06:06.000Z</time>
      </trkpt>
      <trkpt lat="45.566032" lon="7.84263">
        <ele>923.8949</ele>
        <time>2024-10-13T10:06:22.000Z</time>
      </trkpt>
      <trkpt lat="45.566032" lon="7.8426">
        <ele>924.12988</ele>
        <time>2024-10-13T10:06:32.000Z</time>
      </trkpt>
      <trkpt lat="45.566043" lon="7.842557">
        <ele>924.73486</ele>
        <time>2024-10-13T10:06:48.000Z</time>
      </trkpt>
      <trkpt lat="45.566068" lon="7.842553">
        <ele>925.4549</ele>
        <time>2024-10-13T10:07:01.000Z</time>
      </trkpt>
      <trkpt lat="45.566088" lon="7.842545">
        <ele>926.23486</ele>
        <time>2024-10-13T10:07:04.000Z</time>
      </trkpt>
      <trkpt lat="45.566107" lon="7.842542">
        <ele>927.05487</ele>
        <time>2024-10-13T10:07:06.000Z</time>
      </trkpt>
      <trkpt lat="45.566127" lon="7.842547">
        <ele>927.85486</ele>
        <time>2024-10-13T10:07:08.000Z</time>
      </trkpt>
      <trkpt lat="45.566147" lon="7.842548">
        <ele>928.65985</ele>
        <time>2024-10-13T10:07:10.000Z</time>
      </trkpt>
      <trkpt lat="45.566172" lon="7.842553">
        <ele>929.44495</ele>
        <time>2024-10-13T10:07:13.000Z</time>
      </trkpt>
      <trkpt lat="45.56619" lon="7.842557">
        <ele>930.25488</ele>
        <time>2024-10-13T10:07:15.000Z</time>
      </trkpt>
      <trkpt lat="45.566208" lon="7.842572">
        <ele>931.07489</ele>
        <time>2024-10-13T10:07:17.000Z</time>
      </trkpt>
      <trkpt lat="45.566225" lon="7.842593">
        <ele>931.93488</ele>
        <time>2024-10-13T10:07:21.000Z</time>
      </trkpt>
      <trkpt lat="45.566245" lon="7.8426">
        <ele>932.90985</ele>
        <time>2024-10-13T10:07:26.000Z</time>
      </trkpt>
      <trkpt lat="45.566263" lon="7.842598">
        <ele>933.92493</ele>
        <time>2024-10-13T10:07:28.000Z</time>
      </trkpt>
      <trkpt lat="45.566283" lon="7.842595">
        <ele>934.98499</ele>
        <time>2024-10-13T10:07:30.000Z</time>
      </trkpt>
      <trkpt lat="45.566303" lon="7.84258">
        <ele>936.10999</ele>
        <time>2024-10-13T10:07:33.000Z</time>
      </trkpt>
      <trkpt lat="45.56633" lon="7.842587">
        <ele>937.27502</ele>
        <time>2024-10-13T10:07:36.000Z</time>
      </trkpt>
      <trkpt lat="45.566352" lon="7.842578">
        <ele>938.45496</ele>
        <time>2024-10-13T10:07:39.000Z</time>
      </trkpt>
      <trkpt lat="45.566373" lon="7.842587">
        <ele>939.59991</ele>
        <time>2024-10-13T10:07:41.000Z</time>
      </trkpt>
      <trkpt lat="45.566395" lon="7.842582">
        <ele>940.80994</ele>
        <time>2024-10-13T10:07:47.000Z</time>
      </trkpt>
      <trkpt lat="45.566417" lon="7.842602">
        <ele>941.84991</ele>
        <time>2024-10-13T10:07:50.000Z</time>
      </trkpt>
      <trkpt lat="45.566435" lon="7.8426">
        <ele>942.73486</ele>
        <time>2024-10-13T10:07:53.000Z</time>
      </trkpt>
      <trkpt lat="45.566462" lon="7.842618">
        <ele>943.22491</ele>
        <time>2024-10-13T10:07:56.000Z</time>
      </trkpt>
      <trkpt lat="45.566485" lon="7.842617">
        <ele>943.59991</ele>
        <time>2024-10-13T10:08:00.000Z</time>
      </trkpt>
      <trkpt lat="45.566518" lon="7.842628">
        <ele>943.91992</ele>
        <time>2024-10-13T10:08:04.000Z</time>
      </trkpt>
      <trkpt lat="45.56654" lon="7.84263">
        <ele>944.20984</ele>
        <time>2024-10-13T10:08:06.000Z</time>
      </trkpt>
      <trkpt lat="45.566568" lon="7.842637">
        <ele>944.49481</ele>
        <time>2024-10-13T10:08:09.000Z</time>
      </trkpt>
      <trkpt lat="45.566587" lon="7.842642">
        <ele>944.76984</ele>
        <time>2024-10-13T10:08:11.000Z</time>
      </trkpt>
      <trkpt lat="45.566605" lon="7.84265">
        <ele>945.01984</ele>
        <time>2024-10-13T10:08:13.000Z</time>
      </trkpt>
      <trkpt lat="45.566618" lon="7.84267">
        <ele>945.27991</ele>
        <time>2024-10-13T10:08:15.000Z</time>
      </trkpt>
      <trkpt lat="45.566637" lon="7.842653">
        <ele>945.55988</ele>
        <time>2024-10-13T10:08:19.000Z</time>
      </trkpt>
      <trkpt lat="45.566662" lon="7.842632">
        <ele>945.82489</ele>
        <time>2024-10-13T10:08:29.000Z</time>
      </trkpt>
      <trkpt lat="45.566682" lon="7.842643">
        <ele>946.0799</ele>
        <time>2024-10-13T10:08:31.000Z</time>
      </trkpt>
      <trkpt lat="45.566698" lon="7.842627">
        <ele>946.3299</ele>
        <time>2024-10-13T10:08:33.000Z</time>
      </trkpt>
      <trkpt lat="45.566718" lon="7.842622">
        <ele>946.59979</ele>
        <time>2024-10-13T10:08:37.000Z</time>
      </trkpt>
      <trkpt lat="45.566742" lon="7.842618">
        <ele>946.87482</ele>
        <time>2024-10-13T10:08:40.000Z</time>
      </trkpt>
      <trkpt lat="45.566758" lon="7.842628">
        <ele>947.13983</ele>
        <time>2024-10-13T10:08:42.000Z</time>
      </trkpt>
      <trkpt lat="45.566782" lon="7.842635">
        <ele>947.39484</ele>
        <time>2024-10-13T10:08:44.000Z</time>
      </trkpt>
      <trkpt lat="45.566802" lon="7.84262">
        <ele>947.6698</ele>
        <time>2024-10-13T10:08:47.000Z</time>
      </trkpt>
      <trkpt lat="45.56682" lon="7.842613">
        <ele>947.9198</ele>
        <time>2024-10-13T10:08:51.000Z</time>
      </trkpt>
      <trkpt lat="45.566843" lon="7.842617">
        <ele>948.14484</ele>
        <time>2024-10-13T10:08:55.000Z</time>
      </trkpt>
      <trkpt lat="45.566863" lon="7.842615">
        <ele>948.33984</ele>
        <time>2024-10-13T10:08:56.000Z</time>
      </trkpt>
      <trkpt lat="45.56688" lon="7.842627">
        <ele>948.55975</ele>
        <time>2024-10-13T10:09:00.000Z</time>
      </trkpt>
      <trkpt lat="45.566958" lon="7.842628">
        <ele>948.92981</ele>
        <time>2024-10-13T10:09:12.000Z</time>
      </trkpt>
      <trkpt lat="45.56698" lon="7.842623">
        <ele>949.35974</ele>
        <time>2024-10-13T10:09:15.000Z</time>
      </trkpt>
      <trkpt lat="45.567008" lon="7.84262">
        <ele>949.95978</ele>
        <time>2024-10-13T10:09:24.000Z</time>
      </trkpt>
      <trkpt lat="45.567027" lon="7.842652">
        <ele>950.63477</ele>
        <time>2024-10-13T10:09:28.000Z</time>
      </trkpt>
      <trkpt lat="45.567038" lon="7.842673">
        <ele>951.3548</ele>
        <time>2024-10-13T10:09:34.000Z</time>
      </trkpt>
      <trkpt lat="45.567067" lon="7.842667">
        <ele>952.12469</ele>
        <time>2024-10-13T10:09:39.000Z</time>
      </trkpt>
      <trkpt lat="45.567083" lon="7.842685">
        <ele>952.89465</ele>
        <time>2024-10-13T10:09:41.000Z</time>
      </trkpt>
      <trkpt lat="45.567103" lon="7.842683">
        <ele>953.63464</ele>
        <time>2024-10-13T10:09:44.000Z</time>
      </trkpt>
      <trkpt lat="45.567122" lon="7.842675">
        <ele>954.36963</ele>
        <time>2024-10-13T10:09:47.000Z</time>
      </trkpt>
      <trkpt lat="45.567143" lon="7.842677">
        <ele>955.04962</ele>
        <time>2024-10-13T10:09:49.000Z</time>
      </trkpt>
      <trkpt lat="45.56716" lon="7.84266">
        <ele>955.74963</ele>
        <time>2024-10-13T10:09:54.000Z</time>
      </trkpt>
      <trkpt lat="45.567178" lon="7.842668">
        <ele>956.45966</ele>
        <time>2024-10-13T10:09:58.000Z</time>
      </trkpt>
      <trkpt lat="45.567175" lon="7.842722">
        <ele>957.59473</ele>
        <time>2024-10-13T10:10:45.000Z</time>
      </trkpt>
      <trkpt lat="45.567232" lon="7.84271">
        <ele>958.71973</ele>
        <time>2024-10-13T10:10:54.000Z</time>
      </trkpt>
      <trkpt lat="45.567253" lon="7.842712">
        <ele>959.8197</ele>
        <time>2024-10-13T10:10:58.000Z</time>
      </trkpt>
      <trkpt lat="45.567275" lon="7.842708">
        <ele>960.90979</ele>
        <time>2024-10-13T10:11:01.000Z</time>
      </trkpt>
      <trkpt lat="45.56729" lon="7.842723">
        <ele>961.93976</ele>
        <time>2024-10-13T10:11:04.000Z</time>
      </trkpt>
      <trkpt lat="45.567303" lon="7.84275">
        <ele>962.93475</ele>
        <time>2024-10-13T10:11:06.000Z</time>
      </trkpt>
      <trkpt lat="45.567317" lon="7.84277">
        <ele>963.90979</ele>
        <time>2024-10-13T10:11:09.000Z</time>
      </trkpt>
      <trkpt lat="45.567338" lon="7.842778">
        <ele>964.83984</ele>
        <time>2024-10-13T10:11:15.000Z</time>
      </trkpt>
      <trkpt lat="45.567357" lon="7.842772">
        <ele>965.6698</ele>
        <time>2024-10-13T10:11:27.000Z</time>
      </trkpt>
      <trkpt lat="45.567375" lon="7.842772">
        <ele>966.47491</ele>
        <time>2024-10-13T10:11:31.000Z</time>
      </trkpt>
      <trkpt lat="45.567395" lon="7.842783">
        <ele>967.13</ele>
        <time>2024-10-13T10:11:35.000Z</time>
      </trkpt>
      <trkpt lat="45.567403" lon="7.842757">
        <ele>967.81494</ele>
        <time>2024-10-13T10:11:39.000Z</time>
      </trkpt>
      <trkpt lat="45.567417" lon="7.842735">
        <ele>968.57501</ele>
        <time>2024-10-13T10:11:44.000Z</time>
      </trkpt>
      <trkpt lat="45.56748" lon="7.84273">
        <ele>969.29504</ele>
        <time>2024-10-13T10:12:01.000Z</time>
      </trkpt>
      <trkpt lat="45.567498" lon="7.842727">
        <ele>970.04504</ele>
        <time>2024-10-13T10:12:03.000Z</time>
      </trkpt>
      <trkpt lat="45.567523" lon="7.842745">
        <ele>970.84003</ele>
        <time>2024-10-13T10:12:07.000Z</time>
      </trkpt>
      <trkpt lat="45.56755" lon="7.842772">
        <ele>971.66003</ele>
        <time>2024-10-13T10:12:09.000Z</time>
      </trkpt>
      <trkpt lat="45.567575" lon="7.842793">
        <ele>972.53503</ele>
        <time>2024-10-13T10:12:11.000Z</time>
      </trkpt>
      <trkpt lat="45.567593" lon="7.842807">
        <ele>973.39001</ele>
        <time>2024-10-13T10:12:13.000Z</time>
      </trkpt>
      <trkpt lat="45.567608" lon="7.842828">
        <ele>974.24005</ele>
        <time>2024-10-13T10:12:17.000Z</time>
      </trkpt>
      <trkpt lat="45.567627" lon="7.842818">
        <ele>974.67999</ele>
        <time>2024-10-13T10:12:23.000Z</time>
      </trkpt>
      <trkpt lat="45.56765" lon="7.8428">
        <ele>975.15997</ele>
        <time>2024-10-13T10:12:28.000Z</time>
      </trkpt>
      <trkpt lat="45.567658" lon="7.842772">
        <ele>975.73499</ele>
        <time>2024-10-13T10:12:35.000Z</time>
      </trkpt>
      <trkpt lat="45.567642" lon="7.842758">
        <ele>976.35999</ele>
        <time>2024-10-13T10:12:38.000Z</time>
      </trkpt>
      <trkpt lat="45.56773" lon="7.842743">
        <ele>977.40497</ele>
        <time>2024-10-13T10:13:05.000Z</time>
      </trkpt>
      <trkpt lat="45.56775" lon="7.842727">
        <ele>978.42499</ele>
        <time>2024-10-13T10:13:09.000Z</time>
      </trkpt>
      <trkpt lat="45.56776" lon="7.842703">
        <ele>979.41003</ele>
        <time>2024-10-13T10:13:12.000Z</time>
      </trkpt>
      <trkpt lat="45.567772" lon="7.842683">
        <ele>980.39502</ele>
        <time>2024-10-13T10:13:14.000Z</time>
      </trkpt>
      <trkpt lat="45.567792" lon="7.842657">
        <ele>981.34503</ele>
        <time>2024-10-13T10:13:18.000Z</time>
      </trkpt>
      <trkpt lat="45.56781" lon="7.842652">
        <ele>982.28497</ele>
        <time>2024-10-13T10:13:20.000Z</time>
      </trkpt>
      <trkpt lat="45.567832" lon="7.842645">
        <ele>983.20996</ele>
        <time>2024-10-13T10:13:24.000Z</time>
      </trkpt>
      <trkpt lat="45.567852" lon="7.84263">
        <ele>984.00995</ele>
        <time>2024-10-13T10:13:27.000Z</time>
      </trkpt>
      <trkpt lat="45.567872" lon="7.842618">
        <ele>984.69495</ele>
        <time>2024-10-13T10:13:29.000Z</time>
      </trkpt>
      <trkpt lat="45.567897" lon="7.842608">
        <ele>985.40497</ele>
        <time>2024-10-13T10:13:31.000Z</time>
      </trkpt>
      <trkpt lat="45.567928" lon="7.842607">
        <ele>986.15002</ele>
        <time>2024-10-13T10:13:33.000Z</time>
      </trkpt>
      <trkpt lat="45.567953" lon="7.842608">
        <ele>986.86493</ele>
        <time>2024-10-13T10:13:36.000Z</time>
      </trkpt>
      <trkpt lat="45.567977" lon="7.842598">
        <ele>987.50995</ele>
        <time>2024-10-13T10:13:42.000Z</time>
      </trkpt>
      <trkpt lat="45.567998" lon="7.842595">
        <ele>988.13</ele>
        <time>2024-10-13T10:13:44.000Z</time>
      </trkpt>
      <trkpt lat="45.568018" lon="7.842588">
        <ele>988.72003</ele>
        <time>2024-10-13T10:13:47.000Z</time>
      </trkpt>
      <trkpt lat="45.56804" lon="7.842585">
        <ele>989.25995</ele>
        <time>2024-10-13T10:13:51.000Z</time>
      </trkpt>
      <trkpt lat="45.568058" lon="7.842593">
        <ele>989.73499</ele>
        <time>2024-10-13T10:13:53.000Z</time>
      </trkpt>
      <trkpt lat="45.56808" lon="7.84259">
        <ele>990.18494</ele>
        <time>2024-10-13T10:13:55.000Z</time>
      </trkpt>
      <trkpt lat="45.5681" lon="7.842587">
        <ele>990.53497</ele>
        <time>2024-10-13T10:14:05.000Z</time>
      </trkpt>
      <trkpt lat="45.568117" lon="7.842575">
        <ele>990.85498</ele>
        <time>2024-10-13T10:14:08.000Z</time>
      </trkpt>
      <trkpt lat="45.568135" lon="7.84256">
        <ele>990.7699</ele>
        <time>2024-10-13T10:14:10.000Z</time>
      </trkpt>
      <trkpt lat="45.56816" lon="7.842553">
        <ele>990.68494</ele>
        <time>2024-10-13T10:14:12.000Z</time>
      </trkpt>
      <trkpt lat="45.56818" lon="7.842537">
        <ele>990.62988</ele>
        <time>2024-10-13T10:14:14.000Z</time>
      </trkpt>
      <trkpt lat="45.5682" lon="7.842515">
        <ele>990.5799</ele>
        <time>2024-10-13T10:14:16.000Z</time>
      </trkpt>
      <trkpt lat="45.568212" lon="7.842493">
        <ele>990.51483</ele>
        <time>2024-10-13T10:14:18.000Z</time>
      </trkpt>
      <trkpt lat="45.568235" lon="7.842478">
        <ele>990.43488</ele>
        <time>2024-10-13T10:14:21.000Z</time>
      </trkpt>
      <trkpt lat="45.568252" lon="7.842467">
        <ele>990.37482</ele>
        <time>2024-10-13T10:14:23.000Z</time>
      </trkpt>
      <trkpt lat="45.568267" lon="7.842442">
        <ele>990.34979</ele>
        <time>2024-10-13T10:14:27.000Z</time>
      </trkpt>
      <trkpt lat="45.568278" lon="7.842417">
        <ele>990.31982</ele>
        <time>2024-10-13T10:14:30.000Z</time>
      </trkpt>
      <trkpt lat="45.568287" lon="7.842393">
        <ele>990.27478</ele>
        <time>2024-10-13T10:14:33.000Z</time>
      </trkpt>
      <trkpt lat="45.568297" lon="7.842372">
        <ele>990.18982</ele>
        <time>2024-10-13T10:14:36.000Z</time>
      </trkpt>
      <trkpt lat="45.568308" lon="7.842352">
        <ele>990.11487</ele>
        <time>2024-10-13T10:14:38.000Z</time>
      </trkpt>
      <trkpt lat="45.568327" lon="7.84234">
        <ele>990.12482</ele>
        <time>2024-10-13T10:14:41.000Z</time>
      </trkpt>
      <trkpt lat="45.56835" lon="7.842323">
        <ele>990.14484</ele>
        <time>2024-10-13T10:14:44.000Z</time>
      </trkpt>
      <trkpt lat="45.56837" lon="7.842318">
        <ele>990.19482</ele>
        <time>2024-10-13T10:14:47.000Z</time>
      </trkpt>
      <trkpt lat="45.568388" lon="7.842325">
        <ele>990.25989</ele>
        <time>2024-10-13T10:14:49.000Z</time>
      </trkpt>
      <trkpt lat="45.568407" lon="7.84232">
        <ele>990.38489</ele>
        <time>2024-10-13T10:14:53.000Z</time>
      </trkpt>
      <trkpt lat="45.56843" lon="7.842305">
        <ele>990.48486</ele>
        <time>2024-10-13T10:14:55.000Z</time>
      </trkpt>
      <trkpt lat="45.568448" lon="7.842292">
        <ele>990.59485</ele>
        <time>2024-10-13T10:14:57.000Z</time>
      </trkpt>
      <trkpt lat="45.568457" lon="7.842267">
        <ele>990.70978</ele>
        <time>2024-10-13T10:15:00.000Z</time>
      </trkpt>
      <trkpt lat="45.568475" lon="7.842253">
        <ele>990.82483</ele>
        <time>2024-10-13T10:15:02.000Z</time>
      </trkpt>
      <trkpt lat="45.568493" lon="7.842232">
        <ele>990.97479</ele>
        <time>2024-10-13T10:15:06.000Z</time>
      </trkpt>
      <trkpt lat="45.568512" lon="7.842217">
        <ele>991.16486</ele>
        <time>2024-10-13T10:15:09.000Z</time>
      </trkpt>
      <trkpt lat="45.568533" lon="7.842207">
        <ele>991.34485</ele>
        <time>2024-10-13T10:15:12.000Z</time>
      </trkpt>
      <trkpt lat="45.568547" lon="7.842188">
        <ele>991.5799</ele>
        <time>2024-10-13T10:15:14.000Z</time>
      </trkpt>
      <trkpt lat="45.568572" lon="7.842177">
        <ele>992.00989</ele>
        <time>2024-10-13T10:15:30.000Z</time>
      </trkpt>
      <trkpt lat="45.568595" lon="7.842162">
        <ele>992.42987</ele>
        <time>2024-10-13T10:15:32.000Z</time>
      </trkpt>
      <trkpt lat="45.568615" lon="7.842155">
        <ele>992.85486</ele>
        <time>2024-10-13T10:15:34.000Z</time>
      </trkpt>
      <trkpt lat="45.56863" lon="7.84214">
        <ele>993.25989</ele>
        <time>2024-10-13T10:15:38.000Z</time>
      </trkpt>
      <trkpt lat="45.568653" lon="7.842128">
        <ele>993.6698</ele>
        <time>2024-10-13T10:15:40.000Z</time>
      </trkpt>
      <trkpt lat="45.568672" lon="7.842123">
        <ele>994.0448</ele>
        <time>2024-10-13T10:15:42.000Z</time>
      </trkpt>
      <trkpt lat="45.56869" lon="7.842115">
        <ele>994.39978</ele>
        <time>2024-10-13T10:15:44.000Z</time>
      </trkpt>
      <trkpt lat="45.56871" lon="7.842118">
        <ele>994.74481</ele>
        <time>2024-10-13T10:15:46.000Z</time>
      </trkpt>
      <trkpt lat="45.568737" lon="7.842122">
        <ele>995.1048</ele>
        <time>2024-10-13T10:15:48.000Z</time>
      </trkpt>
      <trkpt lat="45.568758" lon="7.842123">
        <ele>995.46472</ele>
        <time>2024-10-13T10:15:50.000Z</time>
      </trkpt>
      <trkpt lat="45.568777" lon="7.842122">
        <ele>995.81476</ele>
        <time>2024-10-13T10:15:53.000Z</time>
      </trkpt>
      <trkpt lat="45.5688" lon="7.842117">
        <ele>996.12482</ele>
        <time>2024-10-13T10:15:58.000Z</time>
      </trkpt>
      <trkpt lat="45.568818" lon="7.842118">
        <ele>996.51477</ele>
        <time>2024-10-13T10:16:02.000Z</time>
      </trkpt>
      <trkpt lat="45.568837" lon="7.842125">
        <ele>996.94983</ele>
        <time>2024-10-13T10:16:04.000Z</time>
      </trkpt>
      <trkpt lat="45.568855" lon="7.842118">
        <ele>997.4198</ele>
        <time>2024-10-13T10:16:07.000Z</time>
      </trkpt>
      <trkpt lat="45.568872" lon="7.842128">
        <ele>997.90985</ele>
        <time>2024-10-13T10:16:09.000Z</time>
      </trkpt>
      <trkpt lat="45.568898" lon="7.842123">
        <ele>998.38489</ele>
        <time>2024-10-13T10:16:12.000Z</time>
      </trkpt>
      <trkpt lat="45.56891" lon="7.8421">
        <ele>998.88489</ele>
        <time>2024-10-13T10:16:19.000Z</time>
      </trkpt>
      <trkpt lat="45.568908" lon="7.842063">
        <ele>999.44495</ele>
        <time>2024-10-13T10:16:22.000Z</time>
      </trkpt>
      <trkpt lat="45.568915" lon="7.842037">
        <ele>1000.05487</ele>
        <time>2024-10-13T10:16:25.000Z</time>
      </trkpt>
      <trkpt lat="45.568928" lon="7.842018">
        <ele>1000.58484</ele>
        <time>2024-10-13T10:16:29.000Z</time>
      </trkpt>
      <trkpt lat="45.56894" lon="7.841988">
        <ele>1001.22986</ele>
        <time>2024-10-13T10:16:33.000Z</time>
      </trkpt>
      <trkpt lat="45.56895" lon="7.841958">
        <ele>1001.93494</ele>
        <time>2024-10-13T10:16:36.000Z</time>
      </trkpt>
      <trkpt lat="45.568958" lon="7.841935">
        <ele>1002.63495</ele>
        <time>2024-10-13T10:16:39.000Z</time>
      </trkpt>
      <trkpt lat="45.568977" lon="7.841933">
        <ele>1003.38995</ele>
        <time>2024-10-13T10:16:45.000Z</time>
      </trkpt>
      <trkpt lat="45.568995" lon="7.841948">
        <ele>1004.13495</ele>
        <time>2024-10-13T10:16:49.000Z</time>
      </trkpt>
      <trkpt lat="45.568993" lon="7.841985">
        <ele>1004.90002</ele>
        <time>2024-10-13T10:16:53.000Z</time>
      </trkpt>
      <trkpt lat="45.569003" lon="7.84201">
        <ele>1005.63</ele>
        <time>2024-10-13T10:16:56.000Z</time>
      </trkpt>
      <trkpt lat="45.569025" lon="7.84202">
        <ele>1006.37</ele>
        <time>2024-10-13T10:16:59.000Z</time>
      </trkpt>
      <trkpt lat="45.569003" lon="7.842002">
        <ele>1007.31006</ele>
        <time>2024-10-13T10:17:06.000Z</time>
      </trkpt>
      <trkpt lat="45.568982" lon="7.841955">
        <ele>1008.42511</ele>
        <time>2024-10-13T10:17:14.000Z</time>
      </trkpt>
      <trkpt lat="45.568987" lon="7.841917">
        <ele>1009.55011</ele>
        <time>2024-10-13T10:17:17.000Z</time>
      </trkpt>
      <trkpt lat="45.569012" lon="7.84192">
        <ele>1010.62512</ele>
        <time>2024-10-13T10:17:20.000Z</time>
      </trkpt>
      <trkpt lat="45.56903" lon="7.841922">
        <ele>1011.69006</ele>
        <time>2024-10-13T10:17:23.000Z</time>
      </trkpt>
      <trkpt lat="45.569052" lon="7.841922">
        <ele>1012.69006</ele>
        <time>2024-10-13T10:17:26.000Z</time>
      </trkpt>
      <trkpt lat="45.569072" lon="7.841918">
        <ele>1013.66504</ele>
        <time>2024-10-13T10:17:28.000Z</time>
      </trkpt>
      <trkpt lat="45.569093" lon="7.841915">
        <ele>1014.64001</ele>
        <time>2024-10-13T10:17:32.000Z</time>
      </trkpt>
      <trkpt lat="45.569112" lon="7.84192">
        <ele>1015.56006</ele>
        <time>2024-10-13T10:17:35.000Z</time>
      </trkpt>
      <trkpt lat="45.569132" lon="7.84191">
        <ele>1016.42499</ele>
        <time>2024-10-13T10:17:40.000Z</time>
      </trkpt>
      <trkpt lat="45.569048" lon="7.841937">
        <ele>1018.01501</ele>
        <time>2024-10-13T10:18:36.000Z</time>
      </trkpt>
      <trkpt lat="45.569028" lon="7.841922">
        <ele>1019.52509</ele>
        <time>2024-10-13T10:18:39.000Z</time>
      </trkpt>
      <trkpt lat="45.569082" lon="7.841867">
        <ele>1020.88507</ele>
        <time>2024-10-13T10:18:59.000Z</time>
      </trkpt>
      <trkpt lat="45.5691" lon="7.841865">
        <ele>1022.13507</ele>
        <time>2024-10-13T10:19:00.000Z</time>
      </trkpt>
      <trkpt lat="45.569125" lon="7.84186">
        <ele>1023.43005</ele>
        <time>2024-10-13T10:19:03.000Z</time>
      </trkpt>
      <trkpt lat="45.569145" lon="7.841847">
        <ele>1024.68005</ele>
        <time>2024-10-13T10:19:05.000Z</time>
      </trkpt>
      <trkpt lat="45.569163" lon="7.841835">
        <ele>1025.94006</ele>
        <time>2024-10-13T10:19:07.000Z</time>
      </trkpt>
      <trkpt lat="45.569183" lon="7.84184">
        <ele>1027.16504</ele>
        <time>2024-10-13T10:19:09.000Z</time>
      </trkpt>
      <trkpt lat="45.569207" lon="7.84184">
        <ele>1028.37512</ele>
        <time>2024-10-13T10:19:11.000Z</time>
      </trkpt>
      <trkpt lat="45.56923" lon="7.841837">
        <ele>1029.59497</ele>
        <time>2024-10-13T10:19:16.000Z</time>
      </trkpt>
      <trkpt lat="45.56925" lon="7.841827">
        <ele>1030.69995</ele>
        <time>2024-10-13T10:19:19.000Z</time>
      </trkpt>
      <trkpt lat="45.569267" lon="7.841808">
        <ele>1031.66992</ele>
        <time>2024-10-13T10:19:23.000Z</time>
      </trkpt>
      <trkpt lat="45.569273" lon="7.841783">
        <ele>1032.65991</ele>
        <time>2024-10-13T10:19:25.000Z</time>
      </trkpt>
      <trkpt lat="45.569293" lon="7.841777">
        <ele>1033.68994</ele>
        <time>2024-10-13T10:19:28.000Z</time>
      </trkpt>
      <trkpt lat="45.569312" lon="7.841757">
        <ele>1034.69507</ele>
        <time>2024-10-13T10:19:30.000Z</time>
      </trkpt>
      <trkpt lat="45.569335" lon="7.841743">
        <ele>1035.71008</ele>
        <time>2024-10-13T10:19:33.000Z</time>
      </trkpt>
      <trkpt lat="45.56935" lon="7.841727">
        <ele>1036.69006</ele>
        <time>2024-10-13T10:19:37.000Z</time>
      </trkpt>
      <trkpt lat="45.569368" lon="7.841717">
        <ele>1037.65002</ele>
        <time>2024-10-13T10:19:39.000Z</time>
      </trkpt>
      <trkpt lat="45.569393" lon="7.841718">
        <ele>1038.54504</ele>
        <time>2024-10-13T10:19:41.000Z</time>
      </trkpt>
      <trkpt lat="45.569413" lon="7.841703">
        <ele>1039.40002</ele>
        <time>2024-10-13T10:19:44.000Z</time>
      </trkpt>
      <trkpt lat="45.569433" lon="7.841707">
        <ele>1039.48999</ele>
        <time>2024-10-13T10:19:52.000Z</time>
      </trkpt>
      <trkpt lat="45.569427" lon="7.841735">
        <ele>1039.58496</ele>
        <time>2024-10-13T10:19:55.000Z</time>
      </trkpt>
      <trkpt lat="45.569432" lon="7.841762">
        <ele>1039.75</ele>
        <time>2024-10-13T10:19:58.000Z</time>
      </trkpt>
      <trkpt lat="45.56945" lon="7.841777">
        <ele>1040.02502</ele>
        <time>2024-10-13T10:20:01.000Z</time>
      </trkpt>
      <trkpt lat="45.569468" lon="7.841793">
        <ele>1040.25</ele>
        <time>2024-10-13T10:20:06.000Z</time>
      </trkpt>
      <trkpt lat="45.569515" lon="7.84179">
        <ele>1040.54004</ele>
        <time>2024-10-13T10:20:20.000Z</time>
      </trkpt>
      <trkpt lat="45.569437" lon="7.84169">
        <ele>1040.94995</ele>
        <time>2024-10-13T10:20:34.000Z</time>
      </trkpt>
      <trkpt lat="45.569417" lon="7.841665">
        <ele>1041.34497</ele>
        <time>2024-10-13T10:20:37.000Z</time>
      </trkpt>
      <trkpt lat="45.56944" lon="7.841675">
        <ele>1041.76001</ele>
        <time>2024-10-13T10:20:46.000Z</time>
      </trkpt>
      <trkpt lat="45.569467" lon="7.841713">
        <ele>1042.16504</ele>
        <time>2024-10-13T10:20:48.000Z</time>
      </trkpt>
      <trkpt lat="45.569482" lon="7.84173">
        <ele>1042.47998</ele>
        <time>2024-10-13T10:20:49.000Z</time>
      </trkpt>
      <trkpt lat="45.569505" lon="7.84173">
        <ele>1042.72998</ele>
        <time>2024-10-13T10:20:51.000Z</time>
      </trkpt>
      <trkpt lat="45.569527" lon="7.841752">
        <ele>1042.92993</ele>
        <time>2024-10-13T10:20:54.000Z</time>
      </trkpt>
      <trkpt lat="45.569543" lon="7.841763">
        <ele>1043.05994</ele>
        <time>2024-10-13T10:20:56.000Z</time>
      </trkpt>
      <trkpt lat="45.569567" lon="7.841755">
        <ele>1043.22485</ele>
        <time>2024-10-13T10:21:00.000Z</time>
      </trkpt>
      <trkpt lat="45.569585" lon="7.841752">
        <ele>1043.37488</ele>
        <time>2024-10-13T10:21:03.000Z</time>
      </trkpt>
      <trkpt lat="45.569605" lon="7.841742">
        <ele>1043.55981</ele>
        <time>2024-10-13T10:21:06.000Z</time>
      </trkpt>
      <trkpt lat="45.569622" lon="7.841732">
        <ele>1043.77991</ele>
        <time>2024-10-13T10:21:09.000Z</time>
      </trkpt>
      <trkpt lat="45.569642" lon="7.841723">
        <ele>1044.07983</ele>
        <time>2024-10-13T10:21:13.000Z</time>
      </trkpt>
      <trkpt lat="45.56966" lon="7.841712">
        <ele>1044.44495</ele>
        <time>2024-10-13T10:21:17.000Z</time>
      </trkpt>
      <trkpt lat="45.569673" lon="7.84173">
        <ele>1044.78992</ele>
        <time>2024-10-13T10:21:20.000Z</time>
      </trkpt>
      <trkpt lat="45.569665" lon="7.841762">
        <ele>1045.10986</ele>
        <time>2024-10-13T10:21:22.000Z</time>
      </trkpt>
      <trkpt lat="45.569657" lon="7.84179">
        <ele>1045.35486</ele>
        <time>2024-10-13T10:21:24.000Z</time>
      </trkpt>
      <trkpt lat="45.569647" lon="7.841812">
        <ele>1045.48987</ele>
        <time>2024-10-13T10:21:27.000Z</time>
      </trkpt>
      <trkpt lat="45.569667" lon="7.841808">
        <ele>1045.65991</ele>
        <time>2024-10-13T10:21:34.000Z</time>
      </trkpt>
      <trkpt lat="45.569682" lon="7.841792">
        <ele>1045.76978</ele>
        <time>2024-10-13T10:21:37.000Z</time>
      </trkpt>
      <trkpt lat="45.569705" lon="7.841787">
        <ele>1045.76978</ele>
        <time>2024-10-13T10:21:39.000Z</time>
      </trkpt>
      <trkpt lat="45.569735" lon="7.841785">
        <ele>1045.83472</ele>
        <time>2024-10-13T10:21:42.000Z</time>
      </trkpt>
      <trkpt lat="45.569753" lon="7.841777">
        <ele>1045.92981</ele>
        <time>2024-10-13T10:21:44.000Z</time>
      </trkpt>
      <trkpt lat="45.569762" lon="7.84175">
        <ele>1046.00476</ele>
        <time>2024-10-13T10:21:48.000Z</time>
      </trkpt>
      <trkpt lat="45.569773" lon="7.84173">
        <ele>1046.07983</ele>
        <time>2024-10-13T10:21:51.000Z</time>
      </trkpt>
      <trkpt lat="45.569792" lon="7.841707">
        <ele>1046.15479</ele>
        <time>2024-10-13T10:21:54.000Z</time>
      </trkpt>
      <trkpt lat="45.569808" lon="7.841692">
        <ele>1046.23987</ele>
        <time>2024-10-13T10:21:58.000Z</time>
      </trkpt>
      <trkpt lat="45.569832" lon="7.841682">
        <ele>1046.37476</ele>
        <time>2024-10-13T10:22:02.000Z</time>
      </trkpt>
      <trkpt lat="45.569865" lon="7.841673">
        <ele>1046.47974</ele>
        <time>2024-10-13T10:22:05.000Z</time>
      </trkpt>
      <trkpt lat="45.569885" lon="7.841675">
        <ele>1046.57983</ele>
        <time>2024-10-13T10:22:08.000Z</time>
      </trkpt>
      <trkpt lat="45.569912" lon="7.84168">
        <ele>1046.71985</ele>
        <time>2024-10-13T10:22:13.000Z</time>
      </trkpt>
      <trkpt lat="45.569878" lon="7.841723">
        <ele>1046.94983</ele>
        <time>2024-10-13T10:22:24.000Z</time>
      </trkpt>
      <trkpt lat="45.569893" lon="7.841707">
        <ele>1047.14478</ele>
        <time>2024-10-13T10:22:27.000Z</time>
      </trkpt>
      <trkpt lat="45.569913" lon="7.841698">
        <ele>1047.29468</ele>
        <time>2024-10-13T10:22:29.000Z</time>
      </trkpt>
      <trkpt lat="45.569935" lon="7.841688">
        <ele>1047.41968</ele>
        <time>2024-10-13T10:22:31.000Z</time>
      </trkpt>
      <trkpt lat="45.569952" lon="7.841665">
        <ele>1047.54468</ele>
        <time>2024-10-13T10:22:33.000Z</time>
      </trkpt>
      <trkpt lat="45.569975" lon="7.841662">
        <ele>1047.73962</ele>
        <time>2024-10-13T10:22:36.000Z</time>
      </trkpt>
      <trkpt lat="45.570005" lon="7.841655">
        <ele>1047.95471</ele>
        <time>2024-10-13T10:22:39.000Z</time>
      </trkpt>
      <trkpt lat="45.57003" lon="7.841657">
        <ele>1048.14966</ele>
        <time>2024-10-13T10:22:41.000Z</time>
      </trkpt>
      <trkpt lat="45.570053" lon="7.841657">
        <ele>1048.3446</ele>
        <time>2024-10-13T10:22:45.000Z</time>
      </trkpt>
      <trkpt lat="45.570073" lon="7.841647">
        <ele>1048.5647</ele>
        <time>2024-10-13T10:22:47.000Z</time>
      </trkpt>
      <trkpt lat="45.570088" lon="7.841632">
        <ele>1048.76978</ele>
        <time>2024-10-13T10:22:49.000Z</time>
      </trkpt>
      <trkpt lat="45.570097" lon="7.841598">
        <ele>1048.9447</ele>
        <time>2024-10-13T10:22:52.000Z</time>
      </trkpt>
      <trkpt lat="45.570113" lon="7.841577">
        <ele>1049.10474</ele>
        <time>2024-10-13T10:22:55.000Z</time>
      </trkpt>
      <trkpt lat="45.57013" lon="7.841565">
        <ele>1049.27966</ele>
        <time>2024-10-13T10:22:57.000Z</time>
      </trkpt>
      <trkpt lat="45.57015" lon="7.841548">
        <ele>1049.42969</ele>
        <time>2024-10-13T10:22:59.000Z</time>
      </trkpt>
      <trkpt lat="45.570167" lon="7.841533">
        <ele>1049.54956</ele>
        <time>2024-10-13T10:23:01.000Z</time>
      </trkpt>
      <trkpt lat="45.570192" lon="7.841523">
        <ele>1049.56958</ele>
        <time>2024-10-13T10:23:03.000Z</time>
      </trkpt>
      <trkpt lat="45.57022" lon="7.841525">
        <ele>1049.55469</ele>
        <time>2024-10-13T10:23:05.000Z</time>
      </trkpt>
      <trkpt lat="45.570242" lon="7.841517">
        <ele>1049.48962</ele>
        <time>2024-10-13T10:23:08.000Z</time>
      </trkpt>
      <trkpt lat="45.570265" lon="7.841533">
        <ele>1049.35461</ele>
        <time>2024-10-13T10:23:10.000Z</time>
      </trkpt>
      <trkpt lat="45.570283" lon="7.841553">
        <ele>1049.06958</ele>
        <time>2024-10-13T10:23:12.000Z</time>
      </trkpt>
      <trkpt lat="45.570308" lon="7.841558">
        <ele>1048.70972</ele>
        <time>2024-10-13T10:23:15.000Z</time>
      </trkpt>
      <trkpt lat="45.57033" lon="7.841548">
        <ele>1048.26965</ele>
        <time>2024-10-13T10:23:18.000Z</time>
      </trkpt>
      <trkpt lat="45.570347" lon="7.841527">
        <ele>1047.78967</ele>
        <time>2024-10-13T10:23:20.000Z</time>
      </trkpt>
      <trkpt lat="45.570368" lon="7.841503">
        <ele>1047.32971</ele>
        <time>2024-10-13T10:23:24.000Z</time>
      </trkpt>
      <trkpt lat="45.570382" lon="7.841478">
        <ele>1046.88977</ele>
        <time>2024-10-13T10:23:26.000Z</time>
      </trkpt>
      <trkpt lat="45.570403" lon="7.841472">
        <ele>1046.49475</ele>
        <time>2024-10-13T10:23:30.000Z</time>
      </trkpt>
      <trkpt lat="45.570412" lon="7.841448">
        <ele>1046.09473</ele>
        <time>2024-10-13T10:23:36.000Z</time>
      </trkpt>
      <trkpt lat="45.570422" lon="7.84142">
        <ele>1045.67468</ele>
        <time>2024-10-13T10:23:39.000Z</time>
      </trkpt>
      <trkpt lat="45.570437" lon="7.841397">
        <ele>1045.23474</ele>
        <time>2024-10-13T10:23:44.000Z</time>
      </trkpt>
      <trkpt lat="45.570458" lon="7.841378">
        <ele>1044.82971</ele>
        <time>2024-10-13T10:23:47.000Z</time>
      </trkpt>
      <trkpt lat="45.570477" lon="7.841377">
        <ele>1044.4447</ele>
        <time>2024-10-13T10:23:49.000Z</time>
      </trkpt>
      <trkpt lat="45.570498" lon="7.84137">
        <ele>1043.98474</ele>
        <time>2024-10-13T10:23:51.000Z</time>
      </trkpt>
      <trkpt lat="45.570527" lon="7.841362">
        <ele>1043.46985</ele>
        <time>2024-10-13T10:23:53.000Z</time>
      </trkpt>
      <trkpt lat="45.570548" lon="7.841352">
        <ele>1042.97485</ele>
        <time>2024-10-13T10:23:55.000Z</time>
      </trkpt>
      <trkpt lat="45.570567" lon="7.841332">
        <ele>1042.44995</ele>
        <time>2024-10-13T10:23:59.000Z</time>
      </trkpt>
      <trkpt lat="45.570588" lon="7.841335">
        <ele>1041.95984</ele>
        <time>2024-10-13T10:24:03.000Z</time>
      </trkpt>
      <trkpt lat="45.570612" lon="7.841347">
        <ele>1041.49976</ele>
        <time>2024-10-13T10:24:06.000Z</time>
      </trkpt>
      <trkpt lat="45.570635" lon="7.84136">
        <ele>1041.08984</ele>
        <time>2024-10-13T10:24:09.000Z</time>
      </trkpt>
      <trkpt lat="45.570655" lon="7.84139">
        <ele>1040.70984</ele>
        <time>2024-10-13T10:24:11.000Z</time>
      </trkpt>
      <trkpt lat="45.570678" lon="7.841423">
        <ele>1040.37476</ele>
        <time>2024-10-13T10:24:13.000Z</time>
      </trkpt>
      <trkpt lat="45.570703" lon="7.84141">
        <ele>1040.25977</ele>
        <time>2024-10-13T10:24:25.000Z</time>
      </trkpt>
      <trkpt lat="45.570728" lon="7.84139">
        <ele>1040.25476</ele>
        <time>2024-10-13T10:24:27.000Z</time>
      </trkpt>
      <trkpt lat="45.57075" lon="7.841362">
        <ele>1040.32983</ele>
        <time>2024-10-13T10:24:29.000Z</time>
      </trkpt>
      <trkpt lat="45.57076" lon="7.841333">
        <ele>1040.40479</ele>
        <time>2024-10-13T10:24:31.000Z</time>
      </trkpt>
      <trkpt lat="45.570745" lon="7.841307">
        <ele>1040.4248</ele>
        <time>2024-10-13T10:24:37.000Z</time>
      </trkpt>
      <trkpt lat="45.570752" lon="7.841267">
        <ele>1040.40479</ele>
        <time>2024-10-13T10:24:42.000Z</time>
      </trkpt>
      <trkpt lat="45.57077" lon="7.841247">
        <ele>1040.42981</ele>
        <time>2024-10-13T10:24:45.000Z</time>
      </trkpt>
      <trkpt lat="45.570775" lon="7.841222">
        <ele>1040.46985</ele>
        <time>2024-10-13T10:24:47.000Z</time>
      </trkpt>
      <trkpt lat="45.570775" lon="7.841195">
        <ele>1040.53979</ele>
        <time>2024-10-13T10:24:49.000Z</time>
      </trkpt>
      <trkpt lat="45.570785" lon="7.841167">
        <ele>1040.60474</ele>
        <time>2024-10-13T10:24:52.000Z</time>
      </trkpt>
      <trkpt lat="45.570777" lon="7.841142">
        <ele>1040.70972</ele>
        <time>2024-10-13T10:24:55.000Z</time>
      </trkpt>
      <trkpt lat="45.570778" lon="7.841115">
        <ele>1040.99475</ele>
        <time>2024-10-13T10:24:59.000Z</time>
      </trkpt>
      <trkpt lat="45.570777" lon="7.841085">
        <ele>1041.40466</ele>
        <time>2024-10-13T10:25:03.000Z</time>
      </trkpt>
      <trkpt lat="45.57077" lon="7.841053">
        <ele>1041.91467</ele>
        <time>2024-10-13T10:25:05.000Z</time>
      </trkpt>
      <trkpt lat="45.57077" lon="7.84102">
        <ele>1042.52966</ele>
        <time>2024-10-13T10:25:07.000Z</time>
      </trkpt>
      <trkpt lat="45.570773" lon="7.840988">
        <ele>1043.23474</ele>
        <time>2024-10-13T10:25:10.000Z</time>
      </trkpt>
      <trkpt lat="45.570775" lon="7.84096">
        <ele>1043.96484</ele>
        <time>2024-10-13T10:25:12.000Z</time>
      </trkpt>
      <trkpt lat="45.570778" lon="7.840932">
        <ele>1044.72974</ele>
        <time>2024-10-13T10:25:14.000Z</time>
      </trkpt>
      <trkpt lat="45.570777" lon="7.840903">
        <ele>1045.52478</ele>
        <time>2024-10-13T10:25:16.000Z</time>
      </trkpt>
      <trkpt lat="45.570778" lon="7.840867">
        <ele>1046.33484</ele>
        <time>2024-10-13T10:25:18.000Z</time>
      </trkpt>
      <trkpt lat="45.570793" lon="7.840838">
        <ele>1046.98999</ele>
        <time>2024-10-13T10:25:20.000Z</time>
      </trkpt>
      <trkpt lat="45.570808" lon="7.840818">
        <ele>1047.56995</ele>
        <time>2024-10-13T10:25:22.000Z</time>
      </trkpt>
      <trkpt lat="45.570827" lon="7.840797">
        <ele>1048.04492</ele>
        <time>2024-10-13T10:25:24.000Z</time>
      </trkpt>
      <trkpt lat="45.570827" lon="7.840765">
        <ele>1048.43994</ele>
        <time>2024-10-13T10:25:26.000Z</time>
      </trkpt>
      <trkpt lat="45.570835" lon="7.840732">
        <ele>1048.82495</ele>
        <time>2024-10-13T10:25:29.000Z</time>
      </trkpt>
      <trkpt lat="45.570838" lon="7.840697">
        <ele>1049.17993</ele>
        <time>2024-10-13T10:25:32.000Z</time>
      </trkpt>
      <trkpt lat="45.570837" lon="7.84067">
        <ele>1049.47485</ele>
        <time>2024-10-13T10:25:34.000Z</time>
      </trkpt>
      <trkpt lat="45.570837" lon="7.840635">
        <ele>1049.73999</ele>
        <time>2024-10-13T10:25:36.000Z</time>
      </trkpt>
      <trkpt lat="45.570833" lon="7.840608">
        <ele>1049.95496</ele>
        <time>2024-10-13T10:25:38.000Z</time>
      </trkpt>
      <trkpt lat="45.57082" lon="7.840585">
        <ele>1050.11499</ele>
        <time>2024-10-13T10:25:40.000Z</time>
      </trkpt>
      <trkpt lat="45.570802" lon="7.840577">
        <ele>1050.23999</ele>
        <time>2024-10-13T10:25:42.000Z</time>
      </trkpt>
      <trkpt lat="45.57078" lon="7.840593">
        <ele>1050.2699</ele>
        <time>2024-10-13T10:25:44.000Z</time>
      </trkpt>
      <trkpt lat="45.570798" lon="7.840593">
        <ele>1050.28491</ele>
        <time>2024-10-13T10:25:55.000Z</time>
      </trkpt>
      <trkpt lat="45.570817" lon="7.840573">
        <ele>1049.97998</ele>
        <time>2024-10-13T10:26:08.000Z</time>
      </trkpt>
      <trkpt lat="45.570798" lon="7.840552">
        <ele>1049.71497</ele>
        <time>2024-10-13T10:26:11.000Z</time>
      </trkpt>
      <trkpt lat="45.570785" lon="7.840528">
        <ele>1049.44995</ele>
        <time>2024-10-13T10:26:13.000Z</time>
      </trkpt>
      <trkpt lat="45.570773" lon="7.840505">
        <ele>1049.24988</ele>
        <time>2024-10-13T10:26:16.000Z</time>
      </trkpt>
      <trkpt lat="45.570772" lon="7.840475">
        <ele>1049.07495</ele>
        <time>2024-10-13T10:26:19.000Z</time>
      </trkpt>
      <trkpt lat="45.570773" lon="7.840438">
        <ele>1048.96497</ele>
        <time>2024-10-13T10:26:21.000Z</time>
      </trkpt>
      <trkpt lat="45.57077" lon="7.840407">
        <ele>1048.86987</ele>
        <time>2024-10-13T10:26:24.000Z</time>
      </trkpt>
      <trkpt lat="45.570775" lon="7.840373">
        <ele>1048.75488</ele>
        <time>2024-10-13T10:26:26.000Z</time>
      </trkpt>
      <trkpt lat="45.570775" lon="7.840342">
        <ele>1048.66992</ele>
        <time>2024-10-13T10:26:30.000Z</time>
      </trkpt>
      <trkpt lat="45.57079" lon="7.840307">
        <ele>1048.59985</ele>
        <time>2024-10-13T10:26:33.000Z</time>
      </trkpt>
      <trkpt lat="45.570803" lon="7.840278">
        <ele>1048.58984</ele>
        <time>2024-10-13T10:26:35.000Z</time>
      </trkpt>
      <trkpt lat="45.570818" lon="7.840243">
        <ele>1048.61487</ele>
        <time>2024-10-13T10:26:38.000Z</time>
      </trkpt>
      <trkpt lat="45.57084" lon="7.840225">
        <ele>1048.65491</ele>
        <time>2024-10-13T10:26:40.000Z</time>
      </trkpt>
      <trkpt lat="45.570858" lon="7.840207">
        <ele>1048.69995</ele>
        <time>2024-10-13T10:26:42.000Z</time>
      </trkpt>
      <trkpt lat="45.570865" lon="7.840167">
        <ele>1048.69995</ele>
        <time>2024-10-13T10:26:45.000Z</time>
      </trkpt>
      <trkpt lat="45.57087" lon="7.840133">
        <ele>1048.68994</ele>
        <time>2024-10-13T10:26:47.000Z</time>
        <name>Cascine di Chiaverina, Settimo Vittone</name>
        <extensions>
          <oa:locType>tourGap</oa:locType>
          <oa:address>{
  &quot;title&quot; : &quot;Cascine di Chiaverina, Settimo Vittone&quot;
}</oa:address>
        </extensions>
      </trkpt>
      <trkpt lat="45.570823" lon="7.840027">
        <ele>1048.88</ele>
        <time>2024-10-13T10:53:40.000Z</time>
        <name>Cascine di Chiaverina, Settimo Vittone</name>
        <extensions>
          <oa:address>{
  &quot;title&quot; : &quot;Cascine di Chiaverina, Settimo Vittone&quot;
}</oa:address>
        </extensions>
      </trkpt>
      <trkpt lat="45.570873" lon="7.840028">
        <ele>1049.34998</ele>
        <time>2024-10-13T10:53:45.000Z</time>
      </trkpt>
      <trkpt lat="45.570888" lon="7.840043">
        <ele>1049.83508</ele>
        <time>2024-10-13T10:53:47.000Z</time>
      </trkpt>
      <trkpt lat="45.570912" lon="7.840052">
        <ele>1050.28503</ele>
        <time>2024-10-13T10:53:50.000Z</time>
      </trkpt>
      <trkpt lat="45.570932" lon="7.840043">
        <ele>1051.00513</ele>
        <time>2024-10-13T10:53:52.000Z</time>
      </trkpt>
      <trkpt lat="45.570952" lon="7.840052">
        <ele>1051.59509</ele>
        <time>2024-10-13T10:53:54.000Z</time>
      </trkpt>
      <trkpt lat="45.57098" lon="7.840047">
        <ele>1052.1051</ele>
        <time>2024-10-13T10:53:56.000Z</time>
      </trkpt>
      <trkpt lat="45.571005" lon="7.840055">
        <ele>1052.51501</ele>
        <time>2024-10-13T10:53:59.000Z</time>
      </trkpt>
      <trkpt lat="45.571022" lon="7.840072">
        <ele>1052.89514</ele>
        <time>2024-10-13T10:54:01.000Z</time>
      </trkpt>
      <trkpt lat="45.571047" lon="7.84008">
        <ele>1053.12012</ele>
        <time>2024-10-13T10:54:04.000Z</time>
      </trkpt>
      <trkpt lat="45.57107" lon="7.84007">
        <ele>1053.26514</ele>
        <time>2024-10-13T10:54:07.000Z</time>
      </trkpt>
      <trkpt lat="45.57109" lon="7.840068">
        <ele>1053.41516</ele>
        <time>2024-10-13T10:54:09.000Z</time>
      </trkpt>
      <trkpt lat="45.571108" lon="7.840065">
        <ele>1053.55518</ele>
        <time>2024-10-13T10:54:12.000Z</time>
      </trkpt>
      <trkpt lat="45.571133" lon="7.840077">
        <ele>1053.67517</ele>
        <time>2024-10-13T10:54:16.000Z</time>
      </trkpt>
      <trkpt lat="45.571152" lon="7.840087">
        <ele>1053.77026</ele>
        <time>2024-10-13T10:54:19.000Z</time>
      </trkpt>
      <trkpt lat="45.57117" lon="7.840102">
        <ele>1053.78015</ele>
        <time>2024-10-13T10:54:21.000Z</time>
      </trkpt>
      <trkpt lat="45.571192" lon="7.840097">
        <ele>1053.81519</ele>
        <time>2024-10-13T10:54:24.000Z</time>
      </trkpt>
      <trkpt lat="45.571215" lon="7.84009">
        <ele>1053.81519</ele>
        <time>2024-10-13T10:54:28.000Z</time>
      </trkpt>
      <trkpt lat="45.571228" lon="7.840072">
        <ele>1053.82507</ele>
        <time>2024-10-13T10:54:31.000Z</time>
      </trkpt>
      <trkpt lat="45.57125" lon="7.84006">
        <ele>1053.77515</ele>
        <time>2024-10-13T10:54:34.000Z</time>
      </trkpt>
      <trkpt lat="45.57127" lon="7.840058">
        <ele>1053.41516</ele>
        <time>2024-10-13T10:54:38.000Z</time>
      </trkpt>
      <trkpt lat="45.571287" lon="7.84007">
        <ele>1052.69507</ele>
        <time>2024-10-13T10:54:48.000Z</time>
      </trkpt>
      <trkpt lat="45.571295" lon="7.84003">
        <ele>1052.02014</ele>
        <time>2024-10-13T10:55:27.000Z</time>
      </trkpt>
      <trkpt lat="45.571305" lon="7.840005">
        <ele>1051.28503</ele>
        <time>2024-10-13T10:55:29.000Z</time>
      </trkpt>
      <trkpt lat="45.571322" lon="7.839985">
        <ele>1050.52502</ele>
        <time>2024-10-13T10:55:32.000Z</time>
      </trkpt>
      <trkpt lat="45.571338" lon="7.839975">
        <ele>1049.78491</ele>
        <time>2024-10-13T10:55:34.000Z</time>
      </trkpt>
      <trkpt lat="45.571363" lon="7.83997">
        <ele>1049.05994</ele>
        <time>2024-10-13T10:55:36.000Z</time>
      </trkpt>
      <trkpt lat="45.571383" lon="7.839987">
        <ele>1048.32996</ele>
        <time>2024-10-13T10:55:41.000Z</time>
      </trkpt>
      <trkpt lat="45.571422" lon="7.839963">
        <ele>1047.83496</ele>
        <time>2024-10-13T10:56:01.000Z</time>
      </trkpt>
      <trkpt lat="45.571442" lon="7.839963">
        <ele>1047.55994</ele>
        <time>2024-10-13T10:56:06.000Z</time>
      </trkpt>
      <trkpt lat="45.57144" lon="7.839928">
        <ele>1047.3999</ele>
        <time>2024-10-13T10:56:09.000Z</time>
      </trkpt>
      <trkpt lat="45.571448" lon="7.8399">
        <ele>1047.28992</ele>
        <time>2024-10-13T10:56:12.000Z</time>
      </trkpt>
      <trkpt lat="45.571463" lon="7.839872">
        <ele>1047.19495</ele>
        <time>2024-10-13T10:56:15.000Z</time>
      </trkpt>
      <trkpt lat="45.57149" lon="7.83987">
        <ele>1047.12488</ele>
        <time>2024-10-13T10:56:18.000Z</time>
      </trkpt>
      <trkpt lat="45.571512" lon="7.839855">
        <ele>1047.0199</ele>
        <time>2024-10-13T10:56:22.000Z</time>
      </trkpt>
      <trkpt lat="45.57153" lon="7.839827">
        <ele>1046.99487</ele>
        <time>2024-10-13T10:56:27.000Z</time>
      </trkpt>
      <trkpt lat="45.571547" lon="7.839803">
        <ele>1046.98999</ele>
        <time>2024-10-13T10:56:29.000Z</time>
      </trkpt>
      <trkpt lat="45.57156" lon="7.839777">
        <ele>1047.01489</ele>
        <time>2024-10-13T10:56:31.000Z</time>
      </trkpt>
      <trkpt lat="45.571582" lon="7.839768">
        <ele>1047.07495</ele>
        <time>2024-10-13T10:56:33.000Z</time>
      </trkpt>
      <trkpt lat="45.571607" lon="7.839767">
        <ele>1047.1698</ele>
        <time>2024-10-13T10:56:38.000Z</time>
      </trkpt>
      <trkpt lat="45.571628" lon="7.839768">
        <ele>1047.35974</ele>
        <time>2024-10-13T10:56:40.000Z</time>
      </trkpt>
      <trkpt lat="45.571658" lon="7.839768">
        <ele>1047.59985</ele>
        <time>2024-10-13T10:56:42.000Z</time>
      </trkpt>
      <trkpt lat="45.57169" lon="7.839765">
        <ele>1047.77979</ele>
        <time>2024-10-13T10:56:44.000Z</time>
      </trkpt>
      <trkpt lat="45.571715" lon="7.839748">
        <ele>1048.01489</ele>
        <time>2024-10-13T10:56:46.000Z</time>
      </trkpt>
      <trkpt lat="45.571735" lon="7.839755">
        <ele>1048.27991</ele>
        <time>2024-10-13T10:56:48.000Z</time>
      </trkpt>
      <trkpt lat="45.571758" lon="7.839762">
        <ele>1048.57983</ele>
        <time>2024-10-13T10:56:51.000Z</time>
      </trkpt>
      <trkpt lat="45.571773" lon="7.839783">
        <ele>1048.83997</ele>
        <time>2024-10-13T10:56:54.000Z</time>
      </trkpt>
      <trkpt lat="45.571777" lon="7.839753">
        <ele>1049.0249</ele>
        <time>2024-10-13T10:57:18.000Z</time>
      </trkpt>
      <trkpt lat="45.5718" lon="7.839725">
        <ele>1048.75989</ele>
        <time>2024-10-13T10:57:28.000Z</time>
      </trkpt>
      <trkpt lat="45.571793" lon="7.839695">
        <ele>1048.34985</ele>
        <time>2024-10-13T10:57:32.000Z</time>
      </trkpt>
      <trkpt lat="45.57181" lon="7.839678">
        <ele>1047.77478</ele>
        <time>2024-10-13T10:57:44.000Z</time>
      </trkpt>
      <trkpt lat="45.571832" lon="7.839685">
        <ele>1047.1748</ele>
        <time>2024-10-13T10:57:49.000Z</time>
      </trkpt>
      <trkpt lat="45.571857" lon="7.83969">
        <ele>1046.70972</ele>
        <time>2024-10-13T10:57:55.000Z</time>
      </trkpt>
      <trkpt lat="45.571842" lon="7.839707">
        <ele>1046.47485</ele>
        <time>2024-10-13T10:58:07.000Z</time>
      </trkpt>
      <trkpt lat="45.571855" lon="7.839688">
        <ele>1046.31982</ele>
        <time>2024-10-13T10:58:11.000Z</time>
      </trkpt>
      <trkpt lat="45.57187" lon="7.83967">
        <ele>1046.11487</ele>
        <time>2024-10-13T10:58:14.000Z</time>
      </trkpt>
      <trkpt lat="45.571888" lon="7.839665">
        <ele>1045.85986</ele>
        <time>2024-10-13T10:58:16.000Z</time>
      </trkpt>
      <trkpt lat="45.571915" lon="7.839658">
        <ele>1045.59985</ele>
        <time>2024-10-13T10:58:18.000Z</time>
      </trkpt>
      <trkpt lat="45.571933" lon="7.83966">
        <ele>1045.33496</ele>
        <time>2024-10-13T10:58:20.000Z</time>
      </trkpt>
      <trkpt lat="45.571955" lon="7.839647">
        <ele>1045.09497</ele>
        <time>2024-10-13T10:58:24.000Z</time>
      </trkpt>
      <trkpt lat="45.571942" lon="7.839628">
        <ele>1045.00513</ele>
        <time>2024-10-13T10:58:43.000Z</time>
      </trkpt>
      <trkpt lat="45.571937" lon="7.839598">
        <ele>1044.95508</ele>
        <time>2024-10-13T10:58:47.000Z</time>
      </trkpt>
      <trkpt lat="45.57192" lon="7.839585">
        <ele>1045.21509</ele>
        <time>2024-10-13T10:59:24.000Z</time>
      </trkpt>
      <trkpt lat="45.571902" lon="7.83958">
        <ele>1045.46997</ele>
        <time>2024-10-13T10:59:25.000Z</time>
      </trkpt>
      <trkpt lat="45.571898" lon="7.83961">
        <ele>1045.72498</ele>
        <time>2024-10-13T10:59:28.000Z</time>
      </trkpt>
      <trkpt lat="45.571923" lon="7.839612">
        <ele>1045.90002</ele>
        <time>2024-10-13T10:59:58.000Z</time>
      </trkpt>
      <trkpt lat="45.571923" lon="7.839585">
        <ele>1046.125</ele>
        <time>2024-10-13T11:00:00.000Z</time>
      </trkpt>
      <trkpt lat="45.571895" lon="7.839577">
        <ele>1046.38501</ele>
        <time>2024-10-13T11:00:05.000Z</time>
      </trkpt>
      <trkpt lat="45.571877" lon="7.839552">
        <ele>1046.81006</ele>
        <time>2024-10-13T11:00:09.000Z</time>
      </trkpt>
      <trkpt lat="45.571867" lon="7.839525">
        <ele>1047.19006</ele>
        <time>2024-10-13T11:00:12.000Z</time>
      </trkpt>
      <trkpt lat="45.571858" lon="7.839493">
        <ele>1047.67004</ele>
        <time>2024-10-13T11:00:16.000Z</time>
      </trkpt>
      <trkpt lat="45.57184" lon="7.839478">
        <ele>1048.17993</ele>
        <time>2024-10-13T11:00:19.000Z</time>
      </trkpt>
      <trkpt lat="45.571828" lon="7.839455">
        <ele>1048.60999</ele>
        <time>2024-10-13T11:00:22.000Z</time>
      </trkpt>
      <trkpt lat="45.571827" lon="7.839428">
        <ele>1048.86499</ele>
        <time>2024-10-13T11:00:26.000Z</time>
      </trkpt>
      <trkpt lat="45.571817" lon="7.839407">
        <ele>1049.06995</ele>
        <time>2024-10-13T11:00:30.000Z</time>
      </trkpt>
      <trkpt lat="45.571848" lon="7.83944">
        <ele>1049.15991</ele>
        <time>2024-10-13T11:00:51.000Z</time>
      </trkpt>
      <trkpt lat="45.571867" lon="7.839437">
        <ele>1049.28003</ele>
        <time>2024-10-13T11:00:53.000Z</time>
      </trkpt>
      <trkpt lat="45.571855" lon="7.839412">
        <ele>1049.42993</ele>
        <time>2024-10-13T11:00:56.000Z</time>
      </trkpt>
      <trkpt lat="45.571838" lon="7.839382">
        <ele>1049.60498</ele>
        <time>2024-10-13T11:00:59.000Z</time>
      </trkpt>
      <trkpt lat="45.571828" lon="7.83936">
        <ele>1049.80493</ele>
        <time>2024-10-13T11:01:01.000Z</time>
      </trkpt>
      <trkpt lat="45.571832" lon="7.839325">
        <ele>1049.85999</ele>
        <time>2024-10-13T11:01:04.000Z</time>
      </trkpt>
      <trkpt lat="45.571825" lon="7.839287">
        <ele>1049.82983</ele>
        <time>2024-10-13T11:01:07.000Z</time>
      </trkpt>
      <trkpt lat="45.571827" lon="7.839258">
        <ele>1049.44495</ele>
        <time>2024-10-13T11:01:09.000Z</time>
      </trkpt>
      <trkpt lat="45.571832" lon="7.839227">
        <ele>1048.93994</ele>
        <time>2024-10-13T11:01:13.000Z</time>
      </trkpt>
      <trkpt lat="45.571828" lon="7.8392">
        <ele>1048.38989</ele>
        <time>2024-10-13T11:01:15.000Z</time>
      </trkpt>
      <trkpt lat="45.571828" lon="7.83917">
        <ele>1047.83997</ele>
        <time>2024-10-13T11:01:18.000Z</time>
      </trkpt>
      <trkpt lat="45.571823" lon="7.839145">
        <ele>1047.18494</ele>
        <time>2024-10-13T11:01:21.000Z</time>
      </trkpt>
      <trkpt lat="45.57182" lon="7.839118">
        <ele>1046.51489</ele>
        <time>2024-10-13T11:01:23.000Z</time>
      </trkpt>
      <trkpt lat="45.571818" lon="7.839085">
        <ele>1045.83997</ele>
        <time>2024-10-13T11:01:25.000Z</time>
      </trkpt>
      <trkpt lat="45.571812" lon="7.839058">
        <ele>1045.19995</ele>
        <time>2024-10-13T11:01:27.000Z</time>
      </trkpt>
      <trkpt lat="45.571808" lon="7.839032">
        <ele>1044.6051</ele>
        <time>2024-10-13T11:01:29.000Z</time>
      </trkpt>
      <trkpt lat="45.57181" lon="7.839002">
        <ele>1044.03503</ele>
        <time>2024-10-13T11:01:32.000Z</time>
      </trkpt>
      <trkpt lat="45.57181" lon="7.838975">
        <ele>1043.41516</ele>
        <time>2024-10-13T11:01:35.000Z</time>
      </trkpt>
      <trkpt lat="45.57181" lon="7.838947">
        <ele>1042.80518</ele>
        <time>2024-10-13T11:01:38.000Z</time>
      </trkpt>
      <trkpt lat="45.57181" lon="7.838917">
        <ele>1042.27515</ele>
        <time>2024-10-13T11:01:41.000Z</time>
      </trkpt>
      <trkpt lat="45.571815" lon="7.838883">
        <ele>1041.91516</ele>
        <time>2024-10-13T11:01:45.000Z</time>
      </trkpt>
      <trkpt lat="45.571822" lon="7.838852">
        <ele>1041.49011</ele>
        <time>2024-10-13T11:01:48.000Z</time>
      </trkpt>
      <trkpt lat="45.571838" lon="7.838842">
        <ele>1041.04517</ele>
        <time>2024-10-13T11:01:56.000Z</time>
      </trkpt>
      <trkpt lat="45.57185" lon="7.838812">
        <ele>1040.48511</ele>
        <time>2024-10-13T11:02:22.000Z</time>
      </trkpt>
      <trkpt lat="45.571852" lon="7.838785">
        <ele>1039.92004</ele>
        <time>2024-10-13T11:02:24.000Z</time>
      </trkpt>
      <trkpt lat="45.571853" lon="7.838753">
        <ele>1039.39502</ele>
        <time>2024-10-13T11:02:26.000Z</time>
      </trkpt>
      <trkpt lat="45.571847" lon="7.838723">
        <ele>1038.95508</ele>
        <time>2024-10-13T11:02:28.000Z</time>
      </trkpt>
      <trkpt lat="45.571855" lon="7.838688">
        <ele>1038.50513</ele>
        <time>2024-10-13T11:02:31.000Z</time>
      </trkpt>
      <trkpt lat="45.571865" lon="7.838665">
        <ele>1038.06006</ele>
        <time>2024-10-13T11:02:34.000Z</time>
      </trkpt>
      <trkpt lat="45.571862" lon="7.838632">
        <ele>1037.6001</ele>
        <time>2024-10-13T11:02:37.000Z</time>
      </trkpt>
      <trkpt lat="45.571853" lon="7.8386">
        <ele>1037.21021</ele>
        <time>2024-10-13T11:02:39.000Z</time>
      </trkpt>
      <trkpt lat="45.571852" lon="7.838565">
        <ele>1036.82007</ele>
        <time>2024-10-13T11:02:43.000Z</time>
      </trkpt>
      <trkpt lat="45.571868" lon="7.83855">
        <ele>1036.44019</ele>
        <time>2024-10-13T11:02:46.000Z</time>
      </trkpt>
      <trkpt lat="45.57187" lon="7.83851">
        <ele>1036.03516</ele>
        <time>2024-10-13T11:02:49.000Z</time>
      </trkpt>
      <trkpt lat="45.571862" lon="7.838478">
        <ele>1035.57507</ele>
        <time>2024-10-13T11:02:52.000Z</time>
      </trkpt>
      <trkpt lat="45.571853" lon="7.838448">
        <ele>1035.03503</ele>
        <time>2024-10-13T11:02:55.000Z</time>
      </trkpt>
      <trkpt lat="45.57185" lon="7.838415">
        <ele>1034.41504</ele>
        <time>2024-10-13T11:02:59.000Z</time>
      </trkpt>
      <trkpt lat="45.57184" lon="7.838388">
        <ele>1033.73999</ele>
        <time>2024-10-13T11:03:02.000Z</time>
      </trkpt>
      <trkpt lat="45.571832" lon="7.83835">
        <ele>1032.97998</ele>
        <time>2024-10-13T11:03:05.000Z</time>
      </trkpt>
      <trkpt lat="45.571815" lon="7.838323">
        <ele>1032.13501</ele>
        <time>2024-10-13T11:03:07.000Z</time>
      </trkpt>
      <trkpt lat="45.571798" lon="7.83831">
        <ele>1031.25</ele>
        <time>2024-10-13T11:03:09.000Z</time>
      </trkpt>
      <trkpt lat="45.571788" lon="7.838283">
        <ele>1030.36987</ele>
        <time>2024-10-13T11:03:12.000Z</time>
      </trkpt>
      <trkpt lat="45.57178" lon="7.838248">
        <ele>1029.46497</ele>
        <time>2024-10-13T11:03:15.000Z</time>
      </trkpt>
      <trkpt lat="45.571768" lon="7.838227">
        <ele>1028.63989</ele>
        <time>2024-10-13T11:03:17.000Z</time>
      </trkpt>
      <trkpt lat="45.571765" lon="7.838193">
        <ele>1027.79492</ele>
        <time>2024-10-13T11:03:19.000Z</time>
      </trkpt>
      <trkpt lat="45.571757" lon="7.838167">
        <ele>1026.92993</ele>
        <time>2024-10-13T11:03:21.000Z</time>
      </trkpt>
      <trkpt lat="45.571748" lon="7.838142">
        <ele>1026.06482</ele>
        <time>2024-10-13T11:03:23.000Z</time>
      </trkpt>
      <trkpt lat="45.571735" lon="7.838108">
        <ele>1025.24976</ele>
        <time>2024-10-13T11:03:26.000Z</time>
      </trkpt>
      <trkpt lat="45.57173" lon="7.838073">
        <ele>1024.53479</ele>
        <time>2024-10-13T11:03:29.000Z</time>
      </trkpt>
      <trkpt lat="45.571722" lon="7.838038">
        <ele>1023.86975</ele>
        <time>2024-10-13T11:03:31.000Z</time>
      </trkpt>
      <trkpt lat="45.571707" lon="7.838017">
        <ele>1023.21472</ele>
        <time>2024-10-13T11:03:33.000Z</time>
      </trkpt>
      <trkpt lat="45.571692" lon="7.837992">
        <ele>1022.63977</ele>
        <time>2024-10-13T11:03:35.000Z</time>
      </trkpt>
      <trkpt lat="45.571677" lon="7.83797">
        <ele>1022.11475</ele>
        <time>2024-10-13T11:03:37.000Z</time>
      </trkpt>
      <trkpt lat="45.571662" lon="7.837948">
        <ele>1021.66473</ele>
        <time>2024-10-13T11:03:39.000Z</time>
      </trkpt>
      <trkpt lat="45.571652" lon="7.837922">
        <ele>1021.24982</ele>
        <time>2024-10-13T11:03:41.000Z</time>
      </trkpt>
      <trkpt lat="45.571638" lon="7.837892">
        <ele>1020.80975</ele>
        <time>2024-10-13T11:03:44.000Z</time>
      </trkpt>
      <trkpt lat="45.571627" lon="7.837863">
        <ele>1020.37482</ele>
        <time>2024-10-13T11:03:47.000Z</time>
      </trkpt>
      <trkpt lat="45.571617" lon="7.837842">
        <ele>1019.95978</ele>
        <time>2024-10-13T11:03:49.000Z</time>
      </trkpt>
      <trkpt lat="45.57162" lon="7.83781">
        <ele>1019.55481</ele>
        <time>2024-10-13T11:03:51.000Z</time>
      </trkpt>
      <trkpt lat="45.571635" lon="7.837782">
        <ele>1019.10974</ele>
        <time>2024-10-13T11:03:54.000Z</time>
      </trkpt>
      <trkpt lat="45.571657" lon="7.83777">
        <ele>1018.63477</ele>
        <time>2024-10-13T11:03:56.000Z</time>
      </trkpt>
      <trkpt lat="45.571685" lon="7.83776">
        <ele>1018.1698</ele>
        <time>2024-10-13T11:03:58.000Z</time>
      </trkpt>
      <trkpt lat="45.571705" lon="7.837742">
        <ele>1017.7298</ele>
        <time>2024-10-13T11:04:00.000Z</time>
      </trkpt>
      <trkpt lat="45.571728" lon="7.837735">
        <ele>1017.2998</ele>
        <time>2024-10-13T11:04:02.000Z</time>
      </trkpt>
      <trkpt lat="45.571748" lon="7.837727">
        <ele>1016.84485</ele>
        <time>2024-10-13T11:04:05.000Z</time>
      </trkpt>
      <trkpt lat="45.571772" lon="7.837718">
        <ele>1016.34979</ele>
        <time>2024-10-13T11:04:07.000Z</time>
      </trkpt>
      <trkpt lat="45.57179" lon="7.8377">
        <ele>1015.77478</ele>
        <time>2024-10-13T11:04:10.000Z</time>
      </trkpt>
      <trkpt lat="45.571808" lon="7.837695">
        <ele>1015.15479</ele>
        <time>2024-10-13T11:04:12.000Z</time>
      </trkpt>
      <trkpt lat="45.571828" lon="7.837692">
        <ele>1014.48987</ele>
        <time>2024-10-13T11:04:15.000Z</time>
      </trkpt>
      <trkpt lat="45.571845" lon="7.83768">
        <ele>1013.74481</ele>
        <time>2024-10-13T11:04:18.000Z</time>
      </trkpt>
      <trkpt lat="45.571867" lon="7.837678">
        <ele>1012.94983</ele>
        <time>2024-10-13T11:04:22.000Z</time>
      </trkpt>
      <trkpt lat="45.571885" lon="7.837663">
        <ele>1012.18475</ele>
        <time>2024-10-13T11:04:24.000Z</time>
      </trkpt>
      <trkpt lat="45.571903" lon="7.837647">
        <ele>1011.45471</ele>
        <time>2024-10-13T11:04:28.000Z</time>
      </trkpt>
      <trkpt lat="45.571925" lon="7.837638">
        <ele>1010.74969</ele>
        <time>2024-10-13T11:04:32.000Z</time>
      </trkpt>
      <trkpt lat="45.571952" lon="7.837623">
        <ele>1010.08966</ele>
        <time>2024-10-13T11:04:35.000Z</time>
      </trkpt>
      <trkpt lat="45.571965" lon="7.8376">
        <ele>1009.49475</ele>
        <time>2024-10-13T11:04:40.000Z</time>
      </trkpt>
      <trkpt lat="45.57193" lon="7.837583">
        <ele>1008.84973</ele>
        <time>2024-10-13T11:04:55.000Z</time>
      </trkpt>
      <trkpt lat="45.57193" lon="7.837553">
        <ele>1008.24969</ele>
        <time>2024-10-13T11:05:00.000Z</time>
      </trkpt>
      <trkpt lat="45.571933" lon="7.837527">
        <ele>1007.67969</ele>
        <time>2024-10-13T11:05:05.000Z</time>
      </trkpt>
      <trkpt lat="45.571925" lon="7.837493">
        <ele>1007.18976</ele>
        <time>2024-10-13T11:05:09.000Z</time>
      </trkpt>
      <trkpt lat="45.571935" lon="7.837463">
        <ele>1006.71973</ele>
        <time>2024-10-13T11:05:13.000Z</time>
      </trkpt>
      <trkpt lat="45.571937" lon="7.837433">
        <ele>1006.24475</ele>
        <time>2024-10-13T11:05:18.000Z</time>
      </trkpt>
      <trkpt lat="45.571935" lon="7.837407">
        <ele>1005.72968</ele>
        <time>2024-10-13T11:05:23.000Z</time>
      </trkpt>
      <trkpt lat="45.571928" lon="7.837373">
        <ele>1005.15967</ele>
        <time>2024-10-13T11:05:27.000Z</time>
      </trkpt>
      <trkpt lat="45.571913" lon="7.837353">
        <ele>1004.5047</ele>
        <time>2024-10-13T11:05:35.000Z</time>
      </trkpt>
      <trkpt lat="45.571895" lon="7.837335">
        <ele>1003.83972</ele>
        <time>2024-10-13T11:05:38.000Z</time>
      </trkpt>
      <trkpt lat="45.571875" lon="7.837308">
        <ele>1003.16473</ele>
        <time>2024-10-13T11:05:41.000Z</time>
      </trkpt>
      <trkpt lat="45.571855" lon="7.837288">
        <ele>1002.51477</ele>
        <time>2024-10-13T11:05:43.000Z</time>
      </trkpt>
      <trkpt lat="45.571835" lon="7.837265">
        <ele>1001.85974</ele>
        <time>2024-10-13T11:05:45.000Z</time>
      </trkpt>
      <trkpt lat="45.571815" lon="7.837245">
        <ele>1001.2298</ele>
        <time>2024-10-13T11:05:47.000Z</time>
      </trkpt>
      <trkpt lat="45.57179" lon="7.837223">
        <ele>1000.59473</ele>
        <time>2024-10-13T11:05:49.000Z</time>
      </trkpt>
      <trkpt lat="45.571767" lon="7.837202">
        <ele>999.9248</ele>
        <time>2024-10-13T11:05:51.000Z</time>
      </trkpt>
      <trkpt lat="45.571747" lon="7.837187">
        <ele>999.19482</ele>
        <time>2024-10-13T11:05:53.000Z</time>
      </trkpt>
      <trkpt lat="45.571722" lon="7.837173">
        <ele>998.40479</ele>
        <time>2024-10-13T11:05:55.000Z</time>
      </trkpt>
      <trkpt lat="45.571703" lon="7.837153">
        <ele>997.4798</ele>
        <time>2024-10-13T11:05:58.000Z</time>
      </trkpt>
      <trkpt lat="45.571687" lon="7.83714">
        <ele>996.50476</ele>
        <time>2024-10-13T11:06:02.000Z</time>
      </trkpt>
      <trkpt lat="45.571673" lon="7.837118">
        <ele>995.58984</ele>
        <time>2024-10-13T11:06:04.000Z</time>
      </trkpt>
      <trkpt lat="45.571653" lon="7.837102">
        <ele>994.62988</ele>
        <time>2024-10-13T11:06:06.000Z</time>
      </trkpt>
      <trkpt lat="45.571633" lon="7.837087">
        <ele>993.6499</ele>
        <time>2024-10-13T11:06:08.000Z</time>
      </trkpt>
      <trkpt lat="45.571608" lon="7.83707">
        <ele>992.60486</ele>
        <time>2024-10-13T11:06:11.000Z</time>
      </trkpt>
      <trkpt lat="45.571583" lon="7.837062">
        <ele>991.51495</ele>
        <time>2024-10-13T11:06:14.000Z</time>
      </trkpt>
      <trkpt lat="45.571572" lon="7.837025">
        <ele>990.29993</ele>
        <time>2024-10-13T11:06:40.000Z</time>
      </trkpt>
      <trkpt lat="45.571552" lon="7.83703">
        <ele>989.10999</ele>
        <time>2024-10-13T11:06:42.000Z</time>
      </trkpt>
      <trkpt lat="45.571535" lon="7.837042">
        <ele>987.97003</ele>
        <time>2024-10-13T11:06:44.000Z</time>
      </trkpt>
      <trkpt lat="45.571517" lon="7.837052">
        <ele>986.93506</ele>
        <time>2024-10-13T11:06:46.000Z</time>
      </trkpt>
      <trkpt lat="45.571498" lon="7.837063">
        <ele>985.94006</ele>
        <time>2024-10-13T11:06:48.000Z</time>
      </trkpt>
      <trkpt lat="45.57147" lon="7.837065">
        <ele>985.00507</ele>
        <time>2024-10-13T11:06:50.000Z</time>
      </trkpt>
      <trkpt lat="45.571442" lon="7.837065">
        <ele>984.09015</ele>
        <time>2024-10-13T11:06:52.000Z</time>
      </trkpt>
      <trkpt lat="45.571413" lon="7.837073">
        <ele>983.20007</ele>
        <time>2024-10-13T11:06:54.000Z</time>
      </trkpt>
      <trkpt lat="45.571385" lon="7.837087">
        <ele>982.32013</ele>
        <time>2024-10-13T11:06:56.000Z</time>
      </trkpt>
      <trkpt lat="45.571363" lon="7.837093">
        <ele>981.50018</ele>
        <time>2024-10-13T11:06:59.000Z</time>
      </trkpt>
      <trkpt lat="45.571343" lon="7.837098">
        <ele>980.71014</ele>
        <time>2024-10-13T11:07:01.000Z</time>
      </trkpt>
      <trkpt lat="45.571325" lon="7.837093">
        <ele>979.97522</ele>
        <time>2024-10-13T11:07:07.000Z</time>
      </trkpt>
      <trkpt lat="45.571288" lon="7.837113">
        <ele>979.27521</ele>
        <time>2024-10-13T11:07:17.000Z</time>
      </trkpt>
      <trkpt lat="45.571263" lon="7.837123">
        <ele>978.74023</ele>
        <time>2024-10-13T11:07:20.000Z</time>
      </trkpt>
      <trkpt lat="45.571242" lon="7.837133">
        <ele>978.24023</ele>
        <time>2024-10-13T11:07:22.000Z</time>
      </trkpt>
      <trkpt lat="45.571225" lon="7.837148">
        <ele>977.72021</ele>
        <time>2024-10-13T11:07:24.000Z</time>
      </trkpt>
      <trkpt lat="45.571207" lon="7.837157">
        <ele>977.21515</ele>
        <time>2024-10-13T11:07:27.000Z</time>
      </trkpt>
      <trkpt lat="45.571182" lon="7.837168">
        <ele>976.74011</ele>
        <time>2024-10-13T11:07:30.000Z</time>
      </trkpt>
      <trkpt lat="45.571157" lon="7.83718">
        <ele>976.31018</ele>
        <time>2024-10-13T11:07:32.000Z</time>
      </trkpt>
      <trkpt lat="45.571137" lon="7.837195">
        <ele>975.95007</ele>
        <time>2024-10-13T11:07:34.000Z</time>
      </trkpt>
      <trkpt lat="45.571118" lon="7.837208">
        <ele>975.77014</ele>
        <time>2024-10-13T11:07:36.000Z</time>
      </trkpt>
      <trkpt lat="45.571105" lon="7.837232">
        <ele>975.61511</ele>
        <time>2024-10-13T11:07:39.000Z</time>
      </trkpt>
      <trkpt lat="45.571088" lon="7.837257">
        <ele>975.4751</ele>
        <time>2024-10-13T11:07:42.000Z</time>
      </trkpt>
      <trkpt lat="45.571078" lon="7.837285">
        <ele>975.36005</ele>
        <time>2024-10-13T11:07:45.000Z</time>
      </trkpt>
      <trkpt lat="45.571062" lon="7.837298">
        <ele>975.24005</ele>
        <time>2024-10-13T11:07:47.000Z</time>
      </trkpt>
      <trkpt lat="45.571047" lon="7.83732">
        <ele>975.07996</ele>
        <time>2024-10-13T11:07:50.000Z</time>
      </trkpt>
      <trkpt lat="45.571035" lon="7.83734">
        <ele>974.88</ele>
        <time>2024-10-13T11:07:53.000Z</time>
      </trkpt>
      <trkpt lat="45.57102" lon="7.837355">
        <ele>974.63995</ele>
        <time>2024-10-13T11:07:57.000Z</time>
      </trkpt>
      <trkpt lat="45.571038" lon="7.837355">
        <ele>974.73499</ele>
        <time>2024-10-13T11:08:11.000Z</time>
      </trkpt>
      <trkpt lat="45.571008" lon="7.83735">
        <ele>974.8999</ele>
        <time>2024-10-13T11:08:17.000Z</time>
      </trkpt>
      <trkpt lat="45.570987" lon="7.837357">
        <ele>975.08484</ele>
        <time>2024-10-13T11:08:19.000Z</time>
      </trkpt>
      <trkpt lat="45.57096" lon="7.837365">
        <ele>975.30487</ele>
        <time>2024-10-13T11:08:22.000Z</time>
      </trkpt>
      <trkpt lat="45.570938" lon="7.83737">
        <ele>975.53485</ele>
        <time>2024-10-13T11:08:24.000Z</time>
      </trkpt>
      <trkpt lat="45.570915" lon="7.837378">
        <ele>975.74988</ele>
        <time>2024-10-13T11:08:27.000Z</time>
      </trkpt>
      <trkpt lat="45.570895" lon="7.837392">
        <ele>975.94989</ele>
        <time>2024-10-13T11:08:30.000Z</time>
      </trkpt>
      <trkpt lat="45.570877" lon="7.837412">
        <ele>976.17987</ele>
        <time>2024-10-13T11:08:32.000Z</time>
      </trkpt>
      <trkpt lat="45.57086" lon="7.837423">
        <ele>976.42987</ele>
        <time>2024-10-13T11:08:34.000Z</time>
      </trkpt>
      <trkpt lat="45.570845" lon="7.83744">
        <ele>976.65491</ele>
        <time>2024-10-13T11:08:37.000Z</time>
      </trkpt>
      <trkpt lat="45.570832" lon="7.837465">
        <ele>976.86487</ele>
        <time>2024-10-13T11:08:39.000Z</time>
      </trkpt>
      <trkpt lat="45.570815" lon="7.83749">
        <ele>977.05988</ele>
        <time>2024-10-13T11:08:41.000Z</time>
      </trkpt>
      <trkpt lat="45.570797" lon="7.837522">
        <ele>977.24988</ele>
        <time>2024-10-13T11:08:43.000Z</time>
      </trkpt>
      <trkpt lat="45.570772" lon="7.837548">
        <ele>977.42493</ele>
        <time>2024-10-13T11:08:45.000Z</time>
      </trkpt>
      <trkpt lat="45.570743" lon="7.837568">
        <ele>977.5799</ele>
        <time>2024-10-13T11:08:47.000Z</time>
      </trkpt>
      <trkpt lat="45.570717" lon="7.837587">
        <ele>977.68982</ele>
        <time>2024-10-13T11:08:49.000Z</time>
      </trkpt>
      <trkpt lat="45.570695" lon="7.837603">
        <ele>977.77991</ele>
        <time>2024-10-13T11:08:51.000Z</time>
      </trkpt>
      <trkpt lat="45.570677" lon="7.837613">
        <ele>977.85999</ele>
        <time>2024-10-13T11:08:53.000Z</time>
      </trkpt>
      <trkpt lat="45.570638" lon="7.837627">
        <ele>977.88495</ele>
        <time>2024-10-13T11:08:56.000Z</time>
      </trkpt>
      <trkpt lat="45.570618" lon="7.837627">
        <ele>977.90997</ele>
        <time>2024-10-13T11:08:58.000Z</time>
      </trkpt>
      <trkpt lat="45.570605" lon="7.837607">
        <ele>977.5199</ele>
        <time>2024-10-13T11:09:02.000Z</time>
      </trkpt>
      <trkpt lat="45.57059" lon="7.837587">
        <ele>977.02997</ele>
        <time>2024-10-13T11:09:04.000Z</time>
      </trkpt>
      <trkpt lat="45.570592" lon="7.837553">
        <ele>976.47498</ele>
        <time>2024-10-13T11:09:07.000Z</time>
      </trkpt>
      <trkpt lat="45.5706" lon="7.837527">
        <ele>975.84998</ele>
        <time>2024-10-13T11:09:09.000Z</time>
      </trkpt>
      <trkpt lat="45.570598" lon="7.837493">
        <ele>975.20508</ele>
        <time>2024-10-13T11:09:11.000Z</time>
      </trkpt>
      <trkpt lat="45.570602" lon="7.837455">
        <ele>974.50507</ele>
        <time>2024-10-13T11:09:13.000Z</time>
      </trkpt>
      <trkpt lat="45.570605" lon="7.837418">
        <ele>973.82001</ele>
        <time>2024-10-13T11:09:15.000Z</time>
      </trkpt>
      <trkpt lat="45.570598" lon="7.837377">
        <ele>973.14502</ele>
        <time>2024-10-13T11:09:17.000Z</time>
      </trkpt>
      <trkpt lat="45.570595" lon="7.837338">
        <ele>972.50012</ele>
        <time>2024-10-13T11:09:19.000Z</time>
      </trkpt>
      <trkpt lat="45.570598" lon="7.837302">
        <ele>971.90009</ele>
        <time>2024-10-13T11:09:22.000Z</time>
      </trkpt>
      <trkpt lat="45.570602" lon="7.837272">
        <ele>971.34015</ele>
        <time>2024-10-13T11:09:26.000Z</time>
      </trkpt>
      <trkpt lat="45.570608" lon="7.837235">
        <ele>970.77014</ele>
        <time>2024-10-13T11:09:29.000Z</time>
      </trkpt>
      <trkpt lat="45.57061" lon="7.837207">
        <ele>970.17511</ele>
        <time>2024-10-13T11:09:31.000Z</time>
      </trkpt>
      <trkpt lat="45.570612" lon="7.837177">
        <ele>969.54504</ele>
        <time>2024-10-13T11:09:34.000Z</time>
      </trkpt>
      <trkpt lat="45.570617" lon="7.837143">
        <ele>968.93506</ele>
        <time>2024-10-13T11:09:37.000Z</time>
      </trkpt>
      <trkpt lat="45.570612" lon="7.837108">
        <ele>968.39514</ele>
        <time>2024-10-13T11:09:40.000Z</time>
      </trkpt>
      <trkpt lat="45.570613" lon="7.837082">
        <ele>967.91516</ele>
        <time>2024-10-13T11:09:43.000Z</time>
      </trkpt>
      <trkpt lat="45.570622" lon="7.837132">
        <ele>967.22009</ele>
        <time>2024-10-13T11:09:59.000Z</time>
      </trkpt>
      <trkpt lat="45.570598" lon="7.837137">
        <ele>966.57013</ele>
        <time>2024-10-13T11:10:02.000Z</time>
      </trkpt>
      <trkpt lat="45.570585" lon="7.837158">
        <ele>965.91016</ele>
        <time>2024-10-13T11:10:04.000Z</time>
      </trkpt>
      <trkpt lat="45.570573" lon="7.837218">
        <ele>965.16016</ele>
        <time>2024-10-13T11:10:09.000Z</time>
      </trkpt>
      <trkpt lat="45.57056" lon="7.837238">
        <ele>964.39014</ele>
        <time>2024-10-13T11:10:11.000Z</time>
      </trkpt>
      <trkpt lat="45.570545" lon="7.837253">
        <ele>963.63019</ele>
        <time>2024-10-13T11:10:14.000Z</time>
      </trkpt>
      <trkpt lat="45.570528" lon="7.837273">
        <ele>962.86511</ele>
        <time>2024-10-13T11:10:17.000Z</time>
      </trkpt>
      <trkpt lat="45.570508" lon="7.837277">
        <ele>962.06512</ele>
        <time>2024-10-13T11:10:19.000Z</time>
      </trkpt>
      <trkpt lat="45.570478" lon="7.837272">
        <ele>961.23505</ele>
        <time>2024-10-13T11:10:23.000Z</time>
      </trkpt>
      <trkpt lat="45.570455" lon="7.837263">
        <ele>960.38507</ele>
        <time>2024-10-13T11:10:25.000Z</time>
      </trkpt>
      <trkpt lat="45.570432" lon="7.83723">
        <ele>959.51007</ele>
        <time>2024-10-13T11:10:27.000Z</time>
      </trkpt>
      <trkpt lat="45.57043" lon="7.837198">
        <ele>958.61005</ele>
        <time>2024-10-13T11:10:29.000Z</time>
      </trkpt>
      <trkpt lat="45.57043" lon="7.837165">
        <ele>957.63507</ele>
        <time>2024-10-13T11:10:32.000Z</time>
      </trkpt>
      <trkpt lat="45.570418" lon="7.83713">
        <ele>956.60498</ele>
        <time>2024-10-13T11:10:35.000Z</time>
      </trkpt>
      <trkpt lat="45.57041" lon="7.837097">
        <ele>955.57996</ele>
        <time>2024-10-13T11:10:37.000Z</time>
      </trkpt>
      <trkpt lat="45.570422" lon="7.837077">
        <ele>954.54999</ele>
        <time>2024-10-13T11:10:39.000Z</time>
      </trkpt>
      <trkpt lat="45.57043" lon="7.837047">
        <ele>953.54999</ele>
        <time>2024-10-13T11:10:42.000Z</time>
      </trkpt>
      <trkpt lat="45.57041" lon="7.837038">
        <ele>952.57996</ele>
        <time>2024-10-13T11:10:47.000Z</time>
      </trkpt>
      <trkpt lat="45.570413" lon="7.837007">
        <ele>951.57996</ele>
        <time>2024-10-13T11:10:52.000Z</time>
      </trkpt>
      <trkpt lat="45.570403" lon="7.836975">
        <ele>950.61493</ele>
        <time>2024-10-13T11:10:56.000Z</time>
      </trkpt>
      <trkpt lat="45.570397" lon="7.836947">
        <ele>949.93494</ele>
        <time>2024-10-13T11:10:59.000Z</time>
      </trkpt>
      <trkpt lat="45.570388" lon="7.836913">
        <ele>949.30499</ele>
        <time>2024-10-13T11:11:02.000Z</time>
      </trkpt>
      <trkpt lat="45.570382" lon="7.836883">
        <ele>948.69501</ele>
        <time>2024-10-13T11:11:05.000Z</time>
      </trkpt>
      <trkpt lat="45.570373" lon="7.836858">
        <ele>948.22498</ele>
        <time>2024-10-13T11:11:08.000Z</time>
      </trkpt>
      <trkpt lat="45.570363" lon="7.836832">
        <ele>947.78992</ele>
        <time>2024-10-13T11:11:11.000Z</time>
      </trkpt>
      <trkpt lat="45.570358" lon="7.836805">
        <ele>947.32489</ele>
        <time>2024-10-13T11:11:14.000Z</time>
      </trkpt>
      <trkpt lat="45.57035" lon="7.836782">
        <ele>946.78992</ele>
        <time>2024-10-13T11:11:18.000Z</time>
      </trkpt>
      <trkpt lat="45.570338" lon="7.836758">
        <ele>946.22986</ele>
        <time>2024-10-13T11:11:21.000Z</time>
      </trkpt>
      <trkpt lat="45.570332" lon="7.83673">
        <ele>945.63995</ele>
        <time>2024-10-13T11:11:25.000Z</time>
      </trkpt>
      <trkpt lat="45.57033" lon="7.836703">
        <ele>944.93994</ele>
        <time>2024-10-13T11:11:28.000Z</time>
      </trkpt>
      <trkpt lat="45.570318" lon="7.836677">
        <ele>944.22998</ele>
        <time>2024-10-13T11:11:31.000Z</time>
      </trkpt>
      <trkpt lat="45.570302" lon="7.836647">
        <ele>943.48993</ele>
        <time>2024-10-13T11:11:34.000Z</time>
      </trkpt>
      <trkpt lat="45.570293" lon="7.83661">
        <ele>942.76495</ele>
        <time>2024-10-13T11:11:37.000Z</time>
      </trkpt>
      <trkpt lat="45.570295" lon="7.83658">
        <ele>942.02002</ele>
        <time>2024-10-13T11:11:39.000Z</time>
      </trkpt>
      <trkpt lat="45.570287" lon="7.836552">
        <ele>941.24005</ele>
        <time>2024-10-13T11:11:41.000Z</time>
      </trkpt>
      <trkpt lat="45.570277" lon="7.836525">
        <ele>940.44006</ele>
        <time>2024-10-13T11:11:43.000Z</time>
      </trkpt>
      <trkpt lat="45.570275" lon="7.836493">
        <ele>939.58508</ele>
        <time>2024-10-13T11:11:45.000Z</time>
      </trkpt>
      <trkpt lat="45.570267" lon="7.83647">
        <ele>938.65509</ele>
        <time>2024-10-13T11:11:47.000Z</time>
      </trkpt>
      <trkpt lat="45.570265" lon="7.836443">
        <ele>937.68005</ele>
        <time>2024-10-13T11:11:49.000Z</time>
      </trkpt>
      <trkpt lat="45.570278" lon="7.836417">
        <ele>936.61505</ele>
        <time>2024-10-13T11:11:51.000Z</time>
      </trkpt>
      <trkpt lat="45.570285" lon="7.83639">
        <ele>935.48499</ele>
        <time>2024-10-13T11:11:53.000Z</time>
      </trkpt>
      <trkpt lat="45.57027" lon="7.83636">
        <ele>934.30994</ele>
        <time>2024-10-13T11:11:56.000Z</time>
      </trkpt>
      <trkpt lat="45.570257" lon="7.836342">
        <ele>933.15491</ele>
        <time>2024-10-13T11:11:58.000Z</time>
      </trkpt>
      <trkpt lat="45.57024" lon="7.83632">
        <ele>932.0199</ele>
        <time>2024-10-13T11:12:01.000Z</time>
      </trkpt>
      <trkpt lat="45.570218" lon="7.8363">
        <ele>930.83496</ele>
        <time>2024-10-13T11:12:04.000Z</time>
      </trkpt>
      <trkpt lat="45.5702" lon="7.836277">
        <ele>929.65997</ele>
        <time>2024-10-13T11:12:07.000Z</time>
      </trkpt>
      <trkpt lat="45.570183" lon="7.836263">
        <ele>928.55994</ele>
        <time>2024-10-13T11:12:09.000Z</time>
      </trkpt>
      <trkpt lat="45.570162" lon="7.836245">
        <ele>927.48499</ele>
        <time>2024-10-13T11:12:12.000Z</time>
      </trkpt>
      <trkpt lat="45.570143" lon="7.836235">
        <ele>926.47998</ele>
        <time>2024-10-13T11:12:14.000Z</time>
      </trkpt>
      <trkpt lat="45.570115" lon="7.83622">
        <ele>925.52002</ele>
        <time>2024-10-13T11:12:17.000Z</time>
      </trkpt>
      <trkpt lat="45.570108" lon="7.836188">
        <ele>924.50995</ele>
        <time>2024-10-13T11:12:23.000Z</time>
      </trkpt>
      <trkpt lat="45.5701" lon="7.836153">
        <ele>923.52502</ele>
        <time>2024-10-13T11:12:26.000Z</time>
      </trkpt>
      <trkpt lat="45.570082" lon="7.836127">
        <ele>922.53497</ele>
        <time>2024-10-13T11:12:29.000Z</time>
      </trkpt>
      <trkpt lat="45.570062" lon="7.836115">
        <ele>921.56995</ele>
        <time>2024-10-13T11:12:31.000Z</time>
      </trkpt>
      <trkpt lat="45.570042" lon="7.8361">
        <ele>920.59991</ele>
        <time>2024-10-13T11:12:33.000Z</time>
      </trkpt>
      <trkpt lat="45.570023" lon="7.836092">
        <ele>919.63489</ele>
        <time>2024-10-13T11:12:35.000Z</time>
      </trkpt>
      <trkpt lat="45.570008" lon="7.836068">
        <ele>918.68982</ele>
        <time>2024-10-13T11:12:38.000Z</time>
      </trkpt>
      <trkpt lat="45.569992" lon="7.83605">
        <ele>917.73486</ele>
        <time>2024-10-13T11:12:41.000Z</time>
      </trkpt>
      <trkpt lat="45.569975" lon="7.836028">
        <ele>916.78986</ele>
        <time>2024-10-13T11:12:44.000Z</time>
      </trkpt>
      <trkpt lat="45.569963" lon="7.835998">
        <ele>915.85486</ele>
        <time>2024-10-13T11:12:47.000Z</time>
      </trkpt>
      <trkpt lat="45.569958" lon="7.835962">
        <ele>914.97491</ele>
        <time>2024-10-13T11:12:50.000Z</time>
      </trkpt>
      <trkpt lat="45.569948" lon="7.835938">
        <ele>914.13983</ele>
        <time>2024-10-13T11:12:52.000Z</time>
      </trkpt>
      <trkpt lat="45.569942" lon="7.835908">
        <ele>913.31482</ele>
        <time>2024-10-13T11:12:55.000Z</time>
      </trkpt>
      <trkpt lat="45.569943" lon="7.83588">
        <ele>912.52478</ele>
        <time>2024-10-13T11:12:57.000Z</time>
      </trkpt>
      <trkpt lat="45.569945" lon="7.835847">
        <ele>911.76984</ele>
        <time>2024-10-13T11:13:00.000Z</time>
      </trkpt>
      <trkpt lat="45.569947" lon="7.83582">
        <ele>911.01984</ele>
        <time>2024-10-13T11:13:02.000Z</time>
      </trkpt>
      <trkpt lat="45.569948" lon="7.835785">
        <ele>910.28973</ele>
        <time>2024-10-13T11:13:04.000Z</time>
      </trkpt>
      <trkpt lat="45.569952" lon="7.835747">
        <ele>909.65479</ele>
        <time>2024-10-13T11:13:06.000Z</time>
      </trkpt>
      <trkpt lat="45.569947" lon="7.835712">
        <ele>909.07471</ele>
        <time>2024-10-13T11:13:08.000Z</time>
      </trkpt>
      <trkpt lat="45.569942" lon="7.83568">
        <ele>908.61975</ele>
        <time>2024-10-13T11:13:10.000Z</time>
      </trkpt>
      <trkpt lat="45.569925" lon="7.835655">
        <ele>908.24475</ele>
        <time>2024-10-13T11:13:13.000Z</time>
      </trkpt>
      <trkpt lat="45.56991" lon="7.835623">
        <ele>907.81464</ele>
        <time>2024-10-13T11:13:16.000Z</time>
      </trkpt>
      <trkpt lat="45.569912" lon="7.83559">
        <ele>907.38965</ele>
        <time>2024-10-13T11:13:19.000Z</time>
      </trkpt>
      <trkpt lat="45.569905" lon="7.835558">
        <ele>906.9696</ele>
        <time>2024-10-13T11:13:22.000Z</time>
      </trkpt>
      <trkpt lat="45.569907" lon="7.83553">
        <ele>906.55969</ele>
        <time>2024-10-13T11:13:25.000Z</time>
      </trkpt>
      <trkpt lat="45.569893" lon="7.835512">
        <ele>906.11462</ele>
        <time>2024-10-13T11:13:29.000Z</time>
      </trkpt>
      <trkpt lat="45.5699" lon="7.83548">
        <ele>905.62469</ele>
        <time>2024-10-13T11:13:33.000Z</time>
      </trkpt>
      <trkpt lat="45.56992" lon="7.835527">
        <ele>905.00964</ele>
        <time>2024-10-13T11:14:19.000Z</time>
      </trkpt>
      <trkpt lat="45.569902" lon="7.835503">
        <ele>904.38965</ele>
        <time>2024-10-13T11:14:22.000Z</time>
      </trkpt>
      <trkpt lat="45.569902" lon="7.835473">
        <ele>903.77966</ele>
        <time>2024-10-13T11:14:25.000Z</time>
      </trkpt>
      <trkpt lat="45.569898" lon="7.835435">
        <ele>903.15967</ele>
        <time>2024-10-13T11:14:28.000Z</time>
      </trkpt>
      <trkpt lat="45.569877" lon="7.835408">
        <ele>902.49969</ele>
        <time>2024-10-13T11:14:30.000Z</time>
      </trkpt>
      <trkpt lat="45.56986" lon="7.835387">
        <ele>901.82471</ele>
        <time>2024-10-13T11:14:32.000Z</time>
      </trkpt>
      <trkpt lat="45.569853" lon="7.835358">
        <ele>901.08478</ele>
        <time>2024-10-13T11:14:35.000Z</time>
      </trkpt>
      <trkpt lat="45.569843" lon="7.835325">
        <ele>900.3197</ele>
        <time>2024-10-13T11:14:38.000Z</time>
      </trkpt>
      <trkpt lat="45.569845" lon="7.835298">
        <ele>899.6048</ele>
        <time>2024-10-13T11:14:40.000Z</time>
      </trkpt>
      <trkpt lat="45.569853" lon="7.835272">
        <ele>898.88983</ele>
        <time>2024-10-13T11:14:43.000Z</time>
      </trkpt>
      <trkpt lat="45.56986" lon="7.835242">
        <ele>898.08984</ele>
        <time>2024-10-13T11:14:46.000Z</time>
      </trkpt>
      <trkpt lat="45.569873" lon="7.835205">
        <ele>897.19989</ele>
        <time>2024-10-13T11:14:49.000Z</time>
      </trkpt>
      <trkpt lat="45.569885" lon="7.835178">
        <ele>896.24988</ele>
        <time>2024-10-13T11:14:52.000Z</time>
      </trkpt>
      <trkpt lat="45.569883" lon="7.835145">
        <ele>895.26495</ele>
        <time>2024-10-13T11:14:56.000Z</time>
      </trkpt>
      <trkpt lat="45.5699" lon="7.835115">
        <ele>894.32996</ele>
        <time>2024-10-13T11:14:59.000Z</time>
      </trkpt>
      <trkpt lat="45.569913" lon="7.835088">
        <ele>893.45496</ele>
        <time>2024-10-13T11:15:01.000Z</time>
      </trkpt>
      <trkpt lat="45.569923" lon="7.835057">
        <ele>892.59003</ele>
        <time>2024-10-13T11:15:04.000Z</time>
      </trkpt>
      <trkpt lat="45.569923" lon="7.835025">
        <ele>891.755</ele>
        <time>2024-10-13T11:15:06.000Z</time>
      </trkpt>
      <trkpt lat="45.569932" lon="7.834997">
        <ele>891.0</ele>
        <time>2024-10-13T11:15:08.000Z</time>
      </trkpt>
      <trkpt lat="45.569935" lon="7.834965">
        <ele>890.34998</ele>
        <time>2024-10-13T11:15:10.000Z</time>
      </trkpt>
      <trkpt lat="45.56994" lon="7.834932">
        <ele>889.85498</ele>
        <time>2024-10-13T11:15:13.000Z</time>
      </trkpt>
      <trkpt lat="45.569948" lon="7.834903">
        <ele>889.36505</ele>
        <time>2024-10-13T11:15:16.000Z</time>
      </trkpt>
      <trkpt lat="45.569967" lon="7.834883">
        <ele>888.84503</ele>
        <time>2024-10-13T11:15:19.000Z</time>
      </trkpt>
      <trkpt lat="45.569978" lon="7.834858">
        <ele>888.27002</ele>
        <time>2024-10-13T11:15:22.000Z</time>
      </trkpt>
      <trkpt lat="45.569987" lon="7.83483">
        <ele>887.70496</ele>
        <time>2024-10-13T11:15:26.000Z</time>
      </trkpt>
      <trkpt lat="45.570005" lon="7.834803">
        <ele>887.125</ele>
        <time>2024-10-13T11:15:29.000Z</time>
      </trkpt>
      <trkpt lat="45.57002" lon="7.834775">
        <ele>886.58997</ele>
        <time>2024-10-13T11:15:31.000Z</time>
      </trkpt>
      <trkpt lat="45.570037" lon="7.834742">
        <ele>886.05499</ele>
        <time>2024-10-13T11:15:33.000Z</time>
      </trkpt>
      <trkpt lat="45.570057" lon="7.834713">
        <ele>885.46497</ele>
        <time>2024-10-13T11:15:35.000Z</time>
      </trkpt>
      <trkpt lat="45.570073" lon="7.834692">
        <ele>884.84991</ele>
        <time>2024-10-13T11:15:37.000Z</time>
      </trkpt>
      <trkpt lat="45.570088" lon="7.834673">
        <ele>884.22491</ele>
        <time>2024-10-13T11:15:39.000Z</time>
      </trkpt>
      <trkpt lat="45.570103" lon="7.834655">
        <ele>883.6499</ele>
        <time>2024-10-13T11:15:41.000Z</time>
      </trkpt>
      <trkpt lat="45.570125" lon="7.834635">
        <ele>883.08984</ele>
        <time>2024-10-13T11:15:44.000Z</time>
      </trkpt>
      <trkpt lat="45.570152" lon="7.834618">
        <ele>882.56482</ele>
        <time>2024-10-13T11:15:47.000Z</time>
      </trkpt>
      <trkpt lat="45.570175" lon="7.834602">
        <ele>882.06482</ele>
        <time>2024-10-13T11:15:49.000Z</time>
      </trkpt>
      <trkpt lat="45.570203" lon="7.834582">
        <ele>881.56995</ele>
        <time>2024-10-13T11:15:51.000Z</time>
      </trkpt>
      <trkpt lat="45.570228" lon="7.834567">
        <ele>881.08484</ele>
        <time>2024-10-13T11:15:53.000Z</time>
      </trkpt>
      <trkpt lat="45.570253" lon="7.834563">
        <ele>880.61493</ele>
        <time>2024-10-13T11:15:55.000Z</time>
      </trkpt>
      <trkpt lat="45.570272" lon="7.834545">
        <ele>880.13</ele>
        <time>2024-10-13T11:15:58.000Z</time>
      </trkpt>
      <trkpt lat="45.570288" lon="7.834527">
        <ele>879.61493</ele>
        <time>2024-10-13T11:16:02.000Z</time>
      </trkpt>
      <trkpt lat="45.57031" lon="7.834508">
        <ele>879.12</ele>
        <time>2024-10-13T11:16:05.000Z</time>
      </trkpt>
      <trkpt lat="45.570327" lon="7.834493">
        <ele>878.68494</ele>
        <time>2024-10-13T11:16:07.000Z</time>
      </trkpt>
      <trkpt lat="45.570332" lon="7.834467">
        <ele>878.29492</ele>
        <time>2024-10-13T11:16:12.000Z</time>
      </trkpt>
      <trkpt lat="45.570358" lon="7.834472">
        <ele>877.93994</ele>
        <time>2024-10-13T11:16:18.000Z</time>
      </trkpt>
      <trkpt lat="45.570378" lon="7.834468">
        <ele>877.57996</ele>
        <time>2024-10-13T11:16:20.000Z</time>
      </trkpt>
      <trkpt lat="45.570318" lon="7.834503">
        <ele>876.95001</ele>
        <time>2024-10-13T11:17:10.000Z</time>
      </trkpt>
      <trkpt lat="45.5703" lon="7.834507">
        <ele>876.34998</ele>
        <time>2024-10-13T11:17:12.000Z</time>
      </trkpt>
      <trkpt lat="45.570278" lon="7.83451">
        <ele>875.79504</ele>
        <time>2024-10-13T11:17:14.000Z</time>
      </trkpt>
      <trkpt lat="45.57026" lon="7.834512">
        <ele>875.27997</ele>
        <time>2024-10-13T11:17:16.000Z</time>
      </trkpt>
      <trkpt lat="45.570237" lon="7.83451">
        <ele>874.79004</ele>
        <time>2024-10-13T11:17:18.000Z</time>
      </trkpt>
      <trkpt lat="45.570215" lon="7.834513">
        <ele>874.32996</ele>
        <time>2024-10-13T11:17:20.000Z</time>
      </trkpt>
      <trkpt lat="45.570193" lon="7.834507">
        <ele>873.85999</ele>
        <time>2024-10-13T11:17:22.000Z</time>
      </trkpt>
      <trkpt lat="45.570168" lon="7.834497">
        <ele>873.38995</ele>
        <time>2024-10-13T11:17:24.000Z</time>
      </trkpt>
      <trkpt lat="45.570148" lon="7.834495">
        <ele>872.90491</ele>
        <time>2024-10-13T11:17:26.000Z</time>
      </trkpt>
      <trkpt lat="45.57013" lon="7.834502">
        <ele>872.41486</ele>
        <time>2024-10-13T11:17:28.000Z</time>
      </trkpt>
      <trkpt lat="45.570102" lon="7.834508">
        <ele>871.88983</ele>
        <time>2024-10-13T11:17:30.000Z</time>
      </trkpt>
      <trkpt lat="45.57007" lon="7.834502">
        <ele>871.47491</ele>
        <time>2024-10-13T11:17:33.000Z</time>
      </trkpt>
      <trkpt lat="45.570048" lon="7.834505">
        <ele>871.10986</ele>
        <time>2024-10-13T11:17:35.000Z</time>
      </trkpt>
      <trkpt lat="45.57002" lon="7.834507">
        <ele>870.75989</ele>
        <time>2024-10-13T11:17:37.000Z</time>
      </trkpt>
      <trkpt lat="45.569993" lon="7.8345">
        <ele>870.40985</ele>
        <time>2024-10-13T11:17:39.000Z</time>
      </trkpt>
      <trkpt lat="45.569972" lon="7.834492">
        <ele>870.02478</ele>
        <time>2024-10-13T11:17:41.000Z</time>
      </trkpt>
      <trkpt lat="45.56995" lon="7.834487">
        <ele>869.58484</ele>
        <time>2024-10-13T11:17:43.000Z</time>
      </trkpt>
      <trkpt lat="45.569932" lon="7.834482">
        <ele>869.03986</ele>
        <time>2024-10-13T11:17:46.000Z</time>
      </trkpt>
      <trkpt lat="45.569913" lon="7.834478">
        <ele>868.46985</ele>
        <time>2024-10-13T11:17:48.000Z</time>
      </trkpt>
      <trkpt lat="45.56989" lon="7.834472">
        <ele>867.87976</ele>
        <time>2024-10-13T11:17:50.000Z</time>
      </trkpt>
      <trkpt lat="45.569865" lon="7.834462">
        <ele>867.58972</ele>
        <time>2024-10-13T11:17:52.000Z</time>
      </trkpt>
      <trkpt lat="45.56984" lon="7.834458">
        <ele>867.24475</ele>
        <time>2024-10-13T11:17:54.000Z</time>
      </trkpt>
      <trkpt lat="45.569813" lon="7.834455">
        <ele>866.85468</ele>
        <time>2024-10-13T11:17:56.000Z</time>
      </trkpt>
      <trkpt lat="45.569785" lon="7.834448">
        <ele>866.43475</ele>
        <time>2024-10-13T11:17:58.000Z</time>
      </trkpt>
      <trkpt lat="45.569758" lon="7.834447">
        <ele>865.95978</ele>
        <time>2024-10-13T11:18:00.000Z</time>
      </trkpt>
      <trkpt lat="45.569725" lon="7.83444">
        <ele>865.43982</ele>
        <time>2024-10-13T11:18:02.000Z</time>
      </trkpt>
      <trkpt lat="45.569707" lon="7.83444">
        <ele>864.90491</ele>
        <time>2024-10-13T11:18:03.000Z</time>
      </trkpt>
      <trkpt lat="45.569683" lon="7.834433">
        <ele>864.38495</ele>
        <time>2024-10-13T11:18:04.000Z</time>
      </trkpt>
      <trkpt lat="45.569662" lon="7.83443">
        <ele>863.86505</ele>
        <time>2024-10-13T11:18:05.000Z</time>
      </trkpt>
      <trkpt lat="45.569633" lon="7.834428">
        <ele>863.31006</ele>
        <time>2024-10-13T11:18:07.000Z</time>
      </trkpt>
      <trkpt lat="45.5696" lon="7.834423">
        <ele>862.71008</ele>
        <time>2024-10-13T11:18:09.000Z</time>
      </trkpt>
      <trkpt lat="45.569567" lon="7.83442">
        <ele>861.92499</ele>
        <time>2024-10-13T11:18:11.000Z</time>
      </trkpt>
      <trkpt lat="45.569542" lon="7.834408">
        <ele>861.09503</ele>
        <time>2024-10-13T11:18:13.000Z</time>
      </trkpt>
      <trkpt lat="45.569517" lon="7.83439">
        <ele>860.31006</ele>
        <time>2024-10-13T11:18:15.000Z</time>
      </trkpt>
      <trkpt lat="45.569492" lon="7.834372">
        <ele>859.52509</ele>
        <time>2024-10-13T11:18:18.000Z</time>
      </trkpt>
      <trkpt lat="45.569467" lon="7.834372">
        <ele>858.76013</ele>
        <time>2024-10-13T11:18:20.000Z</time>
      </trkpt>
      <trkpt lat="45.569447" lon="7.834377">
        <ele>858.00018</ele>
        <time>2024-10-13T11:18:22.000Z</time>
      </trkpt>
      <trkpt lat="45.569423" lon="7.834372">
        <ele>857.3252</ele>
        <time>2024-10-13T11:18:24.000Z</time>
      </trkpt>
      <trkpt lat="45.569393" lon="7.834377">
        <ele>856.65515</ele>
        <time>2024-10-13T11:18:26.000Z</time>
      </trkpt>
      <trkpt lat="45.569375" lon="7.834383">
        <ele>856.01526</ele>
        <time>2024-10-13T11:18:27.000Z</time>
      </trkpt>
      <trkpt lat="45.569353" lon="7.834388">
        <ele>855.36023</ele>
        <time>2024-10-13T11:18:28.000Z</time>
      </trkpt>
      <trkpt lat="45.569332" lon="7.834388">
        <ele>854.72522</ele>
        <time>2024-10-13T11:18:29.000Z</time>
      </trkpt>
      <trkpt lat="45.56931" lon="7.834387">
        <ele>854.09521</ele>
        <time>2024-10-13T11:18:30.000Z</time>
      </trkpt>
      <trkpt lat="45.56929" lon="7.834387">
        <ele>853.47522</ele>
        <time>2024-10-13T11:18:31.000Z</time>
      </trkpt>
      <trkpt lat="45.56927" lon="7.834392">
        <ele>852.88019</ele>
        <time>2024-10-13T11:18:32.000Z</time>
      </trkpt>
      <trkpt lat="45.569243" lon="7.834397">
        <ele>852.28015</ele>
        <time>2024-10-13T11:18:34.000Z</time>
      </trkpt>
      <trkpt lat="45.569215" lon="7.834415">
        <ele>851.63019</ele>
        <time>2024-10-13T11:18:36.000Z</time>
      </trkpt>
      <trkpt lat="45.569183" lon="7.834425">
        <ele>850.90021</ele>
        <time>2024-10-13T11:18:38.000Z</time>
      </trkpt>
      <trkpt lat="45.569167" lon="7.834445">
        <ele>850.13513</ele>
        <time>2024-10-13T11:18:40.000Z</time>
      </trkpt>
      <trkpt lat="45.569142" lon="7.83446">
        <ele>849.36511</ele>
        <time>2024-10-13T11:18:43.000Z</time>
      </trkpt>
      <trkpt lat="45.569123" lon="7.834477">
        <ele>848.62518</ele>
        <time>2024-10-13T11:18:45.000Z</time>
      </trkpt>
      <trkpt lat="45.569103" lon="7.834492">
        <ele>847.94519</ele>
        <time>2024-10-13T11:18:47.000Z</time>
      </trkpt>
      <trkpt lat="45.569075" lon="7.83451">
        <ele>847.28516</ele>
        <time>2024-10-13T11:18:49.000Z</time>
      </trkpt>
      <trkpt lat="45.569057" lon="7.834523">
        <ele>846.60022</ele>
        <time>2024-10-13T11:18:50.000Z</time>
      </trkpt>
      <trkpt lat="45.569035" lon="7.834538">
        <ele>845.94519</ele>
        <time>2024-10-13T11:18:51.000Z</time>
      </trkpt>
      <trkpt lat="45.569018" lon="7.83455">
        <ele>845.3252</ele>
        <time>2024-10-13T11:18:52.000Z</time>
      </trkpt>
      <trkpt lat="45.568993" lon="7.834577">
        <ele>844.76025</ele>
        <time>2024-10-13T11:18:54.000Z</time>
      </trkpt>
      <trkpt lat="45.568978" lon="7.834607">
        <ele>844.21027</ele>
        <time>2024-10-13T11:18:56.000Z</time>
      </trkpt>
      <trkpt lat="45.568967" lon="7.834635">
        <ele>843.68524</ele>
        <time>2024-10-13T11:18:58.000Z</time>
      </trkpt>
      <trkpt lat="45.568945" lon="7.83467">
        <ele>843.20526</ele>
        <time>2024-10-13T11:19:00.000Z</time>
      </trkpt>
      <trkpt lat="45.568938" lon="7.834705">
        <ele>842.80029</ele>
        <time>2024-10-13T11:19:02.000Z</time>
      </trkpt>
      <trkpt lat="45.568925" lon="7.83473">
        <ele>842.43524</ele>
        <time>2024-10-13T11:19:04.000Z</time>
      </trkpt>
      <trkpt lat="45.568918" lon="7.834762">
        <ele>842.0752</ele>
        <time>2024-10-13T11:19:06.000Z</time>
      </trkpt>
      <trkpt lat="45.568903" lon="7.834792">
        <ele>841.7002</ele>
        <time>2024-10-13T11:19:08.000Z</time>
      </trkpt>
      <trkpt lat="45.568887" lon="7.834823">
        <ele>841.3252</ele>
        <time>2024-10-13T11:19:10.000Z</time>
      </trkpt>
      <trkpt lat="45.568878" lon="7.834855">
        <ele>840.97522</ele>
        <time>2024-10-13T11:19:12.000Z</time>
      </trkpt>
      <trkpt lat="45.568862" lon="7.834887">
        <ele>840.67517</ele>
        <time>2024-10-13T11:19:14.000Z</time>
      </trkpt>
      <trkpt lat="45.568843" lon="7.834913">
        <ele>840.43018</ele>
        <time>2024-10-13T11:19:16.000Z</time>
      </trkpt>
      <trkpt lat="45.568827" lon="7.834942">
        <ele>840.22522</ele>
        <time>2024-10-13T11:19:18.000Z</time>
      </trkpt>
      <trkpt lat="45.568808" lon="7.834958">
        <ele>840.05518</ele>
        <time>2024-10-13T11:19:20.000Z</time>
      </trkpt>
      <trkpt lat="45.568788" lon="7.834987">
        <ele>839.8952</ele>
        <time>2024-10-13T11:19:22.000Z</time>
      </trkpt>
      <trkpt lat="45.568775" lon="7.835013">
        <ele>839.75519</ele>
        <time>2024-10-13T11:19:24.000Z</time>
      </trkpt>
      <trkpt lat="45.56876" lon="7.835028">
        <ele>839.59509</ele>
        <time>2024-10-13T11:19:26.000Z</time>
      </trkpt>
      <trkpt lat="45.568747" lon="7.835062">
        <ele>839.43005</ele>
        <time>2024-10-13T11:19:29.000Z</time>
      </trkpt>
      <trkpt lat="45.568727" lon="7.835085">
        <ele>839.24005</ele>
        <time>2024-10-13T11:19:31.000Z</time>
      </trkpt>
      <trkpt lat="45.568712" lon="7.835105">
        <ele>839.02002</ele>
        <time>2024-10-13T11:19:34.000Z</time>
      </trkpt>
      <trkpt lat="45.568692" lon="7.835122">
        <ele>838.745</ele>
        <time>2024-10-13T11:19:37.000Z</time>
      </trkpt>
      <trkpt lat="45.568665" lon="7.835148">
        <ele>838.45001</ele>
        <time>2024-10-13T11:19:39.000Z</time>
      </trkpt>
      <trkpt lat="45.568642" lon="7.83518">
        <ele>838.14502</ele>
        <time>2024-10-13T11:19:41.000Z</time>
      </trkpt>
      <trkpt lat="45.568628" lon="7.835198">
        <ele>837.81506</ele>
        <time>2024-10-13T11:19:42.000Z</time>
      </trkpt>
      <trkpt lat="45.568617" lon="7.835225">
        <ele>837.43005</ele>
        <time>2024-10-13T11:19:46.000Z</time>
      </trkpt>
      <trkpt lat="45.568602" lon="7.835245">
        <ele>837.01007</ele>
        <time>2024-10-13T11:19:48.000Z</time>
      </trkpt>
      <trkpt lat="45.56858" lon="7.835268">
        <ele>836.58008</ele>
        <time>2024-10-13T11:19:50.000Z</time>
      </trkpt>
      <trkpt lat="45.568567" lon="7.835287">
        <ele>836.17004</ele>
        <time>2024-10-13T11:19:52.000Z</time>
      </trkpt>
      <trkpt lat="45.568547" lon="7.835302">
        <ele>835.77502</ele>
        <time>2024-10-13T11:19:54.000Z</time>
      </trkpt>
      <trkpt lat="45.568537" lon="7.835332">
        <ele>835.42004</ele>
        <time>2024-10-13T11:19:56.000Z</time>
      </trkpt>
      <trkpt lat="45.568518" lon="7.835365">
        <ele>835.06506</ele>
        <time>2024-10-13T11:19:58.000Z</time>
      </trkpt>
      <trkpt lat="45.568498" lon="7.83538">
        <ele>834.71503</ele>
        <time>2024-10-13T11:19:59.000Z</time>
      </trkpt>
      <trkpt lat="45.568477" lon="7.835407">
        <ele>834.37</ele>
        <time>2024-10-13T11:20:01.000Z</time>
      </trkpt>
      <trkpt lat="45.56845" lon="7.83542">
        <ele>834.07001</ele>
        <time>2024-10-13T11:20:03.000Z</time>
      </trkpt>
      <trkpt lat="45.56843" lon="7.835433">
        <ele>833.78009</ele>
        <time>2024-10-13T11:20:07.000Z</time>
      </trkpt>
      <trkpt lat="45.568412" lon="7.835452">
        <ele>833.43005</ele>
        <time>2024-10-13T11:20:13.000Z</time>
      </trkpt>
      <trkpt lat="45.568392" lon="7.835462">
        <ele>833.0451</ele>
        <time>2024-10-13T11:20:18.000Z</time>
      </trkpt>
      <trkpt lat="45.568383" lon="7.83549">
        <ele>832.68518</ele>
        <time>2024-10-13T11:20:21.000Z</time>
      </trkpt>
      <trkpt lat="45.568387" lon="7.835523">
        <ele>832.33514</ele>
        <time>2024-10-13T11:20:25.000Z</time>
      </trkpt>
      <trkpt lat="45.56838" lon="7.835555">
        <ele>831.97522</ele>
        <time>2024-10-13T11:20:28.000Z</time>
      </trkpt>
      <trkpt lat="45.568368" lon="7.835578">
        <ele>831.61523</ele>
        <time>2024-10-13T11:20:30.000Z</time>
      </trkpt>
      <trkpt lat="45.568368" lon="7.835605">
        <ele>831.25525</ele>
        <time>2024-10-13T11:20:31.000Z</time>
      </trkpt>
      <trkpt lat="45.568355" lon="7.835627">
        <ele>830.87531</ele>
        <time>2024-10-13T11:20:33.000Z</time>
      </trkpt>
      <trkpt lat="45.568335" lon="7.835642">
        <ele>830.46533</ele>
        <time>2024-10-13T11:20:35.000Z</time>
      </trkpt>
      <trkpt lat="45.568323" lon="7.835667">
        <ele>830.04034</ele>
        <time>2024-10-13T11:20:37.000Z</time>
      </trkpt>
      <trkpt lat="45.568313" lon="7.835697">
        <ele>829.62537</ele>
        <time>2024-10-13T11:20:39.000Z</time>
      </trkpt>
      <trkpt lat="45.568295" lon="7.835722">
        <ele>829.2204</ele>
        <time>2024-10-13T11:20:41.000Z</time>
      </trkpt>
      <trkpt lat="45.568283" lon="7.835743">
        <ele>828.83038</ele>
        <time>2024-10-13T11:20:43.000Z</time>
      </trkpt>
      <trkpt lat="45.568272" lon="7.835773">
        <ele>828.43536</ele>
        <time>2024-10-13T11:20:45.000Z</time>
      </trkpt>
      <trkpt lat="45.56826" lon="7.835797">
        <ele>828.00537</ele>
        <time>2024-10-13T11:20:47.000Z</time>
      </trkpt>
      <trkpt lat="45.568243" lon="7.835822">
        <ele>827.56036</ele>
        <time>2024-10-13T11:20:49.000Z</time>
      </trkpt>
      <trkpt lat="45.568228" lon="7.835848">
        <ele>827.1203</ele>
        <time>2024-10-13T11:20:51.000Z</time>
      </trkpt>
      <trkpt lat="45.568212" lon="7.835873">
        <ele>826.67529</ele>
        <time>2024-10-13T11:20:53.000Z</time>
      </trkpt>
      <trkpt lat="45.568195" lon="7.835905">
        <ele>826.17529</ele>
        <time>2024-10-13T11:20:55.000Z</time>
      </trkpt>
      <trkpt lat="45.56818" lon="7.835935">
        <ele>825.68524</ele>
        <time>2024-10-13T11:20:57.000Z</time>
      </trkpt>
      <trkpt lat="45.568162" lon="7.835978">
        <ele>825.24524</ele>
        <time>2024-10-13T11:20:59.000Z</time>
      </trkpt>
      <trkpt lat="45.568155" lon="7.836013">
        <ele>824.84021</ele>
        <time>2024-10-13T11:21:01.000Z</time>
      </trkpt>
      <trkpt lat="45.568152" lon="7.836045">
        <ele>824.38525</ele>
        <time>2024-10-13T11:21:03.000Z</time>
      </trkpt>
      <trkpt lat="45.568143" lon="7.836082">
        <ele>823.93524</ele>
        <time>2024-10-13T11:21:05.000Z</time>
      </trkpt>
      <trkpt lat="45.568137" lon="7.836127">
        <ele>823.50031</ele>
        <time>2024-10-13T11:21:07.000Z</time>
      </trkpt>
      <trkpt lat="45.568128" lon="7.836167">
        <ele>823.09033</ele>
        <time>2024-10-13T11:21:09.000Z</time>
      </trkpt>
      <trkpt lat="45.568115" lon="7.836205">
        <ele>822.70538</ele>
        <time>2024-10-13T11:21:11.000Z</time>
      </trkpt>
      <trkpt lat="45.568105" lon="7.836248">
        <ele>822.37042</ele>
        <time>2024-10-13T11:21:13.000Z</time>
      </trkpt>
      <trkpt lat="45.5681" lon="7.836282">
        <ele>822.07043</ele>
        <time>2024-10-13T11:21:15.000Z</time>
      </trkpt>
      <trkpt lat="45.568092" lon="7.836318">
        <ele>821.80548</ele>
        <time>2024-10-13T11:21:17.000Z</time>
      </trkpt>
      <trkpt lat="45.56808" lon="7.836345">
        <ele>821.54553</ele>
        <time>2024-10-13T11:21:19.000Z</time>
      </trkpt>
      <trkpt lat="45.568068" lon="7.836378">
        <ele>821.3205</ele>
        <time>2024-10-13T11:21:21.000Z</time>
      </trkpt>
      <trkpt lat="45.568057" lon="7.836403">
        <ele>821.08545</ele>
        <time>2024-10-13T11:21:23.000Z</time>
      </trkpt>
      <trkpt lat="45.568042" lon="7.836423">
        <ele>820.87048</ele>
        <time>2024-10-13T11:21:25.000Z</time>
      </trkpt>
      <trkpt lat="45.568027" lon="7.836445">
        <ele>820.65051</ele>
        <time>2024-10-13T11:21:27.000Z</time>
      </trkpt>
      <trkpt lat="45.568022" lon="7.836473">
        <ele>820.47052</ele>
        <time>2024-10-13T11:21:29.000Z</time>
      </trkpt>
      <trkpt lat="45.568012" lon="7.836508">
        <ele>820.30048</ele>
        <time>2024-10-13T11:21:31.000Z</time>
      </trkpt>
      <trkpt lat="45.568" lon="7.836537">
        <ele>820.13556</ele>
        <time>2024-10-13T11:21:33.000Z</time>
      </trkpt>
      <trkpt lat="45.567988" lon="7.836577">
        <ele>819.97052</ele>
        <time>2024-10-13T11:21:35.000Z</time>
      </trkpt>
      <trkpt lat="45.567983" lon="7.836615">
        <ele>819.81055</ele>
        <time>2024-10-13T11:21:37.000Z</time>
      </trkpt>
      <trkpt lat="45.567992" lon="7.83665">
        <ele>819.65558</ele>
        <time>2024-10-13T11:21:39.000Z</time>
      </trkpt>
      <trkpt lat="45.567992" lon="7.836683">
        <ele>819.50555</ele>
        <time>2024-10-13T11:21:41.000Z</time>
      </trkpt>
      <trkpt lat="45.567982" lon="7.836707">
        <ele>819.34064</ele>
        <time>2024-10-13T11:21:43.000Z</time>
      </trkpt>
      <trkpt lat="45.567982" lon="7.836733">
        <ele>819.13562</ele>
        <time>2024-10-13T11:21:46.000Z</time>
      </trkpt>
      <trkpt lat="45.567967" lon="7.836772">
        <ele>818.92566</ele>
        <time>2024-10-13T11:21:48.000Z</time>
      </trkpt>
      <trkpt lat="45.567952" lon="7.836798">
        <ele>818.68567</ele>
        <time>2024-10-13T11:21:50.000Z</time>
      </trkpt>
      <trkpt lat="45.567962" lon="7.836825">
        <ele>818.38062</ele>
        <time>2024-10-13T11:21:53.000Z</time>
      </trkpt>
      <trkpt lat="45.567953" lon="7.836852">
        <ele>818.04059</ele>
        <time>2024-10-13T11:21:55.000Z</time>
      </trkpt>
      <trkpt lat="45.567937" lon="7.83689">
        <ele>817.68054</ele>
        <time>2024-10-13T11:21:57.000Z</time>
      </trkpt>
      <trkpt lat="45.56793" lon="7.836915">
        <ele>817.30554</ele>
        <time>2024-10-13T11:21:58.000Z</time>
      </trkpt>
      <trkpt lat="45.567927" lon="7.83695">
        <ele>816.8656</ele>
        <time>2024-10-13T11:22:01.000Z</time>
      </trkpt>
      <trkpt lat="45.56791" lon="7.836968">
        <ele>816.34058</ele>
        <time>2024-10-13T11:22:03.000Z</time>
      </trkpt>
      <trkpt lat="45.567897" lon="7.836993">
        <ele>815.81055</ele>
        <time>2024-10-13T11:22:05.000Z</time>
      </trkpt>
      <trkpt lat="45.567895" lon="7.837023">
        <ele>815.2406</ele>
        <time>2024-10-13T11:22:08.000Z</time>
      </trkpt>
      <trkpt lat="45.56788" lon="7.837057">
        <ele>814.66559</ele>
        <time>2024-10-13T11:22:11.000Z</time>
      </trkpt>
      <trkpt lat="45.567873" lon="7.837085">
        <ele>814.06055</ele>
        <time>2024-10-13T11:22:14.000Z</time>
      </trkpt>
      <trkpt lat="45.567862" lon="7.837105">
        <ele>813.39557</ele>
        <time>2024-10-13T11:22:19.000Z</time>
      </trkpt>
      <trkpt lat="45.567842" lon="7.837132">
        <ele>812.75555</ele>
        <time>2024-10-13T11:22:22.000Z</time>
      </trkpt>
      <trkpt lat="45.567817" lon="7.83715">
        <ele>812.09558</ele>
        <time>2024-10-13T11:22:25.000Z</time>
      </trkpt>
      <trkpt lat="45.567797" lon="7.837157">
        <ele>811.44055</ele>
        <time>2024-10-13T11:22:27.000Z</time>
      </trkpt>
      <trkpt lat="45.567775" lon="7.837183">
        <ele>810.81555</ele>
        <time>2024-10-13T11:22:30.000Z</time>
      </trkpt>
      <trkpt lat="45.567763" lon="7.83721">
        <ele>810.22559</ele>
        <time>2024-10-13T11:22:33.000Z</time>
      </trkpt>
      <trkpt lat="45.567743" lon="7.837233">
        <ele>809.72058</ele>
        <time>2024-10-13T11:22:36.000Z</time>
      </trkpt>
      <trkpt lat="45.567708" lon="7.837268">
        <ele>809.3006</ele>
        <time>2024-10-13T11:22:46.000Z</time>
      </trkpt>
      <trkpt lat="45.56768" lon="7.837257">
        <ele>808.83557</ele>
        <time>2024-10-13T11:22:49.000Z</time>
      </trkpt>
      <trkpt lat="45.567657" lon="7.837248">
        <ele>808.41052</ele>
        <time>2024-10-13T11:22:51.000Z</time>
      </trkpt>
      <trkpt lat="45.567633" lon="7.837238">
        <ele>808.02057</ele>
        <time>2024-10-13T11:22:53.000Z</time>
      </trkpt>
      <trkpt lat="45.567608" lon="7.83723">
        <ele>807.6156</ele>
        <time>2024-10-13T11:22:56.000Z</time>
      </trkpt>
      <trkpt lat="45.567588" lon="7.83722">
        <ele>807.16559</ele>
        <time>2024-10-13T11:22:59.000Z</time>
      </trkpt>
      <trkpt lat="45.56757" lon="7.837225">
        <ele>806.68054</ele>
        <time>2024-10-13T11:23:02.000Z</time>
      </trkpt>
      <trkpt lat="45.567548" lon="7.837222">
        <ele>806.25061</ele>
        <time>2024-10-13T11:23:06.000Z</time>
      </trkpt>
      <trkpt lat="45.567527" lon="7.837228">
        <ele>805.83057</ele>
        <time>2024-10-13T11:23:10.000Z</time>
      </trkpt>
      <trkpt lat="45.567508" lon="7.837228">
        <ele>805.40558</ele>
        <time>2024-10-13T11:23:13.000Z</time>
      </trkpt>
      <trkpt lat="45.567488" lon="7.837225">
        <ele>804.98059</ele>
        <time>2024-10-13T11:23:16.000Z</time>
      </trkpt>
      <trkpt lat="45.567468" lon="7.837233">
        <ele>804.53552</ele>
        <time>2024-10-13T11:23:19.000Z</time>
      </trkpt>
      <trkpt lat="45.567452" lon="7.837243">
        <ele>804.09058</ele>
        <time>2024-10-13T11:23:22.000Z</time>
      </trkpt>
      <trkpt lat="45.567432" lon="7.83725">
        <ele>803.56061</ele>
        <time>2024-10-13T11:23:26.000Z</time>
      </trkpt>
      <trkpt lat="45.567412" lon="7.837245">
        <ele>802.89563</ele>
        <time>2024-10-13T11:23:32.000Z</time>
      </trkpt>
      <trkpt lat="45.567393" lon="7.837233">
        <ele>802.16058</ele>
        <time>2024-10-13T11:23:36.000Z</time>
      </trkpt>
      <trkpt lat="45.56735" lon="7.837217">
        <ele>801.24554</ele>
        <time>2024-10-13T11:23:48.000Z</time>
      </trkpt>
      <trkpt lat="45.567332" lon="7.837205">
        <ele>800.24554</ele>
        <time>2024-10-13T11:23:51.000Z</time>
      </trkpt>
      <trkpt lat="45.567313" lon="7.837202">
        <ele>799.16553</ele>
        <time>2024-10-13T11:23:55.000Z</time>
      </trkpt>
      <trkpt lat="45.567307" lon="7.837228">
        <ele>798.2005</ele>
        <time>2024-10-13T11:24:16.000Z</time>
      </trkpt>
      <trkpt lat="45.567288" lon="7.837232">
        <ele>797.21545</ele>
        <time>2024-10-13T11:24:19.000Z</time>
      </trkpt>
      <trkpt lat="45.567277" lon="7.83721">
        <ele>796.3855</ele>
        <time>2024-10-13T11:24:23.000Z</time>
      </trkpt>
      <trkpt lat="45.567265" lon="7.837187">
        <ele>795.60052</ele>
        <time>2024-10-13T11:24:28.000Z</time>
      </trkpt>
      <trkpt lat="45.567248" lon="7.837172">
        <ele>794.82556</ele>
        <time>2024-10-13T11:24:33.000Z</time>
      </trkpt>
      <trkpt lat="45.567235" lon="7.837153">
        <ele>794.06055</ele>
        <time>2024-10-13T11:24:41.000Z</time>
      </trkpt>
      <trkpt lat="45.567217" lon="7.837173">
        <ele>793.29553</ele>
        <time>2024-10-13T11:24:45.000Z</time>
      </trkpt>
      <trkpt lat="45.567193" lon="7.837185">
        <ele>792.54553</ele>
        <time>2024-10-13T11:24:49.000Z</time>
      </trkpt>
      <trkpt lat="45.567168" lon="7.837187">
        <ele>791.77551</ele>
        <time>2024-10-13T11:24:52.000Z</time>
      </trkpt>
      <trkpt lat="45.567147" lon="7.837205">
        <ele>791.09558</ele>
        <time>2024-10-13T11:24:55.000Z</time>
      </trkpt>
      <trkpt lat="45.567127" lon="7.83721">
        <ele>790.43054</ele>
        <time>2024-10-13T11:24:57.000Z</time>
      </trkpt>
      <trkpt lat="45.567128" lon="7.837238">
        <ele>789.73553</ele>
        <time>2024-10-13T11:25:02.000Z</time>
      </trkpt>
      <trkpt lat="45.567108" lon="7.83726">
        <ele>789.05554</ele>
        <time>2024-10-13T11:25:07.000Z</time>
      </trkpt>
      <trkpt lat="45.56709" lon="7.837238">
        <ele>788.41052</ele>
        <time>2024-10-13T11:25:11.000Z</time>
      </trkpt>
      <trkpt lat="45.56707" lon="7.837228">
        <ele>787.85052</ele>
        <time>2024-10-13T11:25:15.000Z</time>
      </trkpt>
      <trkpt lat="45.567052" lon="7.837228">
        <ele>787.38556</ele>
        <time>2024-10-13T11:25:17.000Z</time>
      </trkpt>
      <trkpt lat="45.567032" lon="7.837235">
        <ele>787.03058</ele>
        <time>2024-10-13T11:25:19.000Z</time>
      </trkpt>
      <trkpt lat="45.56701" lon="7.83724">
        <ele>786.84058</ele>
        <time>2024-10-13T11:25:21.000Z</time>
      </trkpt>
      <trkpt lat="45.566985" lon="7.837242">
        <ele>786.72058</ele>
        <time>2024-10-13T11:25:23.000Z</time>
      </trkpt>
      <trkpt lat="45.566963" lon="7.837245">
        <ele>786.63062</ele>
        <time>2024-10-13T11:25:25.000Z</time>
      </trkpt>
      <trkpt lat="45.56694" lon="7.837243">
        <ele>786.31067</ele>
        <time>2024-10-13T11:25:28.000Z</time>
      </trkpt>
      <trkpt lat="45.566917" lon="7.837247">
        <ele>785.92065</ele>
        <time>2024-10-13T11:25:31.000Z</time>
      </trkpt>
      <trkpt lat="45.566898" lon="7.837238">
        <ele>785.41565</ele>
        <time>2024-10-13T11:25:33.000Z</time>
      </trkpt>
      <trkpt lat="45.566873" lon="7.837227">
        <ele>784.83563</ele>
        <time>2024-10-13T11:25:35.000Z</time>
      </trkpt>
      <trkpt lat="45.566853" lon="7.837232">
        <ele>784.28564</ele>
        <time>2024-10-13T11:25:37.000Z</time>
      </trkpt>
      <trkpt lat="45.566823" lon="7.837222">
        <ele>783.71564</ele>
        <time>2024-10-13T11:25:40.000Z</time>
      </trkpt>
      <trkpt lat="45.5668" lon="7.837207">
        <ele>783.17059</ele>
        <time>2024-10-13T11:25:43.000Z</time>
      </trkpt>
      <trkpt lat="45.566777" lon="7.837197">
        <ele>782.6156</ele>
        <time>2024-10-13T11:25:46.000Z</time>
      </trkpt>
      <trkpt lat="45.56676" lon="7.837178">
        <ele>782.08563</ele>
        <time>2024-10-13T11:25:49.000Z</time>
      </trkpt>
      <trkpt lat="45.56674" lon="7.837172">
        <ele>781.52063</ele>
        <time>2024-10-13T11:25:51.000Z</time>
      </trkpt>
      <trkpt lat="45.56672" lon="7.837163">
        <ele>780.98065</ele>
        <time>2024-10-13T11:25:53.000Z</time>
      </trkpt>
      <trkpt lat="45.566703" lon="7.837153">
        <ele>780.53564</ele>
        <time>2024-10-13T11:25:55.000Z</time>
      </trkpt>
      <trkpt lat="45.566677" lon="7.837155">
        <ele>780.15063</ele>
        <time>2024-10-13T11:25:58.000Z</time>
      </trkpt>
      <trkpt lat="45.566655" lon="7.837138">
        <ele>779.73065</ele>
        <time>2024-10-13T11:26:00.000Z</time>
      </trkpt>
      <trkpt lat="45.566633" lon="7.83713">
        <ele>779.35071</ele>
        <time>2024-10-13T11:26:02.000Z</time>
      </trkpt>
      <trkpt lat="45.5666" lon="7.837128">
        <ele>778.9657</ele>
        <time>2024-10-13T11:26:04.000Z</time>
      </trkpt>
      <trkpt lat="45.566578" lon="7.837125">
        <ele>778.56567</ele>
        <time>2024-10-13T11:26:06.000Z</time>
      </trkpt>
      <trkpt lat="45.566555" lon="7.837133">
        <ele>778.17072</ele>
        <time>2024-10-13T11:26:08.000Z</time>
      </trkpt>
      <trkpt lat="45.566532" lon="7.83712">
        <ele>777.75067</ele>
        <time>2024-10-13T11:26:10.000Z</time>
      </trkpt>
      <trkpt lat="45.566507" lon="7.837103">
        <ele>777.31567</ele>
        <time>2024-10-13T11:26:12.000Z</time>
      </trkpt>
      <trkpt lat="45.566485" lon="7.837097">
        <ele>776.91565</ele>
        <time>2024-10-13T11:26:14.000Z</time>
      </trkpt>
      <trkpt lat="45.566465" lon="7.837102">
        <ele>776.56067</ele>
        <time>2024-10-13T11:26:17.000Z</time>
      </trkpt>
      <trkpt lat="45.566445" lon="7.837078">
        <ele>776.22571</ele>
        <time>2024-10-13T11:26:20.000Z</time>
      </trkpt>
      <trkpt lat="45.566427" lon="7.837058">
        <ele>775.9057</ele>
        <time>2024-10-13T11:26:22.000Z</time>
      </trkpt>
      <trkpt lat="45.566408" lon="7.837047">
        <ele>775.54572</ele>
        <time>2024-10-13T11:26:24.000Z</time>
      </trkpt>
      <trkpt lat="45.566387" lon="7.837042">
        <ele>775.23572</ele>
        <time>2024-10-13T11:26:26.000Z</time>
      </trkpt>
      <trkpt lat="45.566362" lon="7.837032">
        <ele>774.95569</ele>
        <time>2024-10-13T11:26:28.000Z</time>
      </trkpt>
      <trkpt lat="45.56634" lon="7.837028">
        <ele>774.7157</ele>
        <time>2024-10-13T11:26:30.000Z</time>
      </trkpt>
      <trkpt lat="45.566318" lon="7.837023">
        <ele>774.43567</ele>
        <time>2024-10-13T11:26:32.000Z</time>
      </trkpt>
      <trkpt lat="45.566298" lon="7.837027">
        <ele>774.12073</ele>
        <time>2024-10-13T11:26:34.000Z</time>
      </trkpt>
      <trkpt lat="45.566278" lon="7.837033">
        <ele>773.76575</ele>
        <time>2024-10-13T11:26:36.000Z</time>
      </trkpt>
      <trkpt lat="45.566255" lon="7.837028">
        <ele>773.33575</ele>
        <time>2024-10-13T11:26:38.000Z</time>
      </trkpt>
      <trkpt lat="45.56623" lon="7.837023">
        <ele>772.82574</ele>
        <time>2024-10-13T11:26:40.000Z</time>
      </trkpt>
      <trkpt lat="45.566212" lon="7.837015">
        <ele>772.29071</ele>
        <time>2024-10-13T11:26:44.000Z</time>
      </trkpt>
      <trkpt lat="45.566187" lon="7.837008">
        <ele>771.80573</ele>
        <time>2024-10-13T11:26:49.000Z</time>
      </trkpt>
      <trkpt lat="45.566162" lon="7.837003">
        <ele>771.41071</ele>
        <time>2024-10-13T11:26:51.000Z</time>
      </trkpt>
      <trkpt lat="45.56614" lon="7.836997">
        <ele>771.04065</ele>
        <time>2024-10-13T11:26:53.000Z</time>
      </trkpt>
      <trkpt lat="45.566113" lon="7.836995">
        <ele>770.69067</ele>
        <time>2024-10-13T11:26:55.000Z</time>
      </trkpt>
      <trkpt lat="45.566092" lon="7.836985">
        <ele>770.4007</ele>
        <time>2024-10-13T11:26:57.000Z</time>
      </trkpt>
      <trkpt lat="45.566072" lon="7.836978">
        <ele>770.16071</ele>
        <time>2024-10-13T11:26:59.000Z</time>
      </trkpt>
      <trkpt lat="45.566048" lon="7.836973">
        <ele>769.95068</ele>
        <time>2024-10-13T11:27:01.000Z</time>
      </trkpt>
      <trkpt lat="45.566025" lon="7.83697">
        <ele>769.76062</ele>
        <time>2024-10-13T11:27:03.000Z</time>
      </trkpt>
      <trkpt lat="45.566005" lon="7.836957">
        <ele>769.60559</ele>
        <time>2024-10-13T11:27:05.000Z</time>
      </trkpt>
      <trkpt lat="45.565988" lon="7.836943">
        <ele>769.45056</ele>
        <time>2024-10-13T11:27:07.000Z</time>
      </trkpt>
      <trkpt lat="45.56597" lon="7.836927">
        <ele>769.31061</ele>
        <time>2024-10-13T11:27:09.000Z</time>
      </trkpt>
      <trkpt lat="45.565945" lon="7.836903">
        <ele>769.13562</ele>
        <time>2024-10-13T11:27:11.000Z</time>
      </trkpt>
      <trkpt lat="45.565927" lon="7.836892">
        <ele>768.91058</ele>
        <time>2024-10-13T11:27:13.000Z</time>
      </trkpt>
      <trkpt lat="45.565905" lon="7.836895">
        <ele>768.64557</ele>
        <time>2024-10-13T11:27:15.000Z</time>
      </trkpt>
      <trkpt lat="45.565883" lon="7.836883">
        <ele>768.45557</ele>
        <time>2024-10-13T11:27:17.000Z</time>
      </trkpt>
      <trkpt lat="45.565858" lon="7.83687">
        <ele>768.30054</ele>
        <time>2024-10-13T11:27:20.000Z</time>
      </trkpt>
      <trkpt lat="45.565838" lon="7.836853">
        <ele>768.15552</ele>
        <time>2024-10-13T11:27:24.000Z</time>
      </trkpt>
      <trkpt lat="45.565822" lon="7.836838">
        <ele>768.03552</ele>
        <time>2024-10-13T11:27:26.000Z</time>
      </trkpt>
      <trkpt lat="45.565803" lon="7.836838">
        <ele>767.9455</ele>
        <time>2024-10-13T11:27:28.000Z</time>
      </trkpt>
      <trkpt lat="45.56578" lon="7.836833">
        <ele>767.90552</ele>
        <time>2024-10-13T11:27:30.000Z</time>
      </trkpt>
      <trkpt lat="45.565753" lon="7.836832">
        <ele>767.85046</ele>
        <time>2024-10-13T11:27:33.000Z</time>
      </trkpt>
      <trkpt lat="45.56573" lon="7.836827">
        <ele>767.74548</ele>
        <time>2024-10-13T11:27:35.000Z</time>
      </trkpt>
      <trkpt lat="45.56571" lon="7.836837">
        <ele>767.63049</ele>
        <time>2024-10-13T11:27:37.000Z</time>
      </trkpt>
      <trkpt lat="45.56569" lon="7.836838">
        <ele>767.49548</ele>
        <time>2024-10-13T11:27:39.000Z</time>
      </trkpt>
      <trkpt lat="45.565668" lon="7.836858">
        <ele>767.36047</ele>
        <time>2024-10-13T11:27:42.000Z</time>
      </trkpt>
      <trkpt lat="45.56565" lon="7.836867">
        <ele>767.22052</ele>
        <time>2024-10-13T11:27:44.000Z</time>
      </trkpt>
      <trkpt lat="45.565628" lon="7.836865">
        <ele>767.10046</ele>
        <time>2024-10-13T11:27:46.000Z</time>
      </trkpt>
      <trkpt lat="45.565593" lon="7.83687">
        <ele>767.0155</ele>
        <time>2024-10-13T11:27:48.000Z</time>
      </trkpt>
      <trkpt lat="45.565575" lon="7.836875">
        <ele>766.91553</ele>
        <time>2024-10-13T11:27:49.000Z</time>
      </trkpt>
      <trkpt lat="45.565557" lon="7.836883">
        <ele>766.83557</ele>
        <time>2024-10-13T11:27:50.000Z</time>
      </trkpt>
      <trkpt lat="45.565528" lon="7.836902">
        <ele>766.77551</ele>
        <time>2024-10-13T11:27:52.000Z</time>
      </trkpt>
      <trkpt lat="45.565508" lon="7.83691">
        <ele>766.7406</ele>
        <time>2024-10-13T11:27:54.000Z</time>
      </trkpt>
      <trkpt lat="45.565487" lon="7.836918">
        <ele>766.74554</ele>
        <time>2024-10-13T11:27:56.000Z</time>
      </trkpt>
      <trkpt lat="45.565468" lon="7.836925">
        <ele>766.78558</ele>
        <time>2024-10-13T11:27:58.000Z</time>
      </trkpt>
      <trkpt lat="45.56544" lon="7.836937">
        <ele>766.79059</ele>
        <time>2024-10-13T11:28:01.000Z</time>
      </trkpt>
      <trkpt lat="45.565417" lon="7.836947">
        <ele>766.80554</ele>
        <time>2024-10-13T11:28:03.000Z</time>
      </trkpt>
      <trkpt lat="45.565392" lon="7.836965">
        <ele>766.83057</ele>
        <time>2024-10-13T11:28:05.000Z</time>
      </trkpt>
      <trkpt lat="45.565368" lon="7.83697">
        <ele>766.90558</ele>
        <time>2024-10-13T11:28:07.000Z</time>
      </trkpt>
      <trkpt lat="45.565348" lon="7.836983">
        <ele>767.01056</ele>
        <time>2024-10-13T11:28:09.000Z</time>
      </trkpt>
      <trkpt lat="45.565323" lon="7.837">
        <ele>767.10052</ele>
        <time>2024-10-13T11:28:12.000Z</time>
      </trkpt>
      <trkpt lat="45.565307" lon="7.83701">
        <ele>767.17053</ele>
        <time>2024-10-13T11:28:15.000Z</time>
      </trkpt>
      <trkpt lat="45.565288" lon="7.837023">
        <ele>767.21057</ele>
        <time>2024-10-13T11:28:18.000Z</time>
      </trkpt>
      <trkpt lat="45.56527" lon="7.837035">
        <ele>767.23553</ele>
        <time>2024-10-13T11:28:20.000Z</time>
      </trkpt>
      <trkpt lat="45.565242" lon="7.837055">
        <ele>767.28052</ele>
        <time>2024-10-13T11:28:22.000Z</time>
      </trkpt>
      <trkpt lat="45.565222" lon="7.837068">
        <ele>767.33051</ele>
        <time>2024-10-13T11:28:24.000Z</time>
      </trkpt>
      <trkpt lat="45.5652" lon="7.837062">
        <ele>767.33051</ele>
        <time>2024-10-13T11:28:27.000Z</time>
      </trkpt>
      <trkpt lat="45.56518" lon="7.83706">
        <ele>767.32056</ele>
        <time>2024-10-13T11:28:30.000Z</time>
      </trkpt>
      <trkpt lat="45.565158" lon="7.837068">
        <ele>767.26056</ele>
        <time>2024-10-13T11:28:33.000Z</time>
      </trkpt>
      <trkpt lat="45.56514" lon="7.837065">
        <ele>767.19055</ele>
        <time>2024-10-13T11:28:34.000Z</time>
      </trkpt>
      <trkpt lat="45.565115" lon="7.837062">
        <ele>767.12054</ele>
        <time>2024-10-13T11:28:36.000Z</time>
      </trkpt>
      <trkpt lat="45.565087" lon="7.83707">
        <ele>767.00555</ele>
        <time>2024-10-13T11:28:39.000Z</time>
      </trkpt>
      <trkpt lat="45.565065" lon="7.83709">
        <ele>766.91553</ele>
        <time>2024-10-13T11:28:41.000Z</time>
      </trkpt>
      <trkpt lat="45.56504" lon="7.837103">
        <ele>766.88556</ele>
        <time>2024-10-13T11:28:43.000Z</time>
      </trkpt>
      <trkpt lat="45.56501" lon="7.837097">
        <ele>766.86554</ele>
        <time>2024-10-13T11:28:45.000Z</time>
      </trkpt>
      <trkpt lat="45.564987" lon="7.837083">
        <ele>766.8905</ele>
        <time>2024-10-13T11:28:47.000Z</time>
      </trkpt>
      <trkpt lat="45.564963" lon="7.837077">
        <ele>766.89557</ele>
        <time>2024-10-13T11:28:49.000Z</time>
      </trkpt>
      <trkpt lat="45.564948" lon="7.8371">
        <ele>766.84558</ele>
        <time>2024-10-13T11:28:52.000Z</time>
      </trkpt>
      <trkpt lat="45.564928" lon="7.837127">
        <ele>766.72058</ele>
        <time>2024-10-13T11:28:55.000Z</time>
      </trkpt>
      <trkpt lat="45.564907" lon="7.83714">
        <ele>766.56555</ele>
        <time>2024-10-13T11:28:57.000Z</time>
      </trkpt>
      <trkpt lat="45.564888" lon="7.837152">
        <ele>766.40057</ele>
        <time>2024-10-13T11:29:00.000Z</time>
      </trkpt>
      <trkpt lat="45.56487" lon="7.837162">
        <ele>766.23059</ele>
        <time>2024-10-13T11:29:02.000Z</time>
      </trkpt>
      <trkpt lat="45.564853" lon="7.837183">
        <ele>766.08057</ele>
        <time>2024-10-13T11:29:05.000Z</time>
      </trkpt>
      <trkpt lat="45.56484" lon="7.837202">
        <ele>765.93054</ele>
        <time>2024-10-13T11:29:07.000Z</time>
      </trkpt>
      <trkpt lat="45.564817" lon="7.837217">
        <ele>765.77063</ele>
        <time>2024-10-13T11:29:09.000Z</time>
      </trkpt>
      <trkpt lat="45.564798" lon="7.83724">
        <ele>765.60059</ele>
        <time>2024-10-13T11:29:13.000Z</time>
      </trkpt>
      <trkpt lat="45.564785" lon="7.837258">
        <ele>765.51062</ele>
        <time>2024-10-13T11:29:15.000Z</time>
      </trkpt>
      <trkpt lat="45.564768" lon="7.837272">
        <ele>765.41559</ele>
        <time>2024-10-13T11:29:18.000Z</time>
      </trkpt>
      <trkpt lat="45.564742" lon="7.837288">
        <ele>765.35059</ele>
        <time>2024-10-13T11:29:21.000Z</time>
      </trkpt>
      <trkpt lat="45.564725" lon="7.837298">
        <ele>765.28058</ele>
        <time>2024-10-13T11:29:23.000Z</time>
      </trkpt>
      <trkpt lat="45.564702" lon="7.837318">
        <ele>765.2356</ele>
        <time>2024-10-13T11:29:26.000Z</time>
      </trkpt>
      <trkpt lat="45.56468" lon="7.837345">
        <ele>765.2406</ele>
        <time>2024-10-13T11:29:28.000Z</time>
      </trkpt>
      <trkpt lat="45.564658" lon="7.837345">
        <ele>765.1756</ele>
        <time>2024-10-13T11:29:32.000Z</time>
      </trkpt>
      <trkpt lat="45.564638" lon="7.837353">
        <ele>765.01556</ele>
        <time>2024-10-13T11:29:35.000Z</time>
      </trkpt>
      <trkpt lat="45.56462" lon="7.83735">
        <ele>764.8006</ele>
        <time>2024-10-13T11:29:38.000Z</time>
      </trkpt>
      <trkpt lat="45.5646" lon="7.837367">
        <ele>764.50562</ele>
        <time>2024-10-13T11:29:40.000Z</time>
      </trkpt>
      <trkpt lat="45.564617" lon="7.837377">
        <ele>764.17059</ele>
        <time>2024-10-13T11:29:44.000Z</time>
      </trkpt>
      <trkpt lat="45.564613" lon="7.837403">
        <ele>763.88062</ele>
        <time>2024-10-13T11:29:47.000Z</time>
      </trkpt>
      <trkpt lat="45.56463" lon="7.837388">
        <ele>763.56067</ele>
        <time>2024-10-13T11:29:55.000Z</time>
      </trkpt>
      <trkpt lat="45.564642" lon="7.837368">
        <ele>763.24567</ele>
        <time>2024-10-13T11:29:57.000Z</time>
      </trkpt>
      <trkpt lat="45.564598" lon="7.83739">
        <ele>762.96564</ele>
        <time>2024-10-13T11:30:05.000Z</time>
      </trkpt>
      <trkpt lat="45.56458" lon="7.837395">
        <ele>762.70062</ele>
        <time>2024-10-13T11:30:08.000Z</time>
      </trkpt>
      <trkpt lat="45.564562" lon="7.837415">
        <ele>762.48566</ele>
        <time>2024-10-13T11:30:12.000Z</time>
      </trkpt>
      <trkpt lat="45.564545" lon="7.837428">
        <ele>762.29065</ele>
        <time>2024-10-13T11:30:17.000Z</time>
      </trkpt>
      <trkpt lat="45.564522" lon="7.83743">
        <ele>762.04565</ele>
        <time>2024-10-13T11:30:20.000Z</time>
      </trkpt>
      <trkpt lat="45.564498" lon="7.837438">
        <ele>761.7157</ele>
        <time>2024-10-13T11:30:23.000Z</time>
      </trkpt>
      <trkpt lat="45.56448" lon="7.837458">
        <ele>761.33563</ele>
        <time>2024-10-13T11:30:25.000Z</time>
      </trkpt>
      <trkpt lat="45.564465" lon="7.837475">
        <ele>760.92065</ele>
        <time>2024-10-13T11:30:27.000Z</time>
      </trkpt>
      <trkpt lat="45.564448" lon="7.837492">
        <ele>760.44061</ele>
        <time>2024-10-13T11:30:30.000Z</time>
      </trkpt>
      <trkpt lat="45.564433" lon="7.837508">
        <ele>759.94061</ele>
        <time>2024-10-13T11:30:32.000Z</time>
      </trkpt>
      <trkpt lat="45.564415" lon="7.837507">
        <ele>759.37061</ele>
        <time>2024-10-13T11:30:35.000Z</time>
      </trkpt>
      <trkpt lat="45.564392" lon="7.837507">
        <ele>758.76563</ele>
        <time>2024-10-13T11:30:38.000Z</time>
      </trkpt>
      <trkpt lat="45.564372" lon="7.837502">
        <ele>758.21063</ele>
        <time>2024-10-13T11:30:42.000Z</time>
      </trkpt>
      <trkpt lat="45.564352" lon="7.83751">
        <ele>757.6806</ele>
        <time>2024-10-13T11:30:45.000Z</time>
      </trkpt>
      <trkpt lat="45.56434" lon="7.83753">
        <ele>757.1756</ele>
        <time>2024-10-13T11:30:48.000Z</time>
      </trkpt>
      <trkpt lat="45.564315" lon="7.83755">
        <ele>756.68054</ele>
        <time>2024-10-13T11:30:51.000Z</time>
      </trkpt>
      <trkpt lat="45.564297" lon="7.837563">
        <ele>756.23059</ele>
        <time>2024-10-13T11:30:54.000Z</time>
      </trkpt>
      <trkpt lat="45.564278" lon="7.83758">
        <ele>755.77551</ele>
        <time>2024-10-13T11:31:00.000Z</time>
      </trkpt>
      <trkpt lat="45.56425" lon="7.837587">
        <ele>755.34552</ele>
        <time>2024-10-13T11:31:02.000Z</time>
      </trkpt>
      <trkpt lat="45.564228" lon="7.837598">
        <ele>754.9505</ele>
        <time>2024-10-13T11:31:04.000Z</time>
      </trkpt>
      <trkpt lat="45.564207" lon="7.8376">
        <ele>754.52051</ele>
        <time>2024-10-13T11:31:06.000Z</time>
      </trkpt>
      <trkpt lat="45.564187" lon="7.837618">
        <ele>754.07556</ele>
        <time>2024-10-13T11:31:08.000Z</time>
      </trkpt>
      <trkpt lat="45.564163" lon="7.837635">
        <ele>753.58557</ele>
        <time>2024-10-13T11:31:10.000Z</time>
      </trkpt>
      <trkpt lat="45.564138" lon="7.837658">
        <ele>753.06055</ele>
        <time>2024-10-13T11:31:12.000Z</time>
      </trkpt>
      <trkpt lat="45.564123" lon="7.837678">
        <ele>752.53552</ele>
        <time>2024-10-13T11:31:15.000Z</time>
      </trkpt>
      <trkpt lat="45.564103" lon="7.837697">
        <ele>752.04053</ele>
        <time>2024-10-13T11:31:19.000Z</time>
      </trkpt>
      <trkpt lat="45.564082" lon="7.837715">
        <ele>751.55554</ele>
        <time>2024-10-13T11:31:22.000Z</time>
      </trkpt>
      <trkpt lat="45.56406" lon="7.837723">
        <ele>751.09552</ele>
        <time>2024-10-13T11:31:25.000Z</time>
      </trkpt>
      <trkpt lat="45.56404" lon="7.83772">
        <ele>750.69055</ele>
        <time>2024-10-13T11:31:29.000Z</time>
      </trkpt>
      <trkpt lat="45.564022" lon="7.837732">
        <ele>750.28552</ele>
        <time>2024-10-13T11:31:31.000Z</time>
      </trkpt>
      <trkpt lat="45.564005" lon="7.837745">
        <ele>749.92053</ele>
        <time>2024-10-13T11:31:33.000Z</time>
      </trkpt>
      <trkpt lat="45.56398" lon="7.837758">
        <ele>749.55054</ele>
        <time>2024-10-13T11:31:35.000Z</time>
      </trkpt>
      <trkpt lat="45.563957" lon="7.83777">
        <ele>749.20056</ele>
        <time>2024-10-13T11:31:37.000Z</time>
      </trkpt>
      <trkpt lat="45.563935" lon="7.837785">
        <ele>748.8656</ele>
        <time>2024-10-13T11:31:39.000Z</time>
      </trkpt>
      <trkpt lat="45.563912" lon="7.837797">
        <ele>748.52557</ele>
        <time>2024-10-13T11:31:41.000Z</time>
      </trkpt>
      <trkpt lat="45.563885" lon="7.837798">
        <ele>748.21558</ele>
        <time>2024-10-13T11:31:43.000Z</time>
      </trkpt>
      <trkpt lat="45.563862" lon="7.8378">
        <ele>747.89557</ele>
        <time>2024-10-13T11:31:45.000Z</time>
      </trkpt>
      <trkpt lat="45.563843" lon="7.837803">
        <ele>747.53058</ele>
        <time>2024-10-13T11:31:48.000Z</time>
      </trkpt>
      <trkpt lat="45.563822" lon="7.837827">
        <ele>747.09058</ele>
        <time>2024-10-13T11:31:51.000Z</time>
      </trkpt>
      <trkpt lat="45.563805" lon="7.837842">
        <ele>746.57556</ele>
        <time>2024-10-13T11:31:53.000Z</time>
      </trkpt>
      <trkpt lat="45.563788" lon="7.837853">
        <ele>746.02557</ele>
        <time>2024-10-13T11:31:55.000Z</time>
      </trkpt>
      <trkpt lat="45.563767" lon="7.837863">
        <ele>745.42053</ele>
        <time>2024-10-13T11:31:58.000Z</time>
      </trkpt>
      <trkpt lat="45.563748" lon="7.837862">
        <ele>744.77551</ele>
        <time>2024-10-13T11:32:00.000Z</time>
      </trkpt>
      <trkpt lat="45.563728" lon="7.837863">
        <ele>744.06049</ele>
        <time>2024-10-13T11:32:03.000Z</time>
      </trkpt>
      <trkpt lat="45.56371" lon="7.83787">
        <ele>743.3255</ele>
        <time>2024-10-13T11:32:07.000Z</time>
      </trkpt>
      <trkpt lat="45.56369" lon="7.837875">
        <ele>742.56049</ele>
        <time>2024-10-13T11:32:09.000Z</time>
      </trkpt>
      <trkpt lat="45.56367" lon="7.837895">
        <ele>741.73053</ele>
        <time>2024-10-13T11:32:11.000Z</time>
      </trkpt>
      <trkpt lat="45.56365" lon="7.837888">
        <ele>740.83551</ele>
        <time>2024-10-13T11:32:14.000Z</time>
      </trkpt>
      <trkpt lat="45.56363" lon="7.837903">
        <ele>739.8855</ele>
        <time>2024-10-13T11:32:19.000Z</time>
      </trkpt>
      <trkpt lat="45.56361" lon="7.837905">
        <ele>738.86047</ele>
        <time>2024-10-13T11:32:25.000Z</time>
      </trkpt>
      <trkpt lat="45.563588" lon="7.83789">
        <ele>737.78552</ele>
        <time>2024-10-13T11:32:29.000Z</time>
      </trkpt>
      <trkpt lat="45.563583" lon="7.837863">
        <ele>736.71552</ele>
        <time>2024-10-13T11:32:33.000Z</time>
      </trkpt>
      <trkpt lat="45.563567" lon="7.83785">
        <ele>735.6405</ele>
        <time>2024-10-13T11:32:35.000Z</time>
      </trkpt>
      <trkpt lat="45.563553" lon="7.837818">
        <ele>734.6355</ele>
        <time>2024-10-13T11:32:39.000Z</time>
      </trkpt>
      <trkpt lat="45.563533" lon="7.837793">
        <ele>733.71051</ele>
        <time>2024-10-13T11:32:43.000Z</time>
      </trkpt>
      <trkpt lat="45.563527" lon="7.837755">
        <ele>732.79053</ele>
        <time>2024-10-13T11:32:47.000Z</time>
      </trkpt>
      <trkpt lat="45.563503" lon="7.837752">
        <ele>731.86053</ele>
        <time>2024-10-13T11:32:49.000Z</time>
      </trkpt>
      <trkpt lat="45.56348" lon="7.83773">
        <ele>730.94556</ele>
        <time>2024-10-13T11:32:51.000Z</time>
      </trkpt>
      <trkpt lat="45.563455" lon="7.837718">
        <ele>730.14557</ele>
        <time>2024-10-13T11:32:52.000Z</time>
      </trkpt>
      <trkpt lat="45.563437" lon="7.837707">
        <ele>729.38055</ele>
        <time>2024-10-13T11:32:53.000Z</time>
      </trkpt>
      <trkpt lat="45.56342" lon="7.837677">
        <ele>728.64056</ele>
        <time>2024-10-13T11:32:55.000Z</time>
      </trkpt>
      <trkpt lat="45.563405" lon="7.837657">
        <ele>727.93054</ele>
        <time>2024-10-13T11:32:57.000Z</time>
      </trkpt>
      <trkpt lat="45.563405" lon="7.837618">
        <ele>727.26556</ele>
        <time>2024-10-13T11:33:00.000Z</time>
      </trkpt>
      <trkpt lat="45.56339" lon="7.8376">
        <ele>726.71057</ele>
        <time>2024-10-13T11:33:02.000Z</time>
      </trkpt>
      <trkpt lat="45.5634" lon="7.837632">
        <ele>726.20563</ele>
        <time>2024-10-13T11:33:10.000Z</time>
      </trkpt>
      <trkpt lat="45.5634" lon="7.837662">
        <ele>725.76563</ele>
        <time>2024-10-13T11:33:12.000Z</time>
      </trkpt>
      <trkpt lat="45.56339" lon="7.837698">
        <ele>725.41064</ele>
        <time>2024-10-13T11:33:15.000Z</time>
      </trkpt>
      <trkpt lat="45.563383" lon="7.837727">
        <ele>725.13562</ele>
        <time>2024-10-13T11:33:19.000Z</time>
      </trkpt>
      <trkpt lat="45.563393" lon="7.837752">
        <ele>724.89063</ele>
        <time>2024-10-13T11:33:22.000Z</time>
      </trkpt>
      <trkpt lat="45.56341" lon="7.83777">
        <ele>724.76062</ele>
        <time>2024-10-13T11:33:25.000Z</time>
      </trkpt>
      <trkpt lat="45.563407" lon="7.837802">
        <ele>724.68561</ele>
        <time>2024-10-13T11:33:30.000Z</time>
      </trkpt>
      <trkpt lat="45.563387" lon="7.837802">
        <ele>724.66559</ele>
        <time>2024-10-13T11:33:35.000Z</time>
      </trkpt>
      <trkpt lat="45.563367" lon="7.837828">
        <ele>724.58057</ele>
        <time>2024-10-13T11:33:38.000Z</time>
      </trkpt>
      <trkpt lat="45.563335" lon="7.837843">
        <ele>724.40558</ele>
        <time>2024-10-13T11:33:40.000Z</time>
      </trkpt>
      <trkpt lat="45.563317" lon="7.837842">
        <ele>724.16058</ele>
        <time>2024-10-13T11:33:47.000Z</time>
      </trkpt>
      <trkpt lat="45.563298" lon="7.837868">
        <ele>723.89056</ele>
        <time>2024-10-13T11:33:55.000Z</time>
      </trkpt>
      <trkpt lat="45.563278" lon="7.837855">
        <ele>723.60059</ele>
        <time>2024-10-13T11:33:58.000Z</time>
      </trkpt>
      <trkpt lat="45.563258" lon="7.837842">
        <ele>723.27557</ele>
        <time>2024-10-13T11:34:02.000Z</time>
      </trkpt>
      <trkpt lat="45.563218" lon="7.837875">
        <ele>722.85059</ele>
        <time>2024-10-13T11:34:15.000Z</time>
      </trkpt>
      <trkpt lat="45.563192" lon="7.837887">
        <ele>722.41559</ele>
        <time>2024-10-13T11:34:20.000Z</time>
      </trkpt>
      <trkpt lat="45.563173" lon="7.837902">
        <ele>721.99554</ele>
        <time>2024-10-13T11:34:22.000Z</time>
      </trkpt>
      <trkpt lat="45.563162" lon="7.837927">
        <ele>721.59558</ele>
        <time>2024-10-13T11:34:25.000Z</time>
      </trkpt>
      <trkpt lat="45.563135" lon="7.837945">
        <ele>721.16052</ele>
        <time>2024-10-13T11:34:28.000Z</time>
      </trkpt>
      <trkpt lat="45.563115" lon="7.837957">
        <ele>720.71057</ele>
        <time>2024-10-13T11:34:31.000Z</time>
      </trkpt>
      <trkpt lat="45.563097" lon="7.837953">
        <ele>720.2655</ele>
        <time>2024-10-13T11:34:34.000Z</time>
      </trkpt>
      <trkpt lat="45.563078" lon="7.83795">
        <ele>719.75549</ele>
        <time>2024-10-13T11:34:37.000Z</time>
      </trkpt>
      <trkpt lat="45.563057" lon="7.837942">
        <ele>719.11548</ele>
        <time>2024-10-13T11:34:43.000Z</time>
      </trkpt>
      <trkpt lat="45.563032" lon="7.83794">
        <ele>718.3905</ele>
        <time>2024-10-13T11:34:46.000Z</time>
      </trkpt>
      <trkpt lat="45.56301" lon="7.83795">
        <ele>717.60046</ele>
        <time>2024-10-13T11:34:50.000Z</time>
      </trkpt>
      <trkpt lat="45.562985" lon="7.837958">
        <ele>716.73053</ele>
        <time>2024-10-13T11:34:53.000Z</time>
      </trkpt>
      <trkpt lat="45.562967" lon="7.837972">
        <ele>715.81555</ele>
        <time>2024-10-13T11:34:56.000Z</time>
      </trkpt>
      <trkpt lat="45.56295" lon="7.837987">
        <ele>714.81555</ele>
        <time>2024-10-13T11:34:58.000Z</time>
      </trkpt>
      <trkpt lat="45.562935" lon="7.838003">
        <ele>713.83557</ele>
        <time>2024-10-13T11:35:00.000Z</time>
      </trkpt>
      <trkpt lat="45.56292" lon="7.838023">
        <ele>712.82556</ele>
        <time>2024-10-13T11:35:03.000Z</time>
      </trkpt>
      <trkpt lat="45.562907" lon="7.838003">
        <ele>711.71552</ele>
        <time>2024-10-13T11:35:08.000Z</time>
      </trkpt>
      <trkpt lat="45.562902" lon="7.837973">
        <ele>710.59558</ele>
        <time>2024-10-13T11:35:11.000Z</time>
      </trkpt>
      <trkpt lat="45.562918" lon="7.837938">
        <ele>709.50555</ele>
        <time>2024-10-13T11:35:13.000Z</time>
      </trkpt>
      <trkpt lat="45.562962" lon="7.837887">
        <ele>708.43054</ele>
        <time>2024-10-13T11:35:27.000Z</time>
      </trkpt>
      <trkpt lat="45.562943" lon="7.837885">
        <ele>707.41559</ele>
        <time>2024-10-13T11:35:31.000Z</time>
      </trkpt>
      <trkpt lat="45.562863" lon="7.837815">
        <ele>706.32056</ele>
        <time>2024-10-13T11:35:40.000Z</time>
      </trkpt>
      <trkpt lat="45.562842" lon="7.837793">
        <ele>705.21057</ele>
        <time>2024-10-13T11:35:43.000Z</time>
      </trkpt>
      <trkpt lat="45.562822" lon="7.837795">
        <ele>704.03058</ele>
        <time>2024-10-13T11:35:49.000Z</time>
      </trkpt>
      <trkpt lat="45.562828" lon="7.837853">
        <ele>702.9256</ele>
        <time>2024-10-13T11:35:56.000Z</time>
      </trkpt>
      <trkpt lat="45.562815" lon="7.837883">
        <ele>701.81555</ele>
        <time>2024-10-13T11:36:00.000Z</time>
      </trkpt>
      <trkpt lat="45.562792" lon="7.83785">
        <ele>700.4906</ele>
        <time>2024-10-13T11:36:14.000Z</time>
      </trkpt>
      <trkpt lat="45.562765" lon="7.83785">
        <ele>699.18054</ele>
        <time>2024-10-13T11:36:17.000Z</time>
      </trkpt>
      <trkpt lat="45.562733" lon="7.837848">
        <ele>697.97559</ele>
        <time>2024-10-13T11:36:19.000Z</time>
      </trkpt>
      <trkpt lat="45.562715" lon="7.837857">
        <ele>696.85059</ele>
        <time>2024-10-13T11:36:22.000Z</time>
      </trkpt>
      <trkpt lat="45.562703" lon="7.837882">
        <ele>695.8006</ele>
        <time>2024-10-13T11:36:27.000Z</time>
      </trkpt>
      <trkpt lat="45.562688" lon="7.837898">
        <ele>694.80554</ele>
        <time>2024-10-13T11:36:31.000Z</time>
      </trkpt>
      <trkpt lat="45.562678" lon="7.837927">
        <ele>693.87555</ele>
        <time>2024-10-13T11:36:38.000Z</time>
      </trkpt>
      <trkpt lat="45.56267" lon="7.837958">
        <ele>693.06555</ele>
        <time>2024-10-13T11:36:41.000Z</time>
      </trkpt>
      <trkpt lat="45.562652" lon="7.837985">
        <ele>692.34052</ele>
        <time>2024-10-13T11:36:44.000Z</time>
      </trkpt>
      <trkpt lat="45.562635" lon="7.838007">
        <ele>691.71057</ele>
        <time>2024-10-13T11:36:48.000Z</time>
      </trkpt>
      <trkpt lat="45.562617" lon="7.838013">
        <ele>691.18555</ele>
        <time>2024-10-13T11:36:50.000Z</time>
      </trkpt>
      <trkpt lat="45.562593" lon="7.83803">
        <ele>690.6955</ele>
        <time>2024-10-13T11:36:52.000Z</time>
      </trkpt>
      <trkpt lat="45.562572" lon="7.838045">
        <ele>690.19049</ele>
        <time>2024-10-13T11:36:55.000Z</time>
      </trkpt>
      <trkpt lat="45.562548" lon="7.838053">
        <ele>689.7005</ele>
        <time>2024-10-13T11:36:58.000Z</time>
      </trkpt>
      <trkpt lat="45.56253" lon="7.838057">
        <ele>689.23047</ele>
        <time>2024-10-13T11:37:01.000Z</time>
      </trkpt>
      <trkpt lat="45.562507" lon="7.83807">
        <ele>688.86047</ele>
        <time>2024-10-13T11:37:06.000Z</time>
      </trkpt>
      <trkpt lat="45.562485" lon="7.838063">
        <ele>688.53052</ele>
        <time>2024-10-13T11:37:10.000Z</time>
      </trkpt>
      <trkpt lat="45.56246" lon="7.838047">
        <ele>688.23547</ele>
        <time>2024-10-13T11:37:13.000Z</time>
      </trkpt>
      <trkpt lat="45.562442" lon="7.838052">
        <ele>687.79047</ele>
        <time>2024-10-13T11:37:17.000Z</time>
      </trkpt>
      <trkpt lat="45.562428" lon="7.83807">
        <ele>687.25549</ele>
        <time>2024-10-13T11:37:21.000Z</time>
      </trkpt>
      <trkpt lat="45.562405" lon="7.838067">
        <ele>686.8905</ele>
        <time>2024-10-13T11:37:24.000Z</time>
      </trkpt>
      <trkpt lat="45.562383" lon="7.838048">
        <ele>686.45551</ele>
        <time>2024-10-13T11:37:28.000Z</time>
      </trkpt>
      <trkpt lat="45.562363" lon="7.838075">
        <ele>685.93054</ele>
        <time>2024-10-13T11:37:31.000Z</time>
      </trkpt>
      <trkpt lat="45.562348" lon="7.838093">
        <ele>685.35052</ele>
        <time>2024-10-13T11:37:33.000Z</time>
      </trkpt>
      <trkpt lat="45.562342" lon="7.838123">
        <ele>684.59558</ele>
        <time>2024-10-13T11:37:42.000Z</time>
      </trkpt>
      <trkpt lat="45.562348" lon="7.838165">
        <ele>683.82556</ele>
        <time>2024-10-13T11:37:44.000Z</time>
      </trkpt>
      <trkpt lat="45.562333" lon="7.838125">
        <ele>682.8006</ele>
        <time>2024-10-13T11:38:01.000Z</time>
      </trkpt>
      <trkpt lat="45.562325" lon="7.838098">
        <ele>681.69061</ele>
        <time>2024-10-13T11:38:03.000Z</time>
      </trkpt>
      <trkpt lat="45.562323" lon="7.838057">
        <ele>680.46057</ele>
        <time>2024-10-13T11:38:05.000Z</time>
      </trkpt>
      <trkpt lat="45.56233" lon="7.838027">
        <ele>679.14563</ele>
        <time>2024-10-13T11:38:07.000Z</time>
      </trkpt>
      <trkpt lat="45.562333" lon="7.837993">
        <ele>677.81061</ele>
        <time>2024-10-13T11:38:10.000Z</time>
      </trkpt>
      <trkpt lat="45.562332" lon="7.837965">
        <ele>676.4856</ele>
        <time>2024-10-13T11:38:13.000Z</time>
      </trkpt>
      <trkpt lat="45.562317" lon="7.837942">
        <ele>675.23059</ele>
        <time>2024-10-13T11:38:16.000Z</time>
      </trkpt>
      <trkpt lat="45.562302" lon="7.83796">
        <ele>674.17059</ele>
        <time>2024-10-13T11:38:23.000Z</time>
      </trkpt>
      <trkpt lat="45.5623" lon="7.83799">
        <ele>673.17566</ele>
        <time>2024-10-13T11:38:27.000Z</time>
      </trkpt>
      <trkpt lat="45.562278" lon="7.838015">
        <ele>672.15063</ele>
        <time>2024-10-13T11:38:31.000Z</time>
      </trkpt>
      <trkpt lat="45.562262" lon="7.838042">
        <ele>671.13562</ele>
        <time>2024-10-13T11:38:34.000Z</time>
      </trkpt>
      <trkpt lat="45.562252" lon="7.838067">
        <ele>670.16565</ele>
        <time>2024-10-13T11:38:36.000Z</time>
      </trkpt>
      <trkpt lat="45.562237" lon="7.838097">
        <ele>669.31067</ele>
        <time>2024-10-13T11:38:38.000Z</time>
      </trkpt>
      <trkpt lat="45.56222" lon="7.838117">
        <ele>668.55072</ele>
        <time>2024-10-13T11:38:40.000Z</time>
      </trkpt>
      <trkpt lat="45.562203" lon="7.838132">
        <ele>667.83069</ele>
        <time>2024-10-13T11:38:43.000Z</time>
      </trkpt>
      <trkpt lat="45.562187" lon="7.838145">
        <ele>667.1557</ele>
        <time>2024-10-13T11:38:46.000Z</time>
      </trkpt>
      <trkpt lat="45.56217" lon="7.838162">
        <ele>666.49072</ele>
        <time>2024-10-13T11:38:49.000Z</time>
      </trkpt>
      <trkpt lat="45.562157" lon="7.838182">
        <ele>665.77576</ele>
        <time>2024-10-13T11:38:53.000Z</time>
      </trkpt>
      <trkpt lat="45.562147" lon="7.838208">
        <ele>665.13074</ele>
        <time>2024-10-13T11:38:58.000Z</time>
      </trkpt>
      <trkpt lat="45.562127" lon="7.838238">
        <ele>664.38568</ele>
        <time>2024-10-13T11:39:04.000Z</time>
      </trkpt>
      <trkpt lat="45.562115" lon="7.838265">
        <ele>663.88568</ele>
        <time>2024-10-13T11:39:06.000Z</time>
      </trkpt>
      <trkpt lat="45.562098" lon="7.838288">
        <ele>663.40564</ele>
        <time>2024-10-13T11:39:09.000Z</time>
      </trkpt>
      <trkpt lat="45.562078" lon="7.838305">
        <ele>662.99066</ele>
        <time>2024-10-13T11:39:11.000Z</time>
      </trkpt>
      <trkpt lat="45.562053" lon="7.838327">
        <ele>662.63562</ele>
        <time>2024-10-13T11:39:14.000Z</time>
      </trkpt>
      <trkpt lat="45.562032" lon="7.838332">
        <ele>662.33563</ele>
        <time>2024-10-13T11:39:16.000Z</time>
      </trkpt>
      <trkpt lat="45.562015" lon="7.838348">
        <ele>662.05566</ele>
        <time>2024-10-13T11:39:19.000Z</time>
      </trkpt>
      <trkpt lat="45.562007" lon="7.838375">
        <ele>661.75061</ele>
        <time>2024-10-13T11:39:22.000Z</time>
      </trkpt>
      <trkpt lat="45.561993" lon="7.838403">
        <ele>661.28564</ele>
        <time>2024-10-13T11:39:26.000Z</time>
      </trkpt>
      <trkpt lat="45.561987" lon="7.83843">
        <ele>660.63562</ele>
        <time>2024-10-13T11:39:33.000Z</time>
      </trkpt>
      <trkpt lat="45.561968" lon="7.838422">
        <ele>659.94061</ele>
        <time>2024-10-13T11:39:37.000Z</time>
      </trkpt>
      <trkpt lat="45.561943" lon="7.838408">
        <ele>659.1806</ele>
        <time>2024-10-13T11:39:39.000Z</time>
      </trkpt>
      <trkpt lat="45.561918" lon="7.838392">
        <ele>658.34558</ele>
        <time>2024-10-13T11:39:41.000Z</time>
      </trkpt>
      <trkpt lat="45.561895" lon="7.838373">
        <ele>657.39563</ele>
        <time>2024-10-13T11:39:44.000Z</time>
      </trkpt>
      <trkpt lat="45.561875" lon="7.838358">
        <ele>656.3656</ele>
        <time>2024-10-13T11:39:47.000Z</time>
      </trkpt>
      <trkpt lat="45.561863" lon="7.83833">
        <ele>655.27063</ele>
        <time>2024-10-13T11:39:50.000Z</time>
      </trkpt>
      <trkpt lat="45.561853" lon="7.838308">
        <ele>654.18054</ele>
        <time>2024-10-13T11:39:54.000Z</time>
      </trkpt>
      <trkpt lat="45.561848" lon="7.83834">
        <ele>653.05554</ele>
        <time>2024-10-13T11:40:01.000Z</time>
      </trkpt>
      <trkpt lat="45.561842" lon="7.838367">
        <ele>652.01056</ele>
        <time>2024-10-13T11:40:04.000Z</time>
      </trkpt>
      <trkpt lat="45.56183" lon="7.838387">
        <ele>651.06555</ele>
        <time>2024-10-13T11:40:06.000Z</time>
      </trkpt>
      <trkpt lat="45.561817" lon="7.838405">
        <ele>650.21552</ele>
        <time>2024-10-13T11:40:08.000Z</time>
      </trkpt>
      <trkpt lat="45.561805" lon="7.838432">
        <ele>649.31555</ele>
        <time>2024-10-13T11:40:11.000Z</time>
      </trkpt>
      <trkpt lat="45.561788" lon="7.83846">
        <ele>648.40051</ele>
        <time>2024-10-13T11:40:14.000Z</time>
      </trkpt>
      <trkpt lat="45.561762" lon="7.838473">
        <ele>647.46552</ele>
        <time>2024-10-13T11:40:18.000Z</time>
      </trkpt>
      <trkpt lat="45.561737" lon="7.838475">
        <ele>646.50555</ele>
        <time>2024-10-13T11:40:21.000Z</time>
      </trkpt>
      <trkpt lat="45.561718" lon="7.838487">
        <ele>645.49554</ele>
        <time>2024-10-13T11:40:23.000Z</time>
      </trkpt>
      <trkpt lat="45.56171" lon="7.838513">
        <ele>644.41559</ele>
        <time>2024-10-13T11:40:26.000Z</time>
      </trkpt>
      <trkpt lat="45.561698" lon="7.838537">
        <ele>643.28558</ele>
        <time>2024-10-13T11:40:30.000Z</time>
      </trkpt>
      <trkpt lat="45.56168" lon="7.838548">
        <ele>642.09058</ele>
        <time>2024-10-13T11:40:33.000Z</time>
      </trkpt>
      <trkpt lat="45.56167" lon="7.838527">
        <ele>640.95056</ele>
        <time>2024-10-13T11:40:37.000Z</time>
      </trkpt>
      <trkpt lat="45.561592" lon="7.838467">
        <ele>639.87061</ele>
        <time>2024-10-13T11:41:19.000Z</time>
      </trkpt>
      <trkpt lat="45.561572" lon="7.83845">
        <ele>638.88062</ele>
        <time>2024-10-13T11:41:21.000Z</time>
      </trkpt>
      <trkpt lat="45.56155" lon="7.838445">
        <ele>638.02563</ele>
        <time>2024-10-13T11:41:24.000Z</time>
      </trkpt>
      <trkpt lat="45.561575" lon="7.83845">
        <ele>637.38062</ele>
        <time>2024-10-13T11:41:28.000Z</time>
      </trkpt>
      <trkpt lat="45.561598" lon="7.838445">
        <ele>636.82562</ele>
        <time>2024-10-13T11:41:30.000Z</time>
      </trkpt>
      <trkpt lat="45.561652" lon="7.838418">
        <ele>636.46564</ele>
        <time>2024-10-13T11:41:50.000Z</time>
      </trkpt>
      <trkpt lat="45.56163" lon="7.8384">
        <ele>636.13068</ele>
        <time>2024-10-13T11:41:52.000Z</time>
      </trkpt>
      <trkpt lat="45.561608" lon="7.83839">
        <ele>635.90564</ele>
        <time>2024-10-13T11:41:54.000Z</time>
      </trkpt>
      <trkpt lat="45.561597" lon="7.83837">
        <ele>635.70068</ele>
        <time>2024-10-13T11:41:57.000Z</time>
      </trkpt>
      <trkpt lat="45.561583" lon="7.838352">
        <ele>635.4707</ele>
        <time>2024-10-13T11:41:59.000Z</time>
      </trkpt>
      <trkpt lat="45.56157" lon="7.838332">
        <ele>635.26068</ele>
        <time>2024-10-13T11:42:01.000Z</time>
      </trkpt>
      <trkpt lat="45.56156" lon="7.838308">
        <ele>635.06067</ele>
        <time>2024-10-13T11:42:03.000Z</time>
      </trkpt>
      <trkpt lat="45.561543" lon="7.838287">
        <ele>634.85071</ele>
        <time>2024-10-13T11:42:06.000Z</time>
      </trkpt>
      <trkpt lat="45.561553" lon="7.83832">
        <ele>634.67566</ele>
        <time>2024-10-13T11:42:13.000Z</time>
      </trkpt>
      <trkpt lat="45.561543" lon="7.838348">
        <ele>634.53564</ele>
        <time>2024-10-13T11:42:15.000Z</time>
      </trkpt>
      <trkpt lat="45.561528" lon="7.838388">
        <ele>634.44568</ele>
        <time>2024-10-13T11:42:17.000Z</time>
      </trkpt>
      <trkpt lat="45.561523" lon="7.838415">
        <ele>634.42065</ele>
        <time>2024-10-13T11:42:20.000Z</time>
      </trkpt>
      <trkpt lat="45.561507" lon="7.838447">
        <ele>634.41565</ele>
        <time>2024-10-13T11:42:23.000Z</time>
      </trkpt>
      <trkpt lat="45.561487" lon="7.838453">
        <ele>634.47571</ele>
        <time>2024-10-13T11:42:27.000Z</time>
      </trkpt>
      <trkpt lat="45.561468" lon="7.838455">
        <ele>634.63068</ele>
        <time>2024-10-13T11:42:29.000Z</time>
      </trkpt>
      <trkpt lat="45.56145" lon="7.83844">
        <ele>634.76569</ele>
        <time>2024-10-13T11:42:38.000Z</time>
      </trkpt>
      <trkpt lat="45.561432" lon="7.838465">
        <ele>634.82562</ele>
        <time>2024-10-13T11:42:41.000Z</time>
      </trkpt>
      <trkpt lat="45.561408" lon="7.838477">
        <ele>634.77063</ele>
        <time>2024-10-13T11:42:44.000Z</time>
      </trkpt>
      <trkpt lat="45.561388" lon="7.838478">
        <ele>634.56561</ele>
        <time>2024-10-13T11:42:47.000Z</time>
      </trkpt>
      <trkpt lat="45.561372" lon="7.838495">
        <ele>634.32562</ele>
        <time>2024-10-13T11:42:51.000Z</time>
      </trkpt>
      <trkpt lat="45.561353" lon="7.838505">
        <ele>633.90564</ele>
        <time>2024-10-13T11:42:56.000Z</time>
      </trkpt>
      <trkpt lat="45.561335" lon="7.838507">
        <ele>633.45563</ele>
        <time>2024-10-13T11:43:01.000Z</time>
      </trkpt>
      <trkpt lat="45.561317" lon="7.838522">
        <ele>632.9856</ele>
        <time>2024-10-13T11:43:05.000Z</time>
      </trkpt>
      <trkpt lat="45.561297" lon="7.838535">
        <ele>632.48059</ele>
        <time>2024-10-13T11:43:08.000Z</time>
      </trkpt>
      <trkpt lat="45.56128" lon="7.838557">
        <ele>631.93555</ele>
        <time>2024-10-13T11:43:10.000Z</time>
      </trkpt>
      <trkpt lat="45.561263" lon="7.838575">
        <ele>631.34558</ele>
        <time>2024-10-13T11:43:12.000Z</time>
      </trkpt>
      <trkpt lat="45.561243" lon="7.838582">
        <ele>630.73553</ele>
        <time>2024-10-13T11:43:14.000Z</time>
      </trkpt>
      <trkpt lat="45.561222" lon="7.838595">
        <ele>630.09558</ele>
        <time>2024-10-13T11:43:17.000Z</time>
      </trkpt>
      <trkpt lat="45.561207" lon="7.838615">
        <ele>629.40558</ele>
        <time>2024-10-13T11:43:20.000Z</time>
      </trkpt>
      <trkpt lat="45.561188" lon="7.838632">
        <ele>628.66559</ele>
        <time>2024-10-13T11:43:22.000Z</time>
      </trkpt>
      <trkpt lat="45.56117" lon="7.83865">
        <ele>627.8656</ele>
        <time>2024-10-13T11:43:24.000Z</time>
      </trkpt>
      <trkpt lat="45.561147" lon="7.838662">
        <ele>626.99554</ele>
        <time>2024-10-13T11:43:26.000Z</time>
      </trkpt>
      <trkpt lat="45.561128" lon="7.83865">
        <ele>626.06555</ele>
        <time>2024-10-13T11:43:29.000Z</time>
      </trkpt>
      <trkpt lat="45.56111" lon="7.838657">
        <ele>624.89551</ele>
        <time>2024-10-13T11:43:35.000Z</time>
      </trkpt>
      <trkpt lat="45.561093" lon="7.838667">
        <ele>623.58551</ele>
        <time>2024-10-13T11:43:39.000Z</time>
      </trkpt>
      <trkpt lat="45.561075" lon="7.83867">
        <ele>622.27045</ele>
        <time>2024-10-13T11:43:42.000Z</time>
      </trkpt>
      <trkpt lat="45.561057" lon="7.838667">
        <ele>620.96051</ele>
        <time>2024-10-13T11:43:45.000Z</time>
      </trkpt>
      <trkpt lat="45.561038" lon="7.838652">
        <ele>619.6355</ele>
        <time>2024-10-13T11:43:49.000Z</time>
      </trkpt>
      <trkpt lat="45.56101" lon="7.838665">
        <ele>618.28046</ele>
        <time>2024-10-13T11:43:54.000Z</time>
      </trkpt>
      <trkpt lat="45.560988" lon="7.83865">
        <ele>616.90045</ele>
        <time>2024-10-13T11:43:57.000Z</time>
      </trkpt>
      <trkpt lat="45.560968" lon="7.83865">
        <ele>615.54047</ele>
        <time>2024-10-13T11:44:01.000Z</time>
      </trkpt>
      <trkpt lat="45.56095" lon="7.838633">
        <ele>614.18542</ele>
        <time>2024-10-13T11:44:05.000Z</time>
      </trkpt>
      <trkpt lat="45.560938" lon="7.838613">
        <ele>612.79547</ele>
        <time>2024-10-13T11:44:08.000Z</time>
      </trkpt>
      <trkpt lat="45.560922" lon="7.838602">
        <ele>611.37048</ele>
        <time>2024-10-13T11:44:12.000Z</time>
      </trkpt>
      <trkpt lat="45.5609" lon="7.838617">
        <ele>609.97046</ele>
        <time>2024-10-13T11:44:16.000Z</time>
      </trkpt>
      <trkpt lat="45.56088" lon="7.838633">
        <ele>608.57544</ele>
        <time>2024-10-13T11:44:20.000Z</time>
      </trkpt>
      <trkpt lat="45.560862" lon="7.838632">
        <ele>607.19049</ele>
        <time>2024-10-13T11:44:23.000Z</time>
      </trkpt>
      <trkpt lat="45.560843" lon="7.838625">
        <ele>605.78552</ele>
        <time>2024-10-13T11:44:26.000Z</time>
      </trkpt>
      <trkpt lat="45.560823" lon="7.838617">
        <ele>604.34552</ele>
        <time>2024-10-13T11:44:29.000Z</time>
      </trkpt>
      <trkpt lat="45.560802" lon="7.838608">
        <ele>602.73053</ele>
        <time>2024-10-13T11:44:36.000Z</time>
      </trkpt>
      <trkpt lat="45.56079" lon="7.838628">
        <ele>601.08551</ele>
        <time>2024-10-13T11:44:39.000Z</time>
      </trkpt>
      <trkpt lat="45.560772" lon="7.838625">
        <ele>599.47546</ele>
        <time>2024-10-13T11:44:41.000Z</time>
      </trkpt>
      <trkpt lat="45.560745" lon="7.838615">
        <ele>597.90552</ele>
        <time>2024-10-13T11:44:44.000Z</time>
      </trkpt>
      <trkpt lat="45.560723" lon="7.838617">
        <ele>596.61053</ele>
        <time>2024-10-13T11:44:46.000Z</time>
      </trkpt>
      <trkpt lat="45.560703" lon="7.838625">
        <ele>595.45056</ele>
        <time>2024-10-13T11:44:50.000Z</time>
      </trkpt>
      <trkpt lat="45.56068" lon="7.838638">
        <ele>594.32056</ele>
        <time>2024-10-13T11:44:53.000Z</time>
      </trkpt>
      <trkpt lat="45.56066" lon="7.838633">
        <ele>593.11053</ele>
        <time>2024-10-13T11:44:57.000Z</time>
      </trkpt>
      <trkpt lat="45.560642" lon="7.838628">
        <ele>591.94055</ele>
        <time>2024-10-13T11:44:59.000Z</time>
      </trkpt>
      <trkpt lat="45.560617" lon="7.838637">
        <ele>590.79559</ele>
        <time>2024-10-13T11:45:01.000Z</time>
      </trkpt>
      <trkpt lat="45.560605" lon="7.83866">
        <ele>589.64563</ele>
        <time>2024-10-13T11:45:04.000Z</time>
      </trkpt>
      <trkpt lat="45.560585" lon="7.838665">
        <ele>588.51062</ele>
        <time>2024-10-13T11:45:07.000Z</time>
      </trkpt>
      <trkpt lat="45.560567" lon="7.838657">
        <ele>587.4306</ele>
        <time>2024-10-13T11:45:09.000Z</time>
      </trkpt>
      <trkpt lat="45.560543" lon="7.838642">
        <ele>586.39563</ele>
        <time>2024-10-13T11:45:11.000Z</time>
      </trkpt>
      <trkpt lat="45.56052" lon="7.838638">
        <ele>585.40564</ele>
        <time>2024-10-13T11:45:14.000Z</time>
      </trkpt>
      <trkpt lat="45.5605" lon="7.83864">
        <ele>584.47064</ele>
        <time>2024-10-13T11:45:17.000Z</time>
      </trkpt>
      <trkpt lat="45.56048" lon="7.838635">
        <ele>583.56067</ele>
        <time>2024-10-13T11:45:20.000Z</time>
      </trkpt>
      <trkpt lat="45.560463" lon="7.838648">
        <ele>582.67065</ele>
        <time>2024-10-13T11:45:22.000Z</time>
      </trkpt>
      <trkpt lat="45.56045" lon="7.838667">
        <ele>581.8056</ele>
        <time>2024-10-13T11:45:24.000Z</time>
      </trkpt>
      <trkpt lat="45.560433" lon="7.838678">
        <ele>581.01563</ele>
        <time>2024-10-13T11:45:26.000Z</time>
      </trkpt>
      <trkpt lat="45.56042" lon="7.838708">
        <ele>580.39563</ele>
        <time>2024-10-13T11:45:30.000Z</time>
      </trkpt>
      <trkpt lat="45.560412" lon="7.838742">
        <ele>579.87061</ele>
        <time>2024-10-13T11:45:35.000Z</time>
      </trkpt>
      <trkpt lat="45.560395" lon="7.838758">
        <ele>579.32562</ele>
        <time>2024-10-13T11:45:39.000Z</time>
      </trkpt>
      <trkpt lat="45.56039" lon="7.838783">
        <ele>578.80066</ele>
        <time>2024-10-13T11:45:42.000Z</time>
      </trkpt>
      <trkpt lat="45.560377" lon="7.838803">
        <ele>578.23566</ele>
        <time>2024-10-13T11:45:45.000Z</time>
      </trkpt>
      <trkpt lat="45.56036" lon="7.838835">
        <ele>577.65564</ele>
        <time>2024-10-13T11:45:48.000Z</time>
      </trkpt>
      <trkpt lat="45.560342" lon="7.838848">
        <ele>577.11566</ele>
        <time>2024-10-13T11:45:51.000Z</time>
      </trkpt>
      <trkpt lat="45.560323" lon="7.838863">
        <ele>576.69067</ele>
        <time>2024-10-13T11:45:53.000Z</time>
      </trkpt>
      <trkpt lat="45.560302" lon="7.838867">
        <ele>576.31567</ele>
        <time>2024-10-13T11:45:55.000Z</time>
      </trkpt>
      <trkpt lat="45.560282" lon="7.83887">
        <ele>575.99567</ele>
        <time>2024-10-13T11:45:57.000Z</time>
      </trkpt>
      <trkpt lat="45.560263" lon="7.83884">
        <ele>575.72571</ele>
        <time>2024-10-13T11:46:01.000Z</time>
      </trkpt>
      <trkpt lat="45.560248" lon="7.838823">
        <ele>575.47571</ele>
        <time>2024-10-13T11:46:04.000Z</time>
      </trkpt>
      <trkpt lat="45.560235" lon="7.838803">
        <ele>575.12567</ele>
        <time>2024-10-13T11:46:08.000Z</time>
      </trkpt>
      <trkpt lat="45.560213" lon="7.838803">
        <ele>574.73572</ele>
        <time>2024-10-13T11:46:11.000Z</time>
      </trkpt>
      <trkpt lat="45.560212" lon="7.838772">
        <ele>574.26575</ele>
        <time>2024-10-13T11:46:17.000Z</time>
      </trkpt>
      <trkpt lat="45.560227" lon="7.838743">
        <ele>573.75574</ele>
        <time>2024-10-13T11:46:19.000Z</time>
      </trkpt>
      <trkpt lat="45.560247" lon="7.838722">
        <ele>573.21069</ele>
        <time>2024-10-13T11:46:22.000Z</time>
      </trkpt>
      <trkpt lat="45.560262" lon="7.838695">
        <ele>572.63568</ele>
        <time>2024-10-13T11:46:26.000Z</time>
      </trkpt>
      <trkpt lat="45.560255" lon="7.83867">
        <ele>572.07068</ele>
        <time>2024-10-13T11:46:29.000Z</time>
      </trkpt>
      <trkpt lat="45.560248" lon="7.838637">
        <ele>571.48065</ele>
        <time>2024-10-13T11:46:31.000Z</time>
      </trkpt>
      <trkpt lat="45.560245" lon="7.838608">
        <ele>570.88068</ele>
        <time>2024-10-13T11:46:33.000Z</time>
      </trkpt>
      <trkpt lat="45.56023" lon="7.838588">
        <ele>570.17072</ele>
        <time>2024-10-13T11:46:37.000Z</time>
      </trkpt>
      <trkpt lat="45.560215" lon="7.83856">
        <ele>569.4007</ele>
        <time>2024-10-13T11:46:42.000Z</time>
      </trkpt>
      <trkpt lat="45.5602" lon="7.838545">
        <ele>568.64069</ele>
        <time>2024-10-13T11:46:45.000Z</time>
      </trkpt>
      <trkpt lat="45.56018" lon="7.838532">
        <ele>567.92065</ele>
        <time>2024-10-13T11:46:47.000Z</time>
      </trkpt>
      <trkpt lat="45.560162" lon="7.838538">
        <ele>567.2157</ele>
        <time>2024-10-13T11:46:49.000Z</time>
      </trkpt>
      <trkpt lat="45.560138" lon="7.838555">
        <ele>566.47571</ele>
        <time>2024-10-13T11:46:52.000Z</time>
      </trkpt>
      <trkpt lat="45.560127" lon="7.838583">
        <ele>565.73065</ele>
        <time>2024-10-13T11:46:55.000Z</time>
      </trkpt>
      <trkpt lat="45.560122" lon="7.838613">
        <ele>564.94568</ele>
        <time>2024-10-13T11:47:00.000Z</time>
      </trkpt>
      <trkpt lat="45.560112" lon="7.838642">
        <ele>564.13562</ele>
        <time>2024-10-13T11:47:03.000Z</time>
      </trkpt>
      <trkpt lat="45.560092" lon="7.838628">
        <ele>563.27563</ele>
        <time>2024-10-13T11:47:11.000Z</time>
      </trkpt>
      <trkpt lat="45.560075" lon="7.838598">
        <ele>562.34064</ele>
        <time>2024-10-13T11:47:14.000Z</time>
      </trkpt>
      <trkpt lat="45.560073" lon="7.838567">
        <ele>561.46564</ele>
        <time>2024-10-13T11:47:16.000Z</time>
      </trkpt>
      <trkpt lat="45.56006" lon="7.838543">
        <ele>560.64563</ele>
        <time>2024-10-13T11:47:19.000Z</time>
      </trkpt>
      <trkpt lat="45.560023" lon="7.838552">
        <ele>559.91559</ele>
        <time>2024-10-13T11:47:26.000Z</time>
      </trkpt>
      <trkpt lat="45.560007" lon="7.838563">
        <ele>559.25061</ele>
        <time>2024-10-13T11:47:28.000Z</time>
      </trkpt>
      <trkpt lat="45.559987" lon="7.838583">
        <ele>558.72058</ele>
        <time>2024-10-13T11:47:33.000Z</time>
      </trkpt>
      <trkpt lat="45.559968" lon="7.838598">
        <ele>558.2406</ele>
        <time>2024-10-13T11:47:37.000Z</time>
      </trkpt>
      <trkpt lat="45.559952" lon="7.838615">
        <ele>557.78064</ele>
        <time>2024-10-13T11:47:39.000Z</time>
      </trkpt>
      <trkpt lat="45.559933" lon="7.838623">
        <ele>557.35559</ele>
        <time>2024-10-13T11:47:41.000Z</time>
      </trkpt>
      <trkpt lat="45.559908" lon="7.83862">
        <ele>556.96564</ele>
        <time>2024-10-13T11:47:43.000Z</time>
      </trkpt>
      <trkpt lat="45.559888" lon="7.838608">
        <ele>556.63562</ele>
        <time>2024-10-13T11:47:45.000Z</time>
      </trkpt>
      <trkpt lat="45.559872" lon="7.838592">
        <ele>556.34058</ele>
        <time>2024-10-13T11:47:50.000Z</time>
      </trkpt>
      <trkpt lat="45.559855" lon="7.83858">
        <ele>556.01056</ele>
        <time>2024-10-13T11:47:52.000Z</time>
      </trkpt>
      <trkpt lat="45.559832" lon="7.838563">
        <ele>555.60559</ele>
        <time>2024-10-13T11:47:55.000Z</time>
      </trkpt>
      <trkpt lat="45.559815" lon="7.838552">
        <ele>555.18555</ele>
        <time>2024-10-13T11:47:57.000Z</time>
      </trkpt>
      <trkpt lat="45.559793" lon="7.838538">
        <ele>554.75549</ele>
        <time>2024-10-13T11:47:59.000Z</time>
      </trkpt>
      <trkpt lat="45.559775" lon="7.838528">
        <ele>554.2655</ele>
        <time>2024-10-13T11:48:05.000Z</time>
      </trkpt>
      <trkpt lat="45.559752" lon="7.838527">
        <ele>553.71552</ele>
        <time>2024-10-13T11:48:10.000Z</time>
      </trkpt>
      <trkpt lat="45.559737" lon="7.838543">
        <ele>553.14557</ele>
        <time>2024-10-13T11:48:15.000Z</time>
      </trkpt>
      <trkpt lat="45.55972" lon="7.838553">
        <ele>552.59558</ele>
        <time>2024-10-13T11:48:22.000Z</time>
      </trkpt>
      <trkpt lat="45.559702" lon="7.838565">
        <ele>552.10559</ele>
        <time>2024-10-13T11:48:24.000Z</time>
      </trkpt>
      <trkpt lat="45.55968" lon="7.838558">
        <ele>551.62555</ele>
        <time>2024-10-13T11:48:26.000Z</time>
      </trkpt>
      <trkpt lat="45.559658" lon="7.838548">
        <ele>551.13055</ele>
        <time>2024-10-13T11:48:28.000Z</time>
      </trkpt>
      <trkpt lat="45.559637" lon="7.838547">
        <ele>550.62561</ele>
        <time>2024-10-13T11:48:30.000Z</time>
      </trkpt>
      <trkpt lat="45.559615" lon="7.838547">
        <ele>550.07056</ele>
        <time>2024-10-13T11:48:32.000Z</time>
      </trkpt>
      <trkpt lat="45.559595" lon="7.83856">
        <ele>549.3905</ele>
        <time>2024-10-13T11:48:34.000Z</time>
      </trkpt>
      <trkpt lat="45.559577" lon="7.838558">
        <ele>548.66553</ele>
        <time>2024-10-13T11:48:38.000Z</time>
      </trkpt>
      <trkpt lat="45.559558" lon="7.838552">
        <ele>547.96057</ele>
        <time>2024-10-13T11:48:40.000Z</time>
      </trkpt>
      <trkpt lat="45.559542" lon="7.838537">
        <ele>547.2406</ele>
        <time>2024-10-13T11:48:43.000Z</time>
      </trkpt>
      <trkpt lat="45.559523" lon="7.838513">
        <ele>546.4856</ele>
        <time>2024-10-13T11:48:46.000Z</time>
      </trkpt>
      <trkpt lat="45.559523" lon="7.83848">
        <ele>545.6756</ele>
        <time>2024-10-13T11:48:50.000Z</time>
      </trkpt>
      <trkpt lat="45.559532" lon="7.83844">
        <ele>544.83063</ele>
        <time>2024-10-13T11:48:54.000Z</time>
      </trkpt>
      <trkpt lat="45.559532" lon="7.838412">
        <ele>544.02563</ele>
        <time>2024-10-13T11:48:57.000Z</time>
      </trkpt>
      <trkpt lat="45.55953" lon="7.838377">
        <ele>543.28558</ele>
        <time>2024-10-13T11:49:00.000Z</time>
      </trkpt>
      <trkpt lat="45.559535" lon="7.838352">
        <ele>542.5506</ele>
        <time>2024-10-13T11:49:02.000Z</time>
      </trkpt>
      <trkpt lat="45.559538" lon="7.838325">
        <ele>541.83063</ele>
        <time>2024-10-13T11:49:04.000Z</time>
      </trkpt>
      <trkpt lat="45.559533" lon="7.838298">
        <ele>541.14063</ele>
        <time>2024-10-13T11:49:06.000Z</time>
      </trkpt>
      <trkpt lat="45.559522" lon="7.838275">
        <ele>540.51563</ele>
        <time>2024-10-13T11:49:08.000Z</time>
      </trkpt>
      <trkpt lat="45.559503" lon="7.83825">
        <ele>539.90057</ele>
        <time>2024-10-13T11:49:10.000Z</time>
      </trkpt>
      <trkpt lat="45.559485" lon="7.838263">
        <ele>539.28058</ele>
        <time>2024-10-13T11:49:16.000Z</time>
      </trkpt>
      <trkpt lat="45.559472" lon="7.838288">
        <ele>538.66559</ele>
        <time>2024-10-13T11:49:20.000Z</time>
      </trkpt>
      <trkpt lat="45.559462" lon="7.838315">
        <ele>538.06555</ele>
        <time>2024-10-13T11:49:24.000Z</time>
      </trkpt>
      <trkpt lat="45.559443" lon="7.838325">
        <ele>537.49554</ele>
        <time>2024-10-13T11:49:28.000Z</time>
      </trkpt>
      <trkpt lat="45.559428" lon="7.838307">
        <ele>536.93555</ele>
        <time>2024-10-13T11:49:30.000Z</time>
      </trkpt>
      <trkpt lat="45.559407" lon="7.838285">
        <ele>536.38556</ele>
        <time>2024-10-13T11:49:32.000Z</time>
      </trkpt>
      <trkpt lat="45.559387" lon="7.838253">
        <ele>535.87054</ele>
        <time>2024-10-13T11:49:34.000Z</time>
      </trkpt>
      <trkpt lat="45.559373" lon="7.838223">
        <ele>535.41052</ele>
        <time>2024-10-13T11:49:36.000Z</time>
      </trkpt>
      <trkpt lat="45.559358" lon="7.838193">
        <ele>534.94556</ele>
        <time>2024-10-13T11:49:38.000Z</time>
      </trkpt>
      <trkpt lat="45.559347" lon="7.838167">
        <ele>534.48059</ele>
        <time>2024-10-13T11:49:40.000Z</time>
      </trkpt>
      <trkpt lat="45.559337" lon="7.838142">
        <ele>534.03552</ele>
        <time>2024-10-13T11:49:42.000Z</time>
      </trkpt>
      <trkpt lat="45.55933" lon="7.838115">
        <ele>533.63055</ele>
        <time>2024-10-13T11:49:44.000Z</time>
      </trkpt>
      <trkpt lat="45.559323" lon="7.838088">
        <ele>533.28058</ele>
        <time>2024-10-13T11:49:46.000Z</time>
      </trkpt>
      <trkpt lat="45.559315" lon="7.83806">
        <ele>532.89056</ele>
        <time>2024-10-13T11:49:48.000Z</time>
      </trkpt>
      <trkpt lat="45.559325" lon="7.838033">
        <ele>532.45056</ele>
        <time>2024-10-13T11:49:50.000Z</time>
      </trkpt>
      <trkpt lat="45.559312" lon="7.837998">
        <ele>532.01556</ele>
        <time>2024-10-13T11:49:52.000Z</time>
      </trkpt>
      <trkpt lat="45.559292" lon="7.837973">
        <ele>531.56055</ele>
        <time>2024-10-13T11:49:54.000Z</time>
      </trkpt>
      <trkpt lat="45.559272" lon="7.837943">
        <ele>531.10052</ele>
        <time>2024-10-13T11:49:56.000Z</time>
      </trkpt>
      <trkpt lat="45.559267" lon="7.837912">
        <ele>530.49548</ele>
        <time>2024-10-13T11:50:04.000Z</time>
      </trkpt>
      <trkpt lat="45.559258" lon="7.837882">
        <ele>529.85052</ele>
        <time>2024-10-13T11:50:06.000Z</time>
      </trkpt>
      <trkpt lat="45.559273" lon="7.837853">
        <ele>529.25055</ele>
        <time>2024-10-13T11:50:09.000Z</time>
      </trkpt>
      <trkpt lat="45.559263" lon="7.837813">
        <ele>528.90552</ele>
        <time>2024-10-13T11:50:51.000Z</time>
      </trkpt>
      <trkpt lat="45.559277" lon="7.83784">
        <ele>528.55054</ele>
        <time>2024-10-13T11:50:53.000Z</time>
      </trkpt>
      <trkpt lat="45.559293" lon="7.837865">
        <ele>528.16052</ele>
        <time>2024-10-13T11:50:56.000Z</time>
      </trkpt>
      <trkpt lat="45.55932" lon="7.837858">
        <ele>527.77551</ele>
        <time>2024-10-13T11:51:01.000Z</time>
      </trkpt>
      <trkpt lat="45.55934" lon="7.83786">
        <ele>527.42053</ele>
        <time>2024-10-13T11:51:04.000Z</time>
      </trkpt>
      <trkpt lat="45.559318" lon="7.83788">
        <ele>527.09058</ele>
        <time>2024-10-13T11:51:32.000Z</time>
      </trkpt>
      <trkpt lat="45.559337" lon="7.837887">
        <ele>526.7406</ele>
        <time>2024-10-13T11:51:35.000Z</time>
      </trkpt>
      <trkpt lat="45.55929" lon="7.837882">
        <ele>526.29553</ele>
        <time>2024-10-13T11:51:40.000Z</time>
      </trkpt>
      <trkpt lat="45.559243" lon="7.83786">
        <ele>525.79053</ele>
        <time>2024-10-13T11:51:42.000Z</time>
      </trkpt>
      <trkpt lat="45.559212" lon="7.837848">
        <ele>525.26056</ele>
        <time>2024-10-13T11:51:43.000Z</time>
      </trkpt>
      <trkpt lat="45.559182" lon="7.837837">
        <ele>524.71552</ele>
        <time>2024-10-13T11:51:44.000Z</time>
      </trkpt>
      <trkpt lat="45.559157" lon="7.837827">
        <ele>524.16553</ele>
        <time>2024-10-13T11:51:45.000Z</time>
      </trkpt>
      <trkpt lat="45.559135" lon="7.83781">
        <ele>523.62048</ele>
        <time>2024-10-13T11:51:48.000Z</time>
      </trkpt>
      <trkpt lat="45.559118" lon="7.837788">
        <ele>523.10052</ele>
        <time>2024-10-13T11:51:51.000Z</time>
      </trkpt>
      <trkpt lat="45.559142" lon="7.837778">
        <ele>522.54553</ele>
        <time>2024-10-13T11:51:55.000Z</time>
      </trkpt>
      <trkpt lat="45.559162" lon="7.837763">
        <ele>522.02557</ele>
        <time>2024-10-13T11:51:57.000Z</time>
      </trkpt>
      <trkpt lat="45.559177" lon="7.837747">
        <ele>521.54059</ele>
        <time>2024-10-13T11:51:59.000Z</time>
      </trkpt>
      <trkpt lat="45.559188" lon="7.837717">
        <ele>521.1806</ele>
        <time>2024-10-13T11:52:02.000Z</time>
      </trkpt>
      <trkpt lat="45.559187" lon="7.837687">
        <ele>520.83063</ele>
        <time>2024-10-13T11:52:04.000Z</time>
      </trkpt>
      <trkpt lat="45.559173" lon="7.837657">
        <ele>520.44061</ele>
        <time>2024-10-13T11:52:06.000Z</time>
      </trkpt>
      <trkpt lat="45.559157" lon="7.837645">
        <ele>519.76563</ele>
        <time>2024-10-13T11:52:08.000Z</time>
      </trkpt>
      <trkpt lat="45.55914" lon="7.837623">
        <ele>519.07562</ele>
        <time>2024-10-13T11:52:11.000Z</time>
      </trkpt>
      <trkpt lat="45.559128" lon="7.837603">
        <ele>518.38062</ele>
        <time>2024-10-13T11:52:15.000Z</time>
      </trkpt>
      <trkpt lat="45.559112" lon="7.837588">
        <ele>517.65564</ele>
        <time>2024-10-13T11:52:18.000Z</time>
      </trkpt>
      <trkpt lat="45.559085" lon="7.837568">
        <ele>516.88062</ele>
        <time>2024-10-13T11:52:21.000Z</time>
      </trkpt>
      <trkpt lat="45.559067" lon="7.83754">
        <ele>516.08557</ele>
        <time>2024-10-13T11:52:23.000Z</time>
      </trkpt>
      <trkpt lat="45.559062" lon="7.837515">
        <ele>515.2356</ele>
        <time>2024-10-13T11:52:28.000Z</time>
      </trkpt>
      <trkpt lat="45.559045" lon="7.837487">
        <ele>514.46057</ele>
        <time>2024-10-13T11:52:31.000Z</time>
      </trkpt>
      <trkpt lat="45.559023" lon="7.837462">
        <ele>513.71564</ele>
        <time>2024-10-13T11:52:34.000Z</time>
      </trkpt>
      <trkpt lat="45.559005" lon="7.837447">
        <ele>512.99561</ele>
        <time>2024-10-13T11:52:36.000Z</time>
      </trkpt>
      <trkpt lat="45.558988" lon="7.837437">
        <ele>512.29559</ele>
        <time>2024-10-13T11:52:38.000Z</time>
      </trkpt>
      <trkpt lat="45.558977" lon="7.83741">
        <ele>511.59058</ele>
        <time>2024-10-13T11:52:41.000Z</time>
      </trkpt>
      <trkpt lat="45.55895" lon="7.8374">
        <ele>510.8606</ele>
        <time>2024-10-13T11:52:44.000Z</time>
      </trkpt>
      <trkpt lat="45.55893" lon="7.837392">
        <ele>510.14557</ele>
        <time>2024-10-13T11:52:46.000Z</time>
      </trkpt>
      <trkpt lat="45.558908" lon="7.837387">
        <ele>509.37555</ele>
        <time>2024-10-13T11:52:53.000Z</time>
      </trkpt>
      <trkpt lat="45.558915" lon="7.837357">
        <ele>508.4855</ele>
        <time>2024-10-13T11:52:57.000Z</time>
      </trkpt>
      <trkpt lat="45.558915" lon="7.837327">
        <ele>507.51553</ele>
        <time>2024-10-13T11:52:59.000Z</time>
      </trkpt>
      <trkpt lat="45.558905" lon="7.837283">
        <ele>506.5755</ele>
        <time>2024-10-13T11:53:01.000Z</time>
      </trkpt>
      <trkpt lat="45.558898" lon="7.837245">
        <ele>505.68048</ele>
        <time>2024-10-13T11:53:03.000Z</time>
      </trkpt>
      <trkpt lat="45.558887" lon="7.837217">
        <ele>504.80048</ele>
        <time>2024-10-13T11:53:05.000Z</time>
      </trkpt>
      <trkpt lat="45.558897" lon="7.837195">
        <ele>503.84552</ele>
        <time>2024-10-13T11:53:10.000Z</time>
      </trkpt>
      <trkpt lat="45.558898" lon="7.837168">
        <ele>502.93549</ele>
        <time>2024-10-13T11:53:13.000Z</time>
      </trkpt>
      <trkpt lat="45.558893" lon="7.837133">
        <ele>502.09052</ele>
        <time>2024-10-13T11:53:17.000Z</time>
      </trkpt>
      <trkpt lat="45.55889" lon="7.837098">
        <ele>501.23053</ele>
        <time>2024-10-13T11:53:20.000Z</time>
      </trkpt>
      <trkpt lat="45.558875" lon="7.837073">
        <ele>500.37051</ele>
        <time>2024-10-13T11:53:23.000Z</time>
      </trkpt>
      <trkpt lat="45.558858" lon="7.837057">
        <ele>499.50049</ele>
        <time>2024-10-13T11:53:25.000Z</time>
      </trkpt>
      <trkpt lat="45.55885" lon="7.837028">
        <ele>498.64047</ele>
        <time>2024-10-13T11:53:28.000Z</time>
      </trkpt>
      <trkpt lat="45.558853" lon="7.837002">
        <ele>497.71051</ele>
        <time>2024-10-13T11:53:32.000Z</time>
      </trkpt>
      <trkpt lat="45.558848" lon="7.836972">
        <ele>496.73047</ele>
        <time>2024-10-13T11:53:35.000Z</time>
      </trkpt>
      <trkpt lat="45.558855" lon="7.836945">
        <ele>495.69049</ele>
        <time>2024-10-13T11:53:39.000Z</time>
      </trkpt>
      <trkpt lat="45.558862" lon="7.83692">
        <ele>494.65048</ele>
        <time>2024-10-13T11:53:41.000Z</time>
      </trkpt>
      <trkpt lat="45.558878" lon="7.83689">
        <ele>493.63052</ele>
        <time>2024-10-13T11:53:44.000Z</time>
      </trkpt>
      <trkpt lat="45.558893" lon="7.836867">
        <ele>492.65048</ele>
        <time>2024-10-13T11:53:46.000Z</time>
      </trkpt>
      <trkpt lat="45.558907" lon="7.836838">
        <ele>491.63052</ele>
        <time>2024-10-13T11:53:49.000Z</time>
      </trkpt>
      <trkpt lat="45.558922" lon="7.836822">
        <ele>490.70053</ele>
        <time>2024-10-13T11:53:51.000Z</time>
      </trkpt>
      <trkpt lat="45.558937" lon="7.8368">
        <ele>489.89557</ele>
        <time>2024-10-13T11:53:55.000Z</time>
      </trkpt>
      <trkpt lat="45.558945" lon="7.836777">
        <ele>489.18555</ele>
        <time>2024-10-13T11:53:57.000Z</time>
      </trkpt>
      <trkpt lat="45.558958" lon="7.836755">
        <ele>488.49057</ele>
        <time>2024-10-13T11:54:00.000Z</time>
      </trkpt>
      <trkpt lat="45.558975" lon="7.836727">
        <ele>487.79559</ele>
        <time>2024-10-13T11:54:04.000Z</time>
      </trkpt>
      <trkpt lat="45.559012" lon="7.836693">
        <ele>487.05557</ele>
        <time>2024-10-13T11:54:10.000Z</time>
      </trkpt>
      <trkpt lat="45.55903" lon="7.836698">
        <ele>486.39557</ele>
        <time>2024-10-13T11:54:12.000Z</time>
      </trkpt>
      <trkpt lat="45.559055" lon="7.836693">
        <ele>485.69556</ele>
        <time>2024-10-13T11:54:14.000Z</time>
      </trkpt>
      <trkpt lat="45.559075" lon="7.836685">
        <ele>484.93057</ele>
        <time>2024-10-13T11:54:16.000Z</time>
      </trkpt>
      <trkpt lat="45.559092" lon="7.83667">
        <ele>484.22061</ele>
        <time>2024-10-13T11:54:18.000Z</time>
      </trkpt>
      <trkpt lat="45.55911" lon="7.836655">
        <ele>483.53558</ele>
        <time>2024-10-13T11:54:21.000Z</time>
      </trkpt>
      <trkpt lat="45.559112" lon="7.836628">
        <ele>482.8356</ele>
        <time>2024-10-13T11:54:26.000Z</time>
      </trkpt>
      <trkpt lat="45.559118" lon="7.8366">
        <ele>482.17059</ele>
        <time>2024-10-13T11:54:30.000Z</time>
      </trkpt>
      <trkpt lat="45.559117" lon="7.836568">
        <ele>481.59561</ele>
        <time>2024-10-13T11:54:33.000Z</time>
      </trkpt>
      <trkpt lat="45.559115" lon="7.836542">
        <ele>481.09561</ele>
        <time>2024-10-13T11:54:36.000Z</time>
      </trkpt>
      <trkpt lat="45.559117" lon="7.836508">
        <ele>480.63062</ele>
        <time>2024-10-13T11:54:40.000Z</time>
      </trkpt>
      <trkpt lat="45.559112" lon="7.836483">
        <ele>480.11066</ele>
        <time>2024-10-13T11:54:44.000Z</time>
      </trkpt>
      <trkpt lat="45.559107" lon="7.836452">
        <ele>479.5556</ele>
        <time>2024-10-13T11:54:48.000Z</time>
      </trkpt>
      <trkpt lat="45.559107" lon="7.836423">
        <ele>479.00562</ele>
        <time>2024-10-13T11:54:52.000Z</time>
      </trkpt>
      <trkpt lat="45.559107" lon="7.836388">
        <ele>478.49561</ele>
        <time>2024-10-13T11:54:55.000Z</time>
      </trkpt>
      <trkpt lat="45.559097" lon="7.836362">
        <ele>477.98062</ele>
        <time>2024-10-13T11:54:58.000Z</time>
      </trkpt>
      <trkpt lat="45.559085" lon="7.836335">
        <ele>477.41562</ele>
        <time>2024-10-13T11:55:02.000Z</time>
      </trkpt>
      <trkpt lat="45.559075" lon="7.836305">
        <ele>476.83063</ele>
        <time>2024-10-13T11:55:04.000Z</time>
      </trkpt>
      <trkpt lat="45.559065" lon="7.836283">
        <ele>476.24561</ele>
        <time>2024-10-13T11:55:06.000Z</time>
      </trkpt>
      <trkpt lat="45.55905" lon="7.836263">
        <ele>475.66559</ele>
        <time>2024-10-13T11:55:08.000Z</time>
      </trkpt>
      <trkpt lat="45.559045" lon="7.83623">
        <ele>475.09058</ele>
        <time>2024-10-13T11:55:12.000Z</time>
      </trkpt>
      <trkpt lat="45.559035" lon="7.836208">
        <ele>474.53058</ele>
        <time>2024-10-13T11:55:18.000Z</time>
      </trkpt>
      <trkpt lat="45.559018" lon="7.83619">
        <ele>474.00058</ele>
        <time>2024-10-13T11:55:20.000Z</time>
      </trkpt>
      <trkpt lat="45.559002" lon="7.836172">
        <ele>473.48056</ele>
        <time>2024-10-13T11:55:23.000Z</time>
      </trkpt>
      <trkpt lat="45.558977" lon="7.836173">
        <ele>472.90558</ele>
        <time>2024-10-13T11:55:27.000Z</time>
      </trkpt>
      <trkpt lat="45.558957" lon="7.836157">
        <ele>472.29059</ele>
        <time>2024-10-13T11:55:30.000Z</time>
      </trkpt>
      <trkpt lat="45.558953" lon="7.836128">
        <ele>471.67059</ele>
        <time>2024-10-13T11:55:33.000Z</time>
      </trkpt>
      <trkpt lat="45.558947" lon="7.8361">
        <ele>471.02563</ele>
        <time>2024-10-13T11:55:37.000Z</time>
      </trkpt>
      <trkpt lat="45.558927" lon="7.836077">
        <ele>470.37564</ele>
        <time>2024-10-13T11:55:40.000Z</time>
      </trkpt>
      <trkpt lat="45.558915" lon="7.836057">
        <ele>469.73065</ele>
        <time>2024-10-13T11:55:42.000Z</time>
      </trkpt>
      <trkpt lat="45.558915" lon="7.83603">
        <ele>469.13068</ele>
        <time>2024-10-13T11:55:45.000Z</time>
      </trkpt>
      <trkpt lat="45.55892" lon="7.836003">
        <ele>468.61066</ele>
        <time>2024-10-13T11:55:47.000Z</time>
      </trkpt>
      <trkpt lat="45.558923" lon="7.835968">
        <ele>468.16064</ele>
        <time>2024-10-13T11:55:50.000Z</time>
      </trkpt>
      <trkpt lat="45.558905" lon="7.835937">
        <ele>467.74567</ele>
        <time>2024-10-13T11:55:54.000Z</time>
      </trkpt>
      <trkpt lat="45.558895" lon="7.835905">
        <ele>467.33563</ele>
        <time>2024-10-13T11:55:57.000Z</time>
      </trkpt>
      <trkpt lat="45.558895" lon="7.835877">
        <ele>466.9306</ele>
        <time>2024-10-13T11:56:00.000Z</time>
      </trkpt>
      <trkpt lat="45.558902" lon="7.835847">
        <ele>466.53061</ele>
        <time>2024-10-13T11:56:03.000Z</time>
      </trkpt>
      <trkpt lat="45.558902" lon="7.835813">
        <ele>466.13062</ele>
        <time>2024-10-13T11:56:05.000Z</time>
      </trkpt>
      <trkpt lat="45.558897" lon="7.835772">
        <ele>465.73062</ele>
        <time>2024-10-13T11:56:07.000Z</time>
      </trkpt>
      <trkpt lat="45.558893" lon="7.835745">
        <ele>465.31064</ele>
        <time>2024-10-13T11:56:11.000Z</time>
      </trkpt>
      <trkpt lat="45.558885" lon="7.83572">
        <ele>464.9007</ele>
        <time>2024-10-13T11:56:14.000Z</time>
      </trkpt>
      <trkpt lat="45.558873" lon="7.835692">
        <ele>464.51569</ele>
        <time>2024-10-13T11:56:16.000Z</time>
      </trkpt>
      <trkpt lat="45.558857" lon="7.835665">
        <ele>464.12067</ele>
        <time>2024-10-13T11:56:18.000Z</time>
      </trkpt>
      <trkpt lat="45.558835" lon="7.835645">
        <ele>463.72064</ele>
        <time>2024-10-13T11:56:20.000Z</time>
      </trkpt>
      <trkpt lat="45.558818" lon="7.835612">
        <ele>463.34564</ele>
        <time>2024-10-13T11:56:22.000Z</time>
      </trkpt>
      <trkpt lat="45.558808" lon="7.835582">
        <ele>462.98065</ele>
        <time>2024-10-13T11:56:24.000Z</time>
      </trkpt>
      <trkpt lat="45.558797" lon="7.835557">
        <ele>462.59067</ele>
        <time>2024-10-13T11:56:26.000Z</time>
      </trkpt>
      <trkpt lat="45.558788" lon="7.83553">
        <ele>462.21567</ele>
        <time>2024-10-13T11:56:28.000Z</time>
      </trkpt>
      <trkpt lat="45.55878" lon="7.835507">
        <ele>461.81567</ele>
        <time>2024-10-13T11:56:30.000Z</time>
      </trkpt>
      <trkpt lat="45.558788" lon="7.835477">
        <ele>461.39069</ele>
        <time>2024-10-13T11:56:33.000Z</time>
      </trkpt>
      <trkpt lat="45.558795" lon="7.835443">
        <ele>460.89566</ele>
        <time>2024-10-13T11:56:37.000Z</time>
      </trkpt>
      <trkpt lat="45.558793" lon="7.835403">
        <ele>460.35565</ele>
        <time>2024-10-13T11:56:41.000Z</time>
      </trkpt>
      <trkpt lat="45.558788" lon="7.835372">
        <ele>459.79068</ele>
        <time>2024-10-13T11:56:43.000Z</time>
      </trkpt>
      <trkpt lat="45.55878" lon="7.835348">
        <ele>459.20068</ele>
        <time>2024-10-13T11:56:45.000Z</time>
      </trkpt>
      <trkpt lat="45.558777" lon="7.83532">
        <ele>458.5957</ele>
        <time>2024-10-13T11:56:47.000Z</time>
      </trkpt>
      <trkpt lat="45.55878" lon="7.835283">
        <ele>457.95074</ele>
        <time>2024-10-13T11:56:56.000Z</time>
      </trkpt>
      <trkpt lat="45.558778" lon="7.835255">
        <ele>457.28574</ele>
        <time>2024-10-13T11:56:58.000Z</time>
      </trkpt>
      <trkpt lat="45.558772" lon="7.835223">
        <ele>456.59576</ele>
        <time>2024-10-13T11:57:00.000Z</time>
      </trkpt>
      <trkpt lat="45.558772" lon="7.835182">
        <ele>455.88077</ele>
        <time>2024-10-13T11:57:02.000Z</time>
      </trkpt>
      <trkpt lat="45.558775" lon="7.835147">
        <ele>455.17075</ele>
        <time>2024-10-13T11:57:04.000Z</time>
      </trkpt>
      <trkpt lat="45.558773" lon="7.835108">
        <ele>454.49576</ele>
        <time>2024-10-13T11:57:06.000Z</time>
      </trkpt>
      <trkpt lat="45.558777" lon="7.83507">
        <ele>453.79077</ele>
        <time>2024-10-13T11:57:08.000Z</time>
      </trkpt>
      <trkpt lat="45.558777" lon="7.835032">
        <ele>453.06577</ele>
        <time>2024-10-13T11:57:10.000Z</time>
      </trkpt>
      <trkpt lat="45.558773" lon="7.835">
        <ele>452.33075</ele>
        <time>2024-10-13T11:57:12.000Z</time>
      </trkpt>
      <trkpt lat="45.558767" lon="7.834973">
        <ele>451.57574</ele>
        <time>2024-10-13T11:57:15.000Z</time>
      </trkpt>
      <trkpt lat="45.558747" lon="7.834957">
        <ele>450.82071</ele>
        <time>2024-10-13T11:57:18.000Z</time>
      </trkpt>
      <trkpt lat="45.558753" lon="7.83493">
        <ele>450.0607</ele>
        <time>2024-10-13T11:57:25.000Z</time>
      </trkpt>
      <trkpt lat="45.558765" lon="7.83491">
        <ele>449.30566</ele>
        <time>2024-10-13T11:57:27.000Z</time>
      </trkpt>
      <trkpt lat="45.558772" lon="7.834877">
        <ele>448.55063</ele>
        <time>2024-10-13T11:57:29.000Z</time>
      </trkpt>
      <trkpt lat="45.55878" lon="7.83485">
        <ele>447.81561</ele>
        <time>2024-10-13T11:57:31.000Z</time>
      </trkpt>
      <trkpt lat="45.558778" lon="7.834815">
        <ele>447.08563</ele>
        <time>2024-10-13T11:57:34.000Z</time>
      </trkpt>
      <trkpt lat="45.558777" lon="7.834775">
        <ele>446.35562</ele>
        <time>2024-10-13T11:57:37.000Z</time>
      </trkpt>
      <trkpt lat="45.558782" lon="7.834748">
        <ele>445.57562</ele>
        <time>2024-10-13T11:57:39.000Z</time>
      </trkpt>
      <trkpt lat="45.55879" lon="7.834715">
        <ele>444.74063</ele>
        <time>2024-10-13T11:57:41.000Z</time>
      </trkpt>
      <trkpt lat="45.558785" lon="7.834685">
        <ele>443.8606</ele>
        <time>2024-10-13T11:57:43.000Z</time>
      </trkpt>
      <trkpt lat="45.558773" lon="7.834653">
        <ele>442.97061</ele>
        <time>2024-10-13T11:57:45.000Z</time>
      </trkpt>
      <trkpt lat="45.558762" lon="7.834627">
        <ele>442.09058</ele>
        <time>2024-10-13T11:57:47.000Z</time>
      </trkpt>
      <trkpt lat="45.558752" lon="7.834595">
        <ele>441.20557</ele>
        <time>2024-10-13T11:57:50.000Z</time>
      </trkpt>
      <trkpt lat="45.558743" lon="7.834572">
        <ele>440.30054</ele>
        <time>2024-10-13T11:57:53.000Z</time>
      </trkpt>
      <trkpt lat="45.558755" lon="7.834548">
        <ele>439.35052</ele>
        <time>2024-10-13T11:57:57.000Z</time>
      </trkpt>
      <trkpt lat="45.558762" lon="7.834518">
        <ele>438.39551</ele>
        <time>2024-10-13T11:57:59.000Z</time>
      </trkpt>
      <trkpt lat="45.558777" lon="7.834483">
        <ele>437.4455</ele>
        <time>2024-10-13T11:58:01.000Z</time>
      </trkpt>
      <trkpt lat="45.558785" lon="7.83445">
        <ele>436.5105</ele>
        <time>2024-10-13T11:58:03.000Z</time>
      </trkpt>
      <trkpt lat="45.558798" lon="7.834418">
        <ele>435.59052</ele>
        <time>2024-10-13T11:58:06.000Z</time>
      </trkpt>
      <trkpt lat="45.558805" lon="7.834387">
        <ele>434.70053</ele>
        <time>2024-10-13T11:58:08.000Z</time>
      </trkpt>
      <trkpt lat="45.55881" lon="7.834357">
        <ele>433.83057</ele>
        <time>2024-10-13T11:58:10.000Z</time>
      </trkpt>
      <trkpt lat="45.558815" lon="7.834327">
        <ele>432.98553</ele>
        <time>2024-10-13T11:58:12.000Z</time>
      </trkpt>
      <trkpt lat="45.558827" lon="7.834292">
        <ele>432.13055</ele>
        <time>2024-10-13T11:58:14.000Z</time>
      </trkpt>
      <trkpt lat="45.55884" lon="7.834265">
        <ele>431.27557</ele>
        <time>2024-10-13T11:58:16.000Z</time>
      </trkpt>
      <trkpt lat="45.558852" lon="7.834243">
        <ele>430.40558</ele>
        <time>2024-10-13T11:58:18.000Z</time>
      </trkpt>
      <trkpt lat="45.558863" lon="7.83422">
        <ele>429.59058</ele>
        <time>2024-10-13T11:58:20.000Z</time>
      </trkpt>
      <trkpt lat="45.558883" lon="7.83422">
        <ele>428.78555</ele>
        <time>2024-10-13T11:58:23.000Z</time>
      </trkpt>
      <trkpt lat="45.5589" lon="7.8342">
        <ele>427.99554</ele>
        <time>2024-10-13T11:58:26.000Z</time>
      </trkpt>
      <trkpt lat="45.55891" lon="7.834178">
        <ele>427.25058</ele>
        <time>2024-10-13T11:58:28.000Z</time>
      </trkpt>
      <trkpt lat="45.55892" lon="7.834153">
        <ele>426.54559</ele>
        <time>2024-10-13T11:58:30.000Z</time>
      </trkpt>
      <trkpt lat="45.558933" lon="7.834133">
        <ele>425.8606</ele>
        <time>2024-10-13T11:58:33.000Z</time>
      </trkpt>
      <trkpt lat="45.55895" lon="7.834123">
        <ele>425.19061</ele>
        <time>2024-10-13T11:58:36.000Z</time>
      </trkpt>
      <trkpt lat="45.558977" lon="7.834122">
        <ele>424.55063</ele>
        <time>2024-10-13T11:58:39.000Z</time>
      </trkpt>
      <trkpt lat="45.559" lon="7.834125">
        <ele>423.94061</ele>
        <time>2024-10-13T11:58:41.000Z</time>
      </trkpt>
      <trkpt lat="45.559025" lon="7.834128">
        <ele>423.36563</ele>
        <time>2024-10-13T11:58:43.000Z</time>
      </trkpt>
      <trkpt lat="45.559047" lon="7.834118">
        <ele>422.82065</ele>
        <time>2024-10-13T11:58:45.000Z</time>
      </trkpt>
      <trkpt lat="45.55907" lon="7.834112">
        <ele>422.32562</ele>
        <time>2024-10-13T11:58:47.000Z</time>
      </trkpt>
      <trkpt lat="45.55909" lon="7.834117">
        <ele>421.86563</ele>
        <time>2024-10-13T11:58:49.000Z</time>
      </trkpt>
      <trkpt lat="45.559118" lon="7.834102">
        <ele>421.40561</ele>
        <time>2024-10-13T11:58:52.000Z</time>
      </trkpt>
      <trkpt lat="45.559147" lon="7.834093">
        <ele>420.96564</ele>
        <time>2024-10-13T11:58:55.000Z</time>
      </trkpt>
      <trkpt lat="45.559167" lon="7.834087">
        <ele>420.54559</ele>
        <time>2024-10-13T11:58:57.000Z</time>
      </trkpt>
      <trkpt lat="45.559187" lon="7.834085">
        <ele>420.15561</ele>
        <time>2024-10-13T11:58:59.000Z</time>
      </trkpt>
      <trkpt lat="45.559205" lon="7.834063">
        <ele>419.81561</ele>
        <time>2024-10-13T11:59:02.000Z</time>
      </trkpt>
      <trkpt lat="45.559215" lon="7.834042">
        <ele>419.5206</ele>
        <time>2024-10-13T11:59:05.000Z</time>
      </trkpt>
      <trkpt lat="45.559215" lon="7.834012">
        <ele>419.25064</ele>
        <time>2024-10-13T11:59:08.000Z</time>
      </trkpt>
      <trkpt lat="45.559213" lon="7.833978">
        <ele>418.99063</ele>
        <time>2024-10-13T11:59:11.000Z</time>
      </trkpt>
      <trkpt lat="45.559212" lon="7.833947">
        <ele>418.77563</ele>
        <time>2024-10-13T11:59:13.000Z</time>
      </trkpt>
      <trkpt lat="45.559207" lon="7.833915">
        <ele>418.61066</ele>
        <time>2024-10-13T11:59:15.000Z</time>
      </trkpt>
      <trkpt lat="45.559202" lon="7.833878">
        <ele>418.47565</ele>
        <time>2024-10-13T11:59:19.000Z</time>
      </trkpt>
      <trkpt lat="45.5592" lon="7.833842">
        <ele>418.37564</ele>
        <time>2024-10-13T11:59:22.000Z</time>
      </trkpt>
      <trkpt lat="45.559195" lon="7.833807">
        <ele>418.31561</ele>
        <time>2024-10-13T11:59:24.000Z</time>
      </trkpt>
      <trkpt lat="45.559187" lon="7.833782">
        <ele>418.27563</ele>
        <time>2024-10-13T11:59:26.000Z</time>
      </trkpt>
      <trkpt lat="45.559173" lon="7.833758">
        <ele>418.22565</ele>
        <time>2024-10-13T11:59:28.000Z</time>
      </trkpt>
      <trkpt lat="45.55916" lon="7.83373">
        <ele>418.13565</ele>
        <time>2024-10-13T11:59:30.000Z</time>
      </trkpt>
      <trkpt lat="45.559177" lon="7.83372">
        <ele>418.03061</ele>
        <time>2024-10-13T11:59:35.000Z</time>
      </trkpt>
      <trkpt lat="45.559197" lon="7.83372">
        <ele>417.86563</ele>
        <time>2024-10-13T11:59:40.000Z</time>
      </trkpt>
      <trkpt lat="45.559177" lon="7.83369">
        <ele>417.65561</ele>
        <time>2024-10-13T11:59:45.000Z</time>
      </trkpt>
      <trkpt lat="45.559178" lon="7.83366">
        <ele>417.41058</ele>
        <time>2024-10-13T11:59:47.000Z</time>
      </trkpt>
      <trkpt lat="45.5592" lon="7.833667">
        <ele>417.13055</ele>
        <time>2024-10-13T11:59:50.000Z</time>
      </trkpt>
      <trkpt lat="45.559213" lon="7.833697">
        <ele>416.79556</ele>
        <time>2024-10-13T11:59:53.000Z</time>
      </trkpt>
      <trkpt lat="45.559235" lon="7.833707">
        <ele>416.40558</ele>
        <time>2024-10-13T11:59:57.000Z</time>
      </trkpt>
      <trkpt lat="45.559262" lon="7.833717">
        <ele>415.99057</ele>
        <time>2024-10-13T12:00:00.000Z</time>
      </trkpt>
      <trkpt lat="45.559287" lon="7.833735">
        <ele>415.54059</ele>
        <time>2024-10-13T12:00:02.000Z</time>
      </trkpt>
      <trkpt lat="45.559315" lon="7.833727">
        <ele>415.03058</ele>
        <time>2024-10-13T12:00:07.000Z</time>
      </trkpt>
      <trkpt lat="45.559343" lon="7.833732">
        <ele>414.50555</ele>
        <time>2024-10-13T12:00:10.000Z</time>
      </trkpt>
      <trkpt lat="45.559323" lon="7.833723">
        <ele>414.00055</ele>
        <time>2024-10-13T12:00:16.000Z</time>
      </trkpt>
      <trkpt lat="45.559313" lon="7.83369">
        <ele>413.51056</ele>
        <time>2024-10-13T12:00:25.000Z</time>
      </trkpt>
      <trkpt lat="45.5593" lon="7.833662">
        <ele>413.02057</ele>
        <time>2024-10-13T12:00:28.000Z</time>
      </trkpt>
      <trkpt lat="45.559287" lon="7.833642">
        <ele>412.48553</ele>
        <time>2024-10-13T12:00:31.000Z</time>
      </trkpt>
      <trkpt lat="45.559278" lon="7.83361">
        <ele>411.89557</ele>
        <time>2024-10-13T12:00:33.000Z</time>
      </trkpt>
      <trkpt lat="45.559263" lon="7.833585">
        <ele>411.27057</ele>
        <time>2024-10-13T12:00:35.000Z</time>
      </trkpt>
      <trkpt lat="45.559245" lon="7.833562">
        <ele>410.62555</ele>
        <time>2024-10-13T12:00:38.000Z</time>
      </trkpt>
      <trkpt lat="45.559237" lon="7.83353">
        <ele>409.9455</ele>
        <time>2024-10-13T12:00:41.000Z</time>
      </trkpt>
      <trkpt lat="45.559243" lon="7.833502">
        <ele>409.30051</ele>
        <time>2024-10-13T12:00:43.000Z</time>
      </trkpt>
      <trkpt lat="45.559233" lon="7.833465">
        <ele>408.61551</ele>
        <time>2024-10-13T12:00:49.000Z</time>
      </trkpt>
      <trkpt lat="45.559225" lon="7.83344">
        <ele>407.92548</ele>
        <time>2024-10-13T12:00:53.000Z</time>
      </trkpt>
      <trkpt lat="45.559212" lon="7.83342">
        <ele>407.18048</ele>
        <time>2024-10-13T12:00:56.000Z</time>
      </trkpt>
      <trkpt lat="45.559212" lon="7.833382">
        <ele>406.39548</ele>
        <time>2024-10-13T12:00:59.000Z</time>
      </trkpt>
      <trkpt lat="45.559198" lon="7.833355">
        <ele>405.61047</ele>
        <time>2024-10-13T12:01:02.000Z</time>
      </trkpt>
      <trkpt lat="45.55919" lon="7.833325">
        <ele>404.83047</ele>
        <time>2024-10-13T12:01:04.000Z</time>
      </trkpt>
      <trkpt lat="45.559182" lon="7.833293">
        <ele>404.08047</ele>
        <time>2024-10-13T12:01:07.000Z</time>
      </trkpt>
      <trkpt lat="45.559182" lon="7.833263">
        <ele>403.36545</ele>
        <time>2024-10-13T12:01:09.000Z</time>
      </trkpt>
      <trkpt lat="45.55918" lon="7.833237">
        <ele>402.65045</ele>
        <time>2024-10-13T12:01:11.000Z</time>
      </trkpt>
      <trkpt lat="45.559173" lon="7.833203">
        <ele>401.93549</ele>
        <time>2024-10-13T12:01:14.000Z</time>
      </trkpt>
      <trkpt lat="45.559167" lon="7.833173">
        <ele>401.19049</ele>
        <time>2024-10-13T12:01:17.000Z</time>
      </trkpt>
      <trkpt lat="45.559153" lon="7.833152">
        <ele>400.41547</ele>
        <time>2024-10-13T12:01:19.000Z</time>
      </trkpt>
      <trkpt lat="45.559137" lon="7.833137">
        <ele>399.63049</ele>
        <time>2024-10-13T12:01:21.000Z</time>
      </trkpt>
      <trkpt lat="45.559135" lon="7.833108">
        <ele>398.81549</ele>
        <time>2024-10-13T12:01:24.000Z</time>
      </trkpt>
      <trkpt lat="45.559133" lon="7.833082">
        <ele>397.97052</ele>
        <time>2024-10-13T12:01:27.000Z</time>
      </trkpt>
      <trkpt lat="45.559122" lon="7.833052">
        <ele>397.12549</ele>
        <time>2024-10-13T12:01:29.000Z</time>
      </trkpt>
      <trkpt lat="45.559108" lon="7.833017">
        <ele>396.22549</ele>
        <time>2024-10-13T12:01:32.000Z</time>
      </trkpt>
      <trkpt lat="45.559093" lon="7.832985">
        <ele>395.24548</ele>
        <time>2024-10-13T12:01:35.000Z</time>
      </trkpt>
      <trkpt lat="45.559078" lon="7.832965">
        <ele>394.24548</ele>
        <time>2024-10-13T12:01:38.000Z</time>
      </trkpt>
      <trkpt lat="45.55907" lon="7.832935">
        <ele>393.15045</ele>
        <time>2024-10-13T12:01:42.000Z</time>
      </trkpt>
      <trkpt lat="45.55906" lon="7.832897">
        <ele>392.07047</ele>
        <time>2024-10-13T12:01:45.000Z</time>
      </trkpt>
      <trkpt lat="45.559057" lon="7.832863">
        <ele>391.00046</ele>
        <time>2024-10-13T12:01:47.000Z</time>
      </trkpt>
      <trkpt lat="45.55905" lon="7.832837">
        <ele>389.94547</ele>
        <time>2024-10-13T12:01:50.000Z</time>
      </trkpt>
      <trkpt lat="45.559045" lon="7.83281">
        <ele>388.90546</ele>
        <time>2024-10-13T12:01:52.000Z</time>
      </trkpt>
      <trkpt lat="45.559038" lon="7.83278">
        <ele>387.86548</ele>
        <time>2024-10-13T12:01:54.000Z</time>
      </trkpt>
      <trkpt lat="45.55904" lon="7.832747">
        <ele>386.80048</ele>
        <time>2024-10-13T12:01:58.000Z</time>
      </trkpt>
      <trkpt lat="45.55903" lon="7.832715">
        <ele>385.66547</ele>
        <time>2024-10-13T12:02:01.000Z</time>
      </trkpt>
      <trkpt lat="45.559025" lon="7.83269">
        <ele>384.48547</ele>
        <time>2024-10-13T12:02:04.000Z</time>
      </trkpt>
      <trkpt lat="45.559035" lon="7.832668">
        <ele>383.28546</ele>
        <time>2024-10-13T12:02:07.000Z</time>
      </trkpt>
      <trkpt lat="45.55902" lon="7.832635">
        <ele>382.08047</ele>
        <time>2024-10-13T12:02:09.000Z</time>
      </trkpt>
      <trkpt lat="45.55902" lon="7.832607">
        <ele>380.94049</ele>
        <time>2024-10-13T12:02:12.000Z</time>
      </trkpt>
      <trkpt lat="45.559" lon="7.832633">
        <ele>379.70047</ele>
        <time>2024-10-13T12:03:07.000Z</time>
      </trkpt>
      <trkpt lat="45.558983" lon="7.832623">
        <ele>378.52545</ele>
        <time>2024-10-13T12:03:09.000Z</time>
      </trkpt>
      <trkpt lat="45.558963" lon="7.832623">
        <ele>377.40546</ele>
        <time>2024-10-13T12:03:18.000Z</time>
      </trkpt>
      <trkpt lat="45.558943" lon="7.83261">
        <ele>376.40045</ele>
        <time>2024-10-13T12:03:20.000Z</time>
      </trkpt>
      <trkpt lat="45.558922" lon="7.832588">
        <ele>375.46548</ele>
        <time>2024-10-13T12:03:22.000Z</time>
      </trkpt>
      <trkpt lat="45.558905" lon="7.832567">
        <ele>374.64047</ele>
        <time>2024-10-13T12:03:24.000Z</time>
      </trkpt>
      <trkpt lat="45.558888" lon="7.832547">
        <ele>373.94049</ele>
        <time>2024-10-13T12:03:26.000Z</time>
      </trkpt>
      <trkpt lat="45.558892" lon="7.832503">
        <ele>373.34048</ele>
        <time>2024-10-13T12:03:29.000Z</time>
      </trkpt>
      <trkpt lat="45.558885" lon="7.832458">
        <ele>372.86548</ele>
        <time>2024-10-13T12:03:31.000Z</time>
      </trkpt>
      <trkpt lat="45.558882" lon="7.832425">
        <ele>372.46548</ele>
        <time>2024-10-13T12:03:33.000Z</time>
      </trkpt>
      <trkpt lat="45.558877" lon="7.832387">
        <ele>372.11548</ele>
        <time>2024-10-13T12:03:35.000Z</time>
      </trkpt>
      <trkpt lat="45.55889" lon="7.83235">
        <ele>371.81549</ele>
        <time>2024-10-13T12:03:37.000Z</time>
      </trkpt>
      <trkpt lat="45.558885" lon="7.832302">
        <ele>371.63547</ele>
        <time>2024-10-13T12:03:39.000Z</time>
      </trkpt>
      <trkpt lat="45.558888" lon="7.832268">
        <ele>371.58548</ele>
        <time>2024-10-13T12:03:41.000Z</time>
      </trkpt>
      <trkpt lat="45.558908" lon="7.832258">
        <ele>371.61548</ele>
        <time>2024-10-13T12:03:43.000Z</time>
      </trkpt>
      <trkpt lat="45.558925" lon="7.832242">
        <ele>371.74048</ele>
        <time>2024-10-13T12:03:45.000Z</time>
      </trkpt>
      <trkpt lat="45.558945" lon="7.832232">
        <ele>371.92047</ele>
        <time>2024-10-13T12:03:47.000Z</time>
      </trkpt>
      <trkpt lat="45.558928" lon="7.832202">
        <ele>372.16547</ele>
        <time>2024-10-13T12:03:49.000Z</time>
      </trkpt>
      <trkpt lat="45.558922" lon="7.832163">
        <ele>372.49048</ele>
        <time>2024-10-13T12:03:51.000Z</time>
      </trkpt>
      <trkpt lat="45.558928" lon="7.832122">
        <ele>372.81549</ele>
        <time>2024-10-13T12:03:53.000Z</time>
      </trkpt>
      <trkpt lat="45.558917" lon="7.832092">
        <ele>373.25549</ele>
        <time>2024-10-13T12:03:55.000Z</time>
      </trkpt>
      <trkpt lat="45.55893" lon="7.832057">
        <ele>373.62048</ele>
        <time>2024-10-13T12:04:00.000Z</time>
      </trkpt>
      <trkpt lat="45.558945" lon="7.83203">
        <ele>373.98047</ele>
        <time>2024-10-13T12:04:03.000Z</time>
      </trkpt>
      <trkpt lat="45.558955" lon="7.832007">
        <ele>374.29047</ele>
        <time>2024-10-13T12:04:05.000Z</time>
      </trkpt>
      <trkpt lat="45.558957" lon="7.831967">
        <ele>374.5705</ele>
        <time>2024-10-13T12:04:07.000Z</time>
      </trkpt>
      <trkpt lat="45.55897" lon="7.831943">
        <ele>374.79047</ele>
        <time>2024-10-13T12:04:09.000Z</time>
      </trkpt>
      <trkpt lat="45.558978" lon="7.831902">
        <ele>374.96548</ele>
        <time>2024-10-13T12:04:12.000Z</time>
      </trkpt>
      <trkpt lat="45.558987" lon="7.831867">
        <ele>375.0705</ele>
        <time>2024-10-13T12:04:14.000Z</time>
      </trkpt>
      <trkpt lat="45.558997" lon="7.831835">
        <ele>375.1055</ele>
        <time>2024-10-13T12:04:16.000Z</time>
      </trkpt>
      <trkpt lat="45.558997" lon="7.831787">
        <ele>375.09052</ele>
        <time>2024-10-13T12:04:18.000Z</time>
      </trkpt>
      <trkpt lat="45.559" lon="7.831743">
        <ele>375.06549</ele>
        <time>2024-10-13T12:04:20.000Z</time>
      </trkpt>
      <trkpt lat="45.559003" lon="7.831705">
        <ele>375.03049</ele>
        <time>2024-10-13T12:04:23.000Z</time>
      </trkpt>
      <trkpt lat="45.558997" lon="7.831662">
        <ele>374.90048</ele>
        <time>2024-10-13T12:04:25.000Z</time>
      </trkpt>
      <trkpt lat="45.558982" lon="7.831642">
        <ele>374.68048</ele>
        <time>2024-10-13T12:04:26.000Z</time>
      </trkpt>
      <trkpt lat="45.558987" lon="7.831608">
        <ele>374.46048</ele>
        <time>2024-10-13T12:04:28.000Z</time>
      </trkpt>
      <trkpt lat="45.558995" lon="7.831572">
        <ele>374.24548</ele>
        <time>2024-10-13T12:04:30.000Z</time>
      </trkpt>
      <trkpt lat="45.559007" lon="7.83155">
        <ele>374.02048</ele>
        <time>2024-10-13T12:04:31.000Z</time>
      </trkpt>
      <trkpt lat="45.559015" lon="7.831525">
        <ele>373.71548</ele>
        <time>2024-10-13T12:04:32.000Z</time>
      </trkpt>
      <trkpt lat="45.55902" lon="7.831495">
        <ele>373.34048</ele>
        <time>2024-10-13T12:04:33.000Z</time>
      </trkpt>
      <trkpt lat="45.559018" lon="7.831468">
        <ele>372.91046</ele>
        <time>2024-10-13T12:04:34.000Z</time>
      </trkpt>
      <trkpt lat="45.559017" lon="7.831442">
        <ele>372.42548</ele>
        <time>2024-10-13T12:04:35.000Z</time>
      </trkpt>
      <trkpt lat="45.559023" lon="7.831413">
        <ele>371.91547</ele>
        <time>2024-10-13T12:04:36.000Z</time>
      </trkpt>
      <trkpt lat="45.55903" lon="7.831388">
        <ele>371.36047</ele>
        <time>2024-10-13T12:04:37.000Z</time>
      </trkpt>
      <trkpt lat="45.559028" lon="7.831362">
        <ele>370.77545</ele>
        <time>2024-10-13T12:04:38.000Z</time>
      </trkpt>
      <trkpt lat="45.559038" lon="7.831315">
        <ele>370.15546</ele>
        <time>2024-10-13T12:04:40.000Z</time>
      </trkpt>
      <trkpt lat="45.559037" lon="7.831277">
        <ele>369.60043</ele>
        <time>2024-10-13T12:04:42.000Z</time>
      </trkpt>
      <trkpt lat="45.55901" lon="7.83125">
        <ele>369.05545</ele>
        <time>2024-10-13T12:04:44.000Z</time>
      </trkpt>
      <trkpt lat="45.55899" lon="7.831227">
        <ele>368.52545</ele>
        <time>2024-10-13T12:04:46.000Z</time>
      </trkpt>
      <trkpt lat="45.558965" lon="7.83122">
        <ele>368.00043</ele>
        <time>2024-10-13T12:04:48.000Z</time>
      </trkpt>
      <trkpt lat="45.558942" lon="7.831222">
        <ele>367.47543</ele>
        <time>2024-10-13T12:04:52.000Z</time>
      </trkpt>
      <trkpt lat="45.558913" lon="7.831218">
        <ele>366.97043</ele>
        <time>2024-10-13T12:04:57.000Z</time>
      </trkpt>
      <trkpt lat="45.558885" lon="7.831222">
        <ele>366.46045</ele>
        <time>2024-10-13T12:05:00.000Z</time>
      </trkpt>
      <trkpt lat="45.558865" lon="7.831227">
        <ele>365.93546</ele>
        <time>2024-10-13T12:05:02.000Z</time>
      </trkpt>
      <trkpt lat="45.55884" lon="7.831252">
        <ele>365.37042</ele>
        <time>2024-10-13T12:05:04.000Z</time>
      </trkpt>
      <trkpt lat="45.558817" lon="7.831253">
        <ele>364.77045</ele>
        <time>2024-10-13T12:05:06.000Z</time>
      </trkpt>
      <trkpt lat="45.558792" lon="7.831243">
        <ele>364.12042</ele>
        <time>2024-10-13T12:05:10.000Z</time>
      </trkpt>
      <trkpt lat="45.558765" lon="7.831215">
        <ele>363.46045</ele>
        <time>2024-10-13T12:05:12.000Z</time>
      </trkpt>
      <trkpt lat="45.558743" lon="7.83118">
        <ele>362.83044</ele>
        <time>2024-10-13T12:05:14.000Z</time>
      </trkpt>
      <trkpt lat="45.558725" lon="7.831172">
        <ele>362.24542</ele>
        <time>2024-10-13T12:05:15.000Z</time>
      </trkpt>
      <trkpt lat="45.558698" lon="7.831178">
        <ele>361.72043</ele>
        <time>2024-10-13T12:05:17.000Z</time>
      </trkpt>
      <trkpt lat="45.558668" lon="7.831213">
        <ele>361.27045</ele>
        <time>2024-10-13T12:05:19.000Z</time>
      </trkpt>
      <trkpt lat="45.558647" lon="7.831227">
        <ele>360.84543</ele>
        <time>2024-10-13T12:05:20.000Z</time>
      </trkpt>
      <trkpt lat="45.55863" lon="7.831237">
        <ele>360.44543</ele>
        <time>2024-10-13T12:05:21.000Z</time>
      </trkpt>
      <trkpt lat="45.558608" lon="7.831252">
        <ele>360.03543</ele>
        <time>2024-10-13T12:05:22.000Z</time>
      </trkpt>
      <trkpt lat="45.558583" lon="7.831267">
        <ele>359.61041</ele>
        <time>2024-10-13T12:05:23.000Z</time>
      </trkpt>
      <trkpt lat="45.558567" lon="7.831277">
        <ele>359.11542</ele>
        <time>2024-10-13T12:05:24.000Z</time>
      </trkpt>
      <trkpt lat="45.558548" lon="7.831282">
        <ele>358.63544</ele>
        <time>2024-10-13T12:05:26.000Z</time>
      </trkpt>
      <trkpt lat="45.558572" lon="7.831293">
        <ele>358.1954</ele>
        <time>2024-10-13T12:05:30.000Z</time>
      </trkpt>
      <trkpt lat="45.558562" lon="7.831267">
        <ele>357.79541</ele>
        <time>2024-10-13T12:05:33.000Z</time>
      </trkpt>
      <trkpt lat="45.558547" lon="7.831243">
        <ele>357.46539</ele>
        <time>2024-10-13T12:05:35.000Z</time>
      </trkpt>
      <trkpt lat="45.558537" lon="7.831217">
        <ele>357.14542</ele>
        <time>2024-10-13T12:05:37.000Z</time>
      </trkpt>
      <trkpt lat="45.558532" lon="7.831182">
        <ele>356.84039</ele>
        <time>2024-10-13T12:05:46.000Z</time>
      </trkpt>
      <trkpt lat="45.558465" lon="7.831272">
        <ele>356.60541</ele>
        <time>2024-10-13T12:06:09.000Z</time>
      </trkpt>
      <trkpt lat="45.558453" lon="7.831297">
        <ele>356.42041</ele>
        <time>2024-10-13T12:06:11.000Z</time>
      </trkpt>
      <trkpt lat="45.558448" lon="7.831332">
        <ele>356.26544</ele>
        <time>2024-10-13T12:06:13.000Z</time>
      </trkpt>
      <trkpt lat="45.558453" lon="7.831357">
        <ele>356.14545</ele>
        <time>2024-10-13T12:06:14.000Z</time>
      </trkpt>
      <trkpt lat="45.558438" lon="7.831387">
        <ele>356.02542</ele>
        <time>2024-10-13T12:06:17.000Z</time>
      </trkpt>
      <trkpt lat="45.558423" lon="7.831405">
        <ele>355.92542</ele>
        <time>2024-10-13T12:06:20.000Z</time>
      </trkpt>
      <trkpt lat="45.558398" lon="7.831407">
        <ele>355.85541</ele>
        <time>2024-10-13T12:06:22.000Z</time>
      </trkpt>
      <trkpt lat="45.55838" lon="7.831405">
        <ele>355.78043</ele>
        <time>2024-10-13T12:06:23.000Z</time>
      </trkpt>
      <trkpt lat="45.558365" lon="7.83142">
        <ele>355.70041</ele>
        <time>2024-10-13T12:06:24.000Z</time>
      </trkpt>
      <trkpt lat="45.558337" lon="7.831408">
        <ele>355.64044</ele>
        <time>2024-10-13T12:06:26.000Z</time>
      </trkpt>
      <trkpt lat="45.558318" lon="7.831407">
        <ele>355.65042</ele>
        <time>2024-10-13T12:06:29.000Z</time>
      </trkpt>
      <trkpt lat="45.558293" lon="7.831423">
        <ele>355.76044</ele>
        <time>2024-10-13T12:06:31.000Z</time>
      </trkpt>
      <trkpt lat="45.558277" lon="7.831433">
        <ele>355.95544</ele>
        <time>2024-10-13T12:06:32.000Z</time>
      </trkpt>
      <trkpt lat="45.558263" lon="7.831455">
        <ele>356.22543</ele>
        <time>2024-10-13T12:06:33.000Z</time>
      </trkpt>
      <trkpt lat="45.558243" lon="7.831468">
        <ele>356.54544</ele>
        <time>2024-10-13T12:06:34.000Z</time>
      </trkpt>
      <trkpt lat="45.55822" lon="7.831483">
        <ele>356.89044</ele>
        <time>2024-10-13T12:06:35.000Z</time>
      </trkpt>
      <trkpt lat="45.558195" lon="7.831485">
        <ele>357.26544</ele>
        <time>2024-10-13T12:06:36.000Z</time>
      </trkpt>
      <trkpt lat="45.558175" lon="7.831482">
        <ele>357.65546</ele>
        <time>2024-10-13T12:06:37.000Z</time>
      </trkpt>
      <trkpt lat="45.558155" lon="7.83149">
        <ele>358.06549</ele>
        <time>2024-10-13T12:06:38.000Z</time>
      </trkpt>
      <trkpt lat="45.558133" lon="7.8315">
        <ele>358.51547</ele>
        <time>2024-10-13T12:06:39.000Z</time>
      </trkpt>
      <trkpt lat="45.558112" lon="7.831502">
        <ele>358.95551</ele>
        <time>2024-10-13T12:06:40.000Z</time>
      </trkpt>
      <trkpt lat="45.558092" lon="7.831508">
        <ele>359.44049</ele>
        <time>2024-10-13T12:06:41.000Z</time>
      </trkpt>
      <trkpt lat="45.558072" lon="7.83151">
        <ele>359.96048</ele>
        <time>2024-10-13T12:06:42.000Z</time>
      </trkpt>
      <trkpt lat="45.558047" lon="7.831513">
        <ele>360.52045</ele>
        <time>2024-10-13T12:06:43.000Z</time>
      </trkpt>
      <trkpt lat="45.558025" lon="7.831518">
        <ele>361.13547</ele>
        <time>2024-10-13T12:06:44.000Z</time>
      </trkpt>
      <trkpt lat="45.558003" lon="7.83152">
        <ele>361.79047</ele>
        <time>2024-10-13T12:06:45.000Z</time>
      </trkpt>
      <trkpt lat="45.557978" lon="7.831512">
        <ele>362.47049</ele>
        <time>2024-10-13T12:06:46.000Z</time>
      </trkpt>
      <trkpt lat="45.557948" lon="7.831503">
        <ele>363.1955</ele>
        <time>2024-10-13T12:06:48.000Z</time>
      </trkpt>
      <trkpt lat="45.55793" lon="7.831503">
        <ele>363.95551</ele>
        <time>2024-10-13T12:06:50.000Z</time>
      </trkpt>
      <trkpt lat="45.557908" lon="7.831508">
        <ele>364.7305</ele>
        <time>2024-10-13T12:06:52.000Z</time>
      </trkpt>
      <trkpt lat="45.557887" lon="7.831518">
        <ele>365.4155</ele>
        <time>2024-10-13T12:06:54.000Z</time>
      </trkpt>
      <trkpt lat="45.557863" lon="7.831537">
        <ele>366.00052</ele>
        <time>2024-10-13T12:06:56.000Z</time>
      </trkpt>
      <trkpt lat="45.557858" lon="7.831567">
        <ele>366.50549</ele>
        <time>2024-10-13T12:06:58.000Z</time>
      </trkpt>
      <trkpt lat="45.557863" lon="7.831608">
        <ele>366.92551</ele>
        <time>2024-10-13T12:07:01.000Z</time>
      </trkpt>
      <trkpt lat="45.55787" lon="7.831635">
        <ele>367.1655</ele>
        <time>2024-10-13T12:07:05.000Z</time>
      </trkpt>
    </trkseg>
  </trk>
</gpx>